<?xml version="1.0" encoding="UTF-8"?>
<gpx version="1.0" creator="Trackator" xmlns:xsi="http://www.w3.org/2001/XMLSchema-instance" xmlns="http://www.topografix.com/GPX/1/0" xmlns:topografix="http://www.topografix.com/GPX/Private/TopoGrafix/0/1" xsi:schemaLocation="http://www.topografix.com/GPX/1/0 http://www.topografix.com/GPX/1/0/gpx.xsd http://www.topografix.com/GPX/Private/TopoGrafix/0/1 http://www.topografix.com/GPX/Private/TopoGrafix/0/1/topografix.xsd">
<metadata>
<link href="http://www.trackator.com">
<text>Trackator</text>
</link>
</metadata>
<time>2014-06-28T:55:15Z</time>
<trk>
<name>Track: </name>
<desc>Hiking</desc>
<trkseg>
<trkpt lat="38.44556611475814" lon="-0.8504984952644692">
<ele>485</ele>
<time>2014-06-28T:55:15Z</time>
</trkpt>
<trkpt lat="38.44556611475814" lon="-0.8504984952644692">
<ele>485</ele>
<time>2014-06-28T09:55:16Z</time>
</trkpt>
<trkpt lat="38.44556611475814" lon="-0.8504984952644692">
<ele>485</ele>
<time>2014-06-28T09:55:17Z</time>
</trkpt>
<trkpt lat="38.445656304547356" lon="-0.8505343747485917">
<ele>483</ele>
<time>2014-06-28T09:55:18Z</time>
</trkpt>
<trkpt lat="38.445656304547356" lon="-0.8505343747485917">
<ele>483</ele>
<time>2014-06-28T09:55:19Z</time>
</trkpt>
<trkpt lat="38.445656304547356" lon="-0.8505343747485917">
<ele>483</ele>
<time>2014-06-28T09:55:20Z</time>
</trkpt>
<trkpt lat="38.44575279966778" lon="-0.8505757540781118">
<ele>486</ele>
<time>2014-06-28T09:55:21Z</time>
</trkpt>
<trkpt lat="38.44575279966778" lon="-0.8505757540781118">
<ele>486</ele>
<time>2014-06-28T09:55:22Z</time>
</trkpt>
<trkpt lat="38.4458379910714" lon="-0.850651630056561">
<ele>489</ele>
<time>2014-06-28T09:55:23Z</time>
</trkpt>
<trkpt lat="38.4458379910714" lon="-0.850651630056561">
<ele>489</ele>
<time>2014-06-28T09:55:24Z</time>
</trkpt>
<trkpt lat="38.4458379910714" lon="-0.850651630056561">
<ele>489</ele>
<time>2014-06-28T09:55:25Z</time>
</trkpt>
<trkpt lat="38.445905412131644" lon="-0.8507587832325961">
<ele>489</ele>
<time>2014-06-28T09:55:27Z</time>
</trkpt>
<trkpt lat="38.445905412131644" lon="-0.8507587832325961">
<ele>489</ele>
<time>2014-06-28T09:55:28Z</time>
</trkpt>
<trkpt lat="38.445905412131644" lon="-0.8507587832325961">
<ele>489</ele>
<time>2014-06-28T09:55:29Z</time>
</trkpt>
<trkpt lat="38.445905412131644" lon="-0.8507587832325961">
<ele>489</ele>
<time>2014-06-28T09:55:30Z</time>
</trkpt>
<trkpt lat="38.445905412131644" lon="-0.8507587832325961">
<ele>489</ele>
<time>2014-06-28T09:55:31Z</time>
</trkpt>
<trkpt lat="38.445905412131644" lon="-0.8507587832325961">
<ele>489</ele>
<time>2014-06-28T09:55:32Z</time>
</trkpt>
<trkpt lat="38.445905412131644" lon="-0.8507587832325961">
<ele>489</ele>
<time>2014-06-28T09:55:33Z</time>
</trkpt>
<trkpt lat="38.445905412131644" lon="-0.8507587832325961">
<ele>489</ele>
<time>2014-06-28T09:55:34Z</time>
</trkpt>
<trkpt lat="38.44589513147435" lon="-0.8508871404704852">
<ele>487</ele>
<time>2014-06-28T09:55:35Z</time>
</trkpt>
<trkpt lat="38.44589513147435" lon="-0.8508871404704852">
<ele>487</ele>
<time>2014-06-28T09:55:36Z</time>
</trkpt>
<trkpt lat="38.44589513147435" lon="-0.8508871404704852">
<ele>487</ele>
<time>2014-06-28T09:55:39Z</time>
</trkpt>
<trkpt lat="38.44588595083655" lon="-0.8509899320793213">
<ele>486</ele>
<time>2014-06-28T09:55:41Z</time>
</trkpt>
<trkpt lat="38.44587584857889" lon="-0.8510076982978175">
<ele>486</ele>
<time>2014-06-28T09:55:42Z</time>
</trkpt>
<trkpt lat="38.44586776827877" lon="-0.851025373241001">
<ele>486</ele>
<time>2014-06-28T09:55:43Z</time>
</trkpt>
<trkpt lat="38.44586124238553" lon="-0.8510431251160119">
<ele>486</ele>
<time>2014-06-28T09:55:44Z</time>
</trkpt>
<trkpt lat="38.445857304224944" lon="-0.8510620539225613">
<ele>486</ele>
<time>2014-06-28T09:55:45Z</time>
</trkpt>
<trkpt lat="38.445857304224944" lon="-0.8510620539225613">
<ele>486</ele>
<time>2014-06-28T09:55:46Z</time>
</trkpt>
<trkpt lat="38.445877372617105" lon="-0.8510721210207122">
<ele>487</ele>
<time>2014-06-28T09:55:47Z</time>
</trkpt>
<trkpt lat="38.44588360302018" lon="-0.8510819430195001">
<ele>487</ele>
<time>2014-06-28T09:55:48Z</time>
</trkpt>
<trkpt lat="38.445870911127116" lon="-0.8511059289829065">
<ele>487</ele>
<time>2014-06-28T09:55:49Z</time>
</trkpt>
<trkpt lat="38.44584960293266" lon="-0.8511400166048813">
<ele>487</ele>
<time>2014-06-28T09:55:50Z</time>
</trkpt>
<trkpt lat="38.44582402119571" lon="-0.8511679150017395">
<ele>487</ele>
<time>2014-06-28T09:55:51Z</time>
</trkpt>
<trkpt lat="38.44579900813694" lon="-0.8511949490336639">
<ele>487</ele>
<time>2014-06-28T09:55:52Z</time>
</trkpt>
<trkpt lat="38.44577178214935" lon="-0.8512270093833124">
<ele>487</ele>
<time>2014-06-28T09:55:53Z</time>
</trkpt>
<trkpt lat="38.445750939733266" lon="-0.8512550477931722">
<ele>487</ele>
<time>2014-06-28T09:55:54Z</time>
</trkpt>
<trkpt lat="38.44573253616115" lon="-0.851281039151441">
<ele>487</ele>
<time>2014-06-28T09:55:55Z</time>
</trkpt>
<trkpt lat="38.44571390322732" lon="-0.8513089865760508">
<ele>487</ele>
<time>2014-06-28T09:55:56Z</time>
</trkpt>
<trkpt lat="38.44569477177514" lon="-0.8513356733606212">
<ele>487</ele>
<time>2014-06-28T09:55:57Z</time>
</trkpt>
<trkpt lat="38.44567105450687" lon="-0.8513601371729145">
<ele>487</ele>
<time>2014-06-28T09:55:58Z</time>
</trkpt>
<trkpt lat="38.445640669403396" lon="-0.8513774225845467">
<ele>487</ele>
<time>2014-06-28T09:55:59Z</time>
</trkpt>
<trkpt lat="38.44563048099587" lon="-0.8513947998390864">
<ele>487</ele>
<time>2014-06-28T09:56:00Z</time>
</trkpt>
<trkpt lat="38.445621935622924" lon="-0.8514060328901372">
<ele>487</ele>
<time>2014-06-28T09:56:01Z</time>
</trkpt>
<trkpt lat="38.44561434678223" lon="-0.8514146349439211">
<ele>487</ele>
<time>2014-06-28T09:56:02Z</time>
</trkpt>
<trkpt lat="38.445611446409444" lon="-0.8514240781395331">
<ele>487</ele>
<time>2014-06-28T09:56:03Z</time>
</trkpt>
<trkpt lat="38.445608173996625" lon="-0.8514356360298303">
<ele>487</ele>
<time>2014-06-28T09:56:04Z</time>
</trkpt>
<trkpt lat="38.445608609976006" lon="-0.8514476746957887">
<ele>487</ele>
<time>2014-06-28T09:56:05Z</time>
</trkpt>
<trkpt lat="38.44560823058049" lon="-0.851461560668105">
<ele>487</ele>
<time>2014-06-28T09:56:06Z</time>
</trkpt>
<trkpt lat="38.4456074816222" lon="-0.8514762227198515">
<ele>487</ele>
<time>2014-06-28T09:56:07Z</time>
</trkpt>
<trkpt lat="38.44560744518472" lon="-0.8514895787527751">
<ele>487</ele>
<time>2014-06-28T09:56:08Z</time>
</trkpt>
<trkpt lat="38.44560482305771" lon="-0.8515044646823661">
<ele>487</ele>
<time>2014-06-28T09:56:09Z</time>
</trkpt>
<trkpt lat="38.44560306918378" lon="-0.8515187607350838">
<ele>487</ele>
<time>2014-06-28T09:56:10Z</time>
</trkpt>
<trkpt lat="38.44560853852391" lon="-0.8515416092676351">
<ele>487</ele>
<time>2014-06-28T09:56:12Z</time>
</trkpt>
<trkpt lat="38.44560987681667" lon="-0.8515547211654297">
<ele>487</ele>
<time>2014-06-28T09:56:13Z</time>
</trkpt>
<trkpt lat="38.44561052653024" lon="-0.8515677245775166">
<ele>487</ele>
<time>2014-06-28T09:56:14Z</time>
</trkpt>
<trkpt lat="38.44560846526714" lon="-0.8516505549646491">
<ele>487</ele>
<time>2014-06-28T09:56:19Z</time>
</trkpt>
<trkpt lat="38.44560666267671" lon="-0.8516662159406581">
<ele>487</ele>
<time>2014-06-28T09:56:20Z</time>
</trkpt>
<trkpt lat="38.445603377793425" lon="-0.8516983308160578">
<ele>487</ele>
<time>2014-06-28T09:56:22Z</time>
</trkpt>
<trkpt lat="38.44560306856791" lon="-0.8517125082363153">
<ele>487</ele>
<time>2014-06-28T09:56:23Z</time>
</trkpt>
<trkpt lat="38.44560422391377" lon="-0.8517257864186174">
<ele>487</ele>
<time>2014-06-28T09:56:24Z</time>
</trkpt>
<trkpt lat="38.445604862509526" lon="-0.8517395723956522">
<ele>487</ele>
<time>2014-06-28T09:56:25Z</time>
</trkpt>
<trkpt lat="38.44560488467101" lon="-0.851753581479791">
<ele>487</ele>
<time>2014-06-28T09:56:26Z</time>
</trkpt>
<trkpt lat="38.44560302516628" lon="-0.8517682662602898">
<ele>487</ele>
<time>2014-06-28T09:56:27Z</time>
</trkpt>
<trkpt lat="38.445602429044456" lon="-0.8517835658136192">
<ele>487</ele>
<time>2014-06-28T09:56:28Z</time>
</trkpt>
<trkpt lat="38.44560090556704" lon="-0.8517991744768265">
<ele>487</ele>
<time>2014-06-28T09:56:29Z</time>
</trkpt>
<trkpt lat="38.44559916859722" lon="-0.8518141476467126">
<ele>487</ele>
<time>2014-06-28T09:56:30Z</time>
</trkpt>
<trkpt lat="38.445597858195406" lon="-0.8518294279233758">
<ele>487</ele>
<time>2014-06-28T09:56:31Z</time>
</trkpt>
<trkpt lat="38.44559702264226" lon="-0.851845017469756">
<ele>487</ele>
<time>2014-06-28T09:56:32Z</time>
</trkpt>
<trkpt lat="38.445595173580884" lon="-0.8518605933363328">
<ele>487</ele>
<time>2014-06-28T09:56:33Z</time>
</trkpt>
<trkpt lat="38.44559365409768" lon="-0.8518763548226704">
<ele>487</ele>
<time>2014-06-28T09:56:34Z</time>
</trkpt>
<trkpt lat="38.445592116756146" lon="-0.8518927946270723">
<ele>487</ele>
<time>2014-06-28T09:56:35Z</time>
</trkpt>
<trkpt lat="38.44559087297972" lon="-0.8519104619876993">
<ele>487</ele>
<time>2014-06-28T09:56:36Z</time>
</trkpt>
<trkpt lat="38.44559018989654" lon="-0.8519279083670438">
<ele>487</ele>
<time>2014-06-28T09:56:37Z</time>
</trkpt>
<trkpt lat="38.44559211627287" lon="-0.8519454853588466">
<ele>487</ele>
<time>2014-06-28T09:56:38Z</time>
</trkpt>
<trkpt lat="38.445592743867394" lon="-0.8519608168002375">
<ele>487</ele>
<time>2014-06-28T09:56:39Z</time>
</trkpt>
<trkpt lat="38.44559376520624" lon="-0.8519780959950607">
<ele>487</ele>
<time>2014-06-28T09:56:40Z</time>
</trkpt>
<trkpt lat="38.445592085436" lon="-0.8519961642978575">
<ele>487</ele>
<time>2014-06-28T09:56:41Z</time>
</trkpt>
<trkpt lat="38.44558900183385" lon="-0.8520134602808238">
<ele>487</ele>
<time>2014-06-28T09:56:42Z</time>
</trkpt>
<trkpt lat="38.44558664334231" lon="-0.852044068831295">
<ele>487</ele>
<time>2014-06-28T09:56:44Z</time>
</trkpt>
<trkpt lat="38.44558748395396" lon="-0.8520552802120099">
<ele>487</ele>
<time>2014-06-28T09:56:45Z</time>
</trkpt>
<trkpt lat="38.44558889404687" lon="-0.8520658352062879">
<ele>487</ele>
<time>2014-06-28T09:56:46Z</time>
</trkpt>
<trkpt lat="38.44558883884861" lon="-0.8520752699926971">
<ele>487</ele>
<time>2014-06-28T09:56:47Z</time>
</trkpt>
<trkpt lat="38.44558892115039" lon="-0.8520856681072793">
<ele>487</ele>
<time>2014-06-28T09:56:48Z</time>
</trkpt>
<trkpt lat="38.44558785906122" lon="-0.8520969716464134">
<ele>487</ele>
<time>2014-06-28T09:56:49Z</time>
</trkpt>
<trkpt lat="38.44558821328114" lon="-0.8521141621832543">
<ele>487</ele>
<time>2014-06-28T09:56:50Z</time>
</trkpt>
<trkpt lat="38.44558837446504" lon="-0.8521329432396252">
<ele>487</ele>
<time>2014-06-28T09:56:51Z</time>
</trkpt>
<trkpt lat="38.44559123691958" lon="-0.8521424203995701">
<ele>487</ele>
<time>2014-06-28T09:56:52Z</time>
</trkpt>
<trkpt lat="38.445594745973175" lon="-0.8521517459885763">
<ele>487</ele>
<time>2014-06-28T09:56:53Z</time>
</trkpt>
<trkpt lat="38.44560229625498" lon="-0.8521648188559128">
<ele>487</ele>
<time>2014-06-28T09:56:54Z</time>
</trkpt>
<trkpt lat="38.44560895090931" lon="-0.8521783423053501">
<ele>487</ele>
<time>2014-06-28T09:56:55Z</time>
</trkpt>
<trkpt lat="38.445614145271314" lon="-0.8521926665701566">
<ele>488</ele>
<time>2014-06-28T09:56:56Z</time>
</trkpt>
<trkpt lat="38.445618291071014" lon="-0.8522091868580461">
<ele>488</ele>
<time>2014-06-28T09:56:57Z</time>
</trkpt>
<trkpt lat="38.44561879604295" lon="-0.8522311167782141">
<ele>488</ele>
<time>2014-06-28T09:56:58Z</time>
</trkpt>
<trkpt lat="38.445621504528646" lon="-0.8522550539622749">
<ele>488</ele>
<time>2014-06-28T09:56:59Z</time>
</trkpt>
<trkpt lat="38.44562280819631" lon="-0.8522777366023105">
<ele>488</ele>
<time>2014-06-28T09:57:00Z</time>
</trkpt>
<trkpt lat="38.445625032520795" lon="-0.8523006303795945">
<ele>488</ele>
<time>2014-06-28T09:57:01Z</time>
</trkpt>
<trkpt lat="38.44562851405437" lon="-0.8523165108113295">
<ele>488</ele>
<time>2014-06-28T09:57:02Z</time>
</trkpt>
<trkpt lat="38.4456322769107" lon="-0.8523312650900422">
<ele>488</ele>
<time>2014-06-28T09:57:03Z</time>
</trkpt>
<trkpt lat="38.4456351723896" lon="-0.8523459657760638">
<ele>488</ele>
<time>2014-06-28T09:57:04Z</time>
</trkpt>
<trkpt lat="38.44563800071339" lon="-0.8523578024208086">
<ele>488</ele>
<time>2014-06-28T09:57:05Z</time>
</trkpt>
<trkpt lat="38.445641076940035" lon="-0.8523772830848264">
<ele>488</ele>
<time>2014-06-28T09:57:06Z</time>
</trkpt>
<trkpt lat="38.4456472445489" lon="-0.852395926408496">
<ele>488</ele>
<time>2014-06-28T09:57:07Z</time>
</trkpt>
<trkpt lat="38.445651264314115" lon="-0.8524144511535161">
<ele>488</ele>
<time>2014-06-28T09:57:08Z</time>
</trkpt>
<trkpt lat="38.44565581510445" lon="-0.8524311691275543">
<ele>488</ele>
<time>2014-06-28T09:57:09Z</time>
</trkpt>
<trkpt lat="38.445663659313375" lon="-0.8524486510637473">
<ele>488</ele>
<time>2014-06-28T09:57:10Z</time>
</trkpt>
<trkpt lat="38.44567049380254" lon="-0.8524646769760813">
<ele>488</ele>
<time>2014-06-28T09:57:11Z</time>
</trkpt>
<trkpt lat="38.44567678255707" lon="-0.8524817003131265">
<ele>488</ele>
<time>2014-06-28T09:57:12Z</time>
</trkpt>
<trkpt lat="38.445675990697424" lon="-0.8525075212476714">
<ele>488</ele>
<time>2014-06-28T09:57:13Z</time>
</trkpt>
<trkpt lat="38.44567507082646" lon="-0.8525330153335337">
<ele>488</ele>
<time>2014-06-28T09:57:14Z</time>
</trkpt>
<trkpt lat="38.44567342194349" lon="-0.8525591376918423">
<ele>488</ele>
<time>2014-06-28T09:57:15Z</time>
</trkpt>
<trkpt lat="38.44567207068393" lon="-0.8525842583962785">
<ele>488</ele>
<time>2014-06-28T09:57:16Z</time>
</trkpt>
<trkpt lat="38.4456693978095" lon="-0.8526036852311341">
<ele>488</ele>
<time>2014-06-28T09:57:17Z</time>
</trkpt>
<trkpt lat="38.445672352483214" lon="-0.8526209226151841">
<ele>488</ele>
<time>2014-06-28T09:57:18Z</time>
</trkpt>
<trkpt lat="38.4456715835564" lon="-0.8526373438754172">
<ele>488</ele>
<time>2014-06-28T09:57:19Z</time>
</trkpt>
<trkpt lat="38.44566941727267" lon="-0.85265640713458">
<ele>488</ele>
<time>2014-06-28T09:57:20Z</time>
</trkpt>
<trkpt lat="38.44566689779167" lon="-0.852675836140489">
<ele>488</ele>
<time>2014-06-28T09:57:21Z</time>
</trkpt>
<trkpt lat="38.44566406047145" lon="-0.8526982645708729">
<ele>488</ele>
<time>2014-06-28T09:57:22Z</time>
</trkpt>
<trkpt lat="38.44566160323028" lon="-0.852720209939124">
<ele>488</ele>
<time>2014-06-28T09:57:23Z</time>
</trkpt>
<trkpt lat="38.44566499236983" lon="-0.8527341651398676">
<ele>488</ele>
<time>2014-06-28T09:57:24Z</time>
</trkpt>
<trkpt lat="38.44567018230483" lon="-0.8527430507150127">
<ele>488</ele>
<time>2014-06-28T09:57:25Z</time>
</trkpt>
<trkpt lat="38.445669427172284" lon="-0.8527686954529363">
<ele>488</ele>
<time>2014-06-28T09:57:26Z</time>
</trkpt>
<trkpt lat="38.445667292222225" lon="-0.8527955512806363">
<ele>488</ele>
<time>2014-06-28T09:57:27Z</time>
</trkpt>
<trkpt lat="38.44566407652991" lon="-0.8528188760751643">
<ele>488</ele>
<time>2014-06-28T09:57:28Z</time>
</trkpt>
<trkpt lat="38.44565570114034" lon="-0.8528433411233594">
<ele>488</ele>
<time>2014-06-28T09:57:29Z</time>
</trkpt>
<trkpt lat="38.445644011934554" lon="-0.852865692190294">
<ele>488</ele>
<time>2014-06-28T09:57:30Z</time>
</trkpt>
<trkpt lat="38.445629029771965" lon="-0.8528883743358724">
<ele>488</ele>
<time>2014-06-28T09:57:31Z</time>
</trkpt>
<trkpt lat="38.44561280751934" lon="-0.8529131789705029">
<ele>488</ele>
<time>2014-06-28T09:57:32Z</time>
</trkpt>
<trkpt lat="38.445600090404334" lon="-0.8529377918342025">
<ele>488</ele>
<time>2014-06-28T09:57:33Z</time>
</trkpt>
<trkpt lat="38.44559426588867" lon="-0.852953141185424">
<ele>488</ele>
<time>2014-06-28T09:57:34Z</time>
</trkpt>
<trkpt lat="38.44559085240934" lon="-0.8529624911255392">
<ele>488</ele>
<time>2014-06-28T09:57:35Z</time>
</trkpt>
<trkpt lat="38.44558821095861" lon="-0.8529727458259928">
<ele>488</ele>
<time>2014-06-28T09:57:36Z</time>
</trkpt>
<trkpt lat="38.44558645180175" lon="-0.8529823626722443">
<ele>488</ele>
<time>2014-06-28T09:57:37Z</time>
</trkpt>
<trkpt lat="38.445582603464196" lon="-0.8529994581110054">
<ele>488</ele>
<time>2014-06-28T09:57:38Z</time>
</trkpt>
<trkpt lat="38.44557984544295" lon="-0.8530231967434372">
<ele>488</ele>
<time>2014-06-28T09:57:39Z</time>
</trkpt>
<trkpt lat="38.445576361699956" lon="-0.8530449582909208">
<ele>488</ele>
<time>2014-06-28T09:57:40Z</time>
</trkpt>
<trkpt lat="38.445574171537224" lon="-0.8530679851863197">
<ele>488</ele>
<time>2014-06-28T09:57:41Z</time>
</trkpt>
<trkpt lat="38.445571002684275" lon="-0.8530884036767035">
<ele>488</ele>
<time>2014-06-28T09:57:42Z</time>
</trkpt>
<trkpt lat="38.44556973114621" lon="-0.8531056435712727">
<ele>488</ele>
<time>2014-06-28T09:57:43Z</time>
</trkpt>
<trkpt lat="38.44556717204263" lon="-0.8531240100867611">
<ele>489</ele>
<time>2014-06-28T09:57:44Z</time>
</trkpt>
<trkpt lat="38.44556459455397" lon="-0.853140851889055">
<ele>489</ele>
<time>2014-06-28T09:57:45Z</time>
</trkpt>
<trkpt lat="38.44556209223021" lon="-0.8531571296934746">
<ele>489</ele>
<time>2014-06-28T09:57:46Z</time>
</trkpt>
<trkpt lat="38.44555962934071" lon="-0.8531734133235808">
<ele>489</ele>
<time>2014-06-28T09:57:47Z</time>
</trkpt>
<trkpt lat="38.445557107135876" lon="-0.853189691432002">
<ele>489</ele>
<time>2014-06-28T09:57:48Z</time>
</trkpt>
<trkpt lat="38.445551309786005" lon="-0.8532049835508806">
<ele>489</ele>
<time>2014-06-28T09:57:49Z</time>
</trkpt>
<trkpt lat="38.44554478369265" lon="-0.8532198488468645">
<ele>489</ele>
<time>2014-06-28T09:57:50Z</time>
</trkpt>
<trkpt lat="38.445539226251476" lon="-0.8532350087413935">
<ele>489</ele>
<time>2014-06-28T09:57:51Z</time>
</trkpt>
<trkpt lat="38.44553895336063" lon="-0.8532507167270649">
<ele>489</ele>
<time>2014-06-28T09:57:52Z</time>
</trkpt>
<trkpt lat="38.44554358120593" lon="-0.8532646360729715">
<ele>489</ele>
<time>2014-06-28T09:57:53Z</time>
</trkpt>
<trkpt lat="38.44554813394063" lon="-0.8532782136345698">
<ele>489</ele>
<time>2014-06-28T09:57:54Z</time>
</trkpt>
<trkpt lat="38.44555308627719" lon="-0.8532921188630891">
<ele>489</ele>
<time>2014-06-28T09:57:55Z</time>
</trkpt>
<trkpt lat="38.44555747846325" lon="-0.8533057174946929">
<ele>489</ele>
<time>2014-06-28T09:57:56Z</time>
</trkpt>
<trkpt lat="38.44556157615851" lon="-0.8533181055396631">
<ele>489</ele>
<time>2014-06-28T09:57:57Z</time>
</trkpt>
<trkpt lat="38.44556411418426" lon="-0.8533337960610211">
<ele>489</ele>
<time>2014-06-28T09:57:58Z</time>
</trkpt>
<trkpt lat="38.44556591702918" lon="-0.8533500703740714">
<ele>489</ele>
<time>2014-06-28T09:57:59Z</time>
</trkpt>
<trkpt lat="38.44555420048511" lon="-0.8533641599225549">
<ele>489</ele>
<time>2014-06-28T09:58:00Z</time>
</trkpt>
<trkpt lat="38.44553814228173" lon="-0.853373396851228">
<ele>489</ele>
<time>2014-06-28T09:58:01Z</time>
</trkpt>
<trkpt lat="38.44552611592495" lon="-0.8533868318291472">
<ele>489</ele>
<time>2014-06-28T09:58:02Z</time>
</trkpt>
<trkpt lat="38.44551395543839" lon="-0.8533990263052347">
<ele>489</ele>
<time>2014-06-28T09:58:03Z</time>
</trkpt>
<trkpt lat="38.445507457824384" lon="-0.8534115636218582">
<ele>489</ele>
<time>2014-06-28T09:58:04Z</time>
</trkpt>
<trkpt lat="38.44550558722833" lon="-0.853424724384637">
<ele>489</ele>
<time>2014-06-28T09:58:05Z</time>
</trkpt>
<trkpt lat="38.445504589320045" lon="-0.8534366243608976">
<ele>489</ele>
<time>2014-06-28T09:58:06Z</time>
</trkpt>
<trkpt lat="38.44550034007378" lon="-0.8534572987059925">
<ele>489</ele>
<time>2014-06-28T09:58:07Z</time>
</trkpt>
<trkpt lat="38.445495441731985" lon="-0.8534769754970738">
<ele>489</ele>
<time>2014-06-28T09:58:08Z</time>
</trkpt>
<trkpt lat="38.44549101563695" lon="-0.8534969899860287">
<ele>489</ele>
<time>2014-06-28T09:58:09Z</time>
</trkpt>
<trkpt lat="38.44548698784157" lon="-0.8535166561443139">
<ele>489</ele>
<time>2014-06-28T09:58:10Z</time>
</trkpt>
<trkpt lat="38.44548326911169" lon="-0.8535348185494489">
<ele>489</ele>
<time>2014-06-28T09:58:11Z</time>
</trkpt>
<trkpt lat="38.44547745924958" lon="-0.8535531775166854">
<ele>489</ele>
<time>2014-06-28T09:58:12Z</time>
</trkpt>
<trkpt lat="38.44546969029698" lon="-0.853571986147742">
<ele>489</ele>
<time>2014-06-28T09:58:13Z</time>
</trkpt>
<trkpt lat="38.44545905720335" lon="-0.8535855821070697">
<ele>489</ele>
<time>2014-06-28T09:58:14Z</time>
</trkpt>
<trkpt lat="38.44544628316867" lon="-0.8535958683431851">
<ele>489</ele>
<time>2014-06-28T09:58:15Z</time>
</trkpt>
<trkpt lat="38.44543515346361" lon="-0.8536031279319529">
<ele>489</ele>
<time>2014-06-28T09:58:16Z</time>
</trkpt>
<trkpt lat="38.445422938523556" lon="-0.8536070012112393">
<ele>489</ele>
<time>2014-06-28T09:58:17Z</time>
</trkpt>
<trkpt lat="38.445414143686996" lon="-0.8536123476723755">
<ele>489</ele>
<time>2014-06-28T09:58:18Z</time>
</trkpt>
<trkpt lat="38.4454040103444" lon="-0.8536190324804663">
<ele>489</ele>
<time>2014-06-28T09:58:19Z</time>
</trkpt>
<trkpt lat="38.44539314952921" lon="-0.8536259467358569">
<ele>489</ele>
<time>2014-06-28T09:58:20Z</time>
</trkpt>
<trkpt lat="38.44537763433786" lon="-0.8536311639401647">
<ele>489</ele>
<time>2014-06-28T09:58:21Z</time>
</trkpt>
<trkpt lat="38.445360025844" lon="-0.853637340621146">
<ele>489</ele>
<time>2014-06-28T09:58:22Z</time>
</trkpt>
<trkpt lat="38.4453418718193" lon="-0.8536465734481294">
<ele>489</ele>
<time>2014-06-28T09:58:23Z</time>
</trkpt>
<trkpt lat="38.44532361935097" lon="-0.8536547440707581">
<ele>489</ele>
<time>2014-06-28T09:58:24Z</time>
</trkpt>
<trkpt lat="38.445306294268384" lon="-0.8536632815804858">
<ele>489</ele>
<time>2014-06-28T09:58:25Z</time>
</trkpt>
<trkpt lat="38.44529373381063" lon="-0.8536774645844475">
<ele>489</ele>
<time>2014-06-28T09:58:26Z</time>
</trkpt>
<trkpt lat="38.44528277424606" lon="-0.8536854561118536">
<ele>489</ele>
<time>2014-06-28T09:58:27Z</time>
</trkpt>
<trkpt lat="38.44527234112844" lon="-0.8536891658340096">
<ele>489</ele>
<time>2014-06-28T09:58:28Z</time>
</trkpt>
<trkpt lat="38.44526161575728" lon="-0.8536867911703239">
<ele>489</ele>
<time>2014-06-28T09:58:29Z</time>
</trkpt>
<trkpt lat="38.44524892396914" lon="-0.8536829929992137">
<ele>489</ele>
<time>2014-06-28T09:58:30Z</time>
</trkpt>
<trkpt lat="38.44523633866624" lon="-0.8536807699286115">
<ele>489</ele>
<time>2014-06-28T09:58:31Z</time>
</trkpt>
<trkpt lat="38.445223910151846" lon="-0.8536800640063549">
<ele>489</ele>
<time>2014-06-28T09:58:32Z</time>
</trkpt>
<trkpt lat="38.44521008359067" lon="-0.8536829188222421">
<ele>489</ele>
<time>2014-06-28T09:58:33Z</time>
</trkpt>
<trkpt lat="38.44519593516954" lon="-0.8536883700494553">
<ele>489</ele>
<time>2014-06-28T09:58:34Z</time>
</trkpt>
<trkpt lat="38.4451819605666" lon="-0.8536947570272866">
<ele>489</ele>
<time>2014-06-28T09:58:35Z</time>
</trkpt>
<trkpt lat="38.4451690602711" lon="-0.8537007126645141">
<ele>489</ele>
<time>2014-06-28T09:58:36Z</time>
</trkpt>
<trkpt lat="38.445157520515046" lon="-0.8537086424460651">
<ele>489</ele>
<time>2014-06-28T09:58:37Z</time>
</trkpt>
<trkpt lat="38.44514770092079" lon="-0.8537210127491335">
<ele>489</ele>
<time>2014-06-28T09:58:38Z</time>
</trkpt>
<trkpt lat="38.445139560394594" lon="-0.8537324206023454">
<ele>489</ele>
<time>2014-06-28T09:58:39Z</time>
</trkpt>
<trkpt lat="38.44513257641866" lon="-0.8537462356497267">
<ele>489</ele>
<time>2014-06-28T09:58:40Z</time>
</trkpt>
<trkpt lat="38.44512555490501" lon="-0.8537607023484474">
<ele>489</ele>
<time>2014-06-28T09:58:41Z</time>
</trkpt>
<trkpt lat="38.44510844746319" lon="-0.8537668112807103">
<ele>489</ele>
<time>2014-06-28T09:58:42Z</time>
</trkpt>
<trkpt lat="38.44508746312004" lon="-0.853770916728855">
<ele>489</ele>
<time>2014-06-28T09:58:43Z</time>
</trkpt>
<trkpt lat="38.44506669728686" lon="-0.8537756003816102">
<ele>489</ele>
<time>2014-06-28T09:58:44Z</time>
</trkpt>
<trkpt lat="38.44505490804675" lon="-0.8537812746496076">
<ele>489</ele>
<time>2014-06-28T09:58:45Z</time>
</trkpt>
<trkpt lat="38.44504581842223" lon="-0.853784453028779">
<ele>489</ele>
<time>2014-06-28T09:58:46Z</time>
</trkpt>
<trkpt lat="38.44503744303428" lon="-0.8537880723138497">
<ele>489</ele>
<time>2014-06-28T09:58:47Z</time>
</trkpt>
<trkpt lat="38.44502476979199" lon="-0.8537891042448807">
<ele>489</ele>
<time>2014-06-28T09:58:48Z</time>
</trkpt>
<trkpt lat="38.44501124310528" lon="-0.8537909744321823">
<ele>489</ele>
<time>2014-06-28T09:58:49Z</time>
</trkpt>
<trkpt lat="38.44499862638099" lon="-0.8537938342662807">
<ele>489</ele>
<time>2014-06-28T09:58:50Z</time>
</trkpt>
<trkpt lat="38.44498642441326" lon="-0.8537960428226016">
<ele>489</ele>
<time>2014-06-28T09:58:51Z</time>
</trkpt>
<trkpt lat="38.444973377442594" lon="-0.8537983358783965">
<ele>489</ele>
<time>2014-06-28T09:58:52Z</time>
</trkpt>
<trkpt lat="38.44496120026333" lon="-0.8538008199819145">
<ele>489</ele>
<time>2014-06-28T09:58:53Z</time>
</trkpt>
<trkpt lat="38.44494582101892" lon="-0.853795739888583">
<ele>489</ele>
<time>2014-06-28T09:58:54Z</time>
</trkpt>
<trkpt lat="38.444930650505654" lon="-0.8537847885228963">
<ele>489</ele>
<time>2014-06-28T09:58:55Z</time>
</trkpt>
<trkpt lat="38.44491399894807" lon="-0.8537758570362679">
<ele>489</ele>
<time>2014-06-28T09:58:56Z</time>
</trkpt>
<trkpt lat="38.444898285531785" lon="-0.8537737410838767">
<ele>489</ele>
<time>2014-06-28T09:58:57Z</time>
</trkpt>
<trkpt lat="38.44488256319423" lon="-0.8537695786806613">
<ele>489</ele>
<time>2014-06-28T09:58:58Z</time>
</trkpt>
<trkpt lat="38.44486892900421" lon="-0.8537708554678451">
<ele>489</ele>
<time>2014-06-28T09:58:59Z</time>
</trkpt>
<trkpt lat="38.44485515631001" lon="-0.8537749929899932">
<ele>489</ele>
<time>2014-06-28T09:59:00Z</time>
</trkpt>
<trkpt lat="38.44484164205063" lon="-0.8537801283162902">
<ele>489</ele>
<time>2014-06-28T09:59:01Z</time>
</trkpt>
<trkpt lat="38.444829159975825" lon="-0.8537818121702799">
<ele>489</ele>
<time>2014-06-28T09:59:02Z</time>
</trkpt>
<trkpt lat="38.4448184117445" lon="-0.8537833678387708">
<ele>489</ele>
<time>2014-06-28T09:59:03Z</time>
</trkpt>
<trkpt lat="38.44480832225906" lon="-0.8537841711674802">
<ele>489</ele>
<time>2014-06-28T09:59:04Z</time>
</trkpt>
<trkpt lat="38.444799011314224" lon="-0.8537990201663508">
<ele>489</ele>
<time>2014-06-28T09:59:05Z</time>
</trkpt>
<trkpt lat="38.444788701627004" lon="-0.8538105668606731">
<ele>489</ele>
<time>2014-06-28T09:59:06Z</time>
</trkpt>
<trkpt lat="38.444777790057096" lon="-0.8538232139404262">
<ele>489</ele>
<time>2014-06-28T09:59:07Z</time>
</trkpt>
<trkpt lat="38.444765577023496" lon="-0.8538401362314689">
<ele>489</ele>
<time>2014-06-28T09:59:08Z</time>
</trkpt>
<trkpt lat="38.444753539158214" lon="-0.8538570723641291">
<ele>489</ele>
<time>2014-06-28T09:59:09Z</time>
</trkpt>
<trkpt lat="38.444746224303515" lon="-0.8538792976346764">
<ele>489</ele>
<time>2014-06-28T09:59:10Z</time>
</trkpt>
<trkpt lat="38.444739995886906" lon="-0.8538997977757964">
<ele>489</ele>
<time>2014-06-28T09:59:11Z</time>
</trkpt>
<trkpt lat="38.44473382069708" lon="-0.8539151331872787">
<ele>489</ele>
<time>2014-06-28T09:59:12Z</time>
</trkpt>
<trkpt lat="38.4447298295612" lon="-0.8539288098861614">
<ele>489</ele>
<time>2014-06-28T09:59:13Z</time>
</trkpt>
<trkpt lat="38.444725629299896" lon="-0.8539418348586044">
<ele>489</ele>
<time>2014-06-28T09:59:14Z</time>
</trkpt>
<trkpt lat="38.44472568908002" lon="-0.8539417828789817">
<ele>489</ele>
<time>2014-06-28T09:59:15Z</time>
</trkpt>
<trkpt lat="38.44472568954766" lon="-0.8539417824851155">
<ele>489</ele>
<time>2014-06-28T09:59:16Z</time>
</trkpt>
<trkpt lat="38.444725689548754" lon="-0.8539417824847769">
<ele>489</ele>
<time>2014-06-28T09:59:17Z</time>
</trkpt>
<trkpt lat="38.44472245486037" lon="-0.8539476223221538">
<ele>489</ele>
<time>2014-06-28T09:59:18Z</time>
</trkpt>
<trkpt lat="38.4447179288353" lon="-0.8539551561324196">
<ele>489</ele>
<time>2014-06-28T09:59:19Z</time>
</trkpt>
<trkpt lat="38.44471266620496" lon="-0.85396389969812">
<ele>489</ele>
<time>2014-06-28T09:59:20Z</time>
</trkpt>
<trkpt lat="38.444704243404395" lon="-0.8539756318952036">
<ele>489</ele>
<time>2014-06-28T09:59:21Z</time>
</trkpt>
<trkpt lat="38.44469427811045" lon="-0.853988286226227">
<ele>489</ele>
<time>2014-06-28T09:59:22Z</time>
</trkpt>
<trkpt lat="38.44468144139806" lon="-0.8539992653945004">
<ele>489</ele>
<time>2014-06-28T09:59:23Z</time>
</trkpt>
<trkpt lat="38.44466674104525" lon="-0.8540083099933256">
<ele>489</ele>
<time>2014-06-28T09:59:24Z</time>
</trkpt>
<trkpt lat="38.444646381483174" lon="-0.8540002938704502">
<ele>489</ele>
<time>2014-06-28T09:59:25Z</time>
</trkpt>
<trkpt lat="38.44461934802562" lon="-0.8540009121942734">
<ele>489</ele>
<time>2014-06-28T09:59:26Z</time>
</trkpt>
<trkpt lat="38.444591677045395" lon="-0.8540014957908313">
<ele>489</ele>
<time>2014-06-28T09:59:27Z</time>
</trkpt>
<trkpt lat="38.44456844536915" lon="-0.8540096588555673">
<ele>489</ele>
<time>2014-06-28T09:59:28Z</time>
</trkpt>
<trkpt lat="38.44454711380814" lon="-0.8540217634336882">
<ele>489</ele>
<time>2014-06-28T09:59:29Z</time>
</trkpt>
<trkpt lat="38.444526316370016" lon="-0.8540290801138918">
<ele>489</ele>
<time>2014-06-28T09:59:30Z</time>
</trkpt>
<trkpt lat="38.444506851988955" lon="-0.8540362401920363">
<ele>489</ele>
<time>2014-06-28T09:59:31Z</time>
</trkpt>
<trkpt lat="38.444488007938865" lon="-0.8540427376896322">
<ele>489</ele>
<time>2014-06-28T09:59:32Z</time>
</trkpt>
<trkpt lat="38.44447095413933" lon="-0.8540506150494513">
<ele>489</ele>
<time>2014-06-28T09:59:33Z</time>
</trkpt>
<trkpt lat="38.444454788657836" lon="-0.8540591580197293">
<ele>489</ele>
<time>2014-06-28T09:59:34Z</time>
</trkpt>
<trkpt lat="38.444440339886654" lon="-0.8540695771335464">
<ele>489</ele>
<time>2014-06-28T09:59:35Z</time>
</trkpt>
<trkpt lat="38.444427051065006" lon="-0.8540789290701644">
<ele>489</ele>
<time>2014-06-28T09:59:36Z</time>
</trkpt>
<trkpt lat="38.44442100864115" lon="-0.8540963085740186">
<ele>489</ele>
<time>2014-06-28T09:59:37Z</time>
</trkpt>
<trkpt lat="38.444415392242185" lon="-0.8541129834478339">
<ele>489</ele>
<time>2014-06-28T09:59:38Z</time>
</trkpt>
<trkpt lat="38.44440969005147" lon="-0.8541264779170065">
<ele>489</ele>
<time>2014-06-28T09:59:39Z</time>
</trkpt>
<trkpt lat="38.444402049591794" lon="-0.8541379560863405">
<ele>488</ele>
<time>2014-06-28T09:59:40Z</time>
</trkpt>
<trkpt lat="38.4444011447276" lon="-0.8541540762010131">
<ele>488</ele>
<time>2014-06-28T09:59:41Z</time>
</trkpt>
<trkpt lat="38.444401148299775" lon="-0.8541714553433293">
<ele>488</ele>
<time>2014-06-28T09:59:42Z</time>
</trkpt>
<trkpt lat="38.44440021451338" lon="-0.8541887792266105">
<ele>488</ele>
<time>2014-06-28T09:59:43Z</time>
</trkpt>
<trkpt lat="38.44439565830482" lon="-0.854209596851245">
<ele>488</ele>
<time>2014-06-28T09:59:44Z</time>
</trkpt>
<trkpt lat="38.44439484059766" lon="-0.8542328238076625">
<ele>488</ele>
<time>2014-06-28T09:59:45Z</time>
</trkpt>
<trkpt lat="38.444401994788734" lon="-0.8542555867915836">
<ele>488</ele>
<time>2014-06-28T09:59:46Z</time>
</trkpt>
<trkpt lat="38.44441257305442" lon="-0.854285012784913">
<ele>488</ele>
<time>2014-06-28T09:59:47Z</time>
</trkpt>
<trkpt lat="38.44443375005933" lon="-0.8543182821590557">
<ele>488</ele>
<time>2014-06-28T09:59:48Z</time>
</trkpt>
<trkpt lat="38.444453029685285" lon="-0.8543483210084966">
<ele>488</ele>
<time>2014-06-28T09:59:49Z</time>
</trkpt>
<trkpt lat="38.44446674778448" lon="-0.8543677611157369">
<ele>488</ele>
<time>2014-06-28T09:59:50Z</time>
</trkpt>
<trkpt lat="38.44448413757447" lon="-0.854382886449465">
<ele>488</ele>
<time>2014-06-28T09:59:51Z</time>
</trkpt>
<trkpt lat="38.44450154005613" lon="-0.8543994144821636">
<ele>488</ele>
<time>2014-06-28T09:59:52Z</time>
</trkpt>
<trkpt lat="38.4445144056148" lon="-0.854416055802166">
<ele>488</ele>
<time>2014-06-28T09:59:53Z</time>
</trkpt>
<trkpt lat="38.44452597449936" lon="-0.854432545767717">
<ele>488</ele>
<time>2014-06-28T09:59:54Z</time>
</trkpt>
<trkpt lat="38.44453683754845" lon="-0.8544483620808606">
<ele>488</ele>
<time>2014-06-28T09:59:55Z</time>
</trkpt>
<trkpt lat="38.44454786475253" lon="-0.8544643398046332">
<ele>488</ele>
<time>2014-06-28T09:59:56Z</time>
</trkpt>
<trkpt lat="38.44455929350075" lon="-0.8544835777695087">
<ele>488</ele>
<time>2014-06-28T09:59:57Z</time>
</trkpt>
<trkpt lat="38.4445704140737" lon="-0.8545034112695193">
<ele>488</ele>
<time>2014-06-28T09:59:58Z</time>
</trkpt>
<trkpt lat="38.44458117148431" lon="-0.8545265300537142">
<ele>488</ele>
<time>2014-06-28T09:59:59Z</time>
</trkpt>
<trkpt lat="38.444591436709935" lon="-0.8545476714058664">
<ele>488</ele>
<time>2014-06-28T10:00:00Z</time>
</trkpt>
<trkpt lat="38.44460133220147" lon="-0.8545667984770872">
<ele>487</ele>
<time>2014-06-28T10:00:01Z</time>
</trkpt>
<trkpt lat="38.44461196714469" lon="-0.8545837467717587">
<ele>487</ele>
<time>2014-06-28T10:00:02Z</time>
</trkpt>
<trkpt lat="38.4446242616936" lon="-0.8546001889822546">
<ele>487</ele>
<time>2014-06-28T10:00:03Z</time>
</trkpt>
<trkpt lat="38.444636518529926" lon="-0.8546181044864659">
<ele>487</ele>
<time>2014-06-28T10:00:04Z</time>
</trkpt>
<trkpt lat="38.444644567358836" lon="-0.8546358199902379">
<ele>487</ele>
<time>2014-06-28T10:00:05Z</time>
</trkpt>
<trkpt lat="38.44465090562413" lon="-0.8546493457497717">
<ele>487</ele>
<time>2014-06-28T10:00:06Z</time>
</trkpt>
<trkpt lat="38.444656453522576" lon="-0.8546608597653872">
<ele>487</ele>
<time>2014-06-28T10:00:07Z</time>
</trkpt>
<trkpt lat="38.44466160639128" lon="-0.8546722934751879">
<ele>487</ele>
<time>2014-06-28T10:00:08Z</time>
</trkpt>
<trkpt lat="38.44466642023578" lon="-0.8546835257255072">
<ele>487</ele>
<time>2014-06-28T10:00:09Z</time>
</trkpt>
<trkpt lat="38.4446709238927" lon="-0.8546950160023539">
<ele>487</ele>
<time>2014-06-28T10:00:10Z</time>
</trkpt>
<trkpt lat="38.44467606698049" lon="-0.854707112149793">
<ele>487</ele>
<time>2014-06-28T10:00:11Z</time>
</trkpt>
<trkpt lat="38.444681400500414" lon="-0.8547220828762703">
<ele>487</ele>
<time>2014-06-28T10:00:12Z</time>
</trkpt>
<trkpt lat="38.44468541295013" lon="-0.8547460371412388">
<ele>487</ele>
<time>2014-06-28T10:00:13Z</time>
</trkpt>
<trkpt lat="38.444688753777996" lon="-0.8547721114118138">
<ele>487</ele>
<time>2014-06-28T10:00:14Z</time>
</trkpt>
<trkpt lat="38.44469282978511" lon="-0.8547952497315638">
<ele>487</ele>
<time>2014-06-28T10:00:15Z</time>
</trkpt>
<trkpt lat="38.44469691356563" lon="-0.8548157171428322">
<ele>487</ele>
<time>2014-06-28T10:00:16Z</time>
</trkpt>
<trkpt lat="38.444699574795415" lon="-0.8548320996091312">
<ele>487</ele>
<time>2014-06-28T10:00:17Z</time>
</trkpt>
<trkpt lat="38.44470117387162" lon="-0.8548474654698727">
<ele>487</ele>
<time>2014-06-28T10:00:18Z</time>
</trkpt>
<trkpt lat="38.44470095257555" lon="-0.8548669981568536">
<ele>487</ele>
<time>2014-06-28T10:00:19Z</time>
</trkpt>
<trkpt lat="38.44470415498133" lon="-0.8548835416336429">
<ele>487</ele>
<time>2014-06-28T10:00:20Z</time>
</trkpt>
<trkpt lat="38.44470288495195" lon="-0.8548977706664082">
<ele>487</ele>
<time>2014-06-28T10:00:21Z</time>
</trkpt>
<trkpt lat="38.4447054924752" lon="-0.8549126698820455">
<ele>487</ele>
<time>2014-06-28T10:00:22Z</time>
</trkpt>
<trkpt lat="38.44470812049056" lon="-0.8549275497877379">
<ele>487</ele>
<time>2014-06-28T10:00:23Z</time>
</trkpt>
<trkpt lat="38.44471064313708" lon="-0.8549428610792749">
<ele>487</ele>
<time>2014-06-28T10:00:24Z</time>
</trkpt>
<trkpt lat="38.44471516827694" lon="-0.8549579897340827">
<ele>487</ele>
<time>2014-06-28T10:00:25Z</time>
</trkpt>
<trkpt lat="38.44471998384636" lon="-0.8549716700137024">
<ele>487</ele>
<time>2014-06-28T10:00:26Z</time>
</trkpt>
<trkpt lat="38.44472661506744" lon="-0.8549840004889551">
<ele>487</ele>
<time>2014-06-28T10:00:27Z</time>
</trkpt>
<trkpt lat="38.444732972680455" lon="-0.8549949456614494">
<ele>487</ele>
<time>2014-06-28T10:00:28Z</time>
</trkpt>
<trkpt lat="38.444739093328145" lon="-0.8550055771575964">
<ele>487</ele>
<time>2014-06-28T10:00:29Z</time>
</trkpt>
<trkpt lat="38.44474482386575" lon="-0.8550163037363269">
<ele>487</ele>
<time>2014-06-28T10:00:30Z</time>
</trkpt>
<trkpt lat="38.444749170797266" lon="-0.8550268779935892">
<ele>487</ele>
<time>2014-06-28T10:00:31Z</time>
</trkpt>
<trkpt lat="38.444750909434056" lon="-0.8550387003035026">
<ele>487</ele>
<time>2014-06-28T10:00:32Z</time>
</trkpt>
<trkpt lat="38.444762405235075" lon="-0.8550503354864246">
<ele>487</ele>
<time>2014-06-28T10:00:33Z</time>
</trkpt>
<trkpt lat="38.44477947278704" lon="-0.8550621053366482">
<ele>487</ele>
<time>2014-06-28T10:00:34Z</time>
</trkpt>
<trkpt lat="38.444791530000956" lon="-0.855075517074918">
<ele>487</ele>
<time>2014-06-28T10:00:35Z</time>
</trkpt>
<trkpt lat="38.44480262589202" lon="-0.8550886323703731">
<ele>487</ele>
<time>2014-06-28T10:00:36Z</time>
</trkpt>
<trkpt lat="38.44481107752418" lon="-0.8551024856546783">
<ele>487</ele>
<time>2014-06-28T10:00:37Z</time>
</trkpt>
<trkpt lat="38.444817777283625" lon="-0.8551163432018399">
<ele>487</ele>
<time>2014-06-28T10:00:38Z</time>
</trkpt>
<trkpt lat="38.44482477004647" lon="-0.8551303944832059">
<ele>487</ele>
<time>2014-06-28T10:00:39Z</time>
</trkpt>
<trkpt lat="38.44483111711873" lon="-0.85514355249074">
<ele>487</ele>
<time>2014-06-28T10:00:40Z</time>
</trkpt>
<trkpt lat="38.444833794442275" lon="-0.8551562155525553">
<ele>487</ele>
<time>2014-06-28T10:00:41Z</time>
</trkpt>
<trkpt lat="38.444835521841135" lon="-0.8551693929568741">
<ele>487</ele>
<time>2014-06-28T10:00:42Z</time>
</trkpt>
<trkpt lat="38.44483746289527" lon="-0.8551817346481846">
<ele>487</ele>
<time>2014-06-28T10:00:43Z</time>
</trkpt>
<trkpt lat="38.44483868669548" lon="-0.8551947053921">
<ele>487</ele>
<time>2014-06-28T10:00:44Z</time>
</trkpt>
<trkpt lat="38.44483972195563" lon="-0.8552085750516633">
<ele>487</ele>
<time>2014-06-28T10:00:45Z</time>
</trkpt>
<trkpt lat="38.44484186188825" lon="-0.8552255367114221">
<ele>487</ele>
<time>2014-06-28T10:00:46Z</time>
</trkpt>
<trkpt lat="38.44484665887105" lon="-0.8552434072539264">
<ele>487</ele>
<time>2014-06-28T10:00:47Z</time>
</trkpt>
<trkpt lat="38.44485269833303" lon="-0.8552595588804714">
<ele>487</ele>
<time>2014-06-28T10:00:48Z</time>
</trkpt>
<trkpt lat="38.4448589649491" lon="-0.8552741731838571">
<ele>487</ele>
<time>2014-06-28T10:00:49Z</time>
</trkpt>
<trkpt lat="38.44486671090012" lon="-0.8552870053573062">
<ele>487</ele>
<time>2014-06-28T10:00:50Z</time>
</trkpt>
<trkpt lat="38.444875219447944" lon="-0.8553005966525015">
<ele>487</ele>
<time>2014-06-28T10:00:51Z</time>
</trkpt>
<trkpt lat="38.444880876979745" lon="-0.8553169896890384">
<ele>487</ele>
<time>2014-06-28T10:00:52Z</time>
</trkpt>
<trkpt lat="38.444888370783296" lon="-0.8553332090163325">
<ele>487</ele>
<time>2014-06-28T10:00:53Z</time>
</trkpt>
<trkpt lat="38.444895328525035" lon="-0.8553514093618897">
<ele>487</ele>
<time>2014-06-28T10:00:54Z</time>
</trkpt>
<trkpt lat="38.444903137945055" lon="-0.8553708675062289">
<ele>487</ele>
<time>2014-06-28T10:00:55Z</time>
</trkpt>
<trkpt lat="38.44491205773196" lon="-0.8553871664413378">
<ele>487</ele>
<time>2014-06-28T10:00:56Z</time>
</trkpt>
<trkpt lat="38.444921373993665" lon="-0.8554023574822115">
<ele>487</ele>
<time>2014-06-28T10:00:57Z</time>
</trkpt>
<trkpt lat="38.44493033502073" lon="-0.8554164964198218">
<ele>487</ele>
<time>2014-06-28T10:00:58Z</time>
</trkpt>
<trkpt lat="38.44493796019852" lon="-0.8554293838857605">
<ele>487</ele>
<time>2014-06-28T10:00:59Z</time>
</trkpt>
<trkpt lat="38.44494329227557" lon="-0.8554414674693177">
<ele>487</ele>
<time>2014-06-28T10:01:00Z</time>
</trkpt>
<trkpt lat="38.44494488143939" lon="-0.8554557602097341">
<ele>487</ele>
<time>2014-06-28T10:01:01Z</time>
</trkpt>
<trkpt lat="38.44494620464094" lon="-0.855469560960144">
<ele>487</ele>
<time>2014-06-28T10:01:02Z</time>
</trkpt>
<trkpt lat="38.44494800799646" lon="-0.8554852637670743">
<ele>487</ele>
<time>2014-06-28T10:01:03Z</time>
</trkpt>
<trkpt lat="38.444948920445846" lon="-0.855503444514112">
<ele>487</ele>
<time>2014-06-28T10:01:04Z</time>
</trkpt>
<trkpt lat="38.44495071628885" lon="-0.8555220041665644">
<ele>487</ele>
<time>2014-06-28T10:01:05Z</time>
</trkpt>
<trkpt lat="38.44495427771655" lon="-0.855544888244128">
<ele>487</ele>
<time>2014-06-28T10:01:06Z</time>
</trkpt>
<trkpt lat="38.44495889313695" lon="-0.8555648218711488">
<ele>487</ele>
<time>2014-06-28T10:01:07Z</time>
</trkpt>
<trkpt lat="38.444963421247856" lon="-0.8555805761075751">
<ele>488</ele>
<time>2014-06-28T10:01:08Z</time>
</trkpt>
<trkpt lat="38.444967557859314" lon="-0.8555965876574851">
<ele>488</ele>
<time>2014-06-28T10:01:09Z</time>
</trkpt>
<trkpt lat="38.44497171199447" lon="-0.855612133195455">
<ele>488</ele>
<time>2014-06-28T10:01:10Z</time>
</trkpt>
<trkpt lat="38.44497690830826" lon="-0.8556263001706854">
<ele>488</ele>
<time>2014-06-28T10:01:11Z</time>
</trkpt>
<trkpt lat="38.44498168189322" lon="-0.8556405406761435">
<ele>488</ele>
<time>2014-06-28T10:01:12Z</time>
</trkpt>
<trkpt lat="38.444987403275114" lon="-0.8556554874048081">
<ele>488</ele>
<time>2014-06-28T10:01:13Z</time>
</trkpt>
<trkpt lat="38.44499294842371" lon="-0.8556704361802665">
<ele>488</ele>
<time>2014-06-28T10:01:14Z</time>
</trkpt>
<trkpt lat="38.44499847907298" lon="-0.8556858262376638">
<ele>488</ele>
<time>2014-06-28T10:01:15Z</time>
</trkpt>
<trkpt lat="38.44500356898416" lon="-0.8557023657669242">
<ele>488</ele>
<time>2014-06-28T10:01:16Z</time>
</trkpt>
<trkpt lat="38.445009569433445" lon="-0.8557185316747938">
<ele>488</ele>
<time>2014-06-28T10:01:17Z</time>
</trkpt>
<trkpt lat="38.445014967933155" lon="-0.8557363208634857">
<ele>488</ele>
<time>2014-06-28T10:01:18Z</time>
</trkpt>
<trkpt lat="38.445020531418365" lon="-0.8557538439987284">
<ele>488</ele>
<time>2014-06-28T10:01:19Z</time>
</trkpt>
<trkpt lat="38.44502592431383" lon="-0.8557719642389">
<ele>488</ele>
<time>2014-06-28T10:01:20Z</time>
</trkpt>
<trkpt lat="38.44503139577893" lon="-0.8557894749866504">
<ele>488</ele>
<time>2014-06-28T10:01:21Z</time>
</trkpt>
<trkpt lat="38.445034981178075" lon="-0.8558066503905293">
<ele>488</ele>
<time>2014-06-28T10:01:22Z</time>
</trkpt>
<trkpt lat="38.445039304854696" lon="-0.8558225963918252">
<ele>488</ele>
<time>2014-06-28T10:01:23Z</time>
</trkpt>
<trkpt lat="38.44504415307394" lon="-0.8558393756194604">
<ele>488</ele>
<time>2014-06-28T10:01:24Z</time>
</trkpt>
<trkpt lat="38.44504683179353" lon="-0.8558579864508815">
<ele>488</ele>
<time>2014-06-28T10:01:25Z</time>
</trkpt>
<trkpt lat="38.445050713858315" lon="-0.8558764295933048">
<ele>488</ele>
<time>2014-06-28T10:01:26Z</time>
</trkpt>
<trkpt lat="38.44505619024283" lon="-0.8558953841293044">
<ele>488</ele>
<time>2014-06-28T10:01:27Z</time>
</trkpt>
<trkpt lat="38.445063519143126" lon="-0.8559144867170302">
<ele>488</ele>
<time>2014-06-28T10:01:28Z</time>
</trkpt>
<trkpt lat="38.44506893127958" lon="-0.855934341247649">
<ele>488</ele>
<time>2014-06-28T10:01:29Z</time>
</trkpt>
<trkpt lat="38.44507684693106" lon="-0.8559552784935741">
<ele>488</ele>
<time>2014-06-28T10:01:30Z</time>
</trkpt>
<trkpt lat="38.445084111104926" lon="-0.8559758052838286">
<ele>488</ele>
<time>2014-06-28T10:01:31Z</time>
</trkpt>
<trkpt lat="38.44509111240014" lon="-0.8559974711654771">
<ele>489</ele>
<time>2014-06-28T10:01:32Z</time>
</trkpt>
<trkpt lat="38.445097945120025" lon="-0.8560178935771121">
<ele>489</ele>
<time>2014-06-28T10:01:33Z</time>
</trkpt>
<trkpt lat="38.44510715052071" lon="-0.8560350236849436">
<ele>489</ele>
<time>2014-06-28T10:01:34Z</time>
</trkpt>
<trkpt lat="38.44511604710035" lon="-0.8560501322847716">
<ele>489</ele>
<time>2014-06-28T10:01:35Z</time>
</trkpt>
<trkpt lat="38.44512400161171" lon="-0.8560615700882688">
<ele>489</ele>
<time>2014-06-28T10:01:36Z</time>
</trkpt>
<trkpt lat="38.44513462273281" lon="-0.8560803427814908">
<ele>489</ele>
<time>2014-06-28T10:01:37Z</time>
</trkpt>
<trkpt lat="38.44514399884995" lon="-0.8560994966427793">
<ele>489</ele>
<time>2014-06-28T10:01:38Z</time>
</trkpt>
<trkpt lat="38.44515486783477" lon="-0.8561247787812287">
<ele>489</ele>
<time>2014-06-28T10:01:39Z</time>
</trkpt>
<trkpt lat="38.445159745744036" lon="-0.8561471904319621">
<ele>489</ele>
<time>2014-06-28T10:01:40Z</time>
</trkpt>
<trkpt lat="38.44516518574714" lon="-0.8561692137756504">
<ele>489</ele>
<time>2014-06-28T10:01:41Z</time>
</trkpt>
<trkpt lat="38.445173415508" lon="-0.8561846438842193">
<ele>489</ele>
<time>2014-06-28T10:01:42Z</time>
</trkpt>
<trkpt lat="38.44518439702892" lon="-0.8561965087232654">
<ele>489</ele>
<time>2014-06-28T10:01:43Z</time>
</trkpt>
<trkpt lat="38.44519674590818" lon="-0.8562061798121531">
<ele>489</ele>
<time>2014-06-28T10:01:44Z</time>
</trkpt>
<trkpt lat="38.445210409398506" lon="-0.8562113876669757">
<ele>489</ele>
<time>2014-06-28T10:01:45Z</time>
</trkpt>
<trkpt lat="38.44522459512744" lon="-0.8562101217379929">
<ele>489</ele>
<time>2014-06-28T10:01:46Z</time>
</trkpt>
<trkpt lat="38.44523816224558" lon="-0.8562117181973831">
<ele>489</ele>
<time>2014-06-28T10:01:47Z</time>
</trkpt>
<trkpt lat="38.445250763880146" lon="-0.8562099982939904">
<ele>489</ele>
<time>2014-06-28T10:01:48Z</time>
</trkpt>
<trkpt lat="38.44525321410708" lon="-0.8562232435363363">
<ele>489</ele>
<time>2014-06-28T10:01:49Z</time>
</trkpt>
<trkpt lat="38.44526202843111" lon="-0.856239726734893">
<ele>489</ele>
<time>2014-06-28T10:01:50Z</time>
</trkpt>
<trkpt lat="38.4452846118006" lon="-0.8562532810155279">
<ele>489</ele>
<time>2014-06-28T10:01:51Z</time>
</trkpt>
<trkpt lat="38.44529994723245" lon="-0.8562494925615243">
<ele>489</ele>
<time>2014-06-28T10:01:52Z</time>
</trkpt>
<trkpt lat="38.44531257385063" lon="-0.8562440946678344">
<ele>489</ele>
<time>2014-06-28T10:01:53Z</time>
</trkpt>
<trkpt lat="38.44532346290181" lon="-0.8562403396187468">
<ele>489</ele>
<time>2014-06-28T10:01:54Z</time>
</trkpt>
<trkpt lat="38.445340395714666" lon="-0.8562515211194532">
<ele>489</ele>
<time>2014-06-28T10:01:55Z</time>
</trkpt>
<trkpt lat="38.4453418903838" lon="-0.8562390151058825">
<ele>489</ele>
<time>2014-06-28T10:01:55Z</time>
</trkpt>
<trkpt lat="38.44534610847671" lon="-0.8562271181848395">
<ele>489</ele>
<time>2014-06-28T10:01:56Z</time>
</trkpt>
<trkpt lat="38.445326639806055" lon="-0.8562299718963903">
<ele>489</ele>
<time>2014-06-28T10:01:57Z</time>
</trkpt>
<trkpt lat="38.44531012497752" lon="-0.8562370702921267">
<ele>489</ele>
<time>2014-06-28T10:01:58Z</time>
</trkpt>
<trkpt lat="38.44529894127976" lon="-0.8562520454435596">
<ele>489</ele>
<time>2014-06-28T10:01:59Z</time>
</trkpt>
<trkpt lat="38.44529271000272" lon="-0.8562871571030367">
<ele>489</ele>
<time>2014-06-28T10:02:00Z</time>
</trkpt>
<trkpt lat="38.445289435917054" lon="-0.8563268985210062">
<ele>489</ele>
<time>2014-06-28T10:02:01Z</time>
</trkpt>
<trkpt lat="38.44529100164739" lon="-0.8563594725620084">
<ele>489</ele>
<time>2014-06-28T10:02:02Z</time>
</trkpt>
<trkpt lat="38.445294926990535" lon="-0.8563867468091187">
<ele>489</ele>
<time>2014-06-28T10:02:03Z</time>
</trkpt>
<trkpt lat="38.44530225333432" lon="-0.8564093450577107">
<ele>489</ele>
<time>2014-06-28T10:02:04Z</time>
</trkpt>
<trkpt lat="38.445312858939495" lon="-0.8564238807965657">
<ele>489</ele>
<time>2014-06-28T10:02:05Z</time>
</trkpt>
<trkpt lat="38.44532217966677" lon="-0.8564365266391797">
<ele>489</ele>
<time>2014-06-28T10:02:06Z</time>
</trkpt>
<trkpt lat="38.44533029355551" lon="-0.8564446022652676">
<ele>489</ele>
<time>2014-06-28T10:02:07Z</time>
</trkpt>
<trkpt lat="38.44535539697293" lon="-0.8564190354928631">
<ele>489</ele>
<time>2014-06-28T10:02:08Z</time>
</trkpt>
<trkpt lat="38.44539118032261" lon="-0.856419821635088">
<ele>489</ele>
<time>2014-06-28T10:02:09Z</time>
</trkpt>
<trkpt lat="38.44542746846374" lon="-0.8564264672602989">
<ele>489</ele>
<time>2014-06-28T10:02:10Z</time>
</trkpt>
<trkpt lat="38.445464280457536" lon="-0.8564161259830019">
<ele>489</ele>
<time>2014-06-28T10:02:11Z</time>
</trkpt>
<trkpt lat="38.44548490927926" lon="-0.8564273561302767">
<ele>489</ele>
<time>2014-06-28T10:02:12Z</time>
</trkpt>
<trkpt lat="38.44549666732545" lon="-0.8564501322806982">
<ele>489</ele>
<time>2014-06-28T10:02:13Z</time>
</trkpt>
<trkpt lat="38.44550884205261" lon="-0.8564747882029048">
<ele>489</ele>
<time>2014-06-28T10:02:14Z</time>
</trkpt>
<trkpt lat="38.44552256410862" lon="-0.8565044256213951">
<ele>489</ele>
<time>2014-06-28T10:02:15Z</time>
</trkpt>
<trkpt lat="38.44552650273328" lon="-0.8565299513735883">
<ele>489</ele>
<time>2014-06-28T10:02:16Z</time>
</trkpt>
<trkpt lat="38.445526951828924" lon="-0.8565465910722145">
<ele>489</ele>
<time>2014-06-28T10:02:17Z</time>
</trkpt>
<trkpt lat="38.44550941201242" lon="-0.856566013366232">
<ele>489</ele>
<time>2014-06-28T10:02:18Z</time>
</trkpt>
<trkpt lat="38.445504039766654" lon="-0.8565869471819033">
<ele>489</ele>
<time>2014-06-28T10:02:19Z</time>
</trkpt>
<trkpt lat="38.445502146003086" lon="-0.8566105621595155">
<ele>489</ele>
<time>2014-06-28T10:02:20Z</time>
</trkpt>
<trkpt lat="38.445498808896645" lon="-0.8566418807011922">
<ele>489</ele>
<time>2014-06-28T10:02:21Z</time>
</trkpt>
<trkpt lat="38.44550020849688" lon="-0.8566721203759836">
<ele>489</ele>
<time>2014-06-28T10:02:22Z</time>
</trkpt>
<trkpt lat="38.445508159141326" lon="-0.8566990766100803">
<ele>489</ele>
<time>2014-06-28T10:02:23Z</time>
</trkpt>
<trkpt lat="38.445517555147966" lon="-0.856720458140423">
<ele>489</ele>
<time>2014-06-28T10:02:24Z</time>
</trkpt>
<trkpt lat="38.44552592504759" lon="-0.8567412746854939">
<ele>489</ele>
<time>2014-06-28T10:02:25Z</time>
</trkpt>
<trkpt lat="38.445530649481476" lon="-0.856770381821104">
<ele>489</ele>
<time>2014-06-28T10:02:26Z</time>
</trkpt>
<trkpt lat="38.44553498664908" lon="-0.8567990924721204">
<ele>489</ele>
<time>2014-06-28T10:02:27Z</time>
</trkpt>
<trkpt lat="38.445539616305396" lon="-0.8568257104469841">
<ele>489</ele>
<time>2014-06-28T10:02:28Z</time>
</trkpt>
<trkpt lat="38.445542160663265" lon="-0.8568525500860918">
<ele>489</ele>
<time>2014-06-28T10:02:29Z</time>
</trkpt>
<trkpt lat="38.445544105559186" lon="-0.8568780864338391">
<ele>489</ele>
<time>2014-06-28T10:02:30Z</time>
</trkpt>
<trkpt lat="38.445546643829594" lon="-0.8569004392523837">
<ele>489</ele>
<time>2014-06-28T10:02:31Z</time>
</trkpt>
<trkpt lat="38.44554685769329" lon="-0.856922350448089">
<ele>489</ele>
<time>2014-06-28T10:02:32Z</time>
</trkpt>
<trkpt lat="38.44554601318092" lon="-0.8569375978543963">
<ele>489</ele>
<time>2014-06-28T10:02:33Z</time>
</trkpt>
<trkpt lat="38.4455453712952" lon="-0.8569532436543208">
<ele>489</ele>
<time>2014-06-28T10:02:34Z</time>
</trkpt>
<trkpt lat="38.44554393653248" lon="-0.8569694626666243">
<ele>489</ele>
<time>2014-06-28T10:02:35Z</time>
</trkpt>
<trkpt lat="38.44554362761849" lon="-0.8569809632155205">
<ele>489</ele>
<time>2014-06-28T10:02:36Z</time>
</trkpt>
<trkpt lat="38.4455422081013" lon="-0.8569920260227405">
<ele>489</ele>
<time>2014-06-28T10:02:37Z</time>
</trkpt>
<trkpt lat="38.44554128714134" lon="-0.8570028824144443">
<ele>489</ele>
<time>2014-06-28T10:02:38Z</time>
</trkpt>
<trkpt lat="38.44554399318763" lon="-0.8570188920833366">
<ele>489</ele>
<time>2014-06-28T10:02:39Z</time>
</trkpt>
<trkpt lat="38.44554366709682" lon="-0.857034581685627">
<ele>489</ele>
<time>2014-06-28T10:02:40Z</time>
</trkpt>
<trkpt lat="38.445540811666234" lon="-0.8570481552611257">
<ele>489</ele>
<time>2014-06-28T10:02:41Z</time>
</trkpt>
<trkpt lat="38.44553866786012" lon="-0.8570589275486774">
<ele>489</ele>
<time>2014-06-28T10:02:42Z</time>
</trkpt>
<trkpt lat="38.44553520440515" lon="-0.857068671332305">
<ele>489</ele>
<time>2014-06-28T10:02:43Z</time>
</trkpt>
<trkpt lat="38.44553071568995" lon="-0.8570892293309812">
<ele>489</ele>
<time>2014-06-28T10:02:44Z</time>
</trkpt>
<trkpt lat="38.44552755659349" lon="-0.8571157366214263">
<ele>489</ele>
<time>2014-06-28T10:02:45Z</time>
</trkpt>
<trkpt lat="38.445522966984505" lon="-0.857142695464438">
<ele>489</ele>
<time>2014-06-28T10:02:46Z</time>
</trkpt>
<trkpt lat="38.44551792408476" lon="-0.8571703744465811">
<ele>489</ele>
<time>2014-06-28T10:02:47Z</time>
</trkpt>
<trkpt lat="38.445514983754165" lon="-0.8571962685796514">
<ele>489</ele>
<time>2014-06-28T10:02:48Z</time>
</trkpt>
<trkpt lat="38.445512012059446" lon="-0.8572239225083574">
<ele>489</ele>
<time>2014-06-28T10:02:49Z</time>
</trkpt>
<trkpt lat="38.44550995473955" lon="-0.8572516778256954">
<ele>489</ele>
<time>2014-06-28T10:02:50Z</time>
</trkpt>
<trkpt lat="38.44550808416251" lon="-0.857275358759665">
<ele>489</ele>
<time>2014-06-28T10:02:51Z</time>
</trkpt>
<trkpt lat="38.44550956932807" lon="-0.8572958688729775">
<ele>489</ele>
<time>2014-06-28T10:02:52Z</time>
</trkpt>
<trkpt lat="38.44551050592554" lon="-0.8573128188360453">
<ele>489</ele>
<time>2014-06-28T10:02:53Z</time>
</trkpt>
<trkpt lat="38.445513975458404" lon="-0.8573304964039915">
<ele>489</ele>
<time>2014-06-28T10:02:54Z</time>
</trkpt>
<trkpt lat="38.445517637041974" lon="-0.8573463894138997">
<ele>489</ele>
<time>2014-06-28T10:02:55Z</time>
</trkpt>
<trkpt lat="38.44551789890828" lon="-0.8573627760509922">
<ele>489</ele>
<time>2014-06-28T10:02:56Z</time>
</trkpt>
<trkpt lat="38.445514835700486" lon="-0.8573823765720371">
<ele>489</ele>
<time>2014-06-28T10:02:57Z</time>
</trkpt>
<trkpt lat="38.44551144791468" lon="-0.8573999659176561">
<ele>489</ele>
<time>2014-06-28T10:02:58Z</time>
</trkpt>
<trkpt lat="38.44550769919092" lon="-0.8574171066579824">
<ele>489</ele>
<time>2014-06-28T10:02:59Z</time>
</trkpt>
<trkpt lat="38.445506153803926" lon="-0.8574330875268673">
<ele>489</ele>
<time>2014-06-28T10:03:00Z</time>
</trkpt>
<trkpt lat="38.445498751751536" lon="-0.8574486192852101">
<ele>489</ele>
<time>2014-06-28T10:03:01Z</time>
</trkpt>
<trkpt lat="38.445498899525795" lon="-0.857469286240948">
<ele>489</ele>
<time>2014-06-28T10:03:02Z</time>
</trkpt>
<trkpt lat="38.4454985991162" lon="-0.857490049594387">
<ele>489</ele>
<time>2014-06-28T10:03:03Z</time>
</trkpt>
<trkpt lat="38.44549548427229" lon="-0.8575042706650352">
<ele>489</ele>
<time>2014-06-28T10:03:04Z</time>
</trkpt>
<trkpt lat="38.445498003357976" lon="-0.8575165005279916">
<ele>489</ele>
<time>2014-06-28T10:03:05Z</time>
</trkpt>
<trkpt lat="38.445499763652386" lon="-0.8575271596286408">
<ele>489</ele>
<time>2014-06-28T10:03:06Z</time>
</trkpt>
<trkpt lat="38.4454989654848" lon="-0.8575474114048702">
<ele>489</ele>
<time>2014-06-28T10:03:07Z</time>
</trkpt>
<trkpt lat="38.44549630608647" lon="-0.8575729091053678">
<ele>489</ele>
<time>2014-06-28T10:03:08Z</time>
</trkpt>
<trkpt lat="38.44549367357599" lon="-0.8575974423211363">
<ele>489</ele>
<time>2014-06-28T10:03:09Z</time>
</trkpt>
<trkpt lat="38.44549142696948" lon="-0.8576217322083252">
<ele>489</ele>
<time>2014-06-28T10:03:10Z</time>
</trkpt>
<trkpt lat="38.4454943537326" lon="-0.8576465871831384">
<ele>489</ele>
<time>2014-06-28T10:03:11Z</time>
</trkpt>
<trkpt lat="38.445501751846464" lon="-0.8576698259540269">
<ele>489</ele>
<time>2014-06-28T10:03:12Z</time>
</trkpt>
<trkpt lat="38.44550879780892" lon="-0.857691594481786">
<ele>489</ele>
<time>2014-06-28T10:03:13Z</time>
</trkpt>
<trkpt lat="38.44551533010656" lon="-0.8577133804150281">
<ele>489</ele>
<time>2014-06-28T10:03:14Z</time>
</trkpt>
<trkpt lat="38.44552082831271" lon="-0.8577370836516945">
<ele>489</ele>
<time>2014-06-28T10:03:15Z</time>
</trkpt>
<trkpt lat="38.445520599468885" lon="-0.8577632166822631">
<ele>489</ele>
<time>2014-06-28T10:03:16Z</time>
</trkpt>
<trkpt lat="38.44552058418648" lon="-0.8577894212465271">
<ele>489</ele>
<time>2014-06-28T10:03:17Z</time>
</trkpt>
<trkpt lat="38.44551624891282" lon="-0.8578140427589259">
<ele>489</ele>
<time>2014-06-28T10:03:18Z</time>
</trkpt>
<trkpt lat="38.445506644147216" lon="-0.8578376844004603">
<ele>488</ele>
<time>2014-06-28T10:03:19Z</time>
</trkpt>
<trkpt lat="38.44549711810508" lon="-0.8578596456696115">
<ele>488</ele>
<time>2014-06-28T10:03:20Z</time>
</trkpt>
<trkpt lat="38.445489970829854" lon="-0.8578863007412499">
<ele>488</ele>
<time>2014-06-28T10:03:21Z</time>
</trkpt>
<trkpt lat="38.445489521317" lon="-0.8579130476202613">
<ele>488</ele>
<time>2014-06-28T10:03:22Z</time>
</trkpt>
<trkpt lat="38.44549154095476" lon="-0.8579386211332767">
<ele>488</ele>
<time>2014-06-28T10:03:23Z</time>
</trkpt>
<trkpt lat="38.44550094784152" lon="-0.8579611101043814">
<ele>488</ele>
<time>2014-06-28T10:03:24Z</time>
</trkpt>
<trkpt lat="38.44551196497907" lon="-0.8579791990965894">
<ele>488</ele>
<time>2014-06-28T10:03:25Z</time>
</trkpt>
<trkpt lat="38.44552851747013" lon="-0.8579989870409148">
<ele>488</ele>
<time>2014-06-28T10:03:26Z</time>
</trkpt>
<trkpt lat="38.44553990682034" lon="-0.8580166934943018">
<ele>488</ele>
<time>2014-06-28T10:03:27Z</time>
</trkpt>
<trkpt lat="38.44555037414493" lon="-0.8580346714722025">
<ele>488</ele>
<time>2014-06-28T10:03:28Z</time>
</trkpt>
<trkpt lat="38.445556085561755" lon="-0.8580611294538972">
<ele>488</ele>
<time>2014-06-28T10:03:29Z</time>
</trkpt>
<trkpt lat="38.44556430196952" lon="-0.8580846065566706">
<ele>488</ele>
<time>2014-06-28T10:03:30Z</time>
</trkpt>
<trkpt lat="38.44557304303613" lon="-0.8581078538021824">
<ele>488</ele>
<time>2014-06-28T10:03:31Z</time>
</trkpt>
<trkpt lat="38.4455792197176" lon="-0.8581309923431972">
<ele>487</ele>
<time>2014-06-28T10:03:32Z</time>
</trkpt>
<trkpt lat="38.445585339805355" lon="-0.8581526075421589">
<ele>487</ele>
<time>2014-06-28T10:03:33Z</time>
</trkpt>
<trkpt lat="38.4455912817756" lon="-0.8581729115767484">
<ele>487</ele>
<time>2014-06-28T10:03:34Z</time>
</trkpt>
<trkpt lat="38.44559746849157" lon="-0.8581900106892637">
<ele>487</ele>
<time>2014-06-28T10:03:35Z</time>
</trkpt>
<trkpt lat="38.44560503134375" lon="-0.8582048803491049">
<ele>487</ele>
<time>2014-06-28T10:03:36Z</time>
</trkpt>
<trkpt lat="38.44561221640698" lon="-0.8582204109714175">
<ele>487</ele>
<time>2014-06-28T10:03:37Z</time>
</trkpt>
<trkpt lat="38.44562181395921" lon="-0.8582321398492049">
<ele>487</ele>
<time>2014-06-28T10:03:38Z</time>
</trkpt>
<trkpt lat="38.44563053263089" lon="-0.8582448833416338">
<ele>487</ele>
<time>2014-06-28T10:03:39Z</time>
</trkpt>
<trkpt lat="38.445640142324294" lon="-0.8582554953259854">
<ele>487</ele>
<time>2014-06-28T10:03:40Z</time>
</trkpt>
<trkpt lat="38.44565080907203" lon="-0.8582661811138642">
<ele>487</ele>
<time>2014-06-28T10:03:41Z</time>
</trkpt>
<trkpt lat="38.44566357210876" lon="-0.858273215886584">
<ele>487</ele>
<time>2014-06-28T10:03:42Z</time>
</trkpt>
<trkpt lat="38.445674134594064" lon="-0.8582844498108402">
<ele>487</ele>
<time>2014-06-28T10:03:43Z</time>
</trkpt>
<trkpt lat="38.4456846874804" lon="-0.8582962649253092">
<ele>487</ele>
<time>2014-06-28T10:03:44Z</time>
</trkpt>
<trkpt lat="38.445698830962876" lon="-0.8583005505592977">
<ele>487</ele>
<time>2014-06-28T10:03:45Z</time>
</trkpt>
<trkpt lat="38.445714186995275" lon="-0.8583056183563847">
<ele>487</ele>
<time>2014-06-28T10:03:46Z</time>
</trkpt>
<trkpt lat="38.4457281767683" lon="-0.858310095099646">
<ele>487</ele>
<time>2014-06-28T10:03:47Z</time>
</trkpt>
<trkpt lat="38.44574158826598" lon="-0.8583143256264645">
<ele>487</ele>
<time>2014-06-28T10:03:48Z</time>
</trkpt>
<trkpt lat="38.44575460850679" lon="-0.8583201990140467">
<ele>487</ele>
<time>2014-06-28T10:03:49Z</time>
</trkpt>
<trkpt lat="38.445768361051705" lon="-0.8583262110082147">
<ele>487</ele>
<time>2014-06-28T10:03:50Z</time>
</trkpt>
<trkpt lat="38.44578255127288" lon="-0.8583323273214738">
<ele>487</ele>
<time>2014-06-28T10:03:51Z</time>
</trkpt>
<trkpt lat="38.445797004154386" lon="-0.8583379750663619">
<ele>487</ele>
<time>2014-06-28T10:03:52Z</time>
</trkpt>
<trkpt lat="38.44580904671507" lon="-0.8583409011032079">
<ele>487</ele>
<time>2014-06-28T10:03:53Z</time>
</trkpt>
<trkpt lat="38.44582152886368" lon="-0.8583438312924278">
<ele>487</ele>
<time>2014-06-28T10:03:54Z</time>
</trkpt>
<trkpt lat="38.44582152770133" lon="-0.8583437946013351">
<ele>487</ele>
<time>2014-06-28T10:03:55Z</time>
</trkpt>
<trkpt lat="38.44582152786587" lon="-0.8583437943045066">
<ele>487</ele>
<time>2014-06-28T10:03:56Z</time>
</trkpt>
<trkpt lat="38.44582152786528" lon="-0.8583437942982188">
<ele>487</ele>
<time>2014-06-28T10:03:57Z</time>
</trkpt>
<trkpt lat="38.44582152786526" lon="-0.8583437942981409">
<ele>487</ele>
<time>2014-06-28T10:03:58Z</time>
</trkpt>
<trkpt lat="38.44582473559566" lon="-0.8583318340855125">
<ele>487</ele>
<time>2014-06-28T10:03:59Z</time>
</trkpt>
<trkpt lat="38.44583158637638" lon="-0.8582894478034045">
<ele>487</ele>
<time>2014-06-28T10:04:00Z</time>
</trkpt>
<trkpt lat="38.4458380325862" lon="-0.8582649475839617">
<ele>487</ele>
<time>2014-06-28T10:04:01Z</time>
</trkpt>
<trkpt lat="38.445839757830186" lon="-0.8582417253106084">
<ele>486</ele>
<time>2014-06-28T10:04:02Z</time>
</trkpt>
<trkpt lat="38.44583000172381" lon="-0.8582208058777855">
<ele>486</ele>
<time>2014-06-28T10:04:03Z</time>
</trkpt>
<trkpt lat="38.44582055755233" lon="-0.8582033291371676">
<ele>486</ele>
<time>2014-06-28T10:04:04Z</time>
</trkpt>
<trkpt lat="38.44581189413451" lon="-0.8582067998800552">
<ele>486</ele>
<time>2014-06-28T10:04:05Z</time>
</trkpt>
<trkpt lat="38.44580421205334" lon="-0.8582101771995099">
<ele>486</ele>
<time>2014-06-28T10:04:06Z</time>
</trkpt>
<trkpt lat="38.44579687453926" lon="-0.8582131979169962">
<ele>486</ele>
<time>2014-06-28T10:04:07Z</time>
</trkpt>
<trkpt lat="38.445779965411745" lon="-0.8581970986747328">
<ele>486</ele>
<time>2014-06-28T10:04:08Z</time>
</trkpt>
<trkpt lat="38.44577638409478" lon="-0.8582079503972385">
<ele>486</ele>
<time>2014-06-28T10:04:09Z</time>
</trkpt>
<trkpt lat="38.44577724339932" lon="-0.8582166122005679">
<ele>486</ele>
<time>2014-06-28T10:04:10Z</time>
</trkpt>
<trkpt lat="38.44577916424169" lon="-0.858222755871944">
<ele>486</ele>
<time>2014-06-28T10:04:11Z</time>
</trkpt>
<trkpt lat="38.445778153498146" lon="-0.8582338986125283">
<ele>486</ele>
<time>2014-06-28T10:04:12Z</time>
</trkpt>
<trkpt lat="38.44578994509756" lon="-0.8582350400563612">
<ele>486</ele>
<time>2014-06-28T10:04:13Z</time>
</trkpt>
<trkpt lat="38.44581238502474" lon="-0.8582275703220131">
<ele>487</ele>
<time>2014-06-28T10:04:14Z</time>
</trkpt>
<trkpt lat="38.44584499263502" lon="-0.8582184801339942">
<ele>487</ele>
<time>2014-06-28T10:04:15Z</time>
</trkpt>
<trkpt lat="38.445890126545706" lon="-0.8582137165242936">
<ele>487</ele>
<time>2014-06-28T10:04:16Z</time>
</trkpt>
<trkpt lat="38.44593202569609" lon="-0.8582179212479881">
<ele>487</ele>
<time>2014-06-28T10:04:17Z</time>
</trkpt>
<trkpt lat="38.44596949174968" lon="-0.8582237726826974">
<ele>487</ele>
<time>2014-06-28T10:04:18Z</time>
</trkpt>
<trkpt lat="38.44600197386774" lon="-0.8582267585553488">
<ele>487</ele>
<time>2014-06-28T10:04:19Z</time>
</trkpt>
<trkpt lat="38.446035070001095" lon="-0.8582329494998345">
<ele>487</ele>
<time>2014-06-28T10:04:20Z</time>
</trkpt>
<trkpt lat="38.4460628486157" lon="-0.8582449468435781">
<ele>487</ele>
<time>2014-06-28T10:04:21Z</time>
</trkpt>
<trkpt lat="38.44608882855114" lon="-0.8582630975609343">
<ele>487</ele>
<time>2014-06-28T10:04:22Z</time>
</trkpt>
<trkpt lat="38.446107270494" lon="-0.8582822662464836">
<ele>487</ele>
<time>2014-06-28T10:04:23Z</time>
</trkpt>
<trkpt lat="38.44612234240954" lon="-0.8582963788752985">
<ele>487</ele>
<time>2014-06-28T10:04:24Z</time>
</trkpt>
<trkpt lat="38.446141815356015" lon="-0.8583113719417755">
<ele>487</ele>
<time>2014-06-28T10:04:25Z</time>
</trkpt>
<trkpt lat="38.44616338985724" lon="-0.8583247547997112">
<ele>487</ele>
<time>2014-06-28T10:04:26Z</time>
</trkpt>
<trkpt lat="38.44618320024591" lon="-0.8583380928602945">
<ele>487</ele>
<time>2014-06-28T10:04:27Z</time>
</trkpt>
<trkpt lat="38.446199246548204" lon="-0.8583568043550815">
<ele>487</ele>
<time>2014-06-28T10:04:28Z</time>
</trkpt>
<trkpt lat="38.44621128204425" lon="-0.858378238682782">
<ele>488</ele>
<time>2014-06-28T10:04:29Z</time>
</trkpt>
<trkpt lat="38.44622320813835" lon="-0.8583949235467548">
<ele>488</ele>
<time>2014-06-28T10:04:30Z</time>
</trkpt>
<trkpt lat="38.44623562765804" lon="-0.8584223921467898">
<ele>488</ele>
<time>2014-06-28T10:04:31Z</time>
</trkpt>
<trkpt lat="38.44624629736677" lon="-0.8584470250178567">
<ele>488</ele>
<time>2014-06-28T10:04:32Z</time>
</trkpt>
<trkpt lat="38.44625482003504" lon="-0.8584797601524795">
<ele>488</ele>
<time>2014-06-28T10:04:33Z</time>
</trkpt>
<trkpt lat="38.446265341795645" lon="-0.8585121940019251">
<ele>488</ele>
<time>2014-06-28T10:04:34Z</time>
</trkpt>
<trkpt lat="38.44627549382117" lon="-0.8585430692321434">
<ele>488</ele>
<time>2014-06-28T10:04:35Z</time>
</trkpt>
<trkpt lat="38.4462855814285" lon="-0.8585706936026196">
<ele>488</ele>
<time>2014-06-28T10:04:36Z</time>
</trkpt>
<trkpt lat="38.44629323688654" lon="-0.8586017258313929">
<ele>488</ele>
<time>2014-06-28T10:04:37Z</time>
</trkpt>
<trkpt lat="38.446302088120134" lon="-0.8586324285524004">
<ele>488</ele>
<time>2014-06-28T10:04:38Z</time>
</trkpt>
<trkpt lat="38.44631220904772" lon="-0.8586570128775919">
<ele>488</ele>
<time>2014-06-28T10:04:39Z</time>
</trkpt>
<trkpt lat="38.44632364688154" lon="-0.8586774114637595">
<ele>488</ele>
<time>2014-06-28T10:04:40Z</time>
</trkpt>
<trkpt lat="38.446337630299205" lon="-0.8586974012885259">
<ele>488</ele>
<time>2014-06-28T10:04:41Z</time>
</trkpt>
<trkpt lat="38.446350156813715" lon="-0.8587151495097383">
<ele>488</ele>
<time>2014-06-28T10:04:42Z</time>
</trkpt>
<trkpt lat="38.446360621020624" lon="-0.858733013729347">
<ele>488</ele>
<time>2014-06-28T10:04:43Z</time>
</trkpt>
<trkpt lat="38.44637152961527" lon="-0.8587497610412574">
<ele>488</ele>
<time>2014-06-28T10:04:44Z</time>
</trkpt>
<trkpt lat="38.446382863722214" lon="-0.8587610084459854">
<ele>488</ele>
<time>2014-06-28T10:04:45Z</time>
</trkpt>
<trkpt lat="38.4463930901521" lon="-0.8587735549441923">
<ele>487</ele>
<time>2014-06-28T10:04:46Z</time>
</trkpt>
<trkpt lat="38.446401547786316" lon="-0.858785762793007">
<ele>487</ele>
<time>2014-06-28T10:04:47Z</time>
</trkpt>
<trkpt lat="38.44641031322446" lon="-0.8587986511041225">
<ele>487</ele>
<time>2014-06-28T10:04:48Z</time>
</trkpt>
<trkpt lat="38.44641947663792" lon="-0.8588124537482711">
<ele>487</ele>
<time>2014-06-28T10:04:49Z</time>
</trkpt>
<trkpt lat="38.44642826538193" lon="-0.858827195417398">
<ele>487</ele>
<time>2014-06-28T10:04:50Z</time>
</trkpt>
<trkpt lat="38.446436442011645" lon="-0.8588474712581589">
<ele>487</ele>
<time>2014-06-28T10:04:51Z</time>
</trkpt>
<trkpt lat="38.446449415338535" lon="-0.8588738168919459">
<ele>487</ele>
<time>2014-06-28T10:04:52Z</time>
</trkpt>
<trkpt lat="38.44646094945316" lon="-0.8588975394798744">
<ele>487</ele>
<time>2014-06-28T10:04:53Z</time>
</trkpt>
<trkpt lat="38.44647133150191" lon="-0.8589019466228232">
<ele>487</ele>
<time>2014-06-28T10:04:54Z</time>
</trkpt>
<trkpt lat="38.44647985110191" lon="-0.8588999196812794">
<ele>487</ele>
<time>2014-06-28T10:04:55Z</time>
</trkpt>
<trkpt lat="38.44648615854739" lon="-0.8588967281339133">
<ele>487</ele>
<time>2014-06-28T10:04:56Z</time>
</trkpt>
<trkpt lat="38.44649062366084" lon="-0.8588973276306291">
<ele>487</ele>
<time>2014-06-28T10:04:57Z</time>
</trkpt>
<trkpt lat="38.44649805824723" lon="-0.8589011410765977">
<ele>487</ele>
<time>2014-06-28T10:04:58Z</time>
</trkpt>
<trkpt lat="38.44650790024051" lon="-0.8589163733293649">
<ele>487</ele>
<time>2014-06-28T10:04:59Z</time>
</trkpt>
<trkpt lat="38.44651789682032" lon="-0.8589316392354032">
<ele>487</ele>
<time>2014-06-28T10:05:00Z</time>
</trkpt>
<trkpt lat="38.44652834799949" lon="-0.8589424610288445">
<ele>487</ele>
<time>2014-06-28T10:05:01Z</time>
</trkpt>
<trkpt lat="38.44653950570247" lon="-0.8589554022192057">
<ele>487</ele>
<time>2014-06-28T10:05:02Z</time>
</trkpt>
<trkpt lat="38.44655069559476" lon="-0.8589695164101354">
<ele>487</ele>
<time>2014-06-28T10:05:03Z</time>
</trkpt>
<trkpt lat="38.446562178243184" lon="-0.8589821548547357">
<ele>487</ele>
<time>2014-06-28T10:05:04Z</time>
</trkpt>
<trkpt lat="38.446572637639285" lon="-0.8589946862027911">
<ele>487</ele>
<time>2014-06-28T10:05:05Z</time>
</trkpt>
<trkpt lat="38.44658436675168" lon="-0.8590057502397761">
<ele>487</ele>
<time>2014-06-28T10:05:06Z</time>
</trkpt>
<trkpt lat="38.446595954398106" lon="-0.8590216280297825">
<ele>487</ele>
<time>2014-06-28T10:05:07Z</time>
</trkpt>
<trkpt lat="38.44660607443675" lon="-0.8590374106889075">
<ele>487</ele>
<time>2014-06-28T10:05:08Z</time>
</trkpt>
<trkpt lat="38.446614960284066" lon="-0.8590507787001331">
<ele>488</ele>
<time>2014-06-28T10:05:09Z</time>
</trkpt>
<trkpt lat="38.446624653329934" lon="-0.8590616725554865">
<ele>488</ele>
<time>2014-06-28T10:05:10Z</time>
</trkpt>
<trkpt lat="38.44663042586782" lon="-0.8590791857043227">
<ele>488</ele>
<time>2014-06-28T10:05:11Z</time>
</trkpt>
<trkpt lat="38.44663933395525" lon="-0.8591005164018228">
<ele>488</ele>
<time>2014-06-28T10:05:12Z</time>
</trkpt>
<trkpt lat="38.446660347668434" lon="-0.8591031580275775">
<ele>488</ele>
<time>2014-06-28T10:05:13Z</time>
</trkpt>
<trkpt lat="38.44667985287348" lon="-0.8591049883931362">
<ele>488</ele>
<time>2014-06-28T10:05:14Z</time>
</trkpt>
<trkpt lat="38.44669968823471" lon="-0.8591031640906018">
<ele>488</ele>
<time>2014-06-28T10:05:15Z</time>
</trkpt>
<trkpt lat="38.44671465556861" lon="-0.8590958171818557">
<ele>488</ele>
<time>2014-06-28T10:05:16Z</time>
</trkpt>
<trkpt lat="38.44673028436686" lon="-0.8590878844171838">
<ele>488</ele>
<time>2014-06-28T10:05:17Z</time>
</trkpt>
<trkpt lat="38.44674569823786" lon="-0.8590792899153443">
<ele>488</ele>
<time>2014-06-28T10:05:18Z</time>
</trkpt>
<trkpt lat="38.446760887876096" lon="-0.8590721597709196">
<ele>487</ele>
<time>2014-06-28T10:05:19Z</time>
</trkpt>
<trkpt lat="38.44677602136161" lon="-0.8590663263610762">
<ele>487</ele>
<time>2014-06-28T10:05:20Z</time>
</trkpt>
<trkpt lat="38.44679148111778" lon="-0.8590569669306869">
<ele>487</ele>
<time>2014-06-28T10:05:21Z</time>
</trkpt>
<trkpt lat="38.44680863012428" lon="-0.8590479963485402">
<ele>487</ele>
<time>2014-06-28T10:05:22Z</time>
</trkpt>
<trkpt lat="38.44682391239904" lon="-0.8590382541489963">
<ele>487</ele>
<time>2014-06-28T10:05:23Z</time>
</trkpt>
<trkpt lat="38.44683858766534" lon="-0.8590296819655837">
<ele>487</ele>
<time>2014-06-28T10:05:24Z</time>
</trkpt>
<trkpt lat="38.44685341784807" lon="-0.8590222910809817">
<ele>487</ele>
<time>2014-06-28T10:05:25Z</time>
</trkpt>
<trkpt lat="38.446867079924985" lon="-0.8590133316229491">
<ele>487</ele>
<time>2014-06-28T10:05:26Z</time>
</trkpt>
<trkpt lat="38.446878641912654" lon="-0.8590068993054633">
<ele>487</ele>
<time>2014-06-28T10:05:27Z</time>
</trkpt>
<trkpt lat="38.44688834454454" lon="-0.859003826051525">
<ele>487</ele>
<time>2014-06-28T10:05:28Z</time>
</trkpt>
<trkpt lat="38.4468959904232" lon="-0.8590040920257653">
<ele>487</ele>
<time>2014-06-28T10:05:29Z</time>
</trkpt>
<trkpt lat="38.446902827601704" lon="-0.8590013052863448">
<ele>487</ele>
<time>2014-06-28T10:05:30Z</time>
</trkpt>
<trkpt lat="38.446904802653215" lon="-0.8590051242281479">
<ele>487</ele>
<time>2014-06-28T10:05:31Z</time>
</trkpt>
<trkpt lat="38.44688952259966" lon="-0.8590066241686592">
<ele>487</ele>
<time>2014-06-28T10:05:32Z</time>
</trkpt>
<trkpt lat="38.44687201033393" lon="-0.8589975608014203">
<ele>487</ele>
<time>2014-06-28T10:05:33Z</time>
</trkpt>
<trkpt lat="38.44685648390992" lon="-0.8589910847641042">
<ele>487</ele>
<time>2014-06-28T10:05:34Z</time>
</trkpt>
<trkpt lat="38.4468388486328" lon="-0.8589774844221246">
<ele>487</ele>
<time>2014-06-28T10:05:35Z</time>
</trkpt>
<trkpt lat="38.446826010819194" lon="-0.8589650906870223">
<ele>487</ele>
<time>2014-06-28T10:05:36Z</time>
</trkpt>
<trkpt lat="38.446811748391625" lon="-0.858956450531731">
<ele>487</ele>
<time>2014-06-28T10:05:37Z</time>
</trkpt>
<trkpt lat="38.44680172636661" lon="-0.8589540737562027">
<ele>487</ele>
<time>2014-06-28T10:05:38Z</time>
</trkpt>
<trkpt lat="38.44679469665572" lon="-0.858950999743698">
<ele>487</ele>
<time>2014-06-28T10:05:39Z</time>
</trkpt>
<trkpt lat="38.44681112809368" lon="-0.8589317383470564">
<ele>487</ele>
<time>2014-06-28T10:05:40Z</time>
</trkpt>
<trkpt lat="38.44683880589666" lon="-0.8589165795838629">
<ele>487</ele>
<time>2014-06-28T10:05:41Z</time>
</trkpt>
<trkpt lat="38.446867558583065" lon="-0.8589021437909318">
<ele>487</ele>
<time>2014-06-28T10:05:42Z</time>
</trkpt>
<trkpt lat="38.44689990486127" lon="-0.8588920341375733">
<ele>487</ele>
<time>2014-06-28T10:05:43Z</time>
</trkpt>
<trkpt lat="38.44693096480605" lon="-0.8588853307723058">
<ele>487</ele>
<time>2014-06-28T10:05:44Z</time>
</trkpt>
<trkpt lat="38.446962479410715" lon="-0.8588779006862878">
<ele>487</ele>
<time>2014-06-28T10:05:45Z</time>
</trkpt>
<trkpt lat="38.446992981382536" lon="-0.8588699955662028">
<ele>487</ele>
<time>2014-06-28T10:05:46Z</time>
</trkpt>
<trkpt lat="38.4470201297127" lon="-0.8588606556971241">
<ele>487</ele>
<time>2014-06-28T10:05:47Z</time>
</trkpt>
<trkpt lat="38.44704453692285" lon="-0.8588490316649753">
<ele>487</ele>
<time>2014-06-28T10:05:48Z</time>
</trkpt>
<trkpt lat="38.44706788767901" lon="-0.8588403638022182">
<ele>487</ele>
<time>2014-06-28T10:05:49Z</time>
</trkpt>
<trkpt lat="38.447090084932924" lon="-0.8588352686401527">
<ele>487</ele>
<time>2014-06-28T10:05:50Z</time>
</trkpt>
<trkpt lat="38.44711639316041" lon="-0.8588365466098566">
<ele>487</ele>
<time>2014-06-28T10:05:51Z</time>
</trkpt>
<trkpt lat="38.44714166860913" lon="-0.8588399770233099">
<ele>487</ele>
<time>2014-06-28T10:05:52Z</time>
</trkpt>
<trkpt lat="38.44716530096987" lon="-0.8588484822510807">
<ele>487</ele>
<time>2014-06-28T10:05:53Z</time>
</trkpt>
<trkpt lat="38.44718790626466" lon="-0.8588561506834663">
<ele>487</ele>
<time>2014-06-28T10:05:54Z</time>
</trkpt>
<trkpt lat="38.44720947793836" lon="-0.8588615576788292">
<ele>487</ele>
<time>2014-06-28T10:05:55Z</time>
</trkpt>
<trkpt lat="38.447230049509535" lon="-0.8588679924823176">
<ele>487</ele>
<time>2014-06-28T10:05:56Z</time>
</trkpt>
<trkpt lat="38.44724979276086" lon="-0.8588746770620868">
<ele>487</ele>
<time>2014-06-28T10:05:57Z</time>
</trkpt>
<trkpt lat="38.447272986994435" lon="-0.858878978426647">
<ele>487</ele>
<time>2014-06-28T10:05:58Z</time>
</trkpt>
<trkpt lat="38.44729834966666" lon="-0.8588786360963413">
<ele>487</ele>
<time>2014-06-28T10:05:59Z</time>
</trkpt>
<trkpt lat="38.44732308407841" lon="-0.8588789361796778">
<ele>487</ele>
<time>2014-06-28T10:06:00Z</time>
</trkpt>
<trkpt lat="38.447346977948726" lon="-0.8588810386626954">
<ele>487</ele>
<time>2014-06-28T10:06:01Z</time>
</trkpt>
<trkpt lat="38.44737049791081" lon="-0.8588838560085041">
<ele>487</ele>
<time>2014-06-28T10:06:02Z</time>
</trkpt>
<trkpt lat="38.4473928197001" lon="-0.8588860497313798">
<ele>487</ele>
<time>2014-06-28T10:06:03Z</time>
</trkpt>
<trkpt lat="38.44741336279415" lon="-0.8588877604896659">
<ele>487</ele>
<time>2014-06-28T10:06:04Z</time>
</trkpt>
<trkpt lat="38.44743276854153" lon="-0.8588917305349703">
<ele>487</ele>
<time>2014-06-28T10:06:05Z</time>
</trkpt>
<trkpt lat="38.44745242426342" lon="-0.8588959208960052">
<ele>487</ele>
<time>2014-06-28T10:06:06Z</time>
</trkpt>
<trkpt lat="38.447469079047934" lon="-0.8588997623872533">
<ele>487</ele>
<time>2014-06-28T10:06:07Z</time>
</trkpt>
<trkpt lat="38.44749297236132" lon="-0.8589088149841152">
<ele>487</ele>
<time>2014-06-28T10:06:08Z</time>
</trkpt>
<trkpt lat="38.44751846621165" lon="-0.8589138335984752">
<ele>487</ele>
<time>2014-06-28T10:06:09Z</time>
</trkpt>
<trkpt lat="38.44754108820494" lon="-0.8589184647735152">
<ele>487</ele>
<time>2014-06-28T10:06:10Z</time>
</trkpt>
<trkpt lat="38.4475632103897" lon="-0.8589225626437044">
<ele>487</ele>
<time>2014-06-28T10:06:11Z</time>
</trkpt>
<trkpt lat="38.44757506328778" lon="-0.8589039224840932">
<ele>487</ele>
<time>2014-06-28T10:06:12Z</time>
</trkpt>
<trkpt lat="38.44759145984887" lon="-0.8588914816225377">
<ele>487</ele>
<time>2014-06-28T10:06:13Z</time>
</trkpt>
<trkpt lat="38.44760785016127" lon="-0.8588885861605607">
<ele>487</ele>
<time>2014-06-28T10:06:14Z</time>
</trkpt>
<trkpt lat="38.44762568710634" lon="-0.8588879325242179">
<ele>487</ele>
<time>2014-06-28T10:06:15Z</time>
</trkpt>
<trkpt lat="38.4476460380614" lon="-0.8588884374441887">
<ele>486</ele>
<time>2014-06-28T10:06:16Z</time>
</trkpt>
<trkpt lat="38.447669923739106" lon="-0.8588813740377745">
<ele>486</ele>
<time>2014-06-28T10:06:17Z</time>
</trkpt>
<trkpt lat="38.447694817618974" lon="-0.8588759941184225">
<ele>486</ele>
<time>2014-06-28T10:06:18Z</time>
</trkpt>
<trkpt lat="38.44770089855182" lon="-0.858872003831436">
<ele>486</ele>
<time>2014-06-28T10:06:19Z</time>
</trkpt>
<trkpt lat="38.447713358073514" lon="-0.8588696399285097">
<ele>486</ele>
<time>2014-06-28T10:06:20Z</time>
</trkpt>
<trkpt lat="38.44772817275078" lon="-0.8588675014320505">
<ele>486</ele>
<time>2014-06-28T10:06:21Z</time>
</trkpt>
<trkpt lat="38.4477464481471" lon="-0.8588658246679777">
<ele>486</ele>
<time>2014-06-28T10:06:22Z</time>
</trkpt>
<trkpt lat="38.44776604035111" lon="-0.8588649304413679">
<ele>486</ele>
<time>2014-06-28T10:06:23Z</time>
</trkpt>
<trkpt lat="38.44778108481488" lon="-0.8588650800307092">
<ele>486</ele>
<time>2014-06-28T10:06:24Z</time>
</trkpt>
<trkpt lat="38.44779673614042" lon="-0.8588659620838016">
<ele>486</ele>
<time>2014-06-28T10:06:25Z</time>
</trkpt>
<trkpt lat="38.44781295348017" lon="-0.8588652838172902">
<ele>486</ele>
<time>2014-06-28T10:06:26Z</time>
</trkpt>
<trkpt lat="38.44782949692349" lon="-0.8588643303143458">
<ele>486</ele>
<time>2014-06-28T10:06:27Z</time>
</trkpt>
<trkpt lat="38.44784463513726" lon="-0.8588609995257105">
<ele>486</ele>
<time>2014-06-28T10:06:28Z</time>
</trkpt>
<trkpt lat="38.44785877258082" lon="-0.8588536829559399">
<ele>486</ele>
<time>2014-06-28T10:06:29Z</time>
</trkpt>
<trkpt lat="38.4478721797241" lon="-0.8588420053849684">
<ele>486</ele>
<time>2014-06-28T10:06:30Z</time>
</trkpt>
<trkpt lat="38.44788607025886" lon="-0.8588328941337662">
<ele>486</ele>
<time>2014-06-28T10:06:31Z</time>
</trkpt>
<trkpt lat="38.447899766667554" lon="-0.8588241037099602">
<ele>486</ele>
<time>2014-06-28T10:06:32Z</time>
</trkpt>
<trkpt lat="38.447911153579746" lon="-0.8588160826104025">
<ele>486</ele>
<time>2014-06-28T10:06:33Z</time>
</trkpt>
<trkpt lat="38.447921036948934" lon="-0.8588057400196873">
<ele>486</ele>
<time>2014-06-28T10:06:34Z</time>
</trkpt>
<trkpt lat="38.44793044078748" lon="-0.85879795433137">
<ele>486</ele>
<time>2014-06-28T10:06:35Z</time>
</trkpt>
<trkpt lat="38.44794099123326" lon="-0.8587907997078844">
<ele>486</ele>
<time>2014-06-28T10:06:36Z</time>
</trkpt>
<trkpt lat="38.447952480777545" lon="-0.8587841951821295">
<ele>486</ele>
<time>2014-06-28T10:06:37Z</time>
</trkpt>
<trkpt lat="38.44796490602879" lon="-0.85877934996239">
<ele>486</ele>
<time>2014-06-28T10:06:38Z</time>
</trkpt>
<trkpt lat="38.447976933454555" lon="-0.8587748903324564">
<ele>486</ele>
<time>2014-06-28T10:06:39Z</time>
</trkpt>
<trkpt lat="38.44799112825467" lon="-0.8587702524143092">
<ele>486</ele>
<time>2014-06-28T10:06:40Z</time>
</trkpt>
<trkpt lat="38.448005598653566" lon="-0.8587658616691223">
<ele>486</ele>
<time>2014-06-28T10:06:41Z</time>
</trkpt>
<trkpt lat="38.4480197210348" lon="-0.8587624744066392">
<ele>486</ele>
<time>2014-06-28T10:06:42Z</time>
</trkpt>
<trkpt lat="38.44803342702868" lon="-0.8587594756725689">
<ele>486</ele>
<time>2014-06-28T10:06:43Z</time>
</trkpt>
<trkpt lat="38.44804980381708" lon="-0.8587570190953921">
<ele>486</ele>
<time>2014-06-28T10:06:44Z</time>
</trkpt>
<trkpt lat="38.44806721562271" lon="-0.8587566480117285">
<ele>486</ele>
<time>2014-06-28T10:06:45Z</time>
</trkpt>
<trkpt lat="38.44808488043129" lon="-0.8587562057844347">
<ele>486</ele>
<time>2014-06-28T10:06:46Z</time>
</trkpt>
<trkpt lat="38.44810275332431" lon="-0.8587549492284562">
<ele>486</ele>
<time>2014-06-28T10:06:47Z</time>
</trkpt>
<trkpt lat="38.44812064997752" lon="-0.8587542430413094">
<ele>486</ele>
<time>2014-06-28T10:06:48Z</time>
</trkpt>
<trkpt lat="38.448137410613256" lon="-0.8587521183231941">
<ele>486</ele>
<time>2014-06-28T10:06:49Z</time>
</trkpt>
<trkpt lat="38.44815490939809" lon="-0.858751049869583">
<ele>486</ele>
<time>2014-06-28T10:06:50Z</time>
</trkpt>
<trkpt lat="38.44816990683095" lon="-0.8587506999698196">
<ele>486</ele>
<time>2014-06-28T10:06:51Z</time>
</trkpt>
<trkpt lat="38.448185447342894" lon="-0.8587498646692759">
<ele>486</ele>
<time>2014-06-28T10:06:52Z</time>
</trkpt>
<trkpt lat="38.4481994282714" lon="-0.8587481992669275">
<ele>486</ele>
<time>2014-06-28T10:06:53Z</time>
</trkpt>
<trkpt lat="38.44821166523877" lon="-0.8587478574278439">
<ele>486</ele>
<time>2014-06-28T10:06:54Z</time>
</trkpt>
<trkpt lat="38.44822138217541" lon="-0.85874804492104">
<ele>486</ele>
<time>2014-06-28T10:06:55Z</time>
</trkpt>
<trkpt lat="38.4482307052776" lon="-0.858746108410796">
<ele>486</ele>
<time>2014-06-28T10:06:56Z</time>
</trkpt>
<trkpt lat="38.44823778821711" lon="-0.8587482069024269">
<ele>486</ele>
<time>2014-06-28T10:06:57Z</time>
</trkpt>
<trkpt lat="38.44824301533667" lon="-0.858750748443619">
<ele>486</ele>
<time>2014-06-28T10:06:58Z</time>
</trkpt>
<trkpt lat="38.448248082780694" lon="-0.8587545608938929">
<ele>486</ele>
<time>2014-06-28T10:06:59Z</time>
</trkpt>
<trkpt lat="38.44825270221141" lon="-0.8587595476306746">
<ele>486</ele>
<time>2014-06-28T10:07:00Z</time>
</trkpt>
<trkpt lat="38.44825620008843" lon="-0.8587670513198232">
<ele>486</ele>
<time>2014-06-28T10:07:01Z</time>
</trkpt>
<trkpt lat="38.44825290267871" lon="-0.8587584601002077">
<ele>486</ele>
<time>2014-06-28T10:07:02Z</time>
</trkpt>
<trkpt lat="38.4482538333069" lon="-0.858762514106877">
<ele>486</ele>
<time>2014-06-28T10:07:03Z</time>
</trkpt>
<trkpt lat="38.44825760093697" lon="-0.8587681240649314">
<ele>486</ele>
<time>2014-06-28T10:07:04Z</time>
</trkpt>
<trkpt lat="38.44827195667627" lon="-0.8587695952703748">
<ele>486</ele>
<time>2014-06-28T10:07:05Z</time>
</trkpt>
<trkpt lat="38.4482869622978" lon="-0.8587710916916513">
<ele>486</ele>
<time>2014-06-28T10:07:06Z</time>
</trkpt>
<trkpt lat="38.448302179929" lon="-0.8587755553183519">
<ele>486</ele>
<time>2014-06-28T10:07:07Z</time>
</trkpt>
<trkpt lat="38.44831576956471" lon="-0.8587736363960554">
<ele>486</ele>
<time>2014-06-28T10:07:08Z</time>
</trkpt>
<trkpt lat="38.4483268540822" lon="-0.8587736330544683">
<ele>486</ele>
<time>2014-06-28T10:07:09Z</time>
</trkpt>
<trkpt lat="38.44833866155776" lon="-0.8587748470778104">
<ele>486</ele>
<time>2014-06-28T10:07:10Z</time>
</trkpt>
<trkpt lat="38.448351891584245" lon="-0.8587775865605681">
<ele>486</ele>
<time>2014-06-28T10:07:11Z</time>
</trkpt>
<trkpt lat="38.44836542343701" lon="-0.858782938327462">
<ele>486</ele>
<time>2014-06-28T10:07:12Z</time>
</trkpt>
<trkpt lat="38.44838061812704" lon="-0.8587890751886622">
<ele>486</ele>
<time>2014-06-28T10:07:13Z</time>
</trkpt>
<trkpt lat="38.44839573592626" lon="-0.8587939109822087">
<ele>486</ele>
<time>2014-06-28T10:07:14Z</time>
</trkpt>
<trkpt lat="38.44841118026113" lon="-0.8587958272103715">
<ele>486</ele>
<time>2014-06-28T10:07:15Z</time>
</trkpt>
<trkpt lat="38.4484234642202" lon="-0.8587981793164645">
<ele>486</ele>
<time>2014-06-28T10:07:16Z</time>
</trkpt>
<trkpt lat="38.44843641578474" lon="-0.8587983765441736">
<ele>486</ele>
<time>2014-06-28T10:07:17Z</time>
</trkpt>
<trkpt lat="38.44844865694601" lon="-0.8588013623982386">
<ele>486</ele>
<time>2014-06-28T10:07:18Z</time>
</trkpt>
<trkpt lat="38.448462432731645" lon="-0.8588104998784765">
<ele>486</ele>
<time>2014-06-28T10:07:19Z</time>
</trkpt>
<trkpt lat="38.448477625487634" lon="-0.858822111050628">
<ele>486</ele>
<time>2014-06-28T10:07:20Z</time>
</trkpt>
<trkpt lat="38.44849071999866" lon="-0.8588362399430862">
<ele>486</ele>
<time>2014-06-28T10:07:21Z</time>
</trkpt>
<trkpt lat="38.44850273652688" lon="-0.8588517735722111">
<ele>487</ele>
<time>2014-06-28T10:07:22Z</time>
</trkpt>
<trkpt lat="38.44851337202691" lon="-0.8588661432061037">
<ele>487</ele>
<time>2014-06-28T10:07:23Z</time>
</trkpt>
<trkpt lat="38.44852403144712" lon="-0.8588813276722433">
<ele>487</ele>
<time>2014-06-28T10:07:24Z</time>
</trkpt>
<trkpt lat="38.44853493087316" lon="-0.8588958218624354">
<ele>487</ele>
<time>2014-06-28T10:07:25Z</time>
</trkpt>
<trkpt lat="38.44854933844949" lon="-0.8589152210619315">
<ele>487</ele>
<time>2014-06-28T10:07:26Z</time>
</trkpt>
<trkpt lat="38.44856095137201" lon="-0.8589339307126655">
<ele>487</ele>
<time>2014-06-28T10:07:27Z</time>
</trkpt>
<trkpt lat="38.44857331029343" lon="-0.8589515080711947">
<ele>487</ele>
<time>2014-06-28T10:07:28Z</time>
</trkpt>
<trkpt lat="38.44858558681019" lon="-0.8589689781388337">
<ele>487</ele>
<time>2014-06-28T10:07:29Z</time>
</trkpt>
<trkpt lat="38.44859921132968" lon="-0.8589872717722278">
<ele>487</ele>
<time>2014-06-28T10:07:30Z</time>
</trkpt>
<trkpt lat="38.448612475537544" lon="-0.8590060535582433">
<ele>487</ele>
<time>2014-06-28T10:07:31Z</time>
</trkpt>
<trkpt lat="38.448622528220284" lon="-0.8590250628144162">
<ele>487</ele>
<time>2014-06-28T10:07:32Z</time>
</trkpt>
<trkpt lat="38.44863218400852" lon="-0.8590407881576102">
<ele>487</ele>
<time>2014-06-28T10:07:33Z</time>
</trkpt>
<trkpt lat="38.44863961294685" lon="-0.8590528222380911">
<ele>487</ele>
<time>2014-06-28T10:07:34Z</time>
</trkpt>
<trkpt lat="38.44864216703967" lon="-0.8590663602111195">
<ele>487</ele>
<time>2014-06-28T10:07:35Z</time>
</trkpt>
<trkpt lat="38.44864037496707" lon="-0.8590821971193138">
<ele>487</ele>
<time>2014-06-28T10:07:36Z</time>
</trkpt>
<trkpt lat="38.448643895111495" lon="-0.8591011503411384">
<ele>487</ele>
<time>2014-06-28T10:07:37Z</time>
</trkpt>
<trkpt lat="38.44864834357178" lon="-0.8591216322480221">
<ele>487</ele>
<time>2014-06-28T10:07:38Z</time>
</trkpt>
<trkpt lat="38.448652837432896" lon="-0.8591436529215092">
<ele>487</ele>
<time>2014-06-28T10:07:39Z</time>
</trkpt>
<trkpt lat="38.448653445707414" lon="-0.8591708416303997">
<ele>487</ele>
<time>2014-06-28T10:07:40Z</time>
</trkpt>
<trkpt lat="38.44865434590527" lon="-0.8592036232413891">
<ele>487</ele>
<time>2014-06-28T10:07:41Z</time>
</trkpt>
<trkpt lat="38.44865531001015" lon="-0.8592345902638712">
<ele>487</ele>
<time>2014-06-28T10:07:42Z</time>
</trkpt>
<trkpt lat="38.44865578046599" lon="-0.8592615886569109">
<ele>487</ele>
<time>2014-06-28T10:07:43Z</time>
</trkpt>
<trkpt lat="38.448651448628375" lon="-0.8592943203586383">
<ele>486</ele>
<time>2014-06-28T10:07:44Z</time>
</trkpt>
<trkpt lat="38.44864197206572" lon="-0.8593284139457896">
<ele>486</ele>
<time>2014-06-28T10:07:45Z</time>
</trkpt>
<trkpt lat="38.44863205594812" lon="-0.85936221697531">
<ele>486</ele>
<time>2014-06-28T10:07:46Z</time>
</trkpt>
<trkpt lat="38.448630181282674" lon="-0.8593994027658859">
<ele>486</ele>
<time>2014-06-28T10:07:47Z</time>
</trkpt>
<trkpt lat="38.448629304486275" lon="-0.8594329524906361">
<ele>486</ele>
<time>2014-06-28T10:07:48Z</time>
</trkpt>
<trkpt lat="38.448633004374635" lon="-0.8594642258916668">
<ele>486</ele>
<time>2014-06-28T10:07:49Z</time>
</trkpt>
<trkpt lat="38.44863691396964" lon="-0.8594863924324568">
<ele>486</ele>
<time>2014-06-28T10:07:50Z</time>
</trkpt>
<trkpt lat="38.448640235984726" lon="-0.8595114393402485">
<ele>486</ele>
<time>2014-06-28T10:07:51Z</time>
</trkpt>
<trkpt lat="38.44864356192368" lon="-0.8595357401854993">
<ele>486</ele>
<time>2014-06-28T10:07:52Z</time>
</trkpt>
<trkpt lat="38.44864704326256" lon="-0.8595576808227465">
<ele>486</ele>
<time>2014-06-28T10:07:53Z</time>
</trkpt>
<trkpt lat="38.44864210110795" lon="-0.8595751542114397">
<ele>486</ele>
<time>2014-06-28T10:07:54Z</time>
</trkpt>
<trkpt lat="38.44863880327752" lon="-0.8595928074746246">
<ele>486</ele>
<time>2014-06-28T10:07:55Z</time>
</trkpt>
<trkpt lat="38.4486366967675" lon="-0.8596116260357405">
<ele>486</ele>
<time>2014-06-28T10:07:56Z</time>
</trkpt>
<trkpt lat="38.448639222976105" lon="-0.8596321372229095">
<ele>487</ele>
<time>2014-06-28T10:07:57Z</time>
</trkpt>
<trkpt lat="38.448642267383924" lon="-0.8596625156341422">
<ele>487</ele>
<time>2014-06-28T10:07:58Z</time>
</trkpt>
<trkpt lat="38.44864318505762" lon="-0.8596978275446807">
<ele>487</ele>
<time>2014-06-28T10:07:59Z</time>
</trkpt>
<trkpt lat="38.448643653123085" lon="-0.8597340263580021">
<ele>487</ele>
<time>2014-06-28T10:08:00Z</time>
</trkpt>
<trkpt lat="38.448645452656415" lon="-0.8597577934338387">
<ele>487</ele>
<time>2014-06-28T10:08:01Z</time>
</trkpt>
<trkpt lat="38.44864813497885" lon="-0.8597817141145265">
<ele>487</ele>
<time>2014-06-28T10:08:02Z</time>
</trkpt>
<trkpt lat="38.44864899839732" lon="-0.859808769739814">
<ele>487</ele>
<time>2014-06-28T10:08:03Z</time>
</trkpt>
<trkpt lat="38.448649542924" lon="-0.8598356379285155">
<ele>487</ele>
<time>2014-06-28T10:08:04Z</time>
</trkpt>
<trkpt lat="38.44865114718027" lon="-0.859859842538085">
<ele>487</ele>
<time>2014-06-28T10:08:05Z</time>
</trkpt>
<trkpt lat="38.44865387046732" lon="-0.8598837088906245">
<ele>487</ele>
<time>2014-06-28T10:08:06Z</time>
</trkpt>
<trkpt lat="38.44865724502184" lon="-0.8599079298857069">
<ele>487</ele>
<time>2014-06-28T10:08:07Z</time>
</trkpt>
<trkpt lat="38.44866081554921" lon="-0.8599318368482707">
<ele>487</ele>
<time>2014-06-28T10:08:08Z</time>
</trkpt>
<trkpt lat="38.44866551413187" lon="-0.8599548266755915">
<ele>487</ele>
<time>2014-06-28T10:08:09Z</time>
</trkpt>
<trkpt lat="38.44867573329506" lon="-0.8599805230922208">
<ele>486</ele>
<time>2014-06-28T10:08:10Z</time>
</trkpt>
<trkpt lat="38.44868604327466" lon="-0.8600054862508737">
<ele>486</ele>
<time>2014-06-28T10:08:11Z</time>
</trkpt>
<trkpt lat="38.44870237977388" lon="-0.8600291100633809">
<ele>486</ele>
<time>2014-06-28T10:08:12Z</time>
</trkpt>
<trkpt lat="38.44874667322467" lon="-0.8600581775715598">
<ele>486</ele>
<time>2014-06-28T10:08:13Z</time>
</trkpt>
<trkpt lat="38.448784951340784" lon="-0.8600868001669334">
<ele>486</ele>
<time>2014-06-28T10:08:14Z</time>
</trkpt>
<trkpt lat="38.448826347066046" lon="-0.8600958011438616">
<ele>486</ele>
<time>2014-06-28T10:08:15Z</time>
</trkpt>
<trkpt lat="38.44885956639585" lon="-0.8600940555059088">
<ele>486</ele>
<time>2014-06-28T10:08:16Z</time>
</trkpt>
<trkpt lat="38.448890417732926" lon="-0.8600976520104182">
<ele>486</ele>
<time>2014-06-28T10:08:17Z</time>
</trkpt>
<trkpt lat="38.448922921188526" lon="-0.8601047656537971">
<ele>486</ele>
<time>2014-06-28T10:08:18Z</time>
</trkpt>
<trkpt lat="38.448914349024996" lon="-0.8601405209833307">
<ele>486</ele>
<time>2014-06-28T10:08:19Z</time>
</trkpt>
<trkpt lat="38.44891769541898" lon="-0.8601744598983415">
<ele>486</ele>
<time>2014-06-28T10:08:20Z</time>
</trkpt>
<trkpt lat="38.44891521963627" lon="-0.8601898651823514">
<ele>486</ele>
<time>2014-06-28T10:08:21Z</time>
</trkpt>
<trkpt lat="38.44892271648779" lon="-0.8601981656656291">
<ele>486</ele>
<time>2014-06-28T10:08:22Z</time>
</trkpt>
<trkpt lat="38.44892884994549" lon="-0.8602084773809628">
<ele>486</ele>
<time>2014-06-28T10:08:23Z</time>
</trkpt>
<trkpt lat="38.448940062259" lon="-0.8602209114992041">
<ele>486</ele>
<time>2014-06-28T10:08:24Z</time>
</trkpt>
<trkpt lat="38.448948715058926" lon="-0.8602695552664237">
<ele>486</ele>
<time>2014-06-28T10:08:25Z</time>
</trkpt>
<trkpt lat="38.44896008551919" lon="-0.8603160505938943">
<ele>486</ele>
<time>2014-06-28T10:08:26Z</time>
</trkpt>
<trkpt lat="38.448970179074145" lon="-0.8603574627818718">
<ele>486</ele>
<time>2014-06-28T10:08:27Z</time>
</trkpt>
<trkpt lat="38.44897982545975" lon="-0.8603960218552557">
<ele>486</ele>
<time>2014-06-28T10:08:28Z</time>
</trkpt>
<trkpt lat="38.44898543562406" lon="-0.8604341469909688">
<ele>486</ele>
<time>2014-06-28T10:08:29Z</time>
</trkpt>
<trkpt lat="38.44899627787648" lon="-0.8604701498944518">
<ele>486</ele>
<time>2014-06-28T10:08:30Z</time>
</trkpt>
<trkpt lat="38.4490055195857" lon="-0.8604986260419256">
<ele>486</ele>
<time>2014-06-28T10:08:31Z</time>
</trkpt>
<trkpt lat="38.44901380620783" lon="-0.8605246471571563">
<ele>486</ele>
<time>2014-06-28T10:08:32Z</time>
</trkpt>
<trkpt lat="38.449017657731346" lon="-0.8605465670121113">
<ele>486</ele>
<time>2014-06-28T10:08:33Z</time>
</trkpt>
<trkpt lat="38.449022494374795" lon="-0.8605649055532835">
<ele>486</ele>
<time>2014-06-28T10:08:34Z</time>
</trkpt>
<trkpt lat="38.44903060806848" lon="-0.8605835443117692">
<ele>486</ele>
<time>2014-06-28T10:08:35Z</time>
</trkpt>
<trkpt lat="38.44903701264259" lon="-0.8606014820405038">
<ele>486</ele>
<time>2014-06-28T10:08:36Z</time>
</trkpt>
<trkpt lat="38.44904579155171" lon="-0.8606183212288133">
<ele>486</ele>
<time>2014-06-28T10:08:37Z</time>
</trkpt>
<trkpt lat="38.449056172364145" lon="-0.8606364234589018">
<ele>486</ele>
<time>2014-06-28T10:08:38Z</time>
</trkpt>
<trkpt lat="38.44907395820685" lon="-0.8606478916758818">
<ele>486</ele>
<time>2014-06-28T10:08:39Z</time>
</trkpt>
<trkpt lat="38.4490665576037" lon="-0.8606482281700178">
<ele>487</ele>
<time>2014-06-28T10:08:40Z</time>
</trkpt>
<trkpt lat="38.4490665576037" lon="-0.8606482281700178">
<ele>487</ele>
<time>2014-06-28T10:08:41Z</time>
</trkpt>
<trkpt lat="38.4490665576037" lon="-0.8606482281700178">
<ele>487</ele>
<time>2014-06-28T10:08:42Z</time>
</trkpt>
<trkpt lat="38.4490665576037" lon="-0.8606482281700178">
<ele>487</ele>
<time>2014-06-28T10:08:43Z</time>
</trkpt>
<trkpt lat="38.44907268690131" lon="-0.8606241352503191">
<ele>487</ele>
<time>2014-06-28T10:08:44Z</time>
</trkpt>
<trkpt lat="38.4490740324087" lon="-0.8606353693963757">
<ele>487</ele>
<time>2014-06-28T10:08:45Z</time>
</trkpt>
<trkpt lat="38.449079847250715" lon="-0.8606427422151655">
<ele>487</ele>
<time>2014-06-28T10:08:46Z</time>
</trkpt>
<trkpt lat="38.449079847250715" lon="-0.8606427422151655">
<ele>487</ele>
<time>2014-06-28T10:08:47Z</time>
</trkpt>
<trkpt lat="38.449079847250715" lon="-0.8606427422151655">
<ele>487</ele>
<time>2014-06-28T10:08:48Z</time>
</trkpt>
<trkpt lat="38.449079847250715" lon="-0.8606427422151655">
<ele>487</ele>
<time>2014-06-28T10:08:49Z</time>
</trkpt>
<trkpt lat="38.449079847250715" lon="-0.8606427422151655">
<ele>487</ele>
<time>2014-06-28T10:08:50Z</time>
</trkpt>
<trkpt lat="38.449079847250715" lon="-0.8606427422151655">
<ele>487</ele>
<time>2014-06-28T10:08:51Z</time>
</trkpt>
<trkpt lat="38.449079847250715" lon="-0.8606427422151655">
<ele>487</ele>
<time>2014-06-28T10:08:52Z</time>
</trkpt>
<trkpt lat="38.449079847250715" lon="-0.8606427422151655">
<ele>487</ele>
<time>2014-06-28T10:08:53Z</time>
</trkpt>
<trkpt lat="38.449079847250715" lon="-0.8606427422151655">
<ele>487</ele>
<time>2014-06-28T10:08:54Z</time>
</trkpt>
<trkpt lat="38.449079847250715" lon="-0.8606427422151655">
<ele>487</ele>
<time>2014-06-28T10:08:55Z</time>
</trkpt>
<trkpt lat="38.449151189052216" lon="-0.8607234960977498">
<ele>487</ele>
<time>2014-06-28T10:08:56Z</time>
</trkpt>
<trkpt lat="38.449151189052216" lon="-0.8607234960977498">
<ele>487</ele>
<time>2014-06-28T10:08:57Z</time>
</trkpt>
<trkpt lat="38.449151189052216" lon="-0.8607234960977498">
<ele>487</ele>
<time>2014-06-28T10:08:58Z</time>
</trkpt>
<trkpt lat="38.449151189052216" lon="-0.8607234960977498">
<ele>487</ele>
<time>2014-06-28T10:08:59Z</time>
</trkpt>
<trkpt lat="38.449151189052216" lon="-0.8607234960977498">
<ele>487</ele>
<time>2014-06-28T10:09:00Z</time>
</trkpt>
<trkpt lat="38.449151189052216" lon="-0.8607234960977498">
<ele>487</ele>
<time>2014-06-28T10:09:01Z</time>
</trkpt>
<trkpt lat="38.4491998882092" lon="-0.8608289711210975">
<ele>487</ele>
<time>2014-06-28T10:09:02Z</time>
</trkpt>
<trkpt lat="38.44921304475033" lon="-0.8608567713105495">
<ele>487</ele>
<time>2014-06-28T10:09:03Z</time>
</trkpt>
<trkpt lat="38.44922132970048" lon="-0.8608836376263284">
<ele>487</ele>
<time>2014-06-28T10:09:04Z</time>
</trkpt>
<trkpt lat="38.44922132970048" lon="-0.8608836376263284">
<ele>487</ele>
<time>2014-06-28T10:09:05Z</time>
</trkpt>
<trkpt lat="38.44922132970048" lon="-0.8608836376263284">
<ele>487</ele>
<time>2014-06-28T10:09:06Z</time>
</trkpt>
<trkpt lat="38.44922132970048" lon="-0.8608836376263284">
<ele>487</ele>
<time>2014-06-28T10:09:07Z</time>
</trkpt>
<trkpt lat="38.44922132970048" lon="-0.8608836376263284">
<ele>487</ele>
<time>2014-06-28T10:09:08Z</time>
</trkpt>
<trkpt lat="38.44922132970048" lon="-0.8608836376263284">
<ele>487</ele>
<time>2014-06-28T10:09:09Z</time>
</trkpt>
<trkpt lat="38.44922132970048" lon="-0.8608836376263284">
<ele>487</ele>
<time>2014-06-28T10:09:10Z</time>
</trkpt>
<trkpt lat="38.44922132970048" lon="-0.8608836376263284">
<ele>487</ele>
<time>2014-06-28T10:09:11Z</time>
</trkpt>
<trkpt lat="38.44922132970048" lon="-0.8608836376263284">
<ele>487</ele>
<time>2014-06-28T10:09:12Z</time>
</trkpt>
<trkpt lat="38.44927411709606" lon="-0.8609845748581743">
<ele>487</ele>
<time>2014-06-28T10:09:13Z</time>
</trkpt>
<trkpt lat="38.44927411709606" lon="-0.8609845748581743">
<ele>487</ele>
<time>2014-06-28T10:09:14Z</time>
</trkpt>
<trkpt lat="38.44927411709606" lon="-0.8609845748581743">
<ele>487</ele>
<time>2014-06-28T10:09:15Z</time>
</trkpt>
<trkpt lat="38.44927411709606" lon="-0.8609845748581743">
<ele>487</ele>
<time>2014-06-28T10:09:16Z</time>
</trkpt>
<trkpt lat="38.44927411709606" lon="-0.8609845748581743">
<ele>487</ele>
<time>2014-06-28T10:09:17Z</time>
</trkpt>
<trkpt lat="38.44927411709606" lon="-0.8609845748581743">
<ele>487</ele>
<time>2014-06-28T10:09:18Z</time>
</trkpt>
<trkpt lat="38.449358241701724" lon="-0.8608869179715326">
<ele>487</ele>
<time>2014-06-28T10:09:19Z</time>
</trkpt>
<trkpt lat="38.449358241701724" lon="-0.8608869179715326">
<ele>487</ele>
<time>2014-06-28T10:09:20Z</time>
</trkpt>
<trkpt lat="38.449394528208714" lon="-0.8608662762101793">
<ele>488</ele>
<time>2014-06-28T10:09:21Z</time>
</trkpt>
<trkpt lat="38.44941111154833" lon="-0.8608785271487344">
<ele>488</ele>
<time>2014-06-28T10:09:22Z</time>
</trkpt>
<trkpt lat="38.449424356682634" lon="-0.8609021746139697">
<ele>488</ele>
<time>2014-06-28T10:09:23Z</time>
</trkpt>
<trkpt lat="38.44942633458027" lon="-0.8609368508841094">
<ele>487</ele>
<time>2014-06-28T10:09:24Z</time>
</trkpt>
<trkpt lat="38.44942672100154" lon="-0.8609745179827806">
<ele>487</ele>
<time>2014-06-28T10:09:25Z</time>
</trkpt>
<trkpt lat="38.449422850565476" lon="-0.8610132710731498">
<ele>487</ele>
<time>2014-06-28T10:09:26Z</time>
</trkpt>
<trkpt lat="38.44941369905175" lon="-0.8610506219982809">
<ele>487</ele>
<time>2014-06-28T10:09:27Z</time>
</trkpt>
<trkpt lat="38.44940601778592" lon="-0.8610845693425434">
<ele>487</ele>
<time>2014-06-28T10:09:28Z</time>
</trkpt>
<trkpt lat="38.44940711584784" lon="-0.8611113557579062">
<ele>487</ele>
<time>2014-06-28T10:09:29Z</time>
</trkpt>
<trkpt lat="38.44941235332292" lon="-0.8611318747736624">
<ele>487</ele>
<time>2014-06-28T10:09:30Z</time>
</trkpt>
<trkpt lat="38.449414772059875" lon="-0.8611524247062446">
<ele>486</ele>
<time>2014-06-28T10:09:31Z</time>
</trkpt>
<trkpt lat="38.449417441919046" lon="-0.861169491636741">
<ele>486</ele>
<time>2014-06-28T10:09:32Z</time>
</trkpt>
<trkpt lat="38.449419872936765" lon="-0.861182922538874">
<ele>486</ele>
<time>2014-06-28T10:09:33Z</time>
</trkpt>
<trkpt lat="38.449419872936765" lon="-0.861182922538874">
<ele>486</ele>
<time>2014-06-28T10:09:34Z</time>
</trkpt>
<trkpt lat="38.449419872936765" lon="-0.861182922538874">
<ele>486</ele>
<time>2014-06-28T10:09:35Z</time>
</trkpt>
<trkpt lat="38.449419872936765" lon="-0.861182922538874">
<ele>486</ele>
<time>2014-06-28T10:09:36Z</time>
</trkpt>
<trkpt lat="38.449419872936765" lon="-0.861182922538874">
<ele>486</ele>
<time>2014-06-28T10:09:37Z</time>
</trkpt>
<trkpt lat="38.449419872936765" lon="-0.861182922538874">
<ele>486</ele>
<time>2014-06-28T10:09:38Z</time>
</trkpt>
<trkpt lat="38.449419872936765" lon="-0.861182922538874">
<ele>486</ele>
<time>2014-06-28T10:09:39Z</time>
</trkpt>
<trkpt lat="38.449419872936765" lon="-0.861182922538874">
<ele>486</ele>
<time>2014-06-28T10:09:40Z</time>
</trkpt>
<trkpt lat="38.449456621332914" lon="-0.861304783536417">
<ele>485</ele>
<time>2014-06-28T10:09:41Z</time>
</trkpt>
<trkpt lat="38.449456621332914" lon="-0.861304783536417">
<ele>485</ele>
<time>2014-06-28T10:09:42Z</time>
</trkpt>
<trkpt lat="38.449456621332914" lon="-0.861304783536417">
<ele>485</ele>
<time>2014-06-28T10:09:43Z</time>
</trkpt>
<trkpt lat="38.449456621332914" lon="-0.861304783536417">
<ele>485</ele>
<time>2014-06-28T10:09:44Z</time>
</trkpt>
<trkpt lat="38.449456621332914" lon="-0.861304783536417">
<ele>485</ele>
<time>2014-06-28T10:09:45Z</time>
</trkpt>
<trkpt lat="38.44948134489797" lon="-0.861422487460852">
<ele>485</ele>
<time>2014-06-28T10:09:46Z</time>
</trkpt>
<trkpt lat="38.44948134489797" lon="-0.861422487460852">
<ele>485</ele>
<time>2014-06-28T10:09:47Z</time>
</trkpt>
<trkpt lat="38.44948134489797" lon="-0.861422487460852">
<ele>485</ele>
<time>2014-06-28T10:09:48Z</time>
</trkpt>
<trkpt lat="38.44948134489797" lon="-0.861422487460852">
<ele>485</ele>
<time>2014-06-28T10:09:49Z</time>
</trkpt>
<trkpt lat="38.44948134489797" lon="-0.861422487460852">
<ele>485</ele>
<time>2014-06-28T10:09:50Z</time>
</trkpt>
<trkpt lat="38.44950104746045" lon="-0.8615531827058301">
<ele>485</ele>
<time>2014-06-28T10:09:51Z</time>
</trkpt>
<trkpt lat="38.44950104746045" lon="-0.8615531827058301">
<ele>485</ele>
<time>2014-06-28T10:09:52Z</time>
</trkpt>
<trkpt lat="38.44950104746045" lon="-0.8615531827058301">
<ele>485</ele>
<time>2014-06-28T10:09:53Z</time>
</trkpt>
<trkpt lat="38.44950104746045" lon="-0.8615531827058301">
<ele>485</ele>
<time>2014-06-28T10:09:54Z</time>
</trkpt>
<trkpt lat="38.44950104746045" lon="-0.8615531827058301">
<ele>485</ele>
<time>2014-06-28T10:09:55Z</time>
</trkpt>
<trkpt lat="38.44951995194334" lon="-0.8616806668723088">
<ele>485</ele>
<time>2014-06-28T10:09:56Z</time>
</trkpt>
<trkpt lat="38.44951995194334" lon="-0.8616806668723088">
<ele>485</ele>
<time>2014-06-28T10:09:57Z</time>
</trkpt>
<trkpt lat="38.44951995194334" lon="-0.8616806668723088">
<ele>485</ele>
<time>2014-06-28T10:09:58Z</time>
</trkpt>
<trkpt lat="38.44951995194334" lon="-0.8616806668723088">
<ele>485</ele>
<time>2014-06-28T10:09:59Z</time>
</trkpt>
<trkpt lat="38.44951995194334" lon="-0.8616806668723088">
<ele>485</ele>
<time>2014-06-28T10:10:00Z</time>
</trkpt>
<trkpt lat="38.44951995194334" lon="-0.8616806668723088">
<ele>485</ele>
<time>2014-06-28T10:10:01Z</time>
</trkpt>
<trkpt lat="38.44951995194334" lon="-0.8616806668723088">
<ele>485</ele>
<time>2014-06-28T10:10:02Z</time>
</trkpt>
<trkpt lat="38.44953765814887" lon="-0.8618062873159261">
<ele>485</ele>
<time>2014-06-28T10:10:03Z</time>
</trkpt>
<trkpt lat="38.44953765814887" lon="-0.8618062873159261">
<ele>485</ele>
<time>2014-06-28T10:10:04Z</time>
</trkpt>
<trkpt lat="38.44953765814887" lon="-0.8618062873159261">
<ele>485</ele>
<time>2014-06-28T10:10:05Z</time>
</trkpt>
<trkpt lat="38.44953765814887" lon="-0.8618062873159261">
<ele>485</ele>
<time>2014-06-28T10:10:06Z</time>
</trkpt>
<trkpt lat="38.44953765814887" lon="-0.8618062873159261">
<ele>485</ele>
<time>2014-06-28T10:10:07Z</time>
</trkpt>
<trkpt lat="38.44953765814887" lon="-0.8618062873159261">
<ele>485</ele>
<time>2014-06-28T10:10:08Z</time>
</trkpt>
<trkpt lat="38.44953765814887" lon="-0.8618062873159261">
<ele>485</ele>
<time>2014-06-28T10:10:09Z</time>
</trkpt>
<trkpt lat="38.44953765814887" lon="-0.8618062873159261">
<ele>485</ele>
<time>2014-06-28T10:10:10Z</time>
</trkpt>
<trkpt lat="38.44953765814887" lon="-0.8618062873159261">
<ele>485</ele>
<time>2014-06-28T10:10:11Z</time>
</trkpt>
<trkpt lat="38.44953765814887" lon="-0.8618062873159261">
<ele>485</ele>
<time>2014-06-28T10:10:12Z</time>
</trkpt>
<trkpt lat="38.44953765814887" lon="-0.8618062873159261">
<ele>485</ele>
<time>2014-06-28T10:10:13Z</time>
</trkpt>
<trkpt lat="38.44953765814887" lon="-0.8618062873159261">
<ele>485</ele>
<time>2014-06-28T10:10:14Z</time>
</trkpt>
<trkpt lat="38.44953765814887" lon="-0.8618062873159261">
<ele>485</ele>
<time>2014-06-28T10:10:15Z</time>
</trkpt>
<trkpt lat="38.44953765814887" lon="-0.8618062873159261">
<ele>485</ele>
<time>2014-06-28T10:10:16Z</time>
</trkpt>
<trkpt lat="38.44953765814887" lon="-0.8618062873159261">
<ele>485</ele>
<time>2014-06-28T10:10:17Z</time>
</trkpt>
<trkpt lat="38.44953765814887" lon="-0.8618062873159261">
<ele>485</ele>
<time>2014-06-28T10:10:18Z</time>
</trkpt>
<trkpt lat="38.44956657897937" lon="-0.8619205382057117">
<ele>486</ele>
<time>2014-06-28T10:10:19Z</time>
</trkpt>
<trkpt lat="38.44956657897937" lon="-0.8619205382057117">
<ele>486</ele>
<time>2014-06-28T10:10:20Z</time>
</trkpt>
<trkpt lat="38.44956657897937" lon="-0.8619205382057117">
<ele>486</ele>
<time>2014-06-28T10:10:21Z</time>
</trkpt>
<trkpt lat="38.44956657897937" lon="-0.8619205382057117">
<ele>486</ele>
<time>2014-06-28T10:10:22Z</time>
</trkpt>
<trkpt lat="38.44956657897937" lon="-0.8619205382057117">
<ele>486</ele>
<time>2014-06-28T10:10:23Z</time>
</trkpt>
<trkpt lat="38.44956657897937" lon="-0.8619205382057117">
<ele>486</ele>
<time>2014-06-28T10:10:24Z</time>
</trkpt>
<trkpt lat="38.44956657897937" lon="-0.8619205382057117">
<ele>486</ele>
<time>2014-06-28T10:10:25Z</time>
</trkpt>
<trkpt lat="38.44956657897937" lon="-0.8619205382057117">
<ele>486</ele>
<time>2014-06-28T10:10:26Z</time>
</trkpt>
<trkpt lat="38.44956657897937" lon="-0.8619205382057117">
<ele>486</ele>
<time>2014-06-28T10:10:27Z</time>
</trkpt>
<trkpt lat="38.44956657897937" lon="-0.8619205382057117">
<ele>486</ele>
<time>2014-06-28T10:10:28Z</time>
</trkpt>
<trkpt lat="38.44956657897937" lon="-0.8619205382057117">
<ele>486</ele>
<time>2014-06-28T10:10:29Z</time>
</trkpt>
<trkpt lat="38.44956657897937" lon="-0.8619205382057117">
<ele>486</ele>
<time>2014-06-28T10:10:30Z</time>
</trkpt>
<trkpt lat="38.44956657897937" lon="-0.8619205382057117">
<ele>486</ele>
<time>2014-06-28T10:10:31Z</time>
</trkpt>
<trkpt lat="38.44955403030374" lon="-0.862044197435147">
<ele>487</ele>
<time>2014-06-28T10:10:32Z</time>
</trkpt>
<trkpt lat="38.44955403030374" lon="-0.862044197435147">
<ele>487</ele>
<time>2014-06-28T10:10:33Z</time>
</trkpt>
<trkpt lat="38.44955403030374" lon="-0.862044197435147">
<ele>487</ele>
<time>2014-06-28T10:10:34Z</time>
</trkpt>
<trkpt lat="38.44955403030374" lon="-0.862044197435147">
<ele>487</ele>
<time>2014-06-28T10:10:35Z</time>
</trkpt>
<trkpt lat="38.44955403030374" lon="-0.862044197435147">
<ele>487</ele>
<time>2014-06-28T10:10:36Z</time>
</trkpt>
<trkpt lat="38.44955403030374" lon="-0.862044197435147">
<ele>487</ele>
<time>2014-06-28T10:10:37Z</time>
</trkpt>
<trkpt lat="38.44955403030374" lon="-0.862044197435147">
<ele>487</ele>
<time>2014-06-28T10:10:38Z</time>
</trkpt>
<trkpt lat="38.44955403030374" lon="-0.862044197435147">
<ele>487</ele>
<time>2014-06-28T10:10:39Z</time>
</trkpt>
<trkpt lat="38.44954872686122" lon="-0.8621633557088689">
<ele>487</ele>
<time>2014-06-28T10:10:40Z</time>
</trkpt>
<trkpt lat="38.44954872686122" lon="-0.8621633557088689">
<ele>487</ele>
<time>2014-06-28T10:10:41Z</time>
</trkpt>
<trkpt lat="38.44954872686122" lon="-0.8621633557088689">
<ele>487</ele>
<time>2014-06-28T10:10:42Z</time>
</trkpt>
<trkpt lat="38.44954872686122" lon="-0.8621633557088689">
<ele>487</ele>
<time>2014-06-28T10:10:43Z</time>
</trkpt>
<trkpt lat="38.44954872686122" lon="-0.8621633557088689">
<ele>487</ele>
<time>2014-06-28T10:10:44Z</time>
</trkpt>
<trkpt lat="38.44954872686122" lon="-0.8621633557088689">
<ele>487</ele>
<time>2014-06-28T10:10:45Z</time>
</trkpt>
<trkpt lat="38.44954872686122" lon="-0.8621633557088689">
<ele>487</ele>
<time>2014-06-28T10:10:46Z</time>
</trkpt>
<trkpt lat="38.44956356021482" lon="-0.8622824815714175">
<ele>487</ele>
<time>2014-06-28T10:10:47Z</time>
</trkpt>
<trkpt lat="38.44956356021482" lon="-0.8622824815714175">
<ele>487</ele>
<time>2014-06-28T10:10:48Z</time>
</trkpt>
<trkpt lat="38.44956356021482" lon="-0.8622824815714175">
<ele>487</ele>
<time>2014-06-28T10:10:49Z</time>
</trkpt>
<trkpt lat="38.44956356021482" lon="-0.8622824815714175">
<ele>487</ele>
<time>2014-06-28T10:10:50Z</time>
</trkpt>
<trkpt lat="38.44956356021482" lon="-0.8622824815714175">
<ele>487</ele>
<time>2014-06-28T10:10:51Z</time>
</trkpt>
<trkpt lat="38.44956356021482" lon="-0.8622824815714175">
<ele>487</ele>
<time>2014-06-28T10:10:52Z</time>
</trkpt>
<trkpt lat="38.44956356021482" lon="-0.8622824815714175">
<ele>487</ele>
<time>2014-06-28T10:10:53Z</time>
</trkpt>
<trkpt lat="38.44959141909067" lon="-0.8623972745829702">
<ele>487</ele>
<time>2014-06-28T10:10:54Z</time>
</trkpt>
<trkpt lat="38.44959141909067" lon="-0.8623972745829702">
<ele>487</ele>
<time>2014-06-28T10:10:55Z</time>
</trkpt>
<trkpt lat="38.44959141909067" lon="-0.8623972745829702">
<ele>487</ele>
<time>2014-06-28T10:10:56Z</time>
</trkpt>
<trkpt lat="38.44959141909067" lon="-0.8623972745829702">
<ele>487</ele>
<time>2014-06-28T10:10:57Z</time>
</trkpt>
<trkpt lat="38.44959141909067" lon="-0.8623972745829702">
<ele>487</ele>
<time>2014-06-28T10:10:58Z</time>
</trkpt>
<trkpt lat="38.44959141909067" lon="-0.8623972745829702">
<ele>487</ele>
<time>2014-06-28T10:10:59Z</time>
</trkpt>
<trkpt lat="38.44959141909067" lon="-0.8623972745829702">
<ele>487</ele>
<time>2014-06-28T10:11:00Z</time>
</trkpt>
<trkpt lat="38.44959141909067" lon="-0.8623972745829702">
<ele>487</ele>
<time>2014-06-28T10:11:01Z</time>
</trkpt>
<trkpt lat="38.44959141909067" lon="-0.8623972745829702">
<ele>487</ele>
<time>2014-06-28T10:11:02Z</time>
</trkpt>
<trkpt lat="38.44959141909067" lon="-0.8623972745829702">
<ele>487</ele>
<time>2014-06-28T10:11:03Z</time>
</trkpt>
<trkpt lat="38.44959141909067" lon="-0.8623972745829702">
<ele>487</ele>
<time>2014-06-28T10:11:04Z</time>
</trkpt>
<trkpt lat="38.44959141909067" lon="-0.8623972745829702">
<ele>487</ele>
<time>2014-06-28T10:11:05Z</time>
</trkpt>
<trkpt lat="38.44959141909067" lon="-0.8623972745829702">
<ele>487</ele>
<time>2014-06-28T10:11:06Z</time>
</trkpt>
<trkpt lat="38.44967363728176" lon="-0.8624731740861347">
<ele>487</ele>
<time>2014-06-28T10:11:07Z</time>
</trkpt>
<trkpt lat="38.44967363728176" lon="-0.8624731740861347">
<ele>487</ele>
<time>2014-06-28T10:11:08Z</time>
</trkpt>
<trkpt lat="38.44967363728176" lon="-0.8624731740861347">
<ele>487</ele>
<time>2014-06-28T10:11:09Z</time>
</trkpt>
<trkpt lat="38.44967363728176" lon="-0.8624731740861347">
<ele>487</ele>
<time>2014-06-28T10:11:10Z</time>
</trkpt>
<trkpt lat="38.44967363728176" lon="-0.8624731740861347">
<ele>487</ele>
<time>2014-06-28T10:11:11Z</time>
</trkpt>
<trkpt lat="38.44967363728176" lon="-0.8624731740861347">
<ele>487</ele>
<time>2014-06-28T10:11:12Z</time>
</trkpt>
<trkpt lat="38.44967363728176" lon="-0.8624731740861347">
<ele>487</ele>
<time>2014-06-28T10:11:13Z</time>
</trkpt>
<trkpt lat="38.44967363728176" lon="-0.8624731740861347">
<ele>487</ele>
<time>2014-06-28T10:11:14Z</time>
</trkpt>
<trkpt lat="38.44967363728176" lon="-0.8624731740861347">
<ele>487</ele>
<time>2014-06-28T10:11:15Z</time>
</trkpt>
<trkpt lat="38.449728295325606" lon="-0.8623790057723096">
<ele>487</ele>
<time>2014-06-28T10:11:16Z</time>
</trkpt>
<trkpt lat="38.449728295325606" lon="-0.8623790057723096">
<ele>487</ele>
<time>2014-06-28T10:11:17Z</time>
</trkpt>
<trkpt lat="38.449728295325606" lon="-0.8623790057723096">
<ele>487</ele>
<time>2014-06-28T10:11:18Z</time>
</trkpt>
<trkpt lat="38.449728295325606" lon="-0.8623790057723096">
<ele>487</ele>
<time>2014-06-28T10:11:19Z</time>
</trkpt>
<trkpt lat="38.449728295325606" lon="-0.8623790057723096">
<ele>487</ele>
<time>2014-06-28T10:11:20Z</time>
</trkpt>
<trkpt lat="38.449728295325606" lon="-0.8623790057723096">
<ele>487</ele>
<time>2014-06-28T10:11:21Z</time>
</trkpt>
<trkpt lat="38.44981624811296" lon="-0.8623441385714583">
<ele>487</ele>
<time>2014-06-28T10:11:22Z</time>
</trkpt>
<trkpt lat="38.44981624811296" lon="-0.8623441385714583">
<ele>487</ele>
<time>2014-06-28T10:11:23Z</time>
</trkpt>
<trkpt lat="38.44981624811296" lon="-0.8623441385714583">
<ele>487</ele>
<time>2014-06-28T10:11:24Z</time>
</trkpt>
<trkpt lat="38.44981624811296" lon="-0.8623441385714583">
<ele>487</ele>
<time>2014-06-28T10:11:25Z</time>
</trkpt>
<trkpt lat="38.44981624811296" lon="-0.8623441385714583">
<ele>487</ele>
<time>2014-06-28T10:11:26Z</time>
</trkpt>
<trkpt lat="38.44981624811296" lon="-0.8623441385714583">
<ele>487</ele>
<time>2014-06-28T10:11:27Z</time>
</trkpt>
<trkpt lat="38.44990721479635" lon="-0.862300467648283">
<ele>487</ele>
<time>2014-06-28T10:11:28Z</time>
</trkpt>
<trkpt lat="38.44990721479635" lon="-0.862300467648283">
<ele>487</ele>
<time>2014-06-28T10:11:29Z</time>
</trkpt>
<trkpt lat="38.44990721479635" lon="-0.862300467648283">
<ele>487</ele>
<time>2014-06-28T10:11:30Z</time>
</trkpt>
<trkpt lat="38.44990721479635" lon="-0.862300467648283">
<ele>487</ele>
<time>2014-06-28T10:11:31Z</time>
</trkpt>
<trkpt lat="38.44990721479635" lon="-0.862300467648283">
<ele>487</ele>
<time>2014-06-28T10:11:32Z</time>
</trkpt>
<trkpt lat="38.44990721479635" lon="-0.862300467648283">
<ele>487</ele>
<time>2014-06-28T10:11:33Z</time>
</trkpt>
<trkpt lat="38.44990721479635" lon="-0.862300467648283">
<ele>487</ele>
<time>2014-06-28T10:11:34Z</time>
</trkpt>
<trkpt lat="38.450000367844744" lon="-0.8622710859654484">
<ele>487</ele>
<time>2014-06-28T10:11:35Z</time>
</trkpt>
<trkpt lat="38.450000367844744" lon="-0.8622710859654484">
<ele>487</ele>
<time>2014-06-28T10:11:36Z</time>
</trkpt>
<trkpt lat="38.450000367844744" lon="-0.8622710859654484">
<ele>487</ele>
<time>2014-06-28T10:11:37Z</time>
</trkpt>
<trkpt lat="38.450000367844744" lon="-0.8622710859654484">
<ele>487</ele>
<time>2014-06-28T10:11:38Z</time>
</trkpt>
<trkpt lat="38.450000367844744" lon="-0.8622710859654484">
<ele>487</ele>
<time>2014-06-28T10:11:39Z</time>
</trkpt>
<trkpt lat="38.450000367844744" lon="-0.8622710859654484">
<ele>487</ele>
<time>2014-06-28T10:11:40Z</time>
</trkpt>
<trkpt lat="38.450093888977946" lon="-0.8622373410751876">
<ele>487</ele>
<time>2014-06-28T10:11:41Z</time>
</trkpt>
<trkpt lat="38.45011250105845" lon="-0.8622344227863988">
<ele>488</ele>
<time>2014-06-28T10:11:42Z</time>
</trkpt>
<trkpt lat="38.45011250105845" lon="-0.8622344227863988">
<ele>488</ele>
<time>2014-06-28T10:11:43Z</time>
</trkpt>
<trkpt lat="38.45011250105845" lon="-0.8622344227863988">
<ele>488</ele>
<time>2014-06-28T10:11:44Z</time>
</trkpt>
<trkpt lat="38.45011250105845" lon="-0.8622344227863988">
<ele>488</ele>
<time>2014-06-28T10:11:45Z</time>
</trkpt>
<trkpt lat="38.45011250105845" lon="-0.8622344227863988">
<ele>488</ele>
<time>2014-06-28T10:11:46Z</time>
</trkpt>
<trkpt lat="38.45011250105845" lon="-0.8622344227863988">
<ele>488</ele>
<time>2014-06-28T10:11:47Z</time>
</trkpt>
<trkpt lat="38.45011250105845" lon="-0.8622344227863988">
<ele>488</ele>
<time>2014-06-28T10:11:48Z</time>
</trkpt>
<trkpt lat="38.45011250105845" lon="-0.8622344227863988">
<ele>488</ele>
<time>2014-06-28T10:11:49Z</time>
</trkpt>
<trkpt lat="38.450201085903245" lon="-0.862197037193812">
<ele>488</ele>
<time>2014-06-28T10:11:50Z</time>
</trkpt>
<trkpt lat="38.450201085903245" lon="-0.862197037193812">
<ele>488</ele>
<time>2014-06-28T10:11:51Z</time>
</trkpt>
<trkpt lat="38.450201085903245" lon="-0.862197037193812">
<ele>488</ele>
<time>2014-06-28T10:11:52Z</time>
</trkpt>
<trkpt lat="38.450201085903245" lon="-0.862197037193812">
<ele>488</ele>
<time>2014-06-28T10:11:53Z</time>
</trkpt>
<trkpt lat="38.450201085903245" lon="-0.862197037193812">
<ele>488</ele>
<time>2014-06-28T10:11:54Z</time>
</trkpt>
<trkpt lat="38.450201085903245" lon="-0.862197037193812">
<ele>488</ele>
<time>2014-06-28T10:11:55Z</time>
</trkpt>
<trkpt lat="38.450201085903245" lon="-0.862197037193812">
<ele>488</ele>
<time>2014-06-28T10:11:56Z</time>
</trkpt>
<trkpt lat="38.450201085903245" lon="-0.862197037193812">
<ele>488</ele>
<time>2014-06-28T10:11:57Z</time>
</trkpt>
<trkpt lat="38.450201085903245" lon="-0.862197037193812">
<ele>488</ele>
<time>2014-06-28T10:11:58Z</time>
</trkpt>
<trkpt lat="38.450287063139676" lon="-0.8621257169603443">
<ele>488</ele>
<time>2014-06-28T10:11:59Z</time>
</trkpt>
<trkpt lat="38.450287063139676" lon="-0.8621257169603443">
<ele>488</ele>
<time>2014-06-28T10:12:00Z</time>
</trkpt>
<trkpt lat="38.450287063139676" lon="-0.8621257169603443">
<ele>488</ele>
<time>2014-06-28T10:12:01Z</time>
</trkpt>
<trkpt lat="38.450287063139676" lon="-0.8621257169603443">
<ele>488</ele>
<time>2014-06-28T10:12:02Z</time>
</trkpt>
<trkpt lat="38.450287063139676" lon="-0.8621257169603443">
<ele>488</ele>
<time>2014-06-28T10:12:03Z</time>
</trkpt>
<trkpt lat="38.450287063139676" lon="-0.8621257169603443">
<ele>488</ele>
<time>2014-06-28T10:12:04Z</time>
</trkpt>
<trkpt lat="38.450287063139676" lon="-0.8621257169603443">
<ele>488</ele>
<time>2014-06-28T10:12:05Z</time>
</trkpt>
<trkpt lat="38.450376175533655" lon="-0.8620632726317123">
<ele>489</ele>
<time>2014-06-28T10:12:06Z</time>
</trkpt>
<trkpt lat="38.450376175533655" lon="-0.8620632726317123">
<ele>489</ele>
<time>2014-06-28T10:12:07Z</time>
</trkpt>
<trkpt lat="38.450376175533655" lon="-0.8620632726317123">
<ele>489</ele>
<time>2014-06-28T10:12:08Z</time>
</trkpt>
<trkpt lat="38.450376175533655" lon="-0.8620632726317123">
<ele>489</ele>
<time>2014-06-28T10:12:09Z</time>
</trkpt>
<trkpt lat="38.450376175533655" lon="-0.8620632726317123">
<ele>489</ele>
<time>2014-06-28T10:12:10Z</time>
</trkpt>
<trkpt lat="38.450376175533655" lon="-0.8620632726317123">
<ele>489</ele>
<time>2014-06-28T10:12:11Z</time>
</trkpt>
<trkpt lat="38.45045277867107" lon="-0.8619930851594034">
<ele>489</ele>
<time>2014-06-28T10:12:12Z</time>
</trkpt>
<trkpt lat="38.45045277867107" lon="-0.8619930851594034">
<ele>489</ele>
<time>2014-06-28T10:12:13Z</time>
</trkpt>
<trkpt lat="38.45045277867107" lon="-0.8619930851594034">
<ele>489</ele>
<time>2014-06-28T10:12:14Z</time>
</trkpt>
<trkpt lat="38.45045277867107" lon="-0.8619930851594034">
<ele>489</ele>
<time>2014-06-28T10:12:15Z</time>
</trkpt>
<trkpt lat="38.45045277867107" lon="-0.8619930851594034">
<ele>489</ele>
<time>2014-06-28T10:12:16Z</time>
</trkpt>
<trkpt lat="38.45045277867107" lon="-0.8619930851594034">
<ele>489</ele>
<time>2014-06-28T10:12:17Z</time>
</trkpt>
<trkpt lat="38.450538039732066" lon="-0.8619230770421554">
<ele>490</ele>
<time>2014-06-28T10:12:18Z</time>
</trkpt>
<trkpt lat="38.450538039732066" lon="-0.8619230770421554">
<ele>490</ele>
<time>2014-06-28T10:12:19Z</time>
</trkpt>
<trkpt lat="38.450538039732066" lon="-0.8619230770421554">
<ele>490</ele>
<time>2014-06-28T10:12:20Z</time>
</trkpt>
<trkpt lat="38.450538039732066" lon="-0.8619230770421554">
<ele>490</ele>
<time>2014-06-28T10:12:21Z</time>
</trkpt>
<trkpt lat="38.450538039732066" lon="-0.8619230770421554">
<ele>490</ele>
<time>2014-06-28T10:12:22Z</time>
</trkpt>
<trkpt lat="38.450538039732066" lon="-0.8619230770421554">
<ele>490</ele>
<time>2014-06-28T10:12:23Z</time>
</trkpt>
<trkpt lat="38.450538039732066" lon="-0.8619230770421554">
<ele>490</ele>
<time>2014-06-28T10:12:24Z</time>
</trkpt>
<trkpt lat="38.45062569200994" lon="-0.8618714775815752">
<ele>491</ele>
<time>2014-06-28T10:12:25Z</time>
</trkpt>
<trkpt lat="38.45062569200994" lon="-0.8618714775815752">
<ele>491</ele>
<time>2014-06-28T10:12:26Z</time>
</trkpt>
<trkpt lat="38.45062569200994" lon="-0.8618714775815752">
<ele>491</ele>
<time>2014-06-28T10:12:27Z</time>
</trkpt>
<trkpt lat="38.45062569200994" lon="-0.8618714775815752">
<ele>491</ele>
<time>2014-06-28T10:12:28Z</time>
</trkpt>
<trkpt lat="38.45062569200994" lon="-0.8618714775815752">
<ele>491</ele>
<time>2014-06-28T10:12:29Z</time>
</trkpt>
<trkpt lat="38.45062569200994" lon="-0.8618714775815752">
<ele>491</ele>
<time>2014-06-28T10:12:30Z</time>
</trkpt>
<trkpt lat="38.45062569200994" lon="-0.8618714775815752">
<ele>491</ele>
<time>2014-06-28T10:12:31Z</time>
</trkpt>
<trkpt lat="38.45062569200994" lon="-0.8618714775815752">
<ele>491</ele>
<time>2014-06-28T10:12:32Z</time>
</trkpt>
<trkpt lat="38.45062569200994" lon="-0.8618714775815752">
<ele>491</ele>
<time>2014-06-28T10:12:33Z</time>
</trkpt>
<trkpt lat="38.45072043779157" lon="-0.8618358692622656">
<ele>492</ele>
<time>2014-06-28T10:12:34Z</time>
</trkpt>
<trkpt lat="38.45072043779157" lon="-0.8618358692622656">
<ele>492</ele>
<time>2014-06-28T10:12:35Z</time>
</trkpt>
<trkpt lat="38.45072043779157" lon="-0.8618358692622656">
<ele>492</ele>
<time>2014-06-28T10:12:36Z</time>
</trkpt>
<trkpt lat="38.45072043779157" lon="-0.8618358692622656">
<ele>492</ele>
<time>2014-06-28T10:12:37Z</time>
</trkpt>
<trkpt lat="38.45072043779157" lon="-0.8618358692622656">
<ele>492</ele>
<time>2014-06-28T10:12:38Z</time>
</trkpt>
<trkpt lat="38.45072043779157" lon="-0.8618358692622656">
<ele>492</ele>
<time>2014-06-28T10:12:39Z</time>
</trkpt>
<trkpt lat="38.45072043779157" lon="-0.8618358692622656">
<ele>492</ele>
<time>2014-06-28T10:12:40Z</time>
</trkpt>
<trkpt lat="38.45080678377246" lon="-0.8617923533230115">
<ele>493</ele>
<time>2014-06-28T10:12:41Z</time>
</trkpt>
<trkpt lat="38.45080678377246" lon="-0.8617923533230115">
<ele>493</ele>
<time>2014-06-28T10:12:42Z</time>
</trkpt>
<trkpt lat="38.45080678377246" lon="-0.8617923533230115">
<ele>493</ele>
<time>2014-06-28T10:12:43Z</time>
</trkpt>
<trkpt lat="38.45080678377246" lon="-0.8617923533230115">
<ele>493</ele>
<time>2014-06-28T10:12:44Z</time>
</trkpt>
<trkpt lat="38.45080678377246" lon="-0.8617923533230115">
<ele>493</ele>
<time>2014-06-28T10:12:45Z</time>
</trkpt>
<trkpt lat="38.45080678377246" lon="-0.8617923533230115">
<ele>493</ele>
<time>2014-06-28T10:12:46Z</time>
</trkpt>
<trkpt lat="38.45080678377246" lon="-0.8617923533230115">
<ele>493</ele>
<time>2014-06-28T10:12:47Z</time>
</trkpt>
<trkpt lat="38.45080678377246" lon="-0.8617923533230115">
<ele>493</ele>
<time>2014-06-28T10:12:48Z</time>
</trkpt>
<trkpt lat="38.45080678377246" lon="-0.8617923533230115">
<ele>493</ele>
<time>2014-06-28T10:12:49Z</time>
</trkpt>
<trkpt lat="38.45080678377246" lon="-0.8617923533230115">
<ele>493</ele>
<time>2014-06-28T10:12:50Z</time>
</trkpt>
<trkpt lat="38.45080678377246" lon="-0.8617923533230115">
<ele>493</ele>
<time>2014-06-28T10:12:51Z</time>
</trkpt>
<trkpt lat="38.45080678377246" lon="-0.8617923533230115">
<ele>493</ele>
<time>2014-06-28T10:12:52Z</time>
</trkpt>
<trkpt lat="38.45086549222976" lon="-0.8617011801571615">
<ele>495</ele>
<time>2014-06-28T10:12:53Z</time>
</trkpt>
<trkpt lat="38.45086549222976" lon="-0.8617011801571615">
<ele>495</ele>
<time>2014-06-28T10:12:54Z</time>
</trkpt>
<trkpt lat="38.45086549222976" lon="-0.8617011801571615">
<ele>495</ele>
<time>2014-06-28T10:12:55Z</time>
</trkpt>
<trkpt lat="38.45086549222976" lon="-0.8617011801571615">
<ele>495</ele>
<time>2014-06-28T10:12:56Z</time>
</trkpt>
<trkpt lat="38.45086549222976" lon="-0.8617011801571615">
<ele>495</ele>
<time>2014-06-28T10:12:57Z</time>
</trkpt>
<trkpt lat="38.45086549222976" lon="-0.8617011801571615">
<ele>495</ele>
<time>2014-06-28T10:12:58Z</time>
</trkpt>
<trkpt lat="38.45086549222976" lon="-0.8617011801571615">
<ele>495</ele>
<time>2014-06-28T10:12:59Z</time>
</trkpt>
<trkpt lat="38.45093409156532" lon="-0.8616286152925421">
<ele>496</ele>
<time>2014-06-28T10:13:00Z</time>
</trkpt>
<trkpt lat="38.45093409156532" lon="-0.8616286152925421">
<ele>496</ele>
<time>2014-06-28T10:13:01Z</time>
</trkpt>
<trkpt lat="38.45093409156532" lon="-0.8616286152925421">
<ele>496</ele>
<time>2014-06-28T10:13:02Z</time>
</trkpt>
<trkpt lat="38.45093409156532" lon="-0.8616286152925421">
<ele>496</ele>
<time>2014-06-28T10:13:03Z</time>
</trkpt>
<trkpt lat="38.45093409156532" lon="-0.8616286152925421">
<ele>496</ele>
<time>2014-06-28T10:13:04Z</time>
</trkpt>
<trkpt lat="38.45093409156532" lon="-0.8616286152925421">
<ele>496</ele>
<time>2014-06-28T10:13:05Z</time>
</trkpt>
<trkpt lat="38.45093409156532" lon="-0.8616286152925421">
<ele>496</ele>
<time>2014-06-28T10:13:06Z</time>
</trkpt>
<trkpt lat="38.451001591867914" lon="-0.8615407576495208">
<ele>497</ele>
<time>2014-06-28T10:13:07Z</time>
</trkpt>
<trkpt lat="38.451001591867914" lon="-0.8615407576495208">
<ele>497</ele>
<time>2014-06-28T10:13:08Z</time>
</trkpt>
<trkpt lat="38.451001591867914" lon="-0.8615407576495208">
<ele>497</ele>
<time>2014-06-28T10:13:09Z</time>
</trkpt>
<trkpt lat="38.451001591867914" lon="-0.8615407576495208">
<ele>497</ele>
<time>2014-06-28T10:13:10Z</time>
</trkpt>
<trkpt lat="38.451001591867914" lon="-0.8615407576495208">
<ele>497</ele>
<time>2014-06-28T10:13:11Z</time>
</trkpt>
<trkpt lat="38.451001591867914" lon="-0.8615407576495208">
<ele>497</ele>
<time>2014-06-28T10:13:12Z</time>
</trkpt>
<trkpt lat="38.451001591867914" lon="-0.8615407576495208">
<ele>497</ele>
<time>2014-06-28T10:13:13Z</time>
</trkpt>
<trkpt lat="38.45108191380267" lon="-0.861469440567798">
<ele>498</ele>
<time>2014-06-28T10:13:14Z</time>
</trkpt>
<trkpt lat="38.45108191380267" lon="-0.861469440567798">
<ele>498</ele>
<time>2014-06-28T10:13:15Z</time>
</trkpt>
<trkpt lat="38.45108191380267" lon="-0.861469440567798">
<ele>498</ele>
<time>2014-06-28T10:13:16Z</time>
</trkpt>
<trkpt lat="38.4511260678925" lon="-0.8614421780519561">
<ele>498</ele>
<time>2014-06-28T10:13:17Z</time>
</trkpt>
<trkpt lat="38.4511260678925" lon="-0.8614421780519561">
<ele>498</ele>
<time>2014-06-28T10:13:18Z</time>
</trkpt>
<trkpt lat="38.4511260678925" lon="-0.8614421780519561">
<ele>498</ele>
<time>2014-06-28T10:13:19Z</time>
</trkpt>
<trkpt lat="38.4511260678925" lon="-0.8614421780519561">
<ele>498</ele>
<time>2014-06-28T10:13:20Z</time>
</trkpt>
<trkpt lat="38.4511260678925" lon="-0.8614421780519561">
<ele>498</ele>
<time>2014-06-28T10:13:21Z</time>
</trkpt>
<trkpt lat="38.4511260678925" lon="-0.8614421780519561">
<ele>498</ele>
<time>2014-06-28T10:13:22Z</time>
</trkpt>
<trkpt lat="38.4511260678925" lon="-0.8614421780519561">
<ele>498</ele>
<time>2014-06-28T10:13:23Z</time>
</trkpt>
<trkpt lat="38.451215114747704" lon="-0.861377703071251">
<ele>498</ele>
<time>2014-06-28T10:13:24Z</time>
</trkpt>
<trkpt lat="38.451215114747704" lon="-0.861377703071251">
<ele>498</ele>
<time>2014-06-28T10:13:25Z</time>
</trkpt>
<trkpt lat="38.451215114747704" lon="-0.861377703071251">
<ele>498</ele>
<time>2014-06-28T10:13:26Z</time>
</trkpt>
<trkpt lat="38.451215114747704" lon="-0.861377703071251">
<ele>498</ele>
<time>2014-06-28T10:13:27Z</time>
</trkpt>
<trkpt lat="38.451215114747704" lon="-0.861377703071251">
<ele>498</ele>
<time>2014-06-28T10:13:28Z</time>
</trkpt>
<trkpt lat="38.451215114747704" lon="-0.861377703071251">
<ele>498</ele>
<time>2014-06-28T10:13:29Z</time>
</trkpt>
<trkpt lat="38.45130903878951" lon="-0.8613521476348995">
<ele>498</ele>
<time>2014-06-28T10:13:30Z</time>
</trkpt>
<trkpt lat="38.451327091502094" lon="-0.8613594050211241">
<ele>498</ele>
<time>2014-06-28T10:13:31Z</time>
</trkpt>
<trkpt lat="38.45134248196295" lon="-0.861368757690293">
<ele>498</ele>
<time>2014-06-28T10:13:32Z</time>
</trkpt>
<trkpt lat="38.4513569820589" lon="-0.8613543647865997">
<ele>498</ele>
<time>2014-06-28T10:13:33Z</time>
</trkpt>
<trkpt lat="38.45137041553802" lon="-0.8613363831887222">
<ele>498</ele>
<time>2014-06-28T10:13:34Z</time>
</trkpt>
<trkpt lat="38.45138366744168" lon="-0.8613246130456861">
<ele>498</ele>
<time>2014-06-28T10:13:35Z</time>
</trkpt>
<trkpt lat="38.45139159165627" lon="-0.8613137012238704">
<ele>498</ele>
<time>2014-06-28T10:13:36Z</time>
</trkpt>
<trkpt lat="38.45139824831917" lon="-0.8613020520146825">
<ele>498</ele>
<time>2014-06-28T10:13:37Z</time>
</trkpt>
<trkpt lat="38.45139373534549" lon="-0.8612837635535371">
<ele>498</ele>
<time>2014-06-28T10:13:38Z</time>
</trkpt>
<trkpt lat="38.45139989253945" lon="-0.861271820293291">
<ele>498</ele>
<time>2014-06-28T10:13:39Z</time>
</trkpt>
<trkpt lat="38.451408600523884" lon="-0.8612620627639067">
<ele>498</ele>
<time>2014-06-28T10:13:40Z</time>
</trkpt>
<trkpt lat="38.45141763310311" lon="-0.861258221453046">
<ele>498</ele>
<time>2014-06-28T10:13:41Z</time>
</trkpt>
<trkpt lat="38.4514282490662" lon="-0.8612603717169516">
<ele>499</ele>
<time>2014-06-28T10:13:42Z</time>
</trkpt>
<trkpt lat="38.45143834547279" lon="-0.8612601982263608">
<ele>499</ele>
<time>2014-06-28T10:13:43Z</time>
</trkpt>
<trkpt lat="38.451452212464524" lon="-0.8612464371008214">
<ele>499</ele>
<time>2014-06-28T10:13:44Z</time>
</trkpt>
<trkpt lat="38.451464281569" lon="-0.8612326360769991">
<ele>499</ele>
<time>2014-06-28T10:13:45Z</time>
</trkpt>
<trkpt lat="38.451475944819855" lon="-0.8612195119477118">
<ele>499</ele>
<time>2014-06-28T10:13:46Z</time>
</trkpt>
<trkpt lat="38.45148696573247" lon="-0.8612056873972854">
<ele>499</ele>
<time>2014-06-28T10:13:47Z</time>
</trkpt>
<trkpt lat="38.45149628865069" lon="-0.8611932283346391">
<ele>499</ele>
<time>2014-06-28T10:13:48Z</time>
</trkpt>
<trkpt lat="38.45150470304892" lon="-0.8611793419244171">
<ele>499</ele>
<time>2014-06-28T10:13:49Z</time>
</trkpt>
<trkpt lat="38.45151232820346" lon="-0.861164353750017">
<ele>499</ele>
<time>2014-06-28T10:13:50Z</time>
</trkpt>
<trkpt lat="38.45151970538767" lon="-0.8611502142500066">
<ele>499</ele>
<time>2014-06-28T10:13:51Z</time>
</trkpt>
<trkpt lat="38.45152709044119" lon="-0.8611367810892753">
<ele>499</ele>
<time>2014-06-28T10:13:52Z</time>
</trkpt>
<trkpt lat="38.45153411450395" lon="-0.8611231434815393">
<ele>499</ele>
<time>2014-06-28T10:13:53Z</time>
</trkpt>
<trkpt lat="38.45154268890648" lon="-0.8611076138090622">
<ele>499</ele>
<time>2014-06-28T10:13:54Z</time>
</trkpt>
<trkpt lat="38.451549961290034" lon="-0.8610940172812982">
<ele>499</ele>
<time>2014-06-28T10:13:55Z</time>
</trkpt>
<trkpt lat="38.451558660371035" lon="-0.8610807392192946">
<ele>499</ele>
<time>2014-06-28T10:13:56Z</time>
</trkpt>
<trkpt lat="38.45156958707395" lon="-0.8610718818888209">
<ele>499</ele>
<time>2014-06-28T10:13:57Z</time>
</trkpt>
<trkpt lat="38.4515803188472" lon="-0.8610642474138214">
<ele>499</ele>
<time>2014-06-28T10:13:58Z</time>
</trkpt>
<trkpt lat="38.45159223302593" lon="-0.8610539101301565">
<ele>499</ele>
<time>2014-06-28T10:13:59Z</time>
</trkpt>
<trkpt lat="38.45159258338068" lon="-0.8610248385479153">
<ele>499</ele>
<time>2014-06-28T10:14:00Z</time>
</trkpt>
<trkpt lat="38.451593055340105" lon="-0.8609977592240593">
<ele>498</ele>
<time>2014-06-28T10:14:01Z</time>
</trkpt>
<trkpt lat="38.45159465349099" lon="-0.860973003405817">
<ele>498</ele>
<time>2014-06-28T10:14:02Z</time>
</trkpt>
<trkpt lat="38.451595765704546" lon="-0.8609509878735976">
<ele>498</ele>
<time>2014-06-28T10:14:03Z</time>
</trkpt>
<trkpt lat="38.45159736460802" lon="-0.860929874275608">
<ele>498</ele>
<time>2014-06-28T10:14:04Z</time>
</trkpt>
<trkpt lat="38.45160050650245" lon="-0.8609115127097435">
<ele>498</ele>
<time>2014-06-28T10:14:05Z</time>
</trkpt>
<trkpt lat="38.45160732770203" lon="-0.8608920812256416">
<ele>498</ele>
<time>2014-06-28T10:14:06Z</time>
</trkpt>
<trkpt lat="38.45161181858123" lon="-0.8608846295082276">
<ele>498</ele>
<time>2014-06-28T10:14:07Z</time>
</trkpt>
<trkpt lat="38.45161826219049" lon="-0.8608819852380768">
<ele>498</ele>
<time>2014-06-28T10:14:08Z</time>
</trkpt>
<trkpt lat="38.45163375266788" lon="-0.8608854195326617">
<ele>498</ele>
<time>2014-06-28T10:14:09Z</time>
</trkpt>
<trkpt lat="38.45164654424597" lon="-0.8608895469252177">
<ele>498</ele>
<time>2014-06-28T10:14:10Z</time>
</trkpt>
<trkpt lat="38.45166248174193" lon="-0.8608962771821137">
<ele>498</ele>
<time>2014-06-28T10:14:11Z</time>
</trkpt>
<trkpt lat="38.451678620051624" lon="-0.8608959058110093">
<ele>498</ele>
<time>2014-06-28T10:14:12Z</time>
</trkpt>
<trkpt lat="38.45169524417263" lon="-0.8608919386026657">
<ele>498</ele>
<time>2014-06-28T10:14:13Z</time>
</trkpt>
<trkpt lat="38.45171165704822" lon="-0.8608878892289584">
<ele>498</ele>
<time>2014-06-28T10:14:14Z</time>
</trkpt>
<trkpt lat="38.45172824267436" lon="-0.8608825598159018">
<ele>498</ele>
<time>2014-06-28T10:14:15Z</time>
</trkpt>
<trkpt lat="38.451743929935525" lon="-0.8608804436185208">
<ele>498</ele>
<time>2014-06-28T10:14:16Z</time>
</trkpt>
<trkpt lat="38.451758895165895" lon="-0.8608772260823813">
<ele>498</ele>
<time>2014-06-28T10:14:17Z</time>
</trkpt>
<trkpt lat="38.451772512067556" lon="-0.8608738103628603">
<ele>498</ele>
<time>2014-06-28T10:14:18Z</time>
</trkpt>
<trkpt lat="38.451785672052296" lon="-0.8608685319391677">
<ele>498</ele>
<time>2014-06-28T10:14:19Z</time>
</trkpt>
<trkpt lat="38.45179988039929" lon="-0.8608615286321217">
<ele>498</ele>
<time>2014-06-28T10:14:20Z</time>
</trkpt>
<trkpt lat="38.45181405623085" lon="-0.8608499646360943">
<ele>498</ele>
<time>2014-06-28T10:14:21Z</time>
</trkpt>
<trkpt lat="38.451831049175155" lon="-0.860838746551556">
<ele>498</ele>
<time>2014-06-28T10:14:22Z</time>
</trkpt>
<trkpt lat="38.4518478449504" lon="-0.8608257830297267">
<ele>498</ele>
<time>2014-06-28T10:14:23Z</time>
</trkpt>
<trkpt lat="38.45186562549868" lon="-0.8608103050892923">
<ele>498</ele>
<time>2014-06-28T10:14:24Z</time>
</trkpt>
<trkpt lat="38.45188118838476" lon="-0.8607907540361545">
<ele>498</ele>
<time>2014-06-28T10:14:25Z</time>
</trkpt>
<trkpt lat="38.45189707154463" lon="-0.860771185643752">
<ele>498</ele>
<time>2014-06-28T10:14:26Z</time>
</trkpt>
<trkpt lat="38.45192099132404" lon="-0.8607566684469077">
<ele>498</ele>
<time>2014-06-28T10:14:27Z</time>
</trkpt>
<trkpt lat="38.451944626148006" lon="-0.8607411160461789">
<ele>498</ele>
<time>2014-06-28T10:14:28Z</time>
</trkpt>
<trkpt lat="38.4519680604831" lon="-0.8607291913137923">
<ele>498</ele>
<time>2014-06-28T10:14:29Z</time>
</trkpt>
<trkpt lat="38.45199106898614" lon="-0.8607170173315171">
<ele>498</ele>
<time>2014-06-28T10:14:30Z</time>
</trkpt>
<trkpt lat="38.45201316251597" lon="-0.860708936216994">
<ele>498</ele>
<time>2014-06-28T10:14:31Z</time>
</trkpt>
<trkpt lat="38.452034647189485" lon="-0.8607001928233148">
<ele>498</ele>
<time>2014-06-28T10:14:32Z</time>
</trkpt>
<trkpt lat="38.45205413813744" lon="-0.8606920988013799">
<ele>498</ele>
<time>2014-06-28T10:14:33Z</time>
</trkpt>
<trkpt lat="38.452071693547246" lon="-0.8606804396979866">
<ele>498</ele>
<time>2014-06-28T10:14:34Z</time>
</trkpt>
<trkpt lat="38.45208886146701" lon="-0.8606680628560824">
<ele>499</ele>
<time>2014-06-28T10:14:35Z</time>
</trkpt>
<trkpt lat="38.45210395560942" lon="-0.8606552864973233">
<ele>499</ele>
<time>2014-06-28T10:14:36Z</time>
</trkpt>
<trkpt lat="38.452121180216714" lon="-0.8606456515050876">
<ele>499</ele>
<time>2014-06-28T10:14:37Z</time>
</trkpt>
<trkpt lat="38.452138872870904" lon="-0.8606366836259445">
<ele>499</ele>
<time>2014-06-28T10:14:38Z</time>
</trkpt>
<trkpt lat="38.45215745679718" lon="-0.8606288313524108">
<ele>499</ele>
<time>2014-06-28T10:14:39Z</time>
</trkpt>
<trkpt lat="38.45217608977217" lon="-0.8606203651010945">
<ele>499</ele>
<time>2014-06-28T10:14:40Z</time>
</trkpt>
<trkpt lat="38.45219435380528" lon="-0.8606113310448127">
<ele>499</ele>
<time>2014-06-28T10:14:41Z</time>
</trkpt>
<trkpt lat="38.45221103432562" lon="-0.8606019012472551">
<ele>499</ele>
<time>2014-06-28T10:14:42Z</time>
</trkpt>
<trkpt lat="38.45222850921766" lon="-0.8605947691231352">
<ele>499</ele>
<time>2014-06-28T10:14:43Z</time>
</trkpt>
<trkpt lat="38.45224670501656" lon="-0.8605887772741453">
<ele>499</ele>
<time>2014-06-28T10:14:44Z</time>
</trkpt>
<trkpt lat="38.4522317967104" lon="-0.8606131330634286">
<ele>499</ele>
<time>2014-06-28T10:14:45Z</time>
</trkpt>
<trkpt lat="38.452217810432046" lon="-0.8606336849158233">
<ele>499</ele>
<time>2014-06-28T10:14:46Z</time>
</trkpt>
<trkpt lat="38.45220367320888" lon="-0.8606389482325446">
<ele>499</ele>
<time>2014-06-28T10:14:47Z</time>
</trkpt>
<trkpt lat="38.45219091332758" lon="-0.8606431418253335">
<ele>499</ele>
<time>2014-06-28T10:14:48Z</time>
</trkpt>
<trkpt lat="38.45217894286219" lon="-0.8606427102967176">
<ele>499</ele>
<time>2014-06-28T10:14:49Z</time>
</trkpt>
<trkpt lat="38.45220087758833" lon="-0.8606193577257377">
<ele>499</ele>
<time>2014-06-28T10:14:50Z</time>
</trkpt>
<trkpt lat="38.45222219034403" lon="-0.8605966388442137">
<ele>499</ele>
<time>2014-06-28T10:14:51Z</time>
</trkpt>
<trkpt lat="38.452234731788586" lon="-0.8606139753635066">
<ele>499</ele>
<time>2014-06-28T10:14:52Z</time>
</trkpt>
<trkpt lat="38.45225052861662" lon="-0.8606441935916476">
<ele>499</ele>
<time>2014-06-28T10:14:53Z</time>
</trkpt>
<trkpt lat="38.452262194913686" lon="-0.8606688383167831">
<ele>499</ele>
<time>2014-06-28T10:14:54Z</time>
</trkpt>
<trkpt lat="38.452245530343276" lon="-0.8606643674853693">
<ele>499</ele>
<time>2014-06-28T10:14:55Z</time>
</trkpt>
<trkpt lat="38.45223254862117" lon="-0.8606613803857975">
<ele>499</ele>
<time>2014-06-28T10:14:56Z</time>
</trkpt>
<trkpt lat="38.4522330353451" lon="-0.860703844957186">
<ele>499</ele>
<time>2014-06-28T10:14:57Z</time>
</trkpt>
<trkpt lat="38.45221514664523" lon="-0.8607273606980592">
<ele>499</ele>
<time>2014-06-28T10:14:58Z</time>
</trkpt>
<trkpt lat="38.45219788528673" lon="-0.8607487583813497">
<ele>499</ele>
<time>2014-06-28T10:14:59Z</time>
</trkpt>
<trkpt lat="38.45216066092069" lon="-0.8607964970272627">
<ele>499</ele>
<time>2014-06-28T10:15:01Z</time>
</trkpt>
<trkpt lat="38.45214695428107" lon="-0.8608152487328091">
<ele>499</ele>
<time>2014-06-28T10:15:02Z</time>
</trkpt>
<trkpt lat="38.452162722953254" lon="-0.8608034606196509">
<ele>499</ele>
<time>2014-06-28T10:15:03Z</time>
</trkpt>
<trkpt lat="38.45217915759996" lon="-0.8607897430863893">
<ele>499</ele>
<time>2014-06-28T10:15:04Z</time>
</trkpt>
<trkpt lat="38.45220396014819" lon="-0.8607772564284301">
<ele>499</ele>
<time>2014-06-28T10:15:05Z</time>
</trkpt>
<trkpt lat="38.452228587905104" lon="-0.8607632985266543">
<ele>499</ele>
<time>2014-06-28T10:15:06Z</time>
</trkpt>
<trkpt lat="38.45225283943066" lon="-0.8607498353254576">
<ele>499</ele>
<time>2014-06-28T10:15:07Z</time>
</trkpt>
<trkpt lat="38.45227748502455" lon="-0.8607375886955441">
<ele>499</ele>
<time>2014-06-28T10:15:08Z</time>
</trkpt>
<trkpt lat="38.45231279311182" lon="-0.8607289353290007">
<ele>499</ele>
<time>2014-06-28T10:15:09Z</time>
</trkpt>
<trkpt lat="38.45234431878488" lon="-0.8607249816355692">
<ele>499</ele>
<time>2014-06-28T10:15:10Z</time>
</trkpt>
<trkpt lat="38.45238274157252" lon="-0.8607283625636416">
<ele>499</ele>
<time>2014-06-28T10:15:11Z</time>
</trkpt>
<trkpt lat="38.45241793125069" lon="-0.8607315471463881">
<ele>499</ele>
<time>2014-06-28T10:15:12Z</time>
</trkpt>
<trkpt lat="38.452452417521506" lon="-0.8607312151415939">
<ele>499</ele>
<time>2014-06-28T10:15:13Z</time>
</trkpt>
<trkpt lat="38.45248361372391" lon="-0.8607311094467284">
<ele>499</ele>
<time>2014-06-28T10:15:14Z</time>
</trkpt>
<trkpt lat="38.452523391175184" lon="-0.8607298709915555">
<ele>499</ele>
<time>2014-06-28T10:15:15Z</time>
</trkpt>
<trkpt lat="38.452550495467136" lon="-0.8607374172461552">
<ele>499</ele>
<time>2014-06-28T10:15:16Z</time>
</trkpt>
<trkpt lat="38.452574227136196" lon="-0.8607466421790961">
<ele>499</ele>
<time>2014-06-28T10:15:17Z</time>
</trkpt>
<trkpt lat="38.45259740194195" lon="-0.8607457256193609">
<ele>499</ele>
<time>2014-06-28T10:15:18Z</time>
</trkpt>
<trkpt lat="38.45261888111318" lon="-0.8607390062855709">
<ele>499</ele>
<time>2014-06-28T10:15:19Z</time>
</trkpt>
<trkpt lat="38.45264001995608" lon="-0.8607312088110766">
<ele>499</ele>
<time>2014-06-28T10:15:20Z</time>
</trkpt>
<trkpt lat="38.452661245939126" lon="-0.8607351040576369">
<ele>499</ele>
<time>2014-06-28T10:15:21Z</time>
</trkpt>
<trkpt lat="38.45268260848334" lon="-0.8607405365370229">
<ele>499</ele>
<time>2014-06-28T10:15:22Z</time>
</trkpt>
<trkpt lat="38.45266468162409" lon="-0.8607560007982544">
<ele>500</ele>
<time>2014-06-28T10:15:23Z</time>
</trkpt>
<trkpt lat="38.452650187104844" lon="-0.8607690217515604">
<ele>500</ele>
<time>2014-06-28T10:15:24Z</time>
</trkpt>
<trkpt lat="38.45265359399728" lon="-0.8607972253389033">
<ele>500</ele>
<time>2014-06-28T10:15:25Z</time>
</trkpt>
<trkpt lat="38.45265768667874" lon="-0.8608215822322035">
<ele>500</ele>
<time>2014-06-28T10:15:26Z</time>
</trkpt>
<trkpt lat="38.45265958066408" lon="-0.8608440369850697">
<ele>500</ele>
<time>2014-06-28T10:15:27Z</time>
</trkpt>
<trkpt lat="38.452672893384054" lon="-0.8608687397102356">
<ele>500</ele>
<time>2014-06-28T10:15:28Z</time>
</trkpt>
<trkpt lat="38.45268354949966" lon="-0.8608881029841716">
<ele>500</ele>
<time>2014-06-28T10:15:29Z</time>
</trkpt>
<trkpt lat="38.45269769736572" lon="-0.860904412178075">
<ele>500</ele>
<time>2014-06-28T10:15:30Z</time>
</trkpt>
<trkpt lat="38.45271194925621" lon="-0.8609205070677296">
<ele>500</ele>
<time>2014-06-28T10:15:31Z</time>
</trkpt>
<trkpt lat="38.45273392189812" lon="-0.8609303389737524">
<ele>500</ele>
<time>2014-06-28T10:15:32Z</time>
</trkpt>
<trkpt lat="38.45275719009857" lon="-0.8609376461981831">
<ele>500</ele>
<time>2014-06-28T10:15:33Z</time>
</trkpt>
<trkpt lat="38.45277809851934" lon="-0.8609377940919345">
<ele>500</ele>
<time>2014-06-28T10:15:34Z</time>
</trkpt>
<trkpt lat="38.452798224098345" lon="-0.8609384031406072">
<ele>500</ele>
<time>2014-06-28T10:15:35Z</time>
</trkpt>
<trkpt lat="38.45281705322772" lon="-0.8609406337083594">
<ele>500</ele>
<time>2014-06-28T10:15:36Z</time>
</trkpt>
<trkpt lat="38.45283322501186" lon="-0.8609429472000768">
<ele>500</ele>
<time>2014-06-28T10:15:37Z</time>
</trkpt>
<trkpt lat="38.45284560294023" lon="-0.8609054394732095">
<ele>500</ele>
<time>2014-06-28T10:15:38Z</time>
</trkpt>
<trkpt lat="38.452858520689226" lon="-0.8608766475507306">
<ele>500</ele>
<time>2014-06-28T10:15:39Z</time>
</trkpt>
<trkpt lat="38.45287898680607" lon="-0.8608503615885867">
<ele>500</ele>
<time>2014-06-28T10:15:40Z</time>
</trkpt>
<trkpt lat="38.452898793899635" lon="-0.8608306058578525">
<ele>500</ele>
<time>2014-06-28T10:15:41Z</time>
</trkpt>
<trkpt lat="38.45288414032841" lon="-0.8608598607191587">
<ele>500</ele>
<time>2014-06-28T10:15:42Z</time>
</trkpt>
<trkpt lat="38.452871195136474" lon="-0.860885330907458">
<ele>500</ele>
<time>2014-06-28T10:15:43Z</time>
</trkpt>
<trkpt lat="38.452860465062734" lon="-0.8609084168096555">
<ele>500</ele>
<time>2014-06-28T10:15:44Z</time>
</trkpt>
<trkpt lat="38.45285194089737" lon="-0.8609275067045906">
<ele>500</ele>
<time>2014-06-28T10:15:45Z</time>
</trkpt>
<trkpt lat="38.45284014522106" lon="-0.8609049047778791">
<ele>500</ele>
<time>2014-06-28T10:15:46Z</time>
</trkpt>
<trkpt lat="38.452840267712574" lon="-0.8609047851174481">
<ele>500</ele>
<time>2014-06-28T10:15:47Z</time>
</trkpt>
<trkpt lat="38.45284026915662" lon="-0.8609047838393039">
<ele>500</ele>
<time>2014-06-28T10:15:48Z</time>
</trkpt>
<trkpt lat="38.45284026917756" lon="-0.8609047838256173">
<ele>500</ele>
<time>2014-06-28T10:15:49Z</time>
</trkpt>
<trkpt lat="38.45284026917777" lon="-0.8609047838255011">
<ele>500</ele>
<time>2014-06-28T10:15:50Z</time>
</trkpt>
<trkpt lat="38.452840064660926" lon="-0.8609075996098087">
<ele>500</ele>
<time>2014-06-28T10:15:51Z</time>
</trkpt>
<trkpt lat="38.45284027601376" lon="-0.8609092804697775">
<ele>500</ele>
<time>2014-06-28T10:15:52Z</time>
</trkpt>
<trkpt lat="38.45284086992312" lon="-0.8609107844040064">
<ele>500</ele>
<time>2014-06-28T10:15:53Z</time>
</trkpt>
<trkpt lat="38.45284027060408" lon="-0.8609143717320159">
<ele>500</ele>
<time>2014-06-28T10:15:54Z</time>
</trkpt>
<trkpt lat="38.452839671285034" lon="-0.8609179590600253">
<ele>500</ele>
<time>2014-06-28T10:15:55Z</time>
</trkpt>
<trkpt lat="38.45283553298916" lon="-0.8609225395601111">
<ele>500</ele>
<time>2014-06-28T10:15:56Z</time>
</trkpt>
<trkpt lat="38.45283482200518" lon="-0.860922340426449">
<ele>500</ele>
<time>2014-06-28T10:15:57Z</time>
</trkpt>
<trkpt lat="38.45283655321627" lon="-0.8609211648383787">
<ele>500</ele>
<time>2014-06-28T10:15:58Z</time>
</trkpt>
<trkpt lat="38.452841754199774" lon="-0.860922949934774">
<ele>500</ele>
<time>2014-06-28T10:15:59Z</time>
</trkpt>
<trkpt lat="38.45285488605577" lon="-0.8609088333325525">
<ele>500</ele>
<time>2014-06-28T10:16:00Z</time>
</trkpt>
<trkpt lat="38.45287315599838" lon="-0.8608914772430593">
<ele>500</ele>
<time>2014-06-28T10:16:01Z</time>
</trkpt>
<trkpt lat="38.45289141340634" lon="-0.860880068125762">
<ele>500</ele>
<time>2014-06-28T10:16:02Z</time>
</trkpt>
<trkpt lat="38.45290780192984" lon="-0.8608703958544806">
<ele>500</ele>
<time>2014-06-28T10:16:03Z</time>
</trkpt>
<trkpt lat="38.45293006790599" lon="-0.8608667177634727">
<ele>500</ele>
<time>2014-06-28T10:16:04Z</time>
</trkpt>
<trkpt lat="38.45295234765232" lon="-0.8608633996400236">
<ele>500</ele>
<time>2014-06-28T10:16:05Z</time>
</trkpt>
<trkpt lat="38.452973995325706" lon="-0.8608610616909416">
<ele>499</ele>
<time>2014-06-28T10:16:06Z</time>
</trkpt>
<trkpt lat="38.45299546328969" lon="-0.8608559230596686">
<ele>499</ele>
<time>2014-06-28T10:16:07Z</time>
</trkpt>
<trkpt lat="38.45301543973413" lon="-0.8608538879774086">
<ele>499</ele>
<time>2014-06-28T10:16:08Z</time>
</trkpt>
<trkpt lat="38.45303340801439" lon="-0.8608537680163908">
<ele>499</ele>
<time>2014-06-28T10:16:09Z</time>
</trkpt>
<trkpt lat="38.45304984729207" lon="-0.8608588143016739">
<ele>499</ele>
<time>2014-06-28T10:16:10Z</time>
</trkpt>
<trkpt lat="38.45307428964796" lon="-0.8608745083336414">
<ele>499</ele>
<time>2014-06-28T10:16:11Z</time>
</trkpt>
<trkpt lat="38.45309056724478" lon="-0.860872402838035">
<ele>499</ele>
<time>2014-06-28T10:16:12Z</time>
</trkpt>
<trkpt lat="38.4531063706549" lon="-0.8608704074680058">
<ele>499</ele>
<time>2014-06-28T10:16:13Z</time>
</trkpt>
<trkpt lat="38.45312053987154" lon="-0.8608709193095923">
<ele>499</ele>
<time>2014-06-28T10:16:14Z</time>
</trkpt>
<trkpt lat="38.453132026576874" lon="-0.8608729272421948">
<ele>499</ele>
<time>2014-06-28T10:16:15Z</time>
</trkpt>
<trkpt lat="38.45314234735203" lon="-0.8608752719791809">
<ele>499</ele>
<time>2014-06-28T10:16:16Z</time>
</trkpt>
<trkpt lat="38.453152808212884" lon="-0.8608765715171939">
<ele>499</ele>
<time>2014-06-28T10:16:17Z</time>
</trkpt>
<trkpt lat="38.453173346396085" lon="-0.8608713484055918">
<ele>499</ele>
<time>2014-06-28T10:16:18Z</time>
</trkpt>
<trkpt lat="38.45319361567606" lon="-0.8608676735659616">
<ele>499</ele>
<time>2014-06-28T10:16:19Z</time>
</trkpt>
<trkpt lat="38.453212937905576" lon="-0.860866735430342">
<ele>499</ele>
<time>2014-06-28T10:16:20Z</time>
</trkpt>
<trkpt lat="38.45323074420561" lon="-0.8608664710275054">
<ele>499</ele>
<time>2014-06-28T10:16:21Z</time>
</trkpt>
<trkpt lat="38.453247031219796" lon="-0.8608684753302689">
<ele>499</ele>
<time>2014-06-28T10:16:22Z</time>
</trkpt>
<trkpt lat="38.45326159991562" lon="-0.8608705154697406">
<ele>499</ele>
<time>2014-06-28T10:16:23Z</time>
</trkpt>
<trkpt lat="38.45327755575718" lon="-0.8608782642206924">
<ele>499</ele>
<time>2014-06-28T10:16:24Z</time>
</trkpt>
<trkpt lat="38.45329215245764" lon="-0.860885685680548">
<ele>499</ele>
<time>2014-06-28T10:16:25Z</time>
</trkpt>
<trkpt lat="38.45329219132644" lon="-0.8608856250052138">
<ele>499</ele>
<time>2014-06-28T10:16:26Z</time>
</trkpt>
<trkpt lat="38.45329219178721" lon="-0.8608856242424523">
<ele>499</ele>
<time>2014-06-28T10:16:27Z</time>
</trkpt>
<trkpt lat="38.45329219179265" lon="-0.8608856242346093">
<ele>499</ele>
<time>2014-06-28T10:16:28Z</time>
</trkpt>
<trkpt lat="38.453292191792706" lon="-0.8608856242345181">
<ele>499</ele>
<time>2014-06-28T10:16:29Z</time>
</trkpt>
<trkpt lat="38.453292191792706" lon="-0.860885624234517">
<ele>499</ele>
<time>2014-06-28T10:16:30Z</time>
</trkpt>
<trkpt lat="38.453295015825915" lon="-0.8608871789024386">
<ele>499</ele>
<time>2014-06-28T10:16:31Z</time>
</trkpt>
<trkpt lat="38.45330122324467" lon="-0.8608899269345326">
<ele>499</ele>
<time>2014-06-28T10:16:32Z</time>
</trkpt>
<trkpt lat="38.4533113180376" lon="-0.8608925605255431">
<ele>499</ele>
<time>2014-06-28T10:16:33Z</time>
</trkpt>
<trkpt lat="38.453322140739864" lon="-0.8608936696339655">
<ele>499</ele>
<time>2014-06-28T10:16:34Z</time>
</trkpt>
<trkpt lat="38.4533344131356" lon="-0.8608848304352037">
<ele>499</ele>
<time>2014-06-28T10:16:35Z</time>
</trkpt>
<trkpt lat="38.453344688815136" lon="-0.8608717757189646">
<ele>499</ele>
<time>2014-06-28T10:16:36Z</time>
</trkpt>
<trkpt lat="38.453353901416676" lon="-0.8608518699514679">
<ele>499</ele>
<time>2014-06-28T10:16:37Z</time>
</trkpt>
<trkpt lat="38.453357574384306" lon="-0.8608221694744964">
<ele>499</ele>
<time>2014-06-28T10:16:38Z</time>
</trkpt>
<trkpt lat="38.45335589879774" lon="-0.8607857786582288">
<ele>499</ele>
<time>2014-06-28T10:16:39Z</time>
</trkpt>
<trkpt lat="38.453352685995696" lon="-0.8607443442378852">
<ele>499</ele>
<time>2014-06-28T10:16:40Z</time>
</trkpt>
<trkpt lat="38.45335031297363" lon="-0.8607040500567728">
<ele>499</ele>
<time>2014-06-28T10:16:41Z</time>
</trkpt>
<trkpt lat="38.45334635497216" lon="-0.8606637231180888">
<ele>499</ele>
<time>2014-06-28T10:16:42Z</time>
</trkpt>
<trkpt lat="38.4533453473813" lon="-0.8606262565782903">
<ele>499</ele>
<time>2014-06-28T10:16:43Z</time>
</trkpt>
<trkpt lat="38.453344127745204" lon="-0.860588903087274">
<ele>499</ele>
<time>2014-06-28T10:16:44Z</time>
</trkpt>
<trkpt lat="38.45334468627247" lon="-0.860554025923547">
<ele>499</ele>
<time>2014-06-28T10:16:45Z</time>
</trkpt>
<trkpt lat="38.45334498059226" lon="-0.860521100611173">
<ele>499</ele>
<time>2014-06-28T10:16:46Z</time>
</trkpt>
<trkpt lat="38.45334816455393" lon="-0.8604908837096563">
<ele>499</ele>
<time>2014-06-28T10:16:47Z</time>
</trkpt>
<trkpt lat="38.45335306541668" lon="-0.8604592940429332">
<ele>499</ele>
<time>2014-06-28T10:16:48Z</time>
</trkpt>
<trkpt lat="38.45335864174395" lon="-0.8604289810562802">
<ele>499</ele>
<time>2014-06-28T10:16:49Z</time>
</trkpt>
<trkpt lat="38.45336356150865" lon="-0.8603997189769242">
<ele>499</ele>
<time>2014-06-28T10:16:50Z</time>
</trkpt>
<trkpt lat="38.45336681045344" lon="-0.8603670147443058">
<ele>499</ele>
<time>2014-06-28T10:16:51Z</time>
</trkpt>
<trkpt lat="38.45337015930693" lon="-0.8603352189072698">
<ele>499</ele>
<time>2014-06-28T10:16:52Z</time>
</trkpt>
<trkpt lat="38.45337452513865" lon="-0.8603018757994629">
<ele>499</ele>
<time>2014-06-28T10:16:53Z</time>
</trkpt>
<trkpt lat="38.45337770060522" lon="-0.8602706229979974">
<ele>499</ele>
<time>2014-06-28T10:16:54Z</time>
</trkpt>
<trkpt lat="38.45338161270288" lon="-0.8602415308998648">
<ele>499</ele>
<time>2014-06-28T10:16:55Z</time>
</trkpt>
<trkpt lat="38.45338452442605" lon="-0.8602151873818762">
<ele>499</ele>
<time>2014-06-28T10:16:56Z</time>
</trkpt>
<trkpt lat="38.453387983901244" lon="-0.8601924533453738">
<ele>499</ele>
<time>2014-06-28T10:16:57Z</time>
</trkpt>
<trkpt lat="38.45338972891457" lon="-0.8601717469740233">
<ele>499</ele>
<time>2014-06-28T10:16:58Z</time>
</trkpt>
<trkpt lat="38.45339787064239" lon="-0.8601492766065063">
<ele>499</ele>
<time>2014-06-28T10:16:59Z</time>
</trkpt>
<trkpt lat="38.45339517939148" lon="-0.8601278151005639">
<ele>499</ele>
<time>2014-06-28T10:17:00Z</time>
</trkpt>
<trkpt lat="38.453395809736875" lon="-0.860107867599389">
<ele>499</ele>
<time>2014-06-28T10:17:01Z</time>
</trkpt>
<trkpt lat="38.453396153671015" lon="-0.860089164067696">
<ele>499</ele>
<time>2014-06-28T10:17:02Z</time>
</trkpt>
<trkpt lat="38.45339822344688" lon="-0.8600692870368574">
<ele>499</ele>
<time>2014-06-28T10:17:03Z</time>
</trkpt>
<trkpt lat="38.453399587396106" lon="-0.8600447617949737">
<ele>499</ele>
<time>2014-06-28T10:17:04Z</time>
</trkpt>
<trkpt lat="38.45339803949414" lon="-0.8600140098416085">
<ele>499</ele>
<time>2014-06-28T10:17:05Z</time>
</trkpt>
<trkpt lat="38.45339536049548" lon="-0.8599887398685861">
<ele>499</ele>
<time>2014-06-28T10:17:06Z</time>
</trkpt>
<trkpt lat="38.45339527231104" lon="-0.8599580912770741">
<ele>499</ele>
<time>2014-06-28T10:17:07Z</time>
</trkpt>
<trkpt lat="38.453393175277235" lon="-0.8599296601354346">
<ele>499</ele>
<time>2014-06-28T10:17:08Z</time>
</trkpt>
<trkpt lat="38.45339072109564" lon="-0.8599043577320764">
<ele>499</ele>
<time>2014-06-28T10:17:09Z</time>
</trkpt>
<trkpt lat="38.45338932267825" lon="-0.8598791553948928">
<ele>499</ele>
<time>2014-06-28T10:17:10Z</time>
</trkpt>
<trkpt lat="38.45338621137197" lon="-0.8598554054051069">
<ele>499</ele>
<time>2014-06-28T10:17:11Z</time>
</trkpt>
<trkpt lat="38.45338521288176" lon="-0.8598337978884663">
<ele>499</ele>
<time>2014-06-28T10:17:12Z</time>
</trkpt>
<trkpt lat="38.45338977403265" lon="-0.8598128652181647">
<ele>499</ele>
<time>2014-06-28T10:17:13Z</time>
</trkpt>
<trkpt lat="38.45339332876533" lon="-0.859791409133491">
<ele>500</ele>
<time>2014-06-28T10:17:14Z</time>
</trkpt>
<trkpt lat="38.45339425535341" lon="-0.859770589268822">
<ele>500</ele>
<time>2014-06-28T10:17:15Z</time>
</trkpt>
<trkpt lat="38.45339493468838" lon="-0.8597491195165508">
<ele>500</ele>
<time>2014-06-28T10:17:16Z</time>
</trkpt>
<trkpt lat="38.45339420913693" lon="-0.8597304728381054">
<ele>500</ele>
<time>2014-06-28T10:17:17Z</time>
</trkpt>
<trkpt lat="38.45339568537061" lon="-0.8597120353833052">
<ele>500</ele>
<time>2014-06-28T10:17:18Z</time>
</trkpt>
<trkpt lat="38.45339676113617" lon="-0.8596925983085045">
<ele>500</ele>
<time>2014-06-28T10:17:19Z</time>
</trkpt>
<trkpt lat="38.453399298075404" lon="-0.8596731147197091">
<ele>500</ele>
<time>2014-06-28T10:17:20Z</time>
</trkpt>
<trkpt lat="38.45339926511748" lon="-0.8596531112268961">
<ele>500</ele>
<time>2014-06-28T10:17:21Z</time>
</trkpt>
<trkpt lat="38.453400400644085" lon="-0.8596338399571161">
<ele>500</ele>
<time>2014-06-28T10:17:22Z</time>
</trkpt>
<trkpt lat="38.45340142669041" lon="-0.8596129686561174">
<ele>500</ele>
<time>2014-06-28T10:17:23Z</time>
</trkpt>
<trkpt lat="38.453402379804494" lon="-0.8595943416861801">
<ele>500</ele>
<time>2014-06-28T10:17:24Z</time>
</trkpt>
<trkpt lat="38.453400907491435" lon="-0.8595749622449754">
<ele>500</ele>
<time>2014-06-28T10:17:25Z</time>
</trkpt>
<trkpt lat="38.45340204911856" lon="-0.8595548396827773">
<ele>500</ele>
<time>2014-06-28T10:17:26Z</time>
</trkpt>
<trkpt lat="38.4534020399821" lon="-0.8595358051122272">
<ele>500</ele>
<time>2014-06-28T10:17:27Z</time>
</trkpt>
<trkpt lat="38.453404758591276" lon="-0.8595168280508843">
<ele>500</ele>
<time>2014-06-28T10:17:28Z</time>
</trkpt>
<trkpt lat="38.453409881194574" lon="-0.8594984415696093">
<ele>501</ele>
<time>2014-06-28T10:17:29Z</time>
</trkpt>
<trkpt lat="38.45341460128765" lon="-0.8594804479220811">
<ele>501</ele>
<time>2014-06-28T10:17:30Z</time>
</trkpt>
<trkpt lat="38.453415693399975" lon="-0.8594612204523073">
<ele>501</ele>
<time>2014-06-28T10:17:31Z</time>
</trkpt>
<trkpt lat="38.45341428471866" lon="-0.8594403113401522">
<ele>501</ele>
<time>2014-06-28T10:17:32Z</time>
</trkpt>
<trkpt lat="38.45341343359648" lon="-0.8594205136676868">
<ele>501</ele>
<time>2014-06-28T10:17:33Z</time>
</trkpt>
<trkpt lat="38.453413219715664" lon="-0.8594008421873404">
<ele>501</ele>
<time>2014-06-28T10:17:34Z</time>
</trkpt>
<trkpt lat="38.45341462606101" lon="-0.8593810181253149">
<ele>501</ele>
<time>2014-06-28T10:17:35Z</time>
</trkpt>
<trkpt lat="38.45341606624059" lon="-0.8593611045388255">
<ele>501</ele>
<time>2014-06-28T10:17:36Z</time>
</trkpt>
<trkpt lat="38.45341529929626" lon="-0.8593423047667295">
<ele>501</ele>
<time>2014-06-28T10:17:37Z</time>
</trkpt>
<trkpt lat="38.4534110999676" lon="-0.8593237786423076">
<ele>501</ele>
<time>2014-06-28T10:17:38Z</time>
</trkpt>
<trkpt lat="38.45340934731202" lon="-0.8593020142398418">
<ele>501</ele>
<time>2014-06-28T10:17:39Z</time>
</trkpt>
<trkpt lat="38.45341016165296" lon="-0.8592832592746219">
<ele>501</ele>
<time>2014-06-28T10:17:40Z</time>
</trkpt>
<trkpt lat="38.45341022661166" lon="-0.859265109398617">
<ele>501</ele>
<time>2014-06-28T10:17:41Z</time>
</trkpt>
<trkpt lat="38.453410265046216" lon="-0.8592482018433134">
<ele>501</ele>
<time>2014-06-28T10:17:42Z</time>
</trkpt>
<trkpt lat="38.45340968468489" lon="-0.8592308757428865">
<ele>501</ele>
<time>2014-06-28T10:17:43Z</time>
</trkpt>
<trkpt lat="38.453410113342976" lon="-0.8592150167212392">
<ele>501</ele>
<time>2014-06-28T10:17:44Z</time>
</trkpt>
<trkpt lat="38.453410505189126" lon="-0.8592010369471719">
<ele>502</ele>
<time>2014-06-28T10:17:45Z</time>
</trkpt>
<trkpt lat="38.45341299539997" lon="-0.859187684702544">
<ele>502</ele>
<time>2014-06-28T10:17:46Z</time>
</trkpt>
<trkpt lat="38.453413558642445" lon="-0.8591726224222385">
<ele>502</ele>
<time>2014-06-28T10:17:47Z</time>
</trkpt>
<trkpt lat="38.45341324312905" lon="-0.8591566441094833">
<ele>502</ele>
<time>2014-06-28T10:17:48Z</time>
</trkpt>
<trkpt lat="38.453414455798395" lon="-0.8591397092744497">
<ele>502</ele>
<time>2014-06-28T10:17:49Z</time>
</trkpt>
<trkpt lat="38.453415465994404" lon="-0.8591228996565226">
<ele>502</ele>
<time>2014-06-28T10:17:50Z</time>
</trkpt>
<trkpt lat="38.45341607308122" lon="-0.8591049135389718">
<ele>502</ele>
<time>2014-06-28T10:17:51Z</time>
</trkpt>
<trkpt lat="38.453415491360744" lon="-0.8590846774120319">
<ele>502</ele>
<time>2014-06-28T10:17:52Z</time>
</trkpt>
<trkpt lat="38.45341471164206" lon="-0.8590689248390645">
<ele>502</ele>
<time>2014-06-28T10:17:53Z</time>
</trkpt>
<trkpt lat="38.45341361843389" lon="-0.8590517953313249">
<ele>502</ele>
<time>2014-06-28T10:17:54Z</time>
</trkpt>
<trkpt lat="38.45341477986332" lon="-0.859037194934581">
<ele>502</ele>
<time>2014-06-28T10:17:55Z</time>
</trkpt>
<trkpt lat="38.45341341152456" lon="-0.8590167477097914">
<ele>502</ele>
<time>2014-06-28T10:17:56Z</time>
</trkpt>
<trkpt lat="38.4534111484577" lon="-0.8589948514470813">
<ele>502</ele>
<time>2014-06-28T10:17:57Z</time>
</trkpt>
<trkpt lat="38.45341005196141" lon="-0.8589753061789925">
<ele>502</ele>
<time>2014-06-28T10:17:58Z</time>
</trkpt>
<trkpt lat="38.45341052091443" lon="-0.8589515136060026">
<ele>502</ele>
<time>2014-06-28T10:17:59Z</time>
</trkpt>
<trkpt lat="38.45341110065662" lon="-0.8589316604408208">
<ele>502</ele>
<time>2014-06-28T10:18:00Z</time>
</trkpt>
<trkpt lat="38.45341131335006" lon="-0.8589129686150279">
<ele>502</ele>
<time>2014-06-28T10:18:01Z</time>
</trkpt>
<trkpt lat="38.45341193998573" lon="-0.8588964804982622">
<ele>502</ele>
<time>2014-06-28T10:18:02Z</time>
</trkpt>
<trkpt lat="38.4534121183953" lon="-0.8588798930956151">
<ele>502</ele>
<time>2014-06-28T10:18:03Z</time>
</trkpt>
<trkpt lat="38.45341208177876" lon="-0.8588629577406283">
<ele>502</ele>
<time>2014-06-28T10:18:04Z</time>
</trkpt>
<trkpt lat="38.45341037708795" lon="-0.85884740692649">
<ele>502</ele>
<time>2014-06-28T10:18:05Z</time>
</trkpt>
<trkpt lat="38.45340688098572" lon="-0.858828622638475">
<ele>502</ele>
<time>2014-06-28T10:18:06Z</time>
</trkpt>
<trkpt lat="38.45340468408395" lon="-0.8588096840387781">
<ele>502</ele>
<time>2014-06-28T10:18:07Z</time>
</trkpt>
<trkpt lat="38.45340325305135" lon="-0.8587905724877553">
<ele>502</ele>
<time>2014-06-28T10:18:08Z</time>
</trkpt>
<trkpt lat="38.453403073165205" lon="-0.8587735270362913">
<ele>503</ele>
<time>2014-06-28T10:18:09Z</time>
</trkpt>
<trkpt lat="38.45340556068534" lon="-0.8587581027902039">
<ele>503</ele>
<time>2014-06-28T10:18:10Z</time>
</trkpt>
<trkpt lat="38.45340773379812" lon="-0.8587422776041442">
<ele>503</ele>
<time>2014-06-28T10:18:11Z</time>
</trkpt>
<trkpt lat="38.453408382736846" lon="-0.8587263352871802">
<ele>503</ele>
<time>2014-06-28T10:18:12Z</time>
</trkpt>
<trkpt lat="38.45340723906279" lon="-0.8587091792388558">
<ele>503</ele>
<time>2014-06-28T10:18:13Z</time>
</trkpt>
<trkpt lat="38.45341015989204" lon="-0.8586915326648261">
<ele>503</ele>
<time>2014-06-28T10:18:14Z</time>
</trkpt>
<trkpt lat="38.45341272583461" lon="-0.858673828536458">
<ele>503</ele>
<time>2014-06-28T10:18:15Z</time>
</trkpt>
<trkpt lat="38.453413794701866" lon="-0.8586564175958165">
<ele>503</ele>
<time>2014-06-28T10:18:16Z</time>
</trkpt>
<trkpt lat="38.45341391797915" lon="-0.8586381829756594">
<ele>503</ele>
<time>2014-06-28T10:18:17Z</time>
</trkpt>
<trkpt lat="38.45341462146412" lon="-0.8586184497110981">
<ele>503</ele>
<time>2014-06-28T10:18:18Z</time>
</trkpt>
<trkpt lat="38.453416940953126" lon="-0.8585962566099958">
<ele>503</ele>
<time>2014-06-28T10:18:19Z</time>
</trkpt>
<trkpt lat="38.45342076169101" lon="-0.8585776059595458">
<ele>503</ele>
<time>2014-06-28T10:18:20Z</time>
</trkpt>
<trkpt lat="38.45342210404824" lon="-0.8585596550837831">
<ele>503</ele>
<time>2014-06-28T10:18:21Z</time>
</trkpt>
<trkpt lat="38.45342525222774" lon="-0.858541434695933">
<ele>503</ele>
<time>2014-06-28T10:18:22Z</time>
</trkpt>
<trkpt lat="38.45342874840848" lon="-0.8585237580028349">
<ele>503</ele>
<time>2014-06-28T10:18:23Z</time>
</trkpt>
<trkpt lat="38.45343486161513" lon="-0.8585042555652341">
<ele>503</ele>
<time>2014-06-28T10:18:24Z</time>
</trkpt>
<trkpt lat="38.45343901486876" lon="-0.8584849968696698">
<ele>503</ele>
<time>2014-06-28T10:18:25Z</time>
</trkpt>
<trkpt lat="38.4534442273387" lon="-0.8584653813462672">
<ele>503</ele>
<time>2014-06-28T10:18:26Z</time>
</trkpt>
<trkpt lat="38.4534487164398" lon="-0.8584458693056561">
<ele>503</ele>
<time>2014-06-28T10:18:27Z</time>
</trkpt>
<trkpt lat="38.4534532136666" lon="-0.8584267408947361">
<ele>503</ele>
<time>2014-06-28T10:18:28Z</time>
</trkpt>
<trkpt lat="38.45345576695933" lon="-0.858407522202307">
<ele>503</ele>
<time>2014-06-28T10:18:29Z</time>
</trkpt>
<trkpt lat="38.45345637114179" lon="-0.8583896174972828">
<ele>503</ele>
<time>2014-06-28T10:18:30Z</time>
</trkpt>
<trkpt lat="38.45345708164531" lon="-0.8583707328328368">
<ele>503</ele>
<time>2014-06-28T10:18:31Z</time>
</trkpt>
<trkpt lat="38.45345655719163" lon="-0.8583519455209087">
<ele>503</ele>
<time>2014-06-28T10:18:32Z</time>
</trkpt>
<trkpt lat="38.45345625394334" lon="-0.8583323943774319">
<ele>503</ele>
<time>2014-06-28T10:18:33Z</time>
</trkpt>
<trkpt lat="38.45345621637775" lon="-0.8583137792082494">
<ele>503</ele>
<time>2014-06-28T10:18:34Z</time>
</trkpt>
<trkpt lat="38.45345524099077" lon="-0.8582963335565656">
<ele>503</ele>
<time>2014-06-28T10:18:35Z</time>
</trkpt>
<trkpt lat="38.45345304606159" lon="-0.8582791249313524">
<ele>503</ele>
<time>2014-06-28T10:18:36Z</time>
</trkpt>
<trkpt lat="38.45345485488471" lon="-0.8582625421509957">
<ele>503</ele>
<time>2014-06-28T10:18:37Z</time>
</trkpt>
<trkpt lat="38.453455835604245" lon="-0.8582465782396204">
<ele>503</ele>
<time>2014-06-28T10:18:38Z</time>
</trkpt>
<trkpt lat="38.453456985909405" lon="-0.8582283781289898">
<ele>503</ele>
<time>2014-06-28T10:18:39Z</time>
</trkpt>
<trkpt lat="38.45345858302346" lon="-0.8582111487065429">
<ele>503</ele>
<time>2014-06-28T10:18:40Z</time>
</trkpt>
<trkpt lat="38.453460345880856" lon="-0.858192777305283">
<ele>503</ele>
<time>2014-06-28T10:18:41Z</time>
</trkpt>
<trkpt lat="38.45346228901474" lon="-0.8581744048289759">
<ele>503</ele>
<time>2014-06-28T10:18:42Z</time>
</trkpt>
<trkpt lat="38.45346428955869" lon="-0.8581554974795105">
<ele>503</ele>
<time>2014-06-28T10:18:43Z</time>
</trkpt>
<trkpt lat="38.45346464702606" lon="-0.8581360137968151">
<ele>503</ele>
<time>2014-06-28T10:18:44Z</time>
</trkpt>
<trkpt lat="38.45346301888353" lon="-0.8581167199478522">
<ele>503</ele>
<time>2014-06-28T10:18:45Z</time>
</trkpt>
<trkpt lat="38.453463439395435" lon="-0.8580966114499636">
<ele>503</ele>
<time>2014-06-28T10:18:46Z</time>
</trkpt>
<trkpt lat="38.45346579474884" lon="-0.8580768012938897">
<ele>503</ele>
<time>2014-06-28T10:18:47Z</time>
</trkpt>
<trkpt lat="38.45346725171174" lon="-0.8580575307576048">
<ele>503</ele>
<time>2014-06-28T10:18:48Z</time>
</trkpt>
<trkpt lat="38.45346787514833" lon="-0.8580388460104803">
<ele>503</ele>
<time>2014-06-28T10:18:49Z</time>
</trkpt>
<trkpt lat="38.453467879274555" lon="-0.8580204869606199">
<ele>503</ele>
<time>2014-06-28T10:18:50Z</time>
</trkpt>
<trkpt lat="38.45346383271127" lon="-0.8580027395132837">
<ele>503</ele>
<time>2014-06-28T10:18:51Z</time>
</trkpt>
<trkpt lat="38.45346214837776" lon="-0.8579846182414341">
<ele>503</ele>
<time>2014-06-28T10:18:52Z</time>
</trkpt>
<trkpt lat="38.45345874153232" lon="-0.8579676906665653">
<ele>503</ele>
<time>2014-06-28T10:18:53Z</time>
</trkpt>
<trkpt lat="38.45345527555661" lon="-0.8579514952222249">
<ele>503</ele>
<time>2014-06-28T10:18:54Z</time>
</trkpt>
<trkpt lat="38.4534524914817" lon="-0.8579331588206239">
<ele>503</ele>
<time>2014-06-28T10:18:55Z</time>
</trkpt>
<trkpt lat="38.45344950085212" lon="-0.8579137539383807">
<ele>503</ele>
<time>2014-06-28T10:18:56Z</time>
</trkpt>
<trkpt lat="38.45345091018494" lon="-0.8578935628513474">
<ele>503</ele>
<time>2014-06-28T10:18:57Z</time>
</trkpt>
<trkpt lat="38.45344542960472" lon="-0.8578760622691035">
<ele>503</ele>
<time>2014-06-28T10:18:58Z</time>
</trkpt>
<trkpt lat="38.45344172432098" lon="-0.8578549204968842">
<ele>503</ele>
<time>2014-06-28T10:18:59Z</time>
</trkpt>
<trkpt lat="38.45343023490068" lon="-0.8578425870769861">
<ele>503</ele>
<time>2014-06-28T10:19:00Z</time>
</trkpt>
<trkpt lat="38.453419483010414" lon="-0.8578287778502826">
<ele>503</ele>
<time>2014-06-28T10:19:01Z</time>
</trkpt>
<trkpt lat="38.45340840021216" lon="-0.857813850456477">
<ele>503</ele>
<time>2014-06-28T10:19:02Z</time>
</trkpt>
<trkpt lat="38.453397872762935" lon="-0.8577966315926018">
<ele>503</ele>
<time>2014-06-28T10:19:03Z</time>
</trkpt>
<trkpt lat="38.45338736539729" lon="-0.8577791480096341">
<ele>503</ele>
<time>2014-06-28T10:19:04Z</time>
</trkpt>
<trkpt lat="38.45338104973861" lon="-0.8577635718535198">
<ele>503</ele>
<time>2014-06-28T10:19:05Z</time>
</trkpt>
<trkpt lat="38.4533766995695" lon="-0.8577509914294951">
<ele>503</ele>
<time>2014-06-28T10:19:06Z</time>
</trkpt>
<trkpt lat="38.45337021860644" lon="-0.8577368229652395">
<ele>504</ele>
<time>2014-06-28T10:19:07Z</time>
</trkpt>
<trkpt lat="38.45336539883949" lon="-0.8577218353316253">
<ele>504</ele>
<time>2014-06-28T10:19:08Z</time>
</trkpt>
<trkpt lat="38.453360621444865" lon="-0.8577061731512716">
<ele>504</ele>
<time>2014-06-28T10:19:09Z</time>
</trkpt>
<trkpt lat="38.45335656869268" lon="-0.8576892624579827">
<ele>504</ele>
<time>2014-06-28T10:19:10Z</time>
</trkpt>
<trkpt lat="38.4533549517236" lon="-0.8576710720071156">
<ele>504</ele>
<time>2014-06-28T10:19:11Z</time>
</trkpt>
<trkpt lat="38.45335159468179" lon="-0.8576537508631397">
<ele>504</ele>
<time>2014-06-28T10:19:12Z</time>
</trkpt>
<trkpt lat="38.453347763094946" lon="-0.8576367014081755">
<ele>504</ele>
<time>2014-06-28T10:19:13Z</time>
</trkpt>
<trkpt lat="38.45334473305028" lon="-0.8576213149832348">
<ele>504</ele>
<time>2014-06-28T10:19:14Z</time>
</trkpt>
<trkpt lat="38.453341829439644" lon="-0.8576066370657808">
<ele>504</ele>
<time>2014-06-28T10:19:15Z</time>
</trkpt>
<trkpt lat="38.45333819433792" lon="-0.8575896495191833">
<ele>504</ele>
<time>2014-06-28T10:19:16Z</time>
</trkpt>
<trkpt lat="38.453335750406474" lon="-0.8575729124557535">
<ele>504</ele>
<time>2014-06-28T10:19:17Z</time>
</trkpt>
<trkpt lat="38.453336153231724" lon="-0.8575565188249474">
<ele>504</ele>
<time>2014-06-28T10:19:18Z</time>
</trkpt>
<trkpt lat="38.4533351606125" lon="-0.8575412820437877">
<ele>504</ele>
<time>2014-06-28T10:19:19Z</time>
</trkpt>
<trkpt lat="38.453334424468764" lon="-0.8575259006193315">
<ele>504</ele>
<time>2014-06-28T10:19:20Z</time>
</trkpt>
<trkpt lat="38.45332670448696" lon="-0.8575152048864503">
<ele>504</ele>
<time>2014-06-28T10:19:21Z</time>
</trkpt>
<trkpt lat="38.453326772910316" lon="-0.8575002381512954">
<ele>504</ele>
<time>2014-06-28T10:19:22Z</time>
</trkpt>
<trkpt lat="38.453327663514145" lon="-0.8574837120069588">
<ele>504</ele>
<time>2014-06-28T10:19:23Z</time>
</trkpt>
<trkpt lat="38.45332702077966" lon="-0.8574677623342041">
<ele>504</ele>
<time>2014-06-28T10:19:24Z</time>
</trkpt>
<trkpt lat="38.45332668946863" lon="-0.8574545369031714">
<ele>504</ele>
<time>2014-06-28T10:19:25Z</time>
</trkpt>
<trkpt lat="38.45332636658652" lon="-0.8574406286148546">
<ele>504</ele>
<time>2014-06-28T10:19:26Z</time>
</trkpt>
<trkpt lat="38.453325052311" lon="-0.8574238581212283">
<ele>504</ele>
<time>2014-06-28T10:19:27Z</time>
</trkpt>
<trkpt lat="38.453324159066796" lon="-0.857405905676846">
<ele>504</ele>
<time>2014-06-28T10:19:28Z</time>
</trkpt>
<trkpt lat="38.45332214898706" lon="-0.8573855417427498">
<ele>504</ele>
<time>2014-06-28T10:19:29Z</time>
</trkpt>
<trkpt lat="38.45331954991413" lon="-0.8573645699911515">
<ele>504</ele>
<time>2014-06-28T10:19:30Z</time>
</trkpt>
<trkpt lat="38.45331787678623" lon="-0.8573423810227372">
<ele>504</ele>
<time>2014-06-28T10:19:31Z</time>
</trkpt>
<trkpt lat="38.45331592733322" lon="-0.8573198909561456">
<ele>504</ele>
<time>2014-06-28T10:19:32Z</time>
</trkpt>
<trkpt lat="38.4533110986432" lon="-0.8572964052971671">
<ele>504</ele>
<time>2014-06-28T10:19:33Z</time>
</trkpt>
<trkpt lat="38.45330836959564" lon="-0.8572771110797761">
<ele>504</ele>
<time>2014-06-28T10:19:34Z</time>
</trkpt>
<trkpt lat="38.45330581569151" lon="-0.8572540763933666">
<ele>504</ele>
<time>2014-06-28T10:19:35Z</time>
</trkpt>
<trkpt lat="38.45330018685767" lon="-0.8572307366289484">
<ele>504</ele>
<time>2014-06-28T10:19:36Z</time>
</trkpt>
<trkpt lat="38.45330017397365" lon="-0.8572036089926857">
<ele>504</ele>
<time>2014-06-28T10:19:37Z</time>
</trkpt>
<trkpt lat="38.453294498388274" lon="-0.8571771183231911">
<ele>504</ele>
<time>2014-06-28T10:19:38Z</time>
</trkpt>
<trkpt lat="38.45329042768522" lon="-0.8571511295637625">
<ele>504</ele>
<time>2014-06-28T10:19:39Z</time>
</trkpt>
<trkpt lat="38.45328690817498" lon="-0.8571289023562826">
<ele>504</ele>
<time>2014-06-28T10:19:40Z</time>
</trkpt>
<trkpt lat="38.45328110464027" lon="-0.8571072953816632">
<ele>504</ele>
<time>2014-06-28T10:19:41Z</time>
</trkpt>
<trkpt lat="38.45327604382665" lon="-0.8570887022927477">
<ele>504</ele>
<time>2014-06-28T10:19:42Z</time>
</trkpt>
<trkpt lat="38.45327250945176" lon="-0.8570702464148522">
<ele>505</ele>
<time>2014-06-28T10:19:43Z</time>
</trkpt>
<trkpt lat="38.45326907800686" lon="-0.8570546744673633">
<ele>505</ele>
<time>2014-06-28T10:19:44Z</time>
</trkpt>
<trkpt lat="38.45326396082324" lon="-0.8570387137971394">
<ele>505</ele>
<time>2014-06-28T10:19:45Z</time>
</trkpt>
<trkpt lat="38.45325861168598" lon="-0.8570215721274326">
<ele>505</ele>
<time>2014-06-28T10:19:46Z</time>
</trkpt>
<trkpt lat="38.453251294351304" lon="-0.8570018389905057">
<ele>505</ele>
<time>2014-06-28T10:19:47Z</time>
</trkpt>
<trkpt lat="38.453245823154134" lon="-0.8569830451556939">
<ele>505</ele>
<time>2014-06-28T10:19:48Z</time>
</trkpt>
<trkpt lat="38.45324053055444" lon="-0.8569651664668331">
<ele>505</ele>
<time>2014-06-28T10:19:49Z</time>
</trkpt>
<trkpt lat="38.45323283670969" lon="-0.8569471211392051">
<ele>505</ele>
<time>2014-06-28T10:19:50Z</time>
</trkpt>
<trkpt lat="38.45322566910571" lon="-0.856929807011496">
<ele>505</ele>
<time>2014-06-28T10:19:51Z</time>
</trkpt>
<trkpt lat="38.45321907733524" lon="-0.8569135061957157">
<ele>505</ele>
<time>2014-06-28T10:19:52Z</time>
</trkpt>
<trkpt lat="38.453211220479496" lon="-0.8568949902142562">
<ele>505</ele>
<time>2014-06-28T10:19:53Z</time>
</trkpt>
<trkpt lat="38.453203295072385" lon="-0.8568766848872718">
<ele>505</ele>
<time>2014-06-28T10:19:54Z</time>
</trkpt>
<trkpt lat="38.45319765480647" lon="-0.8568599474016965">
<ele>505</ele>
<time>2014-06-28T10:19:55Z</time>
</trkpt>
<trkpt lat="38.45319430441171" lon="-0.8568440468599686">
<ele>505</ele>
<time>2014-06-28T10:19:56Z</time>
</trkpt>
<trkpt lat="38.45318757448321" lon="-0.8568288619027401">
<ele>505</ele>
<time>2014-06-28T10:19:57Z</time>
</trkpt>
<trkpt lat="38.453178989071624" lon="-0.856812146979324">
<ele>505</ele>
<time>2014-06-28T10:19:58Z</time>
</trkpt>
<trkpt lat="38.45317561961753" lon="-0.8567963353247896">
<ele>505</ele>
<time>2014-06-28T10:19:59Z</time>
</trkpt>
<trkpt lat="38.45317316790866" lon="-0.8567811702521995">
<ele>505</ele>
<time>2014-06-28T10:20:00Z</time>
</trkpt>
<trkpt lat="38.45317151706668" lon="-0.856764978622387">
<ele>505</ele>
<time>2014-06-28T10:20:01Z</time>
</trkpt>
<trkpt lat="38.45316864908865" lon="-0.8567531292108141">
<ele>505</ele>
<time>2014-06-28T10:20:02Z</time>
</trkpt>
<trkpt lat="38.45316603882544" lon="-0.8567410596171442">
<ele>505</ele>
<time>2014-06-28T10:20:03Z</time>
</trkpt>
<trkpt lat="38.4531615714476" lon="-0.8567285037889456">
<ele>505</ele>
<time>2014-06-28T10:20:04Z</time>
</trkpt>
<trkpt lat="38.45315766394259" lon="-0.856713747380861">
<ele>505</ele>
<time>2014-06-28T10:20:05Z</time>
</trkpt>
<trkpt lat="38.45315027772256" lon="-0.856695893204318">
<ele>505</ele>
<time>2014-06-28T10:20:06Z</time>
</trkpt>
<trkpt lat="38.45314454233527" lon="-0.8566761441033882">
<ele>505</ele>
<time>2014-06-28T10:20:07Z</time>
</trkpt>
<trkpt lat="38.4531365727227" lon="-0.8566584855173236">
<ele>505</ele>
<time>2014-06-28T10:20:08Z</time>
</trkpt>
<trkpt lat="38.453127542416844" lon="-0.8566428342894746">
<ele>505</ele>
<time>2014-06-28T10:20:09Z</time>
</trkpt>
<trkpt lat="38.45312115199039" lon="-0.8566227993118241">
<ele>505</ele>
<time>2014-06-28T10:20:10Z</time>
</trkpt>
<trkpt lat="38.45311534093921" lon="-0.8566035666573547">
<ele>505</ele>
<time>2014-06-28T10:20:11Z</time>
</trkpt>
<trkpt lat="38.453110436413176" lon="-0.8565795996364832">
<ele>505</ele>
<time>2014-06-28T10:20:12Z</time>
</trkpt>
<trkpt lat="38.45310612277841" lon="-0.8565580800845335">
<ele>506</ele>
<time>2014-06-28T10:20:13Z</time>
</trkpt>
<trkpt lat="38.45310035490102" lon="-0.8565376089284205">
<ele>506</ele>
<time>2014-06-28T10:20:14Z</time>
</trkpt>
<trkpt lat="38.45309580689293" lon="-0.8565161029377969">
<ele>506</ele>
<time>2014-06-28T10:20:15Z</time>
</trkpt>
<trkpt lat="38.45308974244609" lon="-0.8564969506843263">
<ele>506</ele>
<time>2014-06-28T10:20:16Z</time>
</trkpt>
<trkpt lat="38.4530849921354" lon="-0.8564773315966066">
<ele>506</ele>
<time>2014-06-28T10:20:17Z</time>
</trkpt>
<trkpt lat="38.45308125966701" lon="-0.8564594562128093">
<ele>506</ele>
<time>2014-06-28T10:20:18Z</time>
</trkpt>
<trkpt lat="38.45307832238355" lon="-0.8564426746154874">
<ele>506</ele>
<time>2014-06-28T10:20:19Z</time>
</trkpt>
<trkpt lat="38.45307223293227" lon="-0.8564256571240174">
<ele>506</ele>
<time>2014-06-28T10:20:20Z</time>
</trkpt>
<trkpt lat="38.45307225467705" lon="-0.8564076622447195">
<ele>506</ele>
<time>2014-06-28T10:20:21Z</time>
</trkpt>
<trkpt lat="38.45306891932152" lon="-0.8563906254439809">
<ele>506</ele>
<time>2014-06-28T10:20:22Z</time>
</trkpt>
<trkpt lat="38.45306491954906" lon="-0.856376583383805">
<ele>506</ele>
<time>2014-06-28T10:20:23Z</time>
</trkpt>
<trkpt lat="38.45306068869493" lon="-0.8563625408373667">
<ele>506</ele>
<time>2014-06-28T10:20:24Z</time>
</trkpt>
<trkpt lat="38.45305469885985" lon="-0.8563481161093763">
<ele>506</ele>
<time>2014-06-28T10:20:25Z</time>
</trkpt>
<trkpt lat="38.4530496502504" lon="-0.8563325101895805">
<ele>506</ele>
<time>2014-06-28T10:20:26Z</time>
</trkpt>
<trkpt lat="38.45304481924353" lon="-0.8563168961677344">
<ele>506</ele>
<time>2014-06-28T10:20:27Z</time>
</trkpt>
<trkpt lat="38.453039780597884" lon="-0.8562998851852758">
<ele>506</ele>
<time>2014-06-28T10:20:28Z</time>
</trkpt>
<trkpt lat="38.45303583070077" lon="-0.8562838489368158">
<ele>506</ele>
<time>2014-06-28T10:20:29Z</time>
</trkpt>
<trkpt lat="38.45303580508008" lon="-0.8562594715905866">
<ele>506</ele>
<time>2014-06-28T10:20:30Z</time>
</trkpt>
<trkpt lat="38.45303695159073" lon="-0.8562359552803817">
<ele>506</ele>
<time>2014-06-28T10:20:31Z</time>
</trkpt>
<trkpt lat="38.45303704496816" lon="-0.856214052069311">
<ele>506</ele>
<time>2014-06-28T10:20:32Z</time>
</trkpt>
<trkpt lat="38.45303488959536" lon="-0.8561958343963179">
<ele>506</ele>
<time>2014-06-28T10:20:33Z</time>
</trkpt>
<trkpt lat="38.45303012348973" lon="-0.8561777048425083">
<ele>507</ele>
<time>2014-06-28T10:20:34Z</time>
</trkpt>
<trkpt lat="38.45302553674364" lon="-0.8561613258196112">
<ele>507</ele>
<time>2014-06-28T10:20:35Z</time>
</trkpt>
<trkpt lat="38.453024779881645" lon="-0.8561453243788042">
<ele>507</ele>
<time>2014-06-28T10:20:36Z</time>
</trkpt>
<trkpt lat="38.453021621040946" lon="-0.8561305081915267">
<ele>507</ele>
<time>2014-06-28T10:20:37Z</time>
</trkpt>
<trkpt lat="38.45301628937679" lon="-0.8561146016056348">
<ele>507</ele>
<time>2014-06-28T10:20:38Z</time>
</trkpt>
<trkpt lat="38.45301244120879" lon="-0.8560957328609186">
<ele>507</ele>
<time>2014-06-28T10:20:39Z</time>
</trkpt>
<trkpt lat="38.45300927508695" lon="-0.8560770017447091">
<ele>507</ele>
<time>2014-06-28T10:20:40Z</time>
</trkpt>
<trkpt lat="38.45300541334232" lon="-0.8560509551202855">
<ele>507</ele>
<time>2014-06-28T10:20:41Z</time>
</trkpt>
<trkpt lat="38.45300037301051" lon="-0.856030160721401">
<ele>507</ele>
<time>2014-06-28T10:20:42Z</time>
</trkpt>
<trkpt lat="38.45299719593851" lon="-0.8560170874853658">
<ele>507</ele>
<time>2014-06-28T10:20:43Z</time>
</trkpt>
<trkpt lat="38.45299536265092" lon="-0.8560007992735081">
<ele>507</ele>
<time>2014-06-28T10:20:44Z</time>
</trkpt>
<trkpt lat="38.452991727569035" lon="-0.8559851726542017">
<ele>507</ele>
<time>2014-06-28T10:20:45Z</time>
</trkpt>
<trkpt lat="38.45298634078102" lon="-0.8559696379939583">
<ele>507</ele>
<time>2014-06-28T10:20:46Z</time>
</trkpt>
<trkpt lat="38.45298056776917" lon="-0.8559553220156332">
<ele>507</ele>
<time>2014-06-28T10:20:47Z</time>
</trkpt>
<trkpt lat="38.45297547152306" lon="-0.8559398430013945">
<ele>507</ele>
<time>2014-06-28T10:20:48Z</time>
</trkpt>
<trkpt lat="38.45297301989844" lon="-0.8559277645695844">
<ele>507</ele>
<time>2014-06-28T10:20:49Z</time>
</trkpt>
<trkpt lat="38.45297015417258" lon="-0.8559137745374975">
<ele>507</ele>
<time>2014-06-28T10:20:50Z</time>
</trkpt>
<trkpt lat="38.4529669638913" lon="-0.8558993901850026">
<ele>507</ele>
<time>2014-06-28T10:20:51Z</time>
</trkpt>
<trkpt lat="38.45296446796383" lon="-0.8558786685966058">
<ele>507</ele>
<time>2014-06-28T10:20:52Z</time>
</trkpt>
<trkpt lat="38.4529593690745" lon="-0.8558569543778706">
<ele>507</ele>
<time>2014-06-28T10:20:53Z</time>
</trkpt>
<trkpt lat="38.452951424602304" lon="-0.8558372967680336">
<ele>507</ele>
<time>2014-06-28T10:20:54Z</time>
</trkpt>
<trkpt lat="38.45294534916744" lon="-0.8558199129468707">
<ele>508</ele>
<time>2014-06-28T10:20:55Z</time>
</trkpt>
<trkpt lat="38.452940017065" lon="-0.855797512366043">
<ele>508</ele>
<time>2014-06-28T10:20:56Z</time>
</trkpt>
<trkpt lat="38.452934731597864" lon="-0.8557769665926875">
<ele>508</ele>
<time>2014-06-28T10:20:57Z</time>
</trkpt>
<trkpt lat="38.45292879081327" lon="-0.8557572720221868">
<ele>508</ele>
<time>2014-06-28T10:20:58Z</time>
</trkpt>
<trkpt lat="38.452924588929434" lon="-0.8557368876006478">
<ele>508</ele>
<time>2014-06-28T10:20:59Z</time>
</trkpt>
<trkpt lat="38.452921214014815" lon="-0.8557172423408561">
<ele>508</ele>
<time>2014-06-28T10:21:00Z</time>
</trkpt>
<trkpt lat="38.45291585610335" lon="-0.8556980850996737">
<ele>508</ele>
<time>2014-06-28T10:21:01Z</time>
</trkpt>
<trkpt lat="38.45291062790205" lon="-0.8556803130537987">
<ele>508</ele>
<time>2014-06-28T10:21:02Z</time>
</trkpt>
<trkpt lat="38.45290498801484" lon="-0.8556626294844379">
<ele>508</ele>
<time>2014-06-28T10:21:03Z</time>
</trkpt>
<trkpt lat="38.45289817402449" lon="-0.8556451993383148">
<ele>508</ele>
<time>2014-06-28T10:21:04Z</time>
</trkpt>
<trkpt lat="38.45288859057588" lon="-0.8556309099453987">
<ele>508</ele>
<time>2014-06-28T10:21:05Z</time>
</trkpt>
<trkpt lat="38.4528785408624" lon="-0.855617922505006">
<ele>508</ele>
<time>2014-06-28T10:21:06Z</time>
</trkpt>
<trkpt lat="38.45287278360493" lon="-0.8556014723676789">
<ele>508</ele>
<time>2014-06-28T10:21:07Z</time>
</trkpt>
<trkpt lat="38.452868733415244" lon="-0.8555840288592711">
<ele>508</ele>
<time>2014-06-28T10:21:08Z</time>
</trkpt>
<trkpt lat="38.45286349412554" lon="-0.8555670303479129">
<ele>508</ele>
<time>2014-06-28T10:21:09Z</time>
</trkpt>
<trkpt lat="38.45285688940895" lon="-0.8555476823184951">
<ele>508</ele>
<time>2014-06-28T10:21:10Z</time>
</trkpt>
<trkpt lat="38.452850547598935" lon="-0.8555290817802169">
<ele>508</ele>
<time>2014-06-28T10:21:11Z</time>
</trkpt>
<trkpt lat="38.45284428642694" lon="-0.8555095072478083">
<ele>508</ele>
<time>2014-06-28T10:21:12Z</time>
</trkpt>
<trkpt lat="38.45284016823342" lon="-0.8554901101351818">
<ele>508</ele>
<time>2014-06-28T10:21:13Z</time>
</trkpt>
<trkpt lat="38.45283549564589" lon="-0.8554720539330033">
<ele>508</ele>
<time>2014-06-28T10:21:14Z</time>
</trkpt>
<trkpt lat="38.452830708637535" lon="-0.8554548870943309">
<ele>508</ele>
<time>2014-06-28T10:21:15Z</time>
</trkpt>
<trkpt lat="38.452824107219094" lon="-0.8554354929238764">
<ele>509</ele>
<time>2014-06-28T10:21:16Z</time>
</trkpt>
<trkpt lat="38.45281883365473" lon="-0.8554180098963746">
<ele>509</ele>
<time>2014-06-28T10:21:17Z</time>
</trkpt>
<trkpt lat="38.45281772875217" lon="-0.8553988821634054">
<ele>509</ele>
<time>2014-06-28T10:21:18Z</time>
</trkpt>
<trkpt lat="38.45281379150923" lon="-0.8553810618918475">
<ele>509</ele>
<time>2014-06-28T10:21:19Z</time>
</trkpt>
<trkpt lat="38.452809217284525" lon="-0.8553635334823081">
<ele>509</ele>
<time>2014-06-28T10:21:20Z</time>
</trkpt>
<trkpt lat="38.45280379155084" lon="-0.8553463205502683">
<ele>509</ele>
<time>2014-06-28T10:21:21Z</time>
</trkpt>
<trkpt lat="38.45279742156642" lon="-0.8553294493794282">
<ele>509</ele>
<time>2014-06-28T10:21:22Z</time>
</trkpt>
<trkpt lat="38.45279262669744" lon="-0.8553137046820584">
<ele>509</ele>
<time>2014-06-28T10:21:23Z</time>
</trkpt>
<trkpt lat="38.45278845226613" lon="-0.8552987978584484">
<ele>509</ele>
<time>2014-06-28T10:21:24Z</time>
</trkpt>
<trkpt lat="38.45278447358272" lon="-0.8552863410936045">
<ele>509</ele>
<time>2014-06-28T10:21:25Z</time>
</trkpt>
<trkpt lat="38.45277756920876" lon="-0.8552702854867157">
<ele>509</ele>
<time>2014-06-28T10:21:26Z</time>
</trkpt>
<trkpt lat="38.452772650176094" lon="-0.8552528814518429">
<ele>509</ele>
<time>2014-06-28T10:21:27Z</time>
</trkpt>
<trkpt lat="38.45277037228994" lon="-0.855232996506174">
<ele>509</ele>
<time>2014-06-28T10:21:28Z</time>
</trkpt>
<trkpt lat="38.45277081297677" lon="-0.8552128614211161">
<ele>509</ele>
<time>2014-06-28T10:21:29Z</time>
</trkpt>
<trkpt lat="38.45276897198732" lon="-0.8551946273636941">
<ele>509</ele>
<time>2014-06-28T10:21:30Z</time>
</trkpt>
<trkpt lat="38.452768219184634" lon="-0.855175551984633">
<ele>509</ele>
<time>2014-06-28T10:21:31Z</time>
</trkpt>
<trkpt lat="38.45276525039947" lon="-0.8551570842932846">
<ele>509</ele>
<time>2014-06-28T10:21:32Z</time>
</trkpt>
<trkpt lat="38.45276235164464" lon="-0.8551389494621414">
<ele>509</ele>
<time>2014-06-28T10:21:33Z</time>
</trkpt>
<trkpt lat="38.452757814330035" lon="-0.8551213777395571">
<ele>509</ele>
<time>2014-06-28T10:21:34Z</time>
</trkpt>
<trkpt lat="38.452750987472804" lon="-0.8551054894770879">
<ele>509</ele>
<time>2014-06-28T10:21:35Z</time>
</trkpt>
<trkpt lat="38.45274397843246" lon="-0.8550900123312997">
<ele>509</ele>
<time>2014-06-28T10:21:36Z</time>
</trkpt>
<trkpt lat="38.45273782487891" lon="-0.8550750602875484">
<ele>509</ele>
<time>2014-06-28T10:21:37Z</time>
</trkpt>
<trkpt lat="38.45273446384822" lon="-0.855058345631631">
<ele>509</ele>
<time>2014-06-28T10:21:38Z</time>
</trkpt>
<trkpt lat="38.45273269194338" lon="-0.8550400474460809">
<ele>509</ele>
<time>2014-06-28T10:21:39Z</time>
</trkpt>
<trkpt lat="38.45273577974646" lon="-0.8550237568094733">
<ele>509</ele>
<time>2014-06-28T10:21:40Z</time>
</trkpt>
<trkpt lat="38.45273948124158" lon="-0.8550070822231006">
<ele>509</ele>
<time>2014-06-28T10:21:41Z</time>
</trkpt>
<trkpt lat="38.45274812536851" lon="-0.8549887431231334">
<ele>509</ele>
<time>2014-06-28T10:21:42Z</time>
</trkpt>
<trkpt lat="38.45276184966218" lon="-0.8549720447101729">
<ele>509</ele>
<time>2014-06-28T10:21:43Z</time>
</trkpt>
<trkpt lat="38.4527739662047" lon="-0.8549547311869891">
<ele>509</ele>
<time>2014-06-28T10:21:44Z</time>
</trkpt>
<trkpt lat="38.452785588761245" lon="-0.8549377110219729">
<ele>509</ele>
<time>2014-06-28T10:21:45Z</time>
</trkpt>
<trkpt lat="38.45279709730762" lon="-0.8549198538159953">
<ele>509</ele>
<time>2014-06-28T10:21:46Z</time>
</trkpt>
<trkpt lat="38.45280422306065" lon="-0.8549003412339272">
<ele>510</ele>
<time>2014-06-28T10:21:47Z</time>
</trkpt>
<trkpt lat="38.45280998846452" lon="-0.8548832575717648">
<ele>510</ele>
<time>2014-06-28T10:21:48Z</time>
</trkpt>
<trkpt lat="38.452805692632595" lon="-0.854868388151388">
<ele>510</ele>
<time>2014-06-28T10:21:49Z</time>
</trkpt>
<trkpt lat="38.45280155249164" lon="-0.854852828802857">
<ele>510</ele>
<time>2014-06-28T10:21:50Z</time>
</trkpt>
<trkpt lat="38.452791957417055" lon="-0.854838146617662">
<ele>510</ele>
<time>2014-06-28T10:21:51Z</time>
</trkpt>
<trkpt lat="38.45277952738133" lon="-0.8548265058766793">
<ele>510</ele>
<time>2014-06-28T10:21:52Z</time>
</trkpt>
<trkpt lat="38.45276488126948" lon="-0.8548102852116894">
<ele>510</ele>
<time>2014-06-28T10:21:53Z</time>
</trkpt>
<trkpt lat="38.45275219908627" lon="-0.854793692689088">
<ele>510</ele>
<time>2014-06-28T10:21:54Z</time>
</trkpt>
<trkpt lat="38.452737791340596" lon="-0.8547767030133774">
<ele>510</ele>
<time>2014-06-28T10:21:55Z</time>
</trkpt>
<trkpt lat="38.452722691597096" lon="-0.8547607869721577">
<ele>510</ele>
<time>2014-06-28T10:21:56Z</time>
</trkpt>
<trkpt lat="38.45271021341156" lon="-0.8547491613388413">
<ele>510</ele>
<time>2014-06-28T10:21:57Z</time>
</trkpt>
<trkpt lat="38.45269751942813" lon="-0.8547350042073206">
<ele>510</ele>
<time>2014-06-28T10:21:58Z</time>
</trkpt>
<trkpt lat="38.452683794585845" lon="-0.854720199400729">
<ele>510</ele>
<time>2014-06-28T10:21:59Z</time>
</trkpt>
<trkpt lat="38.452668792402825" lon="-0.8547063006395564">
<ele>510</ele>
<time>2014-06-28T10:22:00Z</time>
</trkpt>
<trkpt lat="38.45265496299625" lon="-0.8546926113925434">
<ele>510</ele>
<time>2014-06-28T10:22:01Z</time>
</trkpt>
<trkpt lat="38.45264082455632" lon="-0.8546785778036894">
<ele>510</ele>
<time>2014-06-28T10:22:02Z</time>
</trkpt>
<trkpt lat="38.4526250016119" lon="-0.8546655997930364">
<ele>510</ele>
<time>2014-06-28T10:22:03Z</time>
</trkpt>
<trkpt lat="38.452612790239634" lon="-0.854652342229915">
<ele>510</ele>
<time>2014-06-28T10:22:04Z</time>
</trkpt>
<trkpt lat="38.452600702571054" lon="-0.8546385784356997">
<ele>510</ele>
<time>2014-06-28T10:22:05Z</time>
</trkpt>
<trkpt lat="38.45258939385554" lon="-0.8546238382580738">
<ele>510</ele>
<time>2014-06-28T10:22:06Z</time>
</trkpt>
<trkpt lat="38.452576888609904" lon="-0.8546102142962138">
<ele>510</ele>
<time>2014-06-28T10:22:07Z</time>
</trkpt>
<trkpt lat="38.452564712170435" lon="-0.8545989337902962">
<ele>510</ele>
<time>2014-06-28T10:22:08Z</time>
</trkpt>
<trkpt lat="38.452552571213545" lon="-0.8545902303739837">
<ele>510</ele>
<time>2014-06-28T10:22:09Z</time>
</trkpt>
<trkpt lat="38.45254188195098" lon="-0.8545808428349094">
<ele>510</ele>
<time>2014-06-28T10:22:10Z</time>
</trkpt>
<trkpt lat="38.45253284645916" lon="-0.854570375172822">
<ele>510</ele>
<time>2014-06-28T10:22:11Z</time>
</trkpt>
<trkpt lat="38.452525229371254" lon="-0.8545593900638286">
<ele>510</ele>
<time>2014-06-28T10:22:12Z</time>
</trkpt>
<trkpt lat="38.452516054848914" lon="-0.8545513431360617">
<ele>510</ele>
<time>2014-06-28T10:22:13Z</time>
</trkpt>
<trkpt lat="38.452504654918215" lon="-0.8545421255493079">
<ele>510</ele>
<time>2014-06-28T10:22:14Z</time>
</trkpt>
<trkpt lat="38.452494677921656" lon="-0.8545315174254355">
<ele>510</ele>
<time>2014-06-28T10:22:15Z</time>
</trkpt>
<trkpt lat="38.452484463408766" lon="-0.8545170157364432">
<ele>510</ele>
<time>2014-06-28T10:22:16Z</time>
</trkpt>
<trkpt lat="38.45247525159788" lon="-0.8545028386123138">
<ele>510</ele>
<time>2014-06-28T10:22:17Z</time>
</trkpt>
<trkpt lat="38.45246601448254" lon="-0.8544898644999148">
<ele>511</ele>
<time>2014-06-28T10:22:18Z</time>
</trkpt>
<trkpt lat="38.45245657195011" lon="-0.8544776820997361">
<ele>511</ele>
<time>2014-06-28T10:22:19Z</time>
</trkpt>
<trkpt lat="38.452447403210236" lon="-0.8544643407454348">
<ele>511</ele>
<time>2014-06-28T10:22:20Z</time>
</trkpt>
<trkpt lat="38.45244088347305" lon="-0.854450540929361">
<ele>511</ele>
<time>2014-06-28T10:22:21Z</time>
</trkpt>
<trkpt lat="38.45243221316993" lon="-0.8544378253247268">
<ele>511</ele>
<time>2014-06-28T10:22:22Z</time>
</trkpt>
<trkpt lat="38.45242644824339" lon="-0.8544244123570429">
<ele>511</ele>
<time>2014-06-28T10:22:23Z</time>
</trkpt>
<trkpt lat="38.45241782871073" lon="-0.8544070690498546">
<ele>511</ele>
<time>2014-06-28T10:22:24Z</time>
</trkpt>
<trkpt lat="38.45241040166101" lon="-0.854390281877587">
<ele>511</ele>
<time>2014-06-28T10:22:25Z</time>
</trkpt>
<trkpt lat="38.4524020918733" lon="-0.8543789036002181">
<ele>511</ele>
<time>2014-06-28T10:22:26Z</time>
</trkpt>
<trkpt lat="38.452393937279204" lon="-0.854365883471517">
<ele>511</ele>
<time>2014-06-28T10:22:27Z</time>
</trkpt>
<trkpt lat="38.45238390234167" lon="-0.8543509257020178">
<ele>511</ele>
<time>2014-06-28T10:22:28Z</time>
</trkpt>
<trkpt lat="38.452375566946436" lon="-0.8543385522306126">
<ele>511</ele>
<time>2014-06-28T10:22:29Z</time>
</trkpt>
<trkpt lat="38.45236813044686" lon="-0.8543280323875168">
<ele>511</ele>
<time>2014-06-28T10:22:30Z</time>
</trkpt>
<trkpt lat="38.452361433670895" lon="-0.8543167465509981">
<ele>511</ele>
<time>2014-06-28T10:22:31Z</time>
</trkpt>
<trkpt lat="38.45235426206605" lon="-0.8543006088600132">
<ele>511</ele>
<time>2014-06-28T10:22:32Z</time>
</trkpt>
<trkpt lat="38.45234752898151" lon="-0.8542845808860465">
<ele>511</ele>
<time>2014-06-28T10:22:33Z</time>
</trkpt>
<trkpt lat="38.452341530097996" lon="-0.8542674413393552">
<ele>511</ele>
<time>2014-06-28T10:22:34Z</time>
</trkpt>
<trkpt lat="38.45233642447891" lon="-0.854249951489007">
<ele>511</ele>
<time>2014-06-28T10:22:35Z</time>
</trkpt>
<trkpt lat="38.452331873551586" lon="-0.8542339036339245">
<ele>511</ele>
<time>2014-06-28T10:22:36Z</time>
</trkpt>
<trkpt lat="38.45232710687671" lon="-0.8542174328510783">
<ele>511</ele>
<time>2014-06-28T10:22:37Z</time>
</trkpt>
<trkpt lat="38.45232438320919" lon="-0.8542001519846278">
<ele>511</ele>
<time>2014-06-28T10:22:38Z</time>
</trkpt>
<trkpt lat="38.45232071583463" lon="-0.8541825434917956">
<ele>511</ele>
<time>2014-06-28T10:22:39Z</time>
</trkpt>
<trkpt lat="38.45231664825811" lon="-0.8541658841284179">
<ele>511</ele>
<time>2014-06-28T10:22:40Z</time>
</trkpt>
<trkpt lat="38.45231264887642" lon="-0.8541495544283765">
<ele>511</ele>
<time>2014-06-28T10:22:41Z</time>
</trkpt>
<trkpt lat="38.452307074707925" lon="-0.8541319052081204">
<ele>511</ele>
<time>2014-06-28T10:22:42Z</time>
</trkpt>
<trkpt lat="38.45230155799656" lon="-0.8541142609266198">
<ele>511</ele>
<time>2014-06-28T10:22:43Z</time>
</trkpt>
<trkpt lat="38.45229519292904" lon="-0.8540998714608407">
<ele>511</ele>
<time>2014-06-28T10:22:44Z</time>
</trkpt>
<trkpt lat="38.45228784945983" lon="-0.8540836299467349">
<ele>511</ele>
<time>2014-06-28T10:22:45Z</time>
</trkpt>
<trkpt lat="38.45228363610302" lon="-0.8540692656344336">
<ele>511</ele>
<time>2014-06-28T10:22:46Z</time>
</trkpt>
<trkpt lat="38.45228153827856" lon="-0.8540581168503182">
<ele>511</ele>
<time>2014-06-28T10:22:47Z</time>
</trkpt>
<trkpt lat="38.452280392705134" lon="-0.8540439403815245">
<ele>511</ele>
<time>2014-06-28T10:22:48Z</time>
</trkpt>
<trkpt lat="38.45227589449044" lon="-0.8540328437342908">
<ele>511</ele>
<time>2014-06-28T10:22:49Z</time>
</trkpt>
<trkpt lat="38.452270430133666" lon="-0.8540205832977419">
<ele>511</ele>
<time>2014-06-28T10:22:50Z</time>
</trkpt>
<trkpt lat="38.4522644503058" lon="-0.8540099192750773">
<ele>511</ele>
<time>2014-06-28T10:22:51Z</time>
</trkpt>
<trkpt lat="38.45225800422343" lon="-0.8539999854408455">
<ele>511</ele>
<time>2014-06-28T10:22:52Z</time>
</trkpt>
<trkpt lat="38.45225224998964" lon="-0.853989264686511">
<ele>511</ele>
<time>2014-06-28T10:22:53Z</time>
</trkpt>
<trkpt lat="38.45224813333298" lon="-0.8539744662971858">
<ele>511</ele>
<time>2014-06-28T10:22:54Z</time>
</trkpt>
<trkpt lat="38.452242043716225" lon="-0.85395768612087">
<ele>511</ele>
<time>2014-06-28T10:22:55Z</time>
</trkpt>
<trkpt lat="38.45223466940063" lon="-0.8539397854279103">
<ele>511</ele>
<time>2014-06-28T10:22:56Z</time>
</trkpt>
<trkpt lat="38.45222634248316" lon="-0.8539217013535809">
<ele>511</ele>
<time>2014-06-28T10:22:57Z</time>
</trkpt>
<trkpt lat="38.45221854904421" lon="-0.8539030924216015">
<ele>511</ele>
<time>2014-06-28T10:22:58Z</time>
</trkpt>
<trkpt lat="38.452208900035224" lon="-0.8538856744770563">
<ele>511</ele>
<time>2014-06-28T10:22:59Z</time>
</trkpt>
<trkpt lat="38.45219922185946" lon="-0.8538653465156163">
<ele>511</ele>
<time>2014-06-28T10:23:00Z</time>
</trkpt>
<trkpt lat="38.452189548613156" lon="-0.8538503275232768">
<ele>511</ele>
<time>2014-06-28T10:23:01Z</time>
</trkpt>
<trkpt lat="38.452180596745855" lon="-0.8538337894211381">
<ele>511</ele>
<time>2014-06-28T10:23:02Z</time>
</trkpt>
<trkpt lat="38.45217281856847" lon="-0.8538187416056762">
<ele>511</ele>
<time>2014-06-28T10:23:03Z</time>
</trkpt>
<trkpt lat="38.45216506543356" lon="-0.8538038232074596">
<ele>511</ele>
<time>2014-06-28T10:23:04Z</time>
</trkpt>
<trkpt lat="38.45215521489508" lon="-0.8537893109209035">
<ele>511</ele>
<time>2014-06-28T10:23:05Z</time>
</trkpt>
<trkpt lat="38.4521465628998" lon="-0.8537759217185378">
<ele>511</ele>
<time>2014-06-28T10:23:06Z</time>
</trkpt>
<trkpt lat="38.452139075289296" lon="-0.8537640240571243">
<ele>511</ele>
<time>2014-06-28T10:23:07Z</time>
</trkpt>
<trkpt lat="38.452132221609965" lon="-0.8537489360115658">
<ele>511</ele>
<time>2014-06-28T10:23:08Z</time>
</trkpt>
<trkpt lat="38.452124951924276" lon="-0.853733790360933">
<ele>512</ele>
<time>2014-06-28T10:23:09Z</time>
</trkpt>
<trkpt lat="38.45211858339173" lon="-0.8537161812818927">
<ele>512</ele>
<time>2014-06-28T10:23:10Z</time>
</trkpt>
<trkpt lat="38.452113131879344" lon="-0.8536993530313306">
<ele>512</ele>
<time>2014-06-28T10:23:11Z</time>
</trkpt>
<trkpt lat="38.45210765379774" lon="-0.8536807247298913">
<ele>512</ele>
<time>2014-06-28T10:23:12Z</time>
</trkpt>
<trkpt lat="38.45210104150929" lon="-0.8536595347528343">
<ele>512</ele>
<time>2014-06-28T10:23:13Z</time>
</trkpt>
<trkpt lat="38.45209303176531" lon="-0.8536410433525502">
<ele>512</ele>
<time>2014-06-28T10:23:14Z</time>
</trkpt>
<trkpt lat="38.452084759968756" lon="-0.8536216031225116">
<ele>512</ele>
<time>2014-06-28T10:23:15Z</time>
</trkpt>
<trkpt lat="38.45207542205794" lon="-0.8536026752068766">
<ele>512</ele>
<time>2014-06-28T10:23:16Z</time>
</trkpt>
<trkpt lat="38.45206680757196" lon="-0.8535837022226154">
<ele>512</ele>
<time>2014-06-28T10:23:17Z</time>
</trkpt>
<trkpt lat="38.45205844094062" lon="-0.8535585493514697">
<ele>512</ele>
<time>2014-06-28T10:23:18Z</time>
</trkpt>
<trkpt lat="38.45205222834446" lon="-0.8535365882730088">
<ele>512</ele>
<time>2014-06-28T10:23:19Z</time>
</trkpt>
<trkpt lat="38.45204734140739" lon="-0.8535181817437256">
<ele>512</ele>
<time>2014-06-28T10:23:20Z</time>
</trkpt>
<trkpt lat="38.452042072543826" lon="-0.853501501396839">
<ele>512</ele>
<time>2014-06-28T10:23:21Z</time>
</trkpt>
<trkpt lat="38.45203480945072" lon="-0.8534868738681441">
<ele>512</ele>
<time>2014-06-28T10:23:22Z</time>
</trkpt>
<trkpt lat="38.45202414735215" lon="-0.8534681713455824">
<ele>512</ele>
<time>2014-06-28T10:23:23Z</time>
</trkpt>
<trkpt lat="38.452014780584875" lon="-0.8534518627408575">
<ele>512</ele>
<time>2014-06-28T10:23:24Z</time>
</trkpt>
<trkpt lat="38.45200314809143" lon="-0.8534343251008696">
<ele>512</ele>
<time>2014-06-28T10:23:25Z</time>
</trkpt>
<trkpt lat="38.45198993344637" lon="-0.8534171283717196">
<ele>512</ele>
<time>2014-06-28T10:23:26Z</time>
</trkpt>
<trkpt lat="38.45197546627323" lon="-0.8534001890008795">
<ele>512</ele>
<time>2014-06-28T10:23:27Z</time>
</trkpt>
<trkpt lat="38.4519619431471" lon="-0.8533813231219531">
<ele>512</ele>
<time>2014-06-28T10:23:28Z</time>
</trkpt>
<trkpt lat="38.45194945548305" lon="-0.8533642465375033">
<ele>512</ele>
<time>2014-06-28T10:23:29Z</time>
</trkpt>
<trkpt lat="38.45193895031329" lon="-0.8533488510801119">
<ele>512</ele>
<time>2014-06-28T10:23:30Z</time>
</trkpt>
<trkpt lat="38.45192852880258" lon="-0.8533316975824168">
<ele>512</ele>
<time>2014-06-28T10:23:31Z</time>
</trkpt>
<trkpt lat="38.45191943725822" lon="-0.8533151325504983">
<ele>512</ele>
<time>2014-06-28T10:23:32Z</time>
</trkpt>
<trkpt lat="38.451907867617" lon="-0.8532978867961257">
<ele>512</ele>
<time>2014-06-28T10:23:33Z</time>
</trkpt>
<trkpt lat="38.4518979446441" lon="-0.85328162480182">
<ele>512</ele>
<time>2014-06-28T10:23:34Z</time>
</trkpt>
<trkpt lat="38.451887430689574" lon="-0.8532668299573484">
<ele>512</ele>
<time>2014-06-28T10:23:35Z</time>
</trkpt>
<trkpt lat="38.45187757658312" lon="-0.8532526673042253">
<ele>512</ele>
<time>2014-06-28T10:23:36Z</time>
</trkpt>
<trkpt lat="38.451868351857065" lon="-0.8532381699612424">
<ele>512</ele>
<time>2014-06-28T10:23:37Z</time>
</trkpt>
<trkpt lat="38.45185921997978" lon="-0.8532228342124891">
<ele>512</ele>
<time>2014-06-28T10:23:38Z</time>
</trkpt>
<trkpt lat="38.45184965034351" lon="-0.8532056944100764">
<ele>512</ele>
<time>2014-06-28T10:23:39Z</time>
</trkpt>
<trkpt lat="38.451838031125234" lon="-0.8531887624373314">
<ele>512</ele>
<time>2014-06-28T10:23:40Z</time>
</trkpt>
<trkpt lat="38.45182708626221" lon="-0.85317050954343">
<ele>512</ele>
<time>2014-06-28T10:23:41Z</time>
</trkpt>
<trkpt lat="38.45181516950432" lon="-0.8531531740761799">
<ele>512</ele>
<time>2014-06-28T10:23:42Z</time>
</trkpt>
<trkpt lat="38.451805076563154" lon="-0.8531375027734143">
<ele>512</ele>
<time>2014-06-28T10:23:43Z</time>
</trkpt>
<trkpt lat="38.45179685316886" lon="-0.8531187678902916">
<ele>512</ele>
<time>2014-06-28T10:23:44Z</time>
</trkpt>
<trkpt lat="38.45179141922292" lon="-0.853098798215569">
<ele>512</ele>
<time>2014-06-28T10:23:45Z</time>
</trkpt>
<trkpt lat="38.45178432509459" lon="-0.8530799124273615">
<ele>512</ele>
<time>2014-06-28T10:23:46Z</time>
</trkpt>
<trkpt lat="38.45177555171298" lon="-0.8530617563254349">
<ele>512</ele>
<time>2014-06-28T10:23:47Z</time>
</trkpt>
<trkpt lat="38.45176657148223" lon="-0.853041909505038">
<ele>512</ele>
<time>2014-06-28T10:23:48Z</time>
</trkpt>
<trkpt lat="38.45175940251838" lon="-0.8530201404545746">
<ele>512</ele>
<time>2014-06-28T10:23:49Z</time>
</trkpt>
<trkpt lat="38.45175171298711" lon="-0.8529981381254633">
<ele>512</ele>
<time>2014-06-28T10:23:50Z</time>
</trkpt>
<trkpt lat="38.45174442725004" lon="-0.8529774090345241">
<ele>512</ele>
<time>2014-06-28T10:23:51Z</time>
</trkpt>
<trkpt lat="38.45173575745406" lon="-0.8529571898649685">
<ele>512</ele>
<time>2014-06-28T10:23:52Z</time>
</trkpt>
<trkpt lat="38.45172770803818" lon="-0.8529370848637731">
<ele>512</ele>
<time>2014-06-28T10:23:53Z</time>
</trkpt>
<trkpt lat="38.45172070921665" lon="-0.8529168823201413">
<ele>512</ele>
<time>2014-06-28T10:23:54Z</time>
</trkpt>
<trkpt lat="38.451712626908375" lon="-0.852898982168278">
<ele>512</ele>
<time>2014-06-28T10:23:55Z</time>
</trkpt>
<trkpt lat="38.4517049181876" lon="-0.8528811405334602">
<ele>512</ele>
<time>2014-06-28T10:23:56Z</time>
</trkpt>
<trkpt lat="38.45169757785825" lon="-0.8528633074375096">
<ele>512</ele>
<time>2014-06-28T10:23:57Z</time>
</trkpt>
<trkpt lat="38.4516893489838" lon="-0.8528462050736983">
<ele>512</ele>
<time>2014-06-28T10:23:58Z</time>
</trkpt>
<trkpt lat="38.45168023801145" lon="-0.8528322444249816">
<ele>512</ele>
<time>2014-06-28T10:23:59Z</time>
</trkpt>
<trkpt lat="38.45167173268615" lon="-0.8528179271646675">
<ele>512</ele>
<time>2014-06-28T10:24:00Z</time>
</trkpt>
<trkpt lat="38.45166375442354" lon="-0.8528053512258577">
<ele>512</ele>
<time>2014-06-28T10:24:01Z</time>
</trkpt>
<trkpt lat="38.45165727084313" lon="-0.8527911375011396">
<ele>512</ele>
<time>2014-06-28T10:24:02Z</time>
</trkpt>
<trkpt lat="38.45165066919952" lon="-0.8527745267922068">
<ele>512</ele>
<time>2014-06-28T10:24:03Z</time>
</trkpt>
<trkpt lat="38.45164589451131" lon="-0.8527556476597024">
<ele>512</ele>
<time>2014-06-28T10:24:04Z</time>
</trkpt>
<trkpt lat="38.45163922995294" lon="-0.8527369487333776">
<ele>512</ele>
<time>2014-06-28T10:24:05Z</time>
</trkpt>
<trkpt lat="38.451633057324415" lon="-0.8527189988384276">
<ele>512</ele>
<time>2014-06-28T10:24:06Z</time>
</trkpt>
<trkpt lat="38.451628133817074" lon="-0.8526995603090433">
<ele>511</ele>
<time>2014-06-28T10:24:07Z</time>
</trkpt>
<trkpt lat="38.4516238591164" lon="-0.8526788141119042">
<ele>511</ele>
<time>2014-06-28T10:24:08Z</time>
</trkpt>
<trkpt lat="38.45161889831025" lon="-0.8526577852344467">
<ele>511</ele>
<time>2014-06-28T10:24:09Z</time>
</trkpt>
<trkpt lat="38.451612816656514" lon="-0.852635010863216">
<ele>511</ele>
<time>2014-06-28T10:24:10Z</time>
</trkpt>
<trkpt lat="38.45160792749857" lon="-0.8526160919702397">
<ele>511</ele>
<time>2014-06-28T10:24:11Z</time>
</trkpt>
<trkpt lat="38.451601409983326" lon="-0.852598580886328">
<ele>511</ele>
<time>2014-06-28T10:24:12Z</time>
</trkpt>
<trkpt lat="38.45159361693795" lon="-0.8525791925041099">
<ele>511</ele>
<time>2014-06-28T10:24:13Z</time>
</trkpt>
<trkpt lat="38.45158695246284" lon="-0.8525584449548844">
<ele>511</ele>
<time>2014-06-28T10:24:14Z</time>
</trkpt>
<trkpt lat="38.45158156552781" lon="-0.852538988191561">
<ele>511</ele>
<time>2014-06-28T10:24:15Z</time>
</trkpt>
<trkpt lat="38.45157594149652" lon="-0.8525238154597108">
<ele>511</ele>
<time>2014-06-28T10:24:16Z</time>
</trkpt>
<trkpt lat="38.45156949638103" lon="-0.852508412738865">
<ele>511</ele>
<time>2014-06-28T10:24:17Z</time>
</trkpt>
<trkpt lat="38.45156432385963" lon="-0.8524923260231216">
<ele>511</ele>
<time>2014-06-28T10:24:18Z</time>
</trkpt>
<trkpt lat="38.45155932021544" lon="-0.8524758478019981">
<ele>511</ele>
<time>2014-06-28T10:24:19Z</time>
</trkpt>
<trkpt lat="38.45155329194273" lon="-0.8524581817642009">
<ele>511</ele>
<time>2014-06-28T10:24:20Z</time>
</trkpt>
<trkpt lat="38.45154617527149" lon="-0.8524408654132287">
<ele>511</ele>
<time>2014-06-28T10:24:21Z</time>
</trkpt>
<trkpt lat="38.45153903533559" lon="-0.8524235615252046">
<ele>511</ele>
<time>2014-06-28T10:24:22Z</time>
</trkpt>
<trkpt lat="38.451531724213254" lon="-0.8524061184030044">
<ele>511</ele>
<time>2014-06-28T10:24:23Z</time>
</trkpt>
<trkpt lat="38.45152496584211" lon="-0.8523900850375974">
<ele>511</ele>
<time>2014-06-28T10:24:24Z</time>
</trkpt>
<trkpt lat="38.45151969833026" lon="-0.8523732112850801">
<ele>511</ele>
<time>2014-06-28T10:24:25Z</time>
</trkpt>
<trkpt lat="38.451513029763404" lon="-0.8523575331968077">
<ele>511</ele>
<time>2014-06-28T10:24:26Z</time>
</trkpt>
<trkpt lat="38.45150605090858" lon="-0.8523428269081369">
<ele>511</ele>
<time>2014-06-28T10:24:27Z</time>
</trkpt>
<trkpt lat="38.45149992883577" lon="-0.8523248562057614">
<ele>511</ele>
<time>2014-06-28T10:24:28Z</time>
</trkpt>
<trkpt lat="38.45149549164014" lon="-0.8523082920258194">
<ele>511</ele>
<time>2014-06-28T10:24:29Z</time>
</trkpt>
<trkpt lat="38.45149249039914" lon="-0.8522923130606193">
<ele>511</ele>
<time>2014-06-28T10:24:30Z</time>
</trkpt>
<trkpt lat="38.45149066865726" lon="-0.8522768408728425">
<ele>511</ele>
<time>2014-06-28T10:24:31Z</time>
</trkpt>
<trkpt lat="38.45148421262007" lon="-0.8522625854729321">
<ele>511</ele>
<time>2014-06-28T10:24:32Z</time>
</trkpt>
<trkpt lat="38.45147823685816" lon="-0.8522477168178577">
<ele>511</ele>
<time>2014-06-28T10:24:33Z</time>
</trkpt>
<trkpt lat="38.451470501315754" lon="-0.8522314760796746">
<ele>511</ele>
<time>2014-06-28T10:24:34Z</time>
</trkpt>
<trkpt lat="38.451458690603225" lon="-0.8522114129855454">
<ele>511</ele>
<time>2014-06-28T10:24:35Z</time>
</trkpt>
<trkpt lat="38.45144687394707" lon="-0.8521881455510536">
<ele>511</ele>
<time>2014-06-28T10:24:36Z</time>
</trkpt>
<trkpt lat="38.45143725334881" lon="-0.8521746598060972">
<ele>511</ele>
<time>2014-06-28T10:24:37Z</time>
</trkpt>
<trkpt lat="38.451429006364364" lon="-0.8521596863691466">
<ele>511</ele>
<time>2014-06-28T10:24:38Z</time>
</trkpt>
<trkpt lat="38.45141682912815" lon="-0.8521449576699134">
<ele>511</ele>
<time>2014-06-28T10:24:39Z</time>
</trkpt>
<trkpt lat="38.4514031143023" lon="-0.8521339160397603">
<ele>511</ele>
<time>2014-06-28T10:24:40Z</time>
</trkpt>
<trkpt lat="38.45138265891127" lon="-0.8521122780224148">
<ele>511</ele>
<time>2014-06-28T10:24:41Z</time>
</trkpt>
<trkpt lat="38.451360261153305" lon="-0.8520973330080915">
<ele>511</ele>
<time>2014-06-28T10:24:42Z</time>
</trkpt>
<trkpt lat="38.4513396729413" lon="-0.8520842878217532">
<ele>511</ele>
<time>2014-06-28T10:24:43Z</time>
</trkpt>
<trkpt lat="38.45131907300844" lon="-0.8520712399216226">
<ele>511</ele>
<time>2014-06-28T10:24:44Z</time>
</trkpt>
<trkpt lat="38.451302477044386" lon="-0.8520523453592681">
<ele>511</ele>
<time>2014-06-28T10:24:45Z</time>
</trkpt>
<trkpt lat="38.451285502504575" lon="-0.8520323371193129">
<ele>511</ele>
<time>2014-06-28T10:24:46Z</time>
</trkpt>
<trkpt lat="38.451263622335766" lon="-0.8520092695862994">
<ele>511</ele>
<time>2014-06-28T10:24:47Z</time>
</trkpt>
<trkpt lat="38.45124309711856" lon="-0.8519823900292897">
<ele>511</ele>
<time>2014-06-28T10:24:48Z</time>
</trkpt>
<trkpt lat="38.45122388987373" lon="-0.8519562121353242">
<ele>511</ele>
<time>2014-06-28T10:24:49Z</time>
</trkpt>
<trkpt lat="38.451204828776554" lon="-0.8519317216795965">
<ele>511</ele>
<time>2014-06-28T10:24:50Z</time>
</trkpt>
<trkpt lat="38.4511893077618" lon="-0.8519109718859278">
<ele>511</ele>
<time>2014-06-28T10:24:51Z</time>
</trkpt>
<trkpt lat="38.451173397340334" lon="-0.8518916056063384">
<ele>511</ele>
<time>2014-06-28T10:24:52Z</time>
</trkpt>
<trkpt lat="38.451159040919464" lon="-0.8518708788068885">
<ele>511</ele>
<time>2014-06-28T10:24:53Z</time>
</trkpt>
<trkpt lat="38.45114622597423" lon="-0.8518491094043321">
<ele>511</ele>
<time>2014-06-28T10:24:54Z</time>
</trkpt>
<trkpt lat="38.45113672610102" lon="-0.8518259603404974">
<ele>511</ele>
<time>2014-06-28T10:24:55Z</time>
</trkpt>
<trkpt lat="38.45112923521109" lon="-0.8518032031596168">
<ele>511</ele>
<time>2014-06-28T10:24:56Z</time>
</trkpt>
<trkpt lat="38.4511237860811" lon="-0.8517821784700251">
<ele>511</ele>
<time>2014-06-28T10:24:57Z</time>
</trkpt>
<trkpt lat="38.45111614623402" lon="-0.8517598479045486">
<ele>511</ele>
<time>2014-06-28T10:24:58Z</time>
</trkpt>
<trkpt lat="38.45110849114962" lon="-0.8517345253919747">
<ele>511</ele>
<time>2014-06-28T10:24:59Z</time>
</trkpt>
<trkpt lat="38.4510999946274" lon="-0.8517079063436417">
<ele>511</ele>
<time>2014-06-28T10:25:00Z</time>
</trkpt>
<trkpt lat="38.45108895407626" lon="-0.851683065630473">
<ele>511</ele>
<time>2014-06-28T10:25:01Z</time>
</trkpt>
<trkpt lat="38.45107823654273" lon="-0.8516597665393486">
<ele>511</ele>
<time>2014-06-28T10:25:02Z</time>
</trkpt>
<trkpt lat="38.45107264213561" lon="-0.8516442826034278">
<ele>511</ele>
<time>2014-06-28T10:25:03Z</time>
</trkpt>
<trkpt lat="38.45106933221096" lon="-0.8516294535646534">
<ele>511</ele>
<time>2014-06-28T10:25:04Z</time>
</trkpt>
<trkpt lat="38.45106422478018" lon="-0.8516220117394925">
<ele>511</ele>
<time>2014-06-28T10:25:05Z</time>
</trkpt>
<trkpt lat="38.451058182090215" lon="-0.8516136051439699">
<ele>511</ele>
<time>2014-06-28T10:25:06Z</time>
</trkpt>
<trkpt lat="38.45105430431467" lon="-0.8516036867526046">
<ele>511</ele>
<time>2014-06-28T10:25:07Z</time>
</trkpt>
<trkpt lat="38.45104895347878" lon="-0.8515909674738177">
<ele>511</ele>
<time>2014-06-28T10:25:08Z</time>
</trkpt>
<trkpt lat="38.451042471871034" lon="-0.8515756307813214">
<ele>511</ele>
<time>2014-06-28T10:25:09Z</time>
</trkpt>
<trkpt lat="38.451039200062034" lon="-0.8515615785757101">
<ele>511</ele>
<time>2014-06-28T10:25:10Z</time>
</trkpt>
<trkpt lat="38.4510349850342" lon="-0.8515491340492041">
<ele>511</ele>
<time>2014-06-28T10:25:11Z</time>
</trkpt>
<trkpt lat="38.451031166009386" lon="-0.8515394899174512">
<ele>511</ele>
<time>2014-06-28T10:25:12Z</time>
</trkpt>
<trkpt lat="38.451038507229946" lon="-0.8515291644270518">
<ele>511</ele>
<time>2014-06-28T10:25:13Z</time>
</trkpt>
<trkpt lat="38.45104417586871" lon="-0.8515216054157371">
<ele>511</ele>
<time>2014-06-28T10:25:14Z</time>
</trkpt>
<trkpt lat="38.45104796018329" lon="-0.851513941026386">
<ele>511</ele>
<time>2014-06-28T10:25:15Z</time>
</trkpt>
<trkpt lat="38.451052343879105" lon="-0.8515049261450091">
<ele>511</ele>
<time>2014-06-28T10:25:16Z</time>
</trkpt>
<trkpt lat="38.4510536822016" lon="-0.8514946417332703">
<ele>511</ele>
<time>2014-06-28T10:25:17Z</time>
</trkpt>
<trkpt lat="38.45105486605185" lon="-0.851482618077696">
<ele>511</ele>
<time>2014-06-28T10:25:18Z</time>
</trkpt>
<trkpt lat="38.45105289950526" lon="-0.8514716704992648">
<ele>511</ele>
<time>2014-06-28T10:25:19Z</time>
</trkpt>
<trkpt lat="38.45105240177091" lon="-0.8514662598330028">
<ele>511</ele>
<time>2014-06-28T10:25:20Z</time>
</trkpt>
<trkpt lat="38.45104846429411" lon="-0.8514611181468327">
<ele>511</ele>
<time>2014-06-28T10:25:21Z</time>
</trkpt>
<trkpt lat="38.45104328283041" lon="-0.8514588725490969">
<ele>511</ele>
<time>2014-06-28T10:25:22Z</time>
</trkpt>
<trkpt lat="38.45103714171327" lon="-0.8514514791804698">
<ele>511</ele>
<time>2014-06-28T10:25:23Z</time>
</trkpt>
<trkpt lat="38.45103389055777" lon="-0.8514434170122279">
<ele>511</ele>
<time>2014-06-28T10:25:24Z</time>
</trkpt>
<trkpt lat="38.451030519208004" lon="-0.8514337894643339">
<ele>511</ele>
<time>2014-06-28T10:25:25Z</time>
</trkpt>
<trkpt lat="38.45102373232301" lon="-0.8514195534623021">
<ele>511</ele>
<time>2014-06-28T10:25:26Z</time>
</trkpt>
<trkpt lat="38.45101514581265" lon="-0.8514034716548647">
<ele>511</ele>
<time>2014-06-28T10:25:27Z</time>
</trkpt>
<trkpt lat="38.45100582738969" lon="-0.8513868285780725">
<ele>511</ele>
<time>2014-06-28T10:25:28Z</time>
</trkpt>
<trkpt lat="38.450995947172785" lon="-0.8513700031621071">
<ele>511</ele>
<time>2014-06-28T10:25:29Z</time>
</trkpt>
<trkpt lat="38.450984096573755" lon="-0.8513545116663179">
<ele>511</ele>
<time>2014-06-28T10:25:30Z</time>
</trkpt>
<trkpt lat="38.45096611380087" lon="-0.8513473279500386">
<ele>511</ele>
<time>2014-06-28T10:25:31Z</time>
</trkpt>
<trkpt lat="38.45094175141928" lon="-0.8513516823517734">
<ele>511</ele>
<time>2014-06-28T10:25:32Z</time>
</trkpt>
<trkpt lat="38.45091559209581" lon="-0.8513581356027107">
<ele>511</ele>
<time>2014-06-28T10:25:33Z</time>
</trkpt>
<trkpt lat="38.450900573983795" lon="-0.8513605074740664">
<ele>511</ele>
<time>2014-06-28T10:25:34Z</time>
</trkpt>
<trkpt lat="38.45088549841714" lon="-0.8513627261820313">
<ele>511</ele>
<time>2014-06-28T10:25:35Z</time>
</trkpt>
<trkpt lat="38.45087201792491" lon="-0.8513655244001377">
<ele>511</ele>
<time>2014-06-28T10:25:36Z</time>
</trkpt>
<trkpt lat="38.45085996147712" lon="-0.8513674387477586">
<ele>511</ele>
<time>2014-06-28T10:25:37Z</time>
</trkpt>
<trkpt lat="38.450848172941946" lon="-0.851368853152852">
<ele>511</ele>
<time>2014-06-28T10:25:38Z</time>
</trkpt>
<trkpt lat="38.45083696119032" lon="-0.8513686407221">
<ele>511</ele>
<time>2014-06-28T10:25:39Z</time>
</trkpt>
<trkpt lat="38.45083034603522" lon="-0.8513725883821688">
<ele>511</ele>
<time>2014-06-28T10:25:40Z</time>
</trkpt>
<trkpt lat="38.45082312779094" lon="-0.8513755128898106">
<ele>511</ele>
<time>2014-06-28T10:25:41Z</time>
</trkpt>
<trkpt lat="38.45081548188946" lon="-0.8513761022794906">
<ele>511</ele>
<time>2014-06-28T10:25:42Z</time>
</trkpt>
<trkpt lat="38.45081055019263" lon="-0.8513731277406082">
<ele>510</ele>
<time>2014-06-28T10:25:43Z</time>
</trkpt>
<trkpt lat="38.45080465105014" lon="-0.8513706313554849">
<ele>510</ele>
<time>2014-06-28T10:25:44Z</time>
</trkpt>
<trkpt lat="38.4507980676115" lon="-0.8513677536719766">
<ele>510</ele>
<time>2014-06-28T10:25:45Z</time>
</trkpt>
<trkpt lat="38.4507907017812" lon="-0.8513642000824756">
<ele>510</ele>
<time>2014-06-28T10:25:46Z</time>
</trkpt>
<trkpt lat="38.45078244178497" lon="-0.8513595637772291">
<ele>510</ele>
<time>2014-06-28T10:25:47Z</time>
</trkpt>
<trkpt lat="38.45077395695317" lon="-0.8513550885622324">
<ele>510</ele>
<time>2014-06-28T10:25:48Z</time>
</trkpt>
<trkpt lat="38.45076480743416" lon="-0.8513496126976712">
<ele>510</ele>
<time>2014-06-28T10:25:49Z</time>
</trkpt>
<trkpt lat="38.45076480300564" lon="-0.8513496055853715">
<ele>510</ele>
<time>2014-06-28T10:25:50Z</time>
</trkpt>
<trkpt lat="38.45076480280275" lon="-0.8513496053497394">
<ele>510</ele>
<time>2014-06-28T10:25:51Z</time>
</trkpt>
<trkpt lat="38.450764802799235" lon="-0.8513496053445537">
<ele>510</ele>
<time>2014-06-28T10:25:52Z</time>
</trkpt>
<trkpt lat="38.45076074924174" lon="-0.8513455097210973">
<ele>510</ele>
<time>2014-06-28T10:25:53Z</time>
</trkpt>
<trkpt lat="38.450753799440726" lon="-0.8513380365318164">
<ele>510</ele>
<time>2014-06-28T10:25:54Z</time>
</trkpt>
<trkpt lat="38.450745593821885" lon="-0.8513255624045029">
<ele>510</ele>
<time>2014-06-28T10:25:55Z</time>
</trkpt>
<trkpt lat="38.45073470596401" lon="-0.8513127670582391">
<ele>510</ele>
<time>2014-06-28T10:25:56Z</time>
</trkpt>
<trkpt lat="38.4507228697418" lon="-0.8512986727704976">
<ele>510</ele>
<time>2014-06-28T10:25:57Z</time>
</trkpt>
<trkpt lat="38.45070953902804" lon="-0.8512851721712729">
<ele>510</ele>
<time>2014-06-28T10:25:58Z</time>
</trkpt>
<trkpt lat="38.45069122974658" lon="-0.8512722075816604">
<ele>510</ele>
<time>2014-06-28T10:25:59Z</time>
</trkpt>
<trkpt lat="38.45067480470407" lon="-0.8512519522677348">
<ele>510</ele>
<time>2014-06-28T10:26:00Z</time>
</trkpt>
<trkpt lat="38.45065820192243" lon="-0.8512322603281431">
<ele>510</ele>
<time>2014-06-28T10:26:01Z</time>
</trkpt>
<trkpt lat="38.4506456677849" lon="-0.8512095248901557">
<ele>510</ele>
<time>2014-06-28T10:26:02Z</time>
</trkpt>
<trkpt lat="38.45063023685775" lon="-0.8511811168648475">
<ele>510</ele>
<time>2014-06-28T10:26:03Z</time>
</trkpt>
<trkpt lat="38.45061970706592" lon="-0.8511516870951906">
<ele>510</ele>
<time>2014-06-28T10:26:04Z</time>
</trkpt>
<trkpt lat="38.4506095466826" lon="-0.85112801873098">
<ele>510</ele>
<time>2014-06-28T10:26:05Z</time>
</trkpt>
<trkpt lat="38.450600002430235" lon="-0.8511086106845277">
<ele>510</ele>
<time>2014-06-28T10:26:06Z</time>
</trkpt>
<trkpt lat="38.45059254770027" lon="-0.8510901598034646">
<ele>509</ele>
<time>2014-06-28T10:26:07Z</time>
</trkpt>
<trkpt lat="38.4505863121669" lon="-0.8510721442317158">
<ele>509</ele>
<time>2014-06-28T10:26:08Z</time>
</trkpt>
<trkpt lat="38.45057876430447" lon="-0.8510577340591797">
<ele>509</ele>
<time>2014-06-28T10:26:09Z</time>
</trkpt>
<trkpt lat="38.450571542061375" lon="-0.8510459402683581">
<ele>509</ele>
<time>2014-06-28T10:26:10Z</time>
</trkpt>
<trkpt lat="38.45056350302286" lon="-0.8510291775334228">
<ele>509</ele>
<time>2014-06-28T10:26:11Z</time>
</trkpt>
<trkpt lat="38.450557540321974" lon="-0.8510130785141861">
<ele>509</ele>
<time>2014-06-28T10:26:12Z</time>
</trkpt>
<trkpt lat="38.45055033624284" lon="-0.8509962233355053">
<ele>509</ele>
<time>2014-06-28T10:26:13Z</time>
</trkpt>
<trkpt lat="38.450543615276224" lon="-0.8509824707507663">
<ele>509</ele>
<time>2014-06-28T10:26:14Z</time>
</trkpt>
<trkpt lat="38.45053438599045" lon="-0.8509712488867333">
<ele>509</ele>
<time>2014-06-28T10:26:15Z</time>
</trkpt>
<trkpt lat="38.45052667920861" lon="-0.8509586588651353">
<ele>509</ele>
<time>2014-06-28T10:26:16Z</time>
</trkpt>
<trkpt lat="38.450520734708824" lon="-0.8509446678601414">
<ele>509</ele>
<time>2014-06-28T10:26:17Z</time>
</trkpt>
<trkpt lat="38.45051645473642" lon="-0.8509286885876077">
<ele>509</ele>
<time>2014-06-28T10:26:18Z</time>
</trkpt>
<trkpt lat="38.450511989008014" lon="-0.8509142370900311">
<ele>509</ele>
<time>2014-06-28T10:26:19Z</time>
</trkpt>
<trkpt lat="38.45050451818706" lon="-0.8509000053652211">
<ele>509</ele>
<time>2014-06-28T10:26:20Z</time>
</trkpt>
<trkpt lat="38.45049603774003" lon="-0.8508869605116913">
<ele>509</ele>
<time>2014-06-28T10:26:21Z</time>
</trkpt>
<trkpt lat="38.45048906995423" lon="-0.8508727110664266">
<ele>509</ele>
<time>2014-06-28T10:26:22Z</time>
</trkpt>
<trkpt lat="38.45048275941273" lon="-0.8508590303186886">
<ele>509</ele>
<time>2014-06-28T10:26:23Z</time>
</trkpt>
<trkpt lat="38.4504743068147" lon="-0.850843611104806">
<ele>509</ele>
<time>2014-06-28T10:26:24Z</time>
</trkpt>
<trkpt lat="38.450466012231715" lon="-0.8508293260910136">
<ele>508</ele>
<time>2014-06-28T10:26:25Z</time>
</trkpt>
<trkpt lat="38.45045871246511" lon="-0.8508138187430299">
<ele>508</ele>
<time>2014-06-28T10:26:26Z</time>
</trkpt>
<trkpt lat="38.450450807424055" lon="-0.8507985936871114">
<ele>508</ele>
<time>2014-06-28T10:26:27Z</time>
</trkpt>
<trkpt lat="38.45044341111041" lon="-0.8507801211022583">
<ele>508</ele>
<time>2014-06-28T10:26:28Z</time>
</trkpt>
<trkpt lat="38.450436195979286" lon="-0.8507602063591434">
<ele>508</ele>
<time>2014-06-28T10:26:29Z</time>
</trkpt>
<trkpt lat="38.450427896312775" lon="-0.8507416282737942">
<ele>508</ele>
<time>2014-06-28T10:26:30Z</time>
</trkpt>
<trkpt lat="38.45041921624038" lon="-0.8507259996174273">
<ele>508</ele>
<time>2014-06-28T10:26:31Z</time>
</trkpt>
<trkpt lat="38.450411034264164" lon="-0.850711463855164">
<ele>508</ele>
<time>2014-06-28T10:26:32Z</time>
</trkpt>
<trkpt lat="38.45040235966898" lon="-0.8506972926713735">
<ele>508</ele>
<time>2014-06-28T10:26:33Z</time>
</trkpt>
<trkpt lat="38.45039388309119" lon="-0.8506833296041657">
<ele>508</ele>
<time>2014-06-28T10:26:34Z</time>
</trkpt>
<trkpt lat="38.45038524489998" lon="-0.850669973014125">
<ele>508</ele>
<time>2014-06-28T10:26:35Z</time>
</trkpt>
<trkpt lat="38.45037572325286" lon="-0.8506582602060317">
<ele>508</ele>
<time>2014-06-28T10:26:36Z</time>
</trkpt>
<trkpt lat="38.45036662177231" lon="-0.8506464125439479">
<ele>508</ele>
<time>2014-06-28T10:26:37Z</time>
</trkpt>
<trkpt lat="38.45035729236292" lon="-0.8506346143148089">
<ele>508</ele>
<time>2014-06-28T10:26:38Z</time>
</trkpt>
<trkpt lat="38.450348059494026" lon="-0.8506242587783975">
<ele>508</ele>
<time>2014-06-28T10:26:39Z</time>
</trkpt>
<trkpt lat="38.45034037462584" lon="-0.8506126137223989">
<ele>508</ele>
<time>2014-06-28T10:26:40Z</time>
</trkpt>
<trkpt lat="38.4503328472274" lon="-0.8506006181663248">
<ele>508</ele>
<time>2014-06-28T10:26:41Z</time>
</trkpt>
<trkpt lat="38.45032476502161" lon="-0.8505889359039708">
<ele>507</ele>
<time>2014-06-28T10:26:42Z</time>
</trkpt>
<trkpt lat="38.45031566043657" lon="-0.8505787334490832">
<ele>507</ele>
<time>2014-06-28T10:26:43Z</time>
</trkpt>
<trkpt lat="38.45030697435642" lon="-0.8505689626018058">
<ele>507</ele>
<time>2014-06-28T10:26:44Z</time>
</trkpt>
<trkpt lat="38.45029831186873" lon="-0.8505599386289742">
<ele>507</ele>
<time>2014-06-28T10:26:45Z</time>
</trkpt>
<trkpt lat="38.450290293709784" lon="-0.8505480532459073">
<ele>507</ele>
<time>2014-06-28T10:26:46Z</time>
</trkpt>
<trkpt lat="38.450283527349406" lon="-0.8505344374097151">
<ele>507</ele>
<time>2014-06-28T10:26:47Z</time>
</trkpt>
<trkpt lat="38.45027726786545" lon="-0.8505197483860384">
<ele>507</ele>
<time>2014-06-28T10:26:48Z</time>
</trkpt>
<trkpt lat="38.45027476429367" lon="-0.8505047118147361">
<ele>507</ele>
<time>2014-06-28T10:26:49Z</time>
</trkpt>
<trkpt lat="38.450271563441" lon="-0.8504898401748199">
<ele>507</ele>
<time>2014-06-28T10:26:50Z</time>
</trkpt>
<trkpt lat="38.45027157987311" lon="-0.8504898034122524">
<ele>507</ele>
<time>2014-06-28T10:26:51Z</time>
</trkpt>
<trkpt lat="38.450271579947014" lon="-0.8504898031263262">
<ele>507</ele>
<time>2014-06-28T10:26:52Z</time>
</trkpt>
<trkpt lat="38.45027157994639" lon="-0.8504898031234414">
<ele>507</ele>
<time>2014-06-28T10:26:53Z</time>
</trkpt>
<trkpt lat="38.450269244268554" lon="-0.8504859406081334">
<ele>507</ele>
<time>2014-06-28T10:26:54Z</time>
</trkpt>
<trkpt lat="38.45026373265121" lon="-0.8504789771339638">
<ele>507</ele>
<time>2014-06-28T10:26:55Z</time>
</trkpt>
<trkpt lat="38.450258224280766" lon="-0.850470258680394">
<ele>507</ele>
<time>2014-06-28T10:26:56Z</time>
</trkpt>
<trkpt lat="38.45025316025708" lon="-0.8504632565523077">
<ele>507</ele>
<time>2014-06-28T10:26:57Z</time>
</trkpt>
<trkpt lat="38.45024811232601" lon="-0.8504567323432611">
<ele>507</ele>
<time>2014-06-28T10:26:58Z</time>
</trkpt>
<trkpt lat="38.4502393744936" lon="-0.8504466245223175">
<ele>507</ele>
<time>2014-06-28T10:26:59Z</time>
</trkpt>
<trkpt lat="38.45023068666319" lon="-0.8504347128896549">
<ele>507</ele>
<time>2014-06-28T10:27:00Z</time>
</trkpt>
<trkpt lat="38.45022165342197" lon="-0.8504228673975534">
<ele>507</ele>
<time>2014-06-28T10:27:01Z</time>
</trkpt>
<trkpt lat="38.4502127801584" lon="-0.8504106197196102">
<ele>507</ele>
<time>2014-06-28T10:27:02Z</time>
</trkpt>
<trkpt lat="38.45020523822118" lon="-0.8503983105738484">
<ele>507</ele>
<time>2014-06-28T10:27:03Z</time>
</trkpt>
<trkpt lat="38.450199387486165" lon="-0.8503861930788781">
<ele>507</ele>
<time>2014-06-28T10:27:04Z</time>
</trkpt>
<trkpt lat="38.450193196149094" lon="-0.850375220030333">
<ele>507</ele>
<time>2014-06-28T10:27:05Z</time>
</trkpt>
<trkpt lat="38.45018818136124" lon="-0.8503637363359121">
<ele>507</ele>
<time>2014-06-28T10:27:06Z</time>
</trkpt>
<trkpt lat="38.4501836393577" lon="-0.8503536340629508">
<ele>507</ele>
<time>2014-06-28T10:27:07Z</time>
</trkpt>
<trkpt lat="38.45017583014238" lon="-0.8503464523177413">
<ele>507</ele>
<time>2014-06-28T10:27:08Z</time>
</trkpt>
<trkpt lat="38.450166979018" lon="-0.8503376662161996">
<ele>507</ele>
<time>2014-06-28T10:27:09Z</time>
</trkpt>
<trkpt lat="38.45015854654439" lon="-0.8503289539335803">
<ele>507</ele>
<time>2014-06-28T10:27:10Z</time>
</trkpt>
<trkpt lat="38.45015096465685" lon="-0.8503203983469895">
<ele>507</ele>
<time>2014-06-28T10:27:11Z</time>
</trkpt>
<trkpt lat="38.45014377910565" lon="-0.850309634471169">
<ele>507</ele>
<time>2014-06-28T10:27:12Z</time>
</trkpt>
<trkpt lat="38.450138029783645" lon="-0.8502952026351571">
<ele>507</ele>
<time>2014-06-28T10:27:13Z</time>
</trkpt>
<trkpt lat="38.450131394238106" lon="-0.8502823391967845">
<ele>507</ele>
<time>2014-06-28T10:27:14Z</time>
</trkpt>
<trkpt lat="38.45012454226687" lon="-0.8502702617737915">
<ele>507</ele>
<time>2014-06-28T10:27:15Z</time>
</trkpt>
<trkpt lat="38.450117343874375" lon="-0.8502589237280868">
<ele>507</ele>
<time>2014-06-28T10:27:16Z</time>
</trkpt>
<trkpt lat="38.45010972445483" lon="-0.8502484050766989">
<ele>507</ele>
<time>2014-06-28T10:27:17Z</time>
</trkpt>
<trkpt lat="38.450100716819314" lon="-0.8502417813223909">
<ele>507</ele>
<time>2014-06-28T10:27:18Z</time>
</trkpt>
<trkpt lat="38.45009108743308" lon="-0.8502356811649807">
<ele>506</ele>
<time>2014-06-28T10:27:19Z</time>
</trkpt>
<trkpt lat="38.450081821495324" lon="-0.8502287946853819">
<ele>506</ele>
<time>2014-06-28T10:27:20Z</time>
</trkpt>
<trkpt lat="38.450072742145615" lon="-0.8502201123609581">
<ele>506</ele>
<time>2014-06-28T10:27:21Z</time>
</trkpt>
<trkpt lat="38.45008261532299" lon="-0.8502037444809076">
<ele>506</ele>
<time>2014-06-28T10:27:22Z</time>
</trkpt>
<trkpt lat="38.45008240145142" lon="-0.8501855314081181">
<ele>506</ele>
<time>2014-06-28T10:27:23Z</time>
</trkpt>
<trkpt lat="38.45007552087601" lon="-0.8501668155741648">
<ele>506</ele>
<time>2014-06-28T10:27:24Z</time>
</trkpt>
<trkpt lat="38.45006843611398" lon="-0.8501477747957937">
<ele>506</ele>
<time>2014-06-28T10:27:25Z</time>
</trkpt>
<trkpt lat="38.45005311321866" lon="-0.8501324133459985">
<ele>506</ele>
<time>2014-06-28T10:27:26Z</time>
</trkpt>
<trkpt lat="38.450034767271646" lon="-0.8501156181573064">
<ele>506</ele>
<time>2014-06-28T10:27:27Z</time>
</trkpt>
<trkpt lat="38.450015660101386" lon="-0.8500969575098436">
<ele>506</ele>
<time>2014-06-28T10:27:28Z</time>
</trkpt>
<trkpt lat="38.44999803933048" lon="-0.8500781987845092">
<ele>507</ele>
<time>2014-06-28T10:27:29Z</time>
</trkpt>
<trkpt lat="38.449981997111976" lon="-0.8500569511331726">
<ele>507</ele>
<time>2014-06-28T10:27:30Z</time>
</trkpt>
<trkpt lat="38.44996566474506" lon="-0.8500394312348093">
<ele>507</ele>
<time>2014-06-28T10:27:31Z</time>
</trkpt>
<trkpt lat="38.44994875266125" lon="-0.8500197646869034">
<ele>507</ele>
<time>2014-06-28T10:27:32Z</time>
</trkpt>
<trkpt lat="38.449934403794394" lon="-0.8499939617715172">
<ele>507</ele>
<time>2014-06-28T10:27:33Z</time>
</trkpt>
<trkpt lat="38.44991744780152" lon="-0.8499668648582781">
<ele>507</ele>
<time>2014-06-28T10:27:34Z</time>
</trkpt>
<trkpt lat="38.44989940316692" lon="-0.8499415412043299">
<ele>507</ele>
<time>2014-06-28T10:27:35Z</time>
</trkpt>
<trkpt lat="38.4498826521205" lon="-0.8499162770394767">
<ele>507</ele>
<time>2014-06-28T10:27:36Z</time>
</trkpt>
<trkpt lat="38.44986707409403" lon="-0.8498932405198959">
<ele>507</ele>
<time>2014-06-28T10:27:37Z</time>
</trkpt>
<trkpt lat="38.44985230997117" lon="-0.8498705489051741">
<ele>507</ele>
<time>2014-06-28T10:27:38Z</time>
</trkpt>
<trkpt lat="38.44984076031244" lon="-0.8498461939369266">
<ele>507</ele>
<time>2014-06-28T10:27:39Z</time>
</trkpt>
<trkpt lat="38.44982661999479" lon="-0.8498191003262269">
<ele>507</ele>
<time>2014-06-28T10:27:40Z</time>
</trkpt>
<trkpt lat="38.44981357364714" lon="-0.8497962792000382">
<ele>507</ele>
<time>2014-06-28T10:27:41Z</time>
</trkpt>
<trkpt lat="38.449800235399465" lon="-0.8497736772999407">
<ele>507</ele>
<time>2014-06-28T10:27:42Z</time>
</trkpt>
<trkpt lat="38.44978936625159" lon="-0.8497550174508969">
<ele>507</ele>
<time>2014-06-28T10:27:43Z</time>
</trkpt>
<trkpt lat="38.44977705040136" lon="-0.8497373732331942">
<ele>507</ele>
<time>2014-06-28T10:27:44Z</time>
</trkpt>
<trkpt lat="38.449766497289794" lon="-0.8497232651660774">
<ele>507</ele>
<time>2014-06-28T10:27:45Z</time>
</trkpt>
<trkpt lat="38.44975622611609" lon="-0.8497117342508563">
<ele>507</ele>
<time>2014-06-28T10:27:46Z</time>
</trkpt>
<trkpt lat="38.449747213829646" lon="-0.8496992798949796">
<ele>507</ele>
<time>2014-06-28T10:27:47Z</time>
</trkpt>
<trkpt lat="38.449737969355986" lon="-0.8496893084181519">
<ele>507</ele>
<time>2014-06-28T10:27:48Z</time>
</trkpt>
<trkpt lat="38.44973028826797" lon="-0.8496786755627267">
<ele>507</ele>
<time>2014-06-28T10:27:49Z</time>
</trkpt>
<trkpt lat="38.44972202017551" lon="-0.8496655344704024">
<ele>507</ele>
<time>2014-06-28T10:27:50Z</time>
</trkpt>
<trkpt lat="38.44971009032916" lon="-0.8496560185061286">
<ele>507</ele>
<time>2014-06-28T10:27:51Z</time>
</trkpt>
<trkpt lat="38.449697786298685" lon="-0.849646688973258">
<ele>507</ele>
<time>2014-06-28T10:27:52Z</time>
</trkpt>
<trkpt lat="38.44968542322667" lon="-0.8496383885877109">
<ele>507</ele>
<time>2014-06-28T10:27:53Z</time>
</trkpt>
<trkpt lat="38.44967307963965" lon="-0.8496303135038954">
<ele>507</ele>
<time>2014-06-28T10:27:54Z</time>
</trkpt>
<trkpt lat="38.44965811901667" lon="-0.8496213584809398">
<ele>507</ele>
<time>2014-06-28T10:27:55Z</time>
</trkpt>
<trkpt lat="38.44964323454155" lon="-0.8496141940243571">
<ele>507</ele>
<time>2014-06-28T10:27:56Z</time>
</trkpt>
<trkpt lat="38.449627580458" lon="-0.8496065023506058">
<ele>507</ele>
<time>2014-06-28T10:27:57Z</time>
</trkpt>
<trkpt lat="38.449609047324124" lon="-0.8496011462533656">
<ele>507</ele>
<time>2014-06-28T10:27:58Z</time>
</trkpt>
<trkpt lat="38.4495903028243" lon="-0.8495977900769488">
<ele>507</ele>
<time>2014-06-28T10:27:59Z</time>
</trkpt>
<trkpt lat="38.449574711030934" lon="-0.8495979966871788">
<ele>507</ele>
<time>2014-06-28T10:28:00Z</time>
</trkpt>
<trkpt lat="38.44956137815653" lon="-0.8495986247667063">
<ele>507</ele>
<time>2014-06-28T10:28:01Z</time>
</trkpt>
<trkpt lat="38.449549960695045" lon="-0.8495970718151735">
<ele>507</ele>
<time>2014-06-28T10:28:02Z</time>
</trkpt>
<trkpt lat="38.44953833466986" lon="-0.849595646578355">
<ele>507</ele>
<time>2014-06-28T10:28:03Z</time>
</trkpt>
<trkpt lat="38.44952747580085" lon="-0.8495936948046761">
<ele>507</ele>
<time>2014-06-28T10:28:04Z</time>
</trkpt>
<trkpt lat="38.44951712996322" lon="-0.8495903016529393">
<ele>507</ele>
<time>2014-06-28T10:28:05Z</time>
</trkpt>
<trkpt lat="38.449506634343805" lon="-0.849585498659871">
<ele>507</ele>
<time>2014-06-28T10:28:06Z</time>
</trkpt>
<trkpt lat="38.44949510368349" lon="-0.8495790462447236">
<ele>507</ele>
<time>2014-06-28T10:28:07Z</time>
</trkpt>
<trkpt lat="38.44948374798844" lon="-0.8495709621455003">
<ele>507</ele>
<time>2014-06-28T10:28:08Z</time>
</trkpt>
<trkpt lat="38.44947147282486" lon="-0.8495627510365208">
<ele>507</ele>
<time>2014-06-28T10:28:09Z</time>
</trkpt>
<trkpt lat="38.449457979804265" lon="-0.8495545736435811">
<ele>507</ele>
<time>2014-06-28T10:28:10Z</time>
</trkpt>
<trkpt lat="38.44944180986112" lon="-0.8495423343342312">
<ele>507</ele>
<time>2014-06-28T10:28:11Z</time>
</trkpt>
<trkpt lat="38.449426138307686" lon="-0.8495277566198493">
<ele>507</ele>
<time>2014-06-28T10:28:12Z</time>
</trkpt>
<trkpt lat="38.449412434084074" lon="-0.8495093191772227">
<ele>507</ele>
<time>2014-06-28T10:28:13Z</time>
</trkpt>
<trkpt lat="38.44939821172363" lon="-0.8494943689199088">
<ele>507</ele>
<time>2014-06-28T10:28:14Z</time>
</trkpt>
<trkpt lat="38.44938361887723" lon="-0.8494830175525683">
<ele>507</ele>
<time>2014-06-28T10:28:15Z</time>
</trkpt>
<trkpt lat="38.449368549211" lon="-0.8494727290566556">
<ele>507</ele>
<time>2014-06-28T10:28:16Z</time>
</trkpt>
<trkpt lat="38.449352039779775" lon="-0.8494600958931146">
<ele>507</ele>
<time>2014-06-28T10:28:17Z</time>
</trkpt>
<trkpt lat="38.44933560466426" lon="-0.849446735040365">
<ele>507</ele>
<time>2014-06-28T10:28:18Z</time>
</trkpt>
<trkpt lat="38.44931906376407" lon="-0.8494359462594019">
<ele>507</ele>
<time>2014-06-28T10:28:19Z</time>
</trkpt>
<trkpt lat="38.44931099654511" lon="-0.8494272969050899">
<ele>507</ele>
<time>2014-06-28T10:28:20Z</time>
</trkpt>
<trkpt lat="38.44930724624185" lon="-0.8494203829497792">
<ele>507</ele>
<time>2014-06-28T10:28:21Z</time>
</trkpt>
<trkpt lat="38.44930531167714" lon="-0.8494162696354691">
<ele>507</ele>
<time>2014-06-28T10:28:22Z</time>
</trkpt>
<trkpt lat="38.449303134712906" lon="-0.8494123768762878">
<ele>507</ele>
<time>2014-06-28T10:28:23Z</time>
</trkpt>
<trkpt lat="38.44930097554032" lon="-0.8494083063458628">
<ele>507</ele>
<time>2014-06-28T10:28:24Z</time>
</trkpt>
<trkpt lat="38.44929855294599" lon="-0.8494037789587814">
<ele>507</ele>
<time>2014-06-28T10:28:25Z</time>
</trkpt>
<trkpt lat="38.44929502934282" lon="-0.8493979465512921">
<ele>507</ele>
<time>2014-06-28T10:28:26Z</time>
</trkpt>
<trkpt lat="38.44929158799175" lon="-0.8493914601292472">
<ele>507</ele>
<time>2014-06-28T10:28:27Z</time>
</trkpt>
<trkpt lat="38.44928707032376" lon="-0.8493842682612519">
<ele>507</ele>
<time>2014-06-28T10:28:28Z</time>
</trkpt>
<trkpt lat="38.44928113457137" lon="-0.8493737966844939">
<ele>507</ele>
<time>2014-06-28T10:28:29Z</time>
</trkpt>
<trkpt lat="38.44927457899911" lon="-0.8493631738962568">
<ele>507</ele>
<time>2014-06-28T10:28:30Z</time>
</trkpt>
<trkpt lat="38.44926847858155" lon="-0.8493538253702727">
<ele>507</ele>
<time>2014-06-28T10:28:31Z</time>
</trkpt>
<trkpt lat="38.44925842451669" lon="-0.8493471425966689">
<ele>507</ele>
<time>2014-06-28T10:28:32Z</time>
</trkpt>
<trkpt lat="38.449245781980196" lon="-0.849339225379408">
<ele>507</ele>
<time>2014-06-28T10:28:33Z</time>
</trkpt>
<trkpt lat="38.44923103922011" lon="-0.8493302357776326">
<ele>507</ele>
<time>2014-06-28T10:28:34Z</time>
</trkpt>
<trkpt lat="38.44919815082529" lon="-0.8493167343760731">
<ele>507</ele>
<time>2014-06-28T10:28:35Z</time>
</trkpt>
<trkpt lat="38.4491704818215" lon="-0.8493031041924022">
<ele>507</ele>
<time>2014-06-28T10:28:36Z</time>
</trkpt>
<trkpt lat="38.449152741985934" lon="-0.8492889848922625">
<ele>507</ele>
<time>2014-06-28T10:28:37Z</time>
</trkpt>
<trkpt lat="38.44913693866155" lon="-0.8492750306128157">
<ele>507</ele>
<time>2014-06-28T10:28:38Z</time>
</trkpt>
<trkpt lat="38.44912263929154" lon="-0.8492623045082901">
<ele>507</ele>
<time>2014-06-28T10:28:39Z</time>
</trkpt>
<trkpt lat="38.44910922847065" lon="-0.8492491744416499">
<ele>507</ele>
<time>2014-06-28T10:28:40Z</time>
</trkpt>
<trkpt lat="38.449095151608816" lon="-0.8492399245625256">
<ele>507</ele>
<time>2014-06-28T10:28:41Z</time>
</trkpt>
<trkpt lat="38.44908160185908" lon="-0.8492293123395988">
<ele>507</ele>
<time>2014-06-28T10:28:42Z</time>
</trkpt>
<trkpt lat="38.44907178727656" lon="-0.849222226691232">
<ele>507</ele>
<time>2014-06-28T10:28:43Z</time>
</trkpt>
<trkpt lat="38.44906333868721" lon="-0.8492149114741947">
<ele>507</ele>
<time>2014-06-28T10:28:44Z</time>
</trkpt>
<trkpt lat="38.44905494944839" lon="-0.8492064985053938">
<ele>507</ele>
<time>2014-06-28T10:28:45Z</time>
</trkpt>
<trkpt lat="38.44904882118202" lon="-0.849199996106974">
<ele>507</ele>
<time>2014-06-28T10:28:46Z</time>
</trkpt>
<trkpt lat="38.44904187053484" lon="-0.849190478924422">
<ele>507</ele>
<time>2014-06-28T10:28:47Z</time>
</trkpt>
<trkpt lat="38.44903750283648" lon="-0.8491813179847174">
<ele>507</ele>
<time>2014-06-28T10:28:48Z</time>
</trkpt>
<trkpt lat="38.44903270470785" lon="-0.8491681028933882">
<ele>507</ele>
<time>2014-06-28T10:28:49Z</time>
</trkpt>
<trkpt lat="38.44902792553939" lon="-0.8491541027707551">
<ele>507</ele>
<time>2014-06-28T10:28:50Z</time>
</trkpt>
<trkpt lat="38.44902265215364" lon="-0.8491406800852478">
<ele>507</ele>
<time>2014-06-28T10:28:51Z</time>
</trkpt>
<trkpt lat="38.44901785377727" lon="-0.8491240314763914">
<ele>507</ele>
<time>2014-06-28T10:28:52Z</time>
</trkpt>
<trkpt lat="38.449011164241185" lon="-0.8491079224322071">
<ele>507</ele>
<time>2014-06-28T10:28:53Z</time>
</trkpt>
<trkpt lat="38.44901116314573" lon="-0.8491078787475073">
<ele>507</ele>
<time>2014-06-28T10:28:54Z</time>
</trkpt>
<trkpt lat="38.44901116302521" lon="-0.8491078781240106">
<ele>507</ele>
<time>2014-06-28T10:28:55Z</time>
</trkpt>
<trkpt lat="38.449011163022526" lon="-0.8491078781171435">
<ele>507</ele>
<time>2014-06-28T10:28:56Z</time>
</trkpt>
<trkpt lat="38.44901116302249" lon="-0.8491078781170528">
<ele>507</ele>
<time>2014-06-28T10:28:57Z</time>
</trkpt>
<trkpt lat="38.44901116302249" lon="-0.8491078781170517">
<ele>507</ele>
<time>2014-06-28T10:28:58Z</time>
</trkpt>
<trkpt lat="38.44901116302249" lon="-0.8491078781170516">
<ele>507</ele>
<time>2014-06-28T10:28:59Z</time>
</trkpt>
<trkpt lat="38.44901116302249" lon="-0.8491078781170515">
<ele>507</ele>
<time>2014-06-28T10:29:00Z</time>
</trkpt>
<trkpt lat="38.44901116302249" lon="-0.8491078781170514">
<ele>507</ele>
<time>2014-06-28T10:29:01Z</time>
</trkpt>
<trkpt lat="38.44901116302249" lon="-0.8491078781170512">
<ele>507</ele>
<time>2014-06-28T10:29:02Z</time>
</trkpt>
<trkpt lat="38.44901116302249" lon="-0.8491078781170511">
<ele>507</ele>
<time>2014-06-28T10:29:03Z</time>
</trkpt>
<trkpt lat="38.44901116302249" lon="-0.849107878117051">
<ele>507</ele>
<time>2014-06-28T10:29:04Z</time>
</trkpt>
<trkpt lat="38.44901116302249" lon="-0.8491078781170509">
<ele>507</ele>
<time>2014-06-28T10:29:05Z</time>
</trkpt>
<trkpt lat="38.44901116302249" lon="-0.8491078781170508">
<ele>507</ele>
<time>2014-06-28T10:29:06Z</time>
</trkpt>
<trkpt lat="38.44901116302249" lon="-0.8491078781170507">
<ele>507</ele>
<time>2014-06-28T10:29:07Z</time>
</trkpt>
<trkpt lat="38.44901116302249" lon="-0.8491078781170506">
<ele>507</ele>
<time>2014-06-28T10:29:08Z</time>
</trkpt>
<trkpt lat="38.44900326641184" lon="-0.8490969289544937">
<ele>507</ele>
<time>2014-06-28T10:29:09Z</time>
</trkpt>
<trkpt lat="38.448992078309395" lon="-0.8490795285966839">
<ele>507</ele>
<time>2014-06-28T10:29:10Z</time>
</trkpt>
<trkpt lat="38.448979457676224" lon="-0.8490559012953953">
<ele>507</ele>
<time>2014-06-28T10:29:11Z</time>
</trkpt>
<trkpt lat="38.44896598235472" lon="-0.8490305455945876">
<ele>507</ele>
<time>2014-06-28T10:29:12Z</time>
</trkpt>
<trkpt lat="38.448953144877954" lon="-0.8490044867767405">
<ele>507</ele>
<time>2014-06-28T10:29:13Z</time>
</trkpt>
<trkpt lat="38.44894195188363" lon="-0.8489810870173534">
<ele>507</ele>
<time>2014-06-28T10:29:14Z</time>
</trkpt>
<trkpt lat="38.44892902823596" lon="-0.8489627676032584">
<ele>507</ele>
<time>2014-06-28T10:29:15Z</time>
</trkpt>
<trkpt lat="38.4489166560187" lon="-0.8489445100562634">
<ele>507</ele>
<time>2014-06-28T10:29:16Z</time>
</trkpt>
<trkpt lat="38.448905547286465" lon="-0.8489287474461314">
<ele>507</ele>
<time>2014-06-28T10:29:17Z</time>
</trkpt>
<trkpt lat="38.448893684935854" lon="-0.848899713785392">
<ele>507</ele>
<time>2014-06-28T10:29:18Z</time>
</trkpt>
<trkpt lat="38.44888420526395" lon="-0.8488679837906077">
<ele>507</ele>
<time>2014-06-28T10:29:19Z</time>
</trkpt>
<trkpt lat="38.44887950772112" lon="-0.8488322083214982">
<ele>507</ele>
<time>2014-06-28T10:29:20Z</time>
</trkpt>
<trkpt lat="38.44886555350943" lon="-0.848804826635947">
<ele>507</ele>
<time>2014-06-28T10:29:21Z</time>
</trkpt>
<trkpt lat="38.44885361722281" lon="-0.8487797950788912">
<ele>507</ele>
<time>2014-06-28T10:29:22Z</time>
</trkpt>
<trkpt lat="38.44885617260412" lon="-0.8487539725715975">
<ele>507</ele>
<time>2014-06-28T10:29:23Z</time>
</trkpt>
<trkpt lat="38.448855237381615" lon="-0.8487348431709485">
<ele>507</ele>
<time>2014-06-28T10:29:24Z</time>
</trkpt>
<trkpt lat="38.448849366698184" lon="-0.8487136186609169">
<ele>507</ele>
<time>2014-06-28T10:29:25Z</time>
</trkpt>
<trkpt lat="38.44884648916246" lon="-0.8486918180496996">
<ele>507</ele>
<time>2014-06-28T10:29:26Z</time>
</trkpt>
<trkpt lat="38.44883583013734" lon="-0.8486758168807347">
<ele>507</ele>
<time>2014-06-28T10:29:27Z</time>
</trkpt>
<trkpt lat="38.44882259674767" lon="-0.8486586948695798">
<ele>508</ele>
<time>2014-06-28T10:29:28Z</time>
</trkpt>
<trkpt lat="38.44881381379225" lon="-0.8486418138222386">
<ele>508</ele>
<time>2014-06-28T10:29:29Z</time>
</trkpt>
<trkpt lat="38.448806009294515" lon="-0.848625627770514">
<ele>508</ele>
<time>2014-06-28T10:29:30Z</time>
</trkpt>
<trkpt lat="38.44880051809264" lon="-0.8486087639014703">
<ele>508</ele>
<time>2014-06-28T10:29:31Z</time>
</trkpt>
<trkpt lat="38.448794568676355" lon="-0.8485908160946712">
<ele>508</ele>
<time>2014-06-28T10:29:32Z</time>
</trkpt>
<trkpt lat="38.448807771186964" lon="-0.8485745108618441">
<ele>508</ele>
<time>2014-06-28T10:29:33Z</time>
</trkpt>
<trkpt lat="38.448823830014824" lon="-0.848556964570468">
<ele>508</ele>
<time>2014-06-28T10:29:34Z</time>
</trkpt>
<trkpt lat="38.44883822935547" lon="-0.8485373503027799">
<ele>508</ele>
<time>2014-06-28T10:29:35Z</time>
</trkpt>
<trkpt lat="38.44884883263582" lon="-0.8485150931542816">
<ele>508</ele>
<time>2014-06-28T10:29:36Z</time>
</trkpt>
<trkpt lat="38.44885698960224" lon="-0.8484928468174765">
<ele>508</ele>
<time>2014-06-28T10:29:37Z</time>
</trkpt>
<trkpt lat="38.44885754350799" lon="-0.8484733475250529">
<ele>508</ele>
<time>2014-06-28T10:29:38Z</time>
</trkpt>
<trkpt lat="38.448861014576195" lon="-0.8484551565677171">
<ele>508</ele>
<time>2014-06-28T10:29:39Z</time>
</trkpt>
<trkpt lat="38.44886595264555" lon="-0.848439393506829">
<ele>508</ele>
<time>2014-06-28T10:29:40Z</time>
</trkpt>
<trkpt lat="38.44887070934802" lon="-0.8484231921450315">
<ele>508</ele>
<time>2014-06-28T10:29:41Z</time>
</trkpt>
<trkpt lat="38.44887477238983" lon="-0.8484076886498205">
<ele>508</ele>
<time>2014-06-28T10:29:42Z</time>
</trkpt>
<trkpt lat="38.448879901461865" lon="-0.8483934889183528">
<ele>508</ele>
<time>2014-06-28T10:29:43Z</time>
</trkpt>
<trkpt lat="38.44888459959434" lon="-0.848380758387729">
<ele>508</ele>
<time>2014-06-28T10:29:44Z</time>
</trkpt>
<trkpt lat="38.44888819112037" lon="-0.8483684446789348">
<ele>508</ele>
<time>2014-06-28T10:29:45Z</time>
</trkpt>
<trkpt lat="38.44888751739904" lon="-0.8483541287306717">
<ele>508</ele>
<time>2014-06-28T10:29:46Z</time>
</trkpt>
<trkpt lat="38.448888189784526" lon="-0.848339128465038">
<ele>508</ele>
<time>2014-06-28T10:29:47Z</time>
</trkpt>
<trkpt lat="38.448889936325834" lon="-0.8483248794329893">
<ele>508</ele>
<time>2014-06-28T10:29:48Z</time>
</trkpt>
<trkpt lat="38.448890042935986" lon="-0.8483087386635869">
<ele>508</ele>
<time>2014-06-28T10:29:49Z</time>
</trkpt>
<trkpt lat="38.44888967765232" lon="-0.8482913617227915">
<ele>508</ele>
<time>2014-06-28T10:29:50Z</time>
</trkpt>
<trkpt lat="38.4488899426678" lon="-0.8482747449097119">
<ele>508</ele>
<time>2014-06-28T10:29:51Z</time>
</trkpt>
<trkpt lat="38.448892411679715" lon="-0.8482583719262019">
<ele>508</ele>
<time>2014-06-28T10:29:52Z</time>
</trkpt>
<trkpt lat="38.44889534299548" lon="-0.8482424157240411">
<ele>508</ele>
<time>2014-06-28T10:29:53Z</time>
</trkpt>
<trkpt lat="38.44889831488308" lon="-0.8482279337912082">
<ele>508</ele>
<time>2014-06-28T10:29:54Z</time>
</trkpt>
<trkpt lat="38.44890085952185" lon="-0.848212569881089">
<ele>508</ele>
<time>2014-06-28T10:29:55Z</time>
</trkpt>
<trkpt lat="38.448900742552276" lon="-0.8481965845169898">
<ele>508</ele>
<time>2014-06-28T10:29:56Z</time>
</trkpt>
<trkpt lat="38.44890086997061" lon="-0.8481807958446042">
<ele>508</ele>
<time>2014-06-28T10:29:57Z</time>
</trkpt>
<trkpt lat="38.448898708329" lon="-0.8481655507667649">
<ele>508</ele>
<time>2014-06-28T10:29:58Z</time>
</trkpt>
<trkpt lat="38.44889707423304" lon="-0.8481507399485815">
<ele>508</ele>
<time>2014-06-28T10:29:59Z</time>
</trkpt>
<trkpt lat="38.44889442528058" lon="-0.8481343790653447">
<ele>508</ele>
<time>2014-06-28T10:30:00Z</time>
</trkpt>
<trkpt lat="38.448890207394726" lon="-0.848116418414552">
<ele>508</ele>
<time>2014-06-28T10:30:01Z</time>
</trkpt>
<trkpt lat="38.4488837490259" lon="-0.8480957425736967">
<ele>508</ele>
<time>2014-06-28T10:30:02Z</time>
</trkpt>
<trkpt lat="38.44887714288976" lon="-0.8480745819344879">
<ele>508</ele>
<time>2014-06-28T10:30:03Z</time>
</trkpt>
<trkpt lat="38.448871932035814" lon="-0.8480538970727726">
<ele>508</ele>
<time>2014-06-28T10:30:04Z</time>
</trkpt>
<trkpt lat="38.44886615688115" lon="-0.8480351776661413">
<ele>508</ele>
<time>2014-06-28T10:30:05Z</time>
</trkpt>
<trkpt lat="38.44886071205194" lon="-0.8480156728120554">
<ele>508</ele>
<time>2014-06-28T10:30:06Z</time>
</trkpt>
<trkpt lat="38.44885762554643" lon="-0.8479958388663948">
<ele>508</ele>
<time>2014-06-28T10:30:07Z</time>
</trkpt>
<trkpt lat="38.448854004298354" lon="-0.8479748672603077">
<ele>508</ele>
<time>2014-06-28T10:30:08Z</time>
</trkpt>
<trkpt lat="38.44885012983444" lon="-0.8479546932916171">
<ele>508</ele>
<time>2014-06-28T10:30:09Z</time>
</trkpt>
<trkpt lat="38.44884332803492" lon="-0.8479349777268185">
<ele>508</ele>
<time>2014-06-28T10:30:10Z</time>
</trkpt>
<trkpt lat="38.448838443335646" lon="-0.8479161685431735">
<ele>508</ele>
<time>2014-06-28T10:30:11Z</time>
</trkpt>
<trkpt lat="38.44883377804633" lon="-0.8478979229540857">
<ele>508</ele>
<time>2014-06-28T10:30:12Z</time>
</trkpt>
<trkpt lat="38.448831739409" lon="-0.8478795185859571">
<ele>508</ele>
<time>2014-06-28T10:30:13Z</time>
</trkpt>
<trkpt lat="38.44882931381127" lon="-0.8478619700141634">
<ele>508</ele>
<time>2014-06-28T10:30:14Z</time>
</trkpt>
<trkpt lat="38.44882602425842" lon="-0.8478428063761824">
<ele>508</ele>
<time>2014-06-28T10:30:15Z</time>
</trkpt>
<trkpt lat="38.44882489809194" lon="-0.8478234915399439">
<ele>508</ele>
<time>2014-06-28T10:30:16Z</time>
</trkpt>
<trkpt lat="38.448824847411935" lon="-0.8478045730725363">
<ele>508</ele>
<time>2014-06-28T10:30:17Z</time>
</trkpt>
<trkpt lat="38.4488253363586" lon="-0.8477841797703518">
<ele>508</ele>
<time>2014-06-28T10:30:18Z</time>
</trkpt>
<trkpt lat="38.44882504443177" lon="-0.847763588849667">
<ele>508</ele>
<time>2014-06-28T10:30:19Z</time>
</trkpt>
<trkpt lat="38.44882327280531" lon="-0.8477442796762994">
<ele>508</ele>
<time>2014-06-28T10:30:20Z</time>
</trkpt>
<trkpt lat="38.448820532544865" lon="-0.8477256667426897">
<ele>508</ele>
<time>2014-06-28T10:30:21Z</time>
</trkpt>
<trkpt lat="38.44881955925429" lon="-0.84771116042475">
<ele>508</ele>
<time>2014-06-28T10:30:22Z</time>
</trkpt>
<trkpt lat="38.44882034244214" lon="-0.8476977519238892">
<ele>508</ele>
<time>2014-06-28T10:30:23Z</time>
</trkpt>
<trkpt lat="38.44881987558066" lon="-0.8476843546283922">
<ele>508</ele>
<time>2014-06-28T10:30:24Z</time>
</trkpt>
<trkpt lat="38.4488198547902" lon="-0.8476721723841105">
<ele>508</ele>
<time>2014-06-28T10:30:25Z</time>
</trkpt>
<trkpt lat="38.448820456566565" lon="-0.8476608756799149">
<ele>508</ele>
<time>2014-06-28T10:30:26Z</time>
</trkpt>
<trkpt lat="38.44882190587206" lon="-0.8476500069394166">
<ele>508</ele>
<time>2014-06-28T10:30:27Z</time>
</trkpt>
<trkpt lat="38.44882175655484" lon="-0.8476384853342884">
<ele>508</ele>
<time>2014-06-28T10:30:28Z</time>
</trkpt>
<trkpt lat="38.44882088181213" lon="-0.8476263715777479">
<ele>508</ele>
<time>2014-06-28T10:30:29Z</time>
</trkpt>
<trkpt lat="38.44882051722931" lon="-0.847612089318419">
<ele>508</ele>
<time>2014-06-28T10:30:30Z</time>
</trkpt>
<trkpt lat="38.448818199124325" lon="-0.8475984200191">
<ele>508</ele>
<time>2014-06-28T10:30:31Z</time>
</trkpt>
<trkpt lat="38.44881626218877" lon="-0.8475827530822597">
<ele>508</ele>
<time>2014-06-28T10:30:32Z</time>
</trkpt>
<trkpt lat="38.448814372995145" lon="-0.8475665628713974">
<ele>508</ele>
<time>2014-06-28T10:30:33Z</time>
</trkpt>
<trkpt lat="38.4488124726601" lon="-0.84754760158859">
<ele>508</ele>
<time>2014-06-28T10:30:34Z</time>
</trkpt>
<trkpt lat="38.44880883606023" lon="-0.8475266435045254">
<ele>508</ele>
<time>2014-06-28T10:30:35Z</time>
</trkpt>
<trkpt lat="38.44880588753543" lon="-0.8475067774787012">
<ele>508</ele>
<time>2014-06-28T10:30:36Z</time>
</trkpt>
<trkpt lat="38.44880457752178" lon="-0.8474864020239482">
<ele>508</ele>
<time>2014-06-28T10:30:37Z</time>
</trkpt>
<trkpt lat="38.448801505705" lon="-0.8474642367200407">
<ele>508</ele>
<time>2014-06-28T10:30:38Z</time>
</trkpt>
<trkpt lat="38.44879705442161" lon="-0.847443289147459">
<ele>508</ele>
<time>2014-06-28T10:30:39Z</time>
</trkpt>
<trkpt lat="38.44879502531094" lon="-0.8474244910118862">
<ele>508</ele>
<time>2014-06-28T10:30:40Z</time>
</trkpt>
<trkpt lat="38.44879462947159" lon="-0.8474030160755981">
<ele>508</ele>
<time>2014-06-28T10:30:41Z</time>
</trkpt>
<trkpt lat="38.4487934459741" lon="-0.8473837426928843">
<ele>508</ele>
<time>2014-06-28T10:30:42Z</time>
</trkpt>
<trkpt lat="38.44879043234737" lon="-0.8473624415893858">
<ele>508</ele>
<time>2014-06-28T10:30:43Z</time>
</trkpt>
<trkpt lat="38.4487866524455" lon="-0.847340717130524">
<ele>508</ele>
<time>2014-06-28T10:30:44Z</time>
</trkpt>
<trkpt lat="38.44878114870436" lon="-0.8473178950095619">
<ele>508</ele>
<time>2014-06-28T10:30:45Z</time>
</trkpt>
<trkpt lat="38.44877813116821" lon="-0.8472953426767307">
<ele>508</ele>
<time>2014-06-28T10:30:46Z</time>
</trkpt>
<trkpt lat="38.44877689911763" lon="-0.8472742420781258">
<ele>508</ele>
<time>2014-06-28T10:30:47Z</time>
</trkpt>
<trkpt lat="38.44877638579302" lon="-0.847253990615058">
<ele>508</ele>
<time>2014-06-28T10:30:48Z</time>
</trkpt>
<trkpt lat="38.44877630212252" lon="-0.8472347141982736">
<ele>508</ele>
<time>2014-06-28T10:30:49Z</time>
</trkpt>
<trkpt lat="38.448774247799314" lon="-0.8472159372077818">
<ele>508</ele>
<time>2014-06-28T10:30:50Z</time>
</trkpt>
<trkpt lat="38.448771211245656" lon="-0.8471967576423363">
<ele>508</ele>
<time>2014-06-28T10:30:51Z</time>
</trkpt>
<trkpt lat="38.448769662208385" lon="-0.847178122680532">
<ele>508</ele>
<time>2014-06-28T10:30:52Z</time>
</trkpt>
<trkpt lat="38.448768633781434" lon="-0.8471594244998086">
<ele>508</ele>
<time>2014-06-28T10:30:53Z</time>
</trkpt>
<trkpt lat="38.44876677767964" lon="-0.8471408198770506">
<ele>508</ele>
<time>2014-06-28T10:30:54Z</time>
</trkpt>
<trkpt lat="38.44876530709863" lon="-0.8471224080394577">
<ele>508</ele>
<time>2014-06-28T10:30:55Z</time>
</trkpt>
<trkpt lat="38.44876391304998" lon="-0.8471010443562339">
<ele>508</ele>
<time>2014-06-28T10:30:56Z</time>
</trkpt>
<trkpt lat="38.44876337831538" lon="-0.8470817726770833">
<ele>508</ele>
<time>2014-06-28T10:30:57Z</time>
</trkpt>
<trkpt lat="38.448761986800015" lon="-0.847062527900156">
<ele>508</ele>
<time>2014-06-28T10:30:58Z</time>
</trkpt>
<trkpt lat="38.44876320670329" lon="-0.8470429277511617">
<ele>508</ele>
<time>2014-06-28T10:30:59Z</time>
</trkpt>
<trkpt lat="38.448762878776115" lon="-0.8470278803823316">
<ele>508</ele>
<time>2014-06-28T10:31:00Z</time>
</trkpt>
<trkpt lat="38.44876108229311" lon="-0.8470115792414964">
<ele>508</ele>
<time>2014-06-28T10:31:01Z</time>
</trkpt>
<trkpt lat="38.448760576434886" lon="-0.8469938849333419">
<ele>508</ele>
<time>2014-06-28T10:31:02Z</time>
</trkpt>
<trkpt lat="38.44876192805942" lon="-0.8469764272958442">
<ele>508</ele>
<time>2014-06-28T10:31:03Z</time>
</trkpt>
<trkpt lat="38.44876262539849" lon="-0.8469588853308393">
<ele>508</ele>
<time>2014-06-28T10:31:04Z</time>
</trkpt>
<trkpt lat="38.44876249681894" lon="-0.8469409713197853">
<ele>508</ele>
<time>2014-06-28T10:31:05Z</time>
</trkpt>
<trkpt lat="38.448763239418156" lon="-0.84692292537011">
<ele>508</ele>
<time>2014-06-28T10:31:06Z</time>
</trkpt>
<trkpt lat="38.448765563569005" lon="-0.8469050067234922">
<ele>508</ele>
<time>2014-06-28T10:31:07Z</time>
</trkpt>
<trkpt lat="38.448767962574294" lon="-0.8468885767489246">
<ele>508</ele>
<time>2014-06-28T10:31:08Z</time>
</trkpt>
<trkpt lat="38.44876765648826" lon="-0.8468712283338516">
<ele>508</ele>
<time>2014-06-28T10:31:09Z</time>
</trkpt>
<trkpt lat="38.44876572641488" lon="-0.8468538311280345">
<ele>508</ele>
<time>2014-06-28T10:31:10Z</time>
</trkpt>
<trkpt lat="38.4487666368523" lon="-0.8468377575197141">
<ele>508</ele>
<time>2014-06-28T10:31:11Z</time>
</trkpt>
<trkpt lat="38.44876536953206" lon="-0.846822375219176">
<ele>508</ele>
<time>2014-06-28T10:31:12Z</time>
</trkpt>
<trkpt lat="38.44876451401597" lon="-0.846806479982632">
<ele>508</ele>
<time>2014-06-28T10:31:13Z</time>
</trkpt>
<trkpt lat="38.44876572365687" lon="-0.8467929888330822">
<ele>508</ele>
<time>2014-06-28T10:31:14Z</time>
</trkpt>
<trkpt lat="38.448767855160234" lon="-0.8467797905932801">
<ele>508</ele>
<time>2014-06-28T10:31:15Z</time>
</trkpt>
<trkpt lat="38.44876775512157" lon="-0.8467666552408176">
<ele>508</ele>
<time>2014-06-28T10:31:16Z</time>
</trkpt>
<trkpt lat="38.448767198384495" lon="-0.8467523420893304">
<ele>508</ele>
<time>2014-06-28T10:31:17Z</time>
</trkpt>
<trkpt lat="38.448766398166086" lon="-0.8467372289874914">
<ele>508</ele>
<time>2014-06-28T10:31:18Z</time>
</trkpt>
<trkpt lat="38.44876489579181" lon="-0.8467216476581728">
<ele>508</ele>
<time>2014-06-28T10:31:19Z</time>
</trkpt>
<trkpt lat="38.448764051536536" lon="-0.8467062640420975">
<ele>508</ele>
<time>2014-06-28T10:31:20Z</time>
</trkpt>
<trkpt lat="38.44876420595387" lon="-0.846690468749344">
<ele>508</ele>
<time>2014-06-28T10:31:21Z</time>
</trkpt>
<trkpt lat="38.4487627316666" lon="-0.8466752539776632">
<ele>508</ele>
<time>2014-06-28T10:31:22Z</time>
</trkpt>
<trkpt lat="38.448761240394205" lon="-0.8466599058714919">
<ele>508</ele>
<time>2014-06-28T10:31:23Z</time>
</trkpt>
<trkpt lat="38.448758997666275" lon="-0.8466443899379444">
<ele>508</ele>
<time>2014-06-28T10:31:24Z</time>
</trkpt>
<trkpt lat="38.448756125475185" lon="-0.8466279710133461">
<ele>508</ele>
<time>2014-06-28T10:31:25Z</time>
</trkpt>
<trkpt lat="38.44875360150464" lon="-0.8466102878787387">
<ele>508</ele>
<time>2014-06-28T10:31:26Z</time>
</trkpt>
<trkpt lat="38.448749578511276" lon="-0.8465937410525466">
<ele>508</ele>
<time>2014-06-28T10:31:27Z</time>
</trkpt>
<trkpt lat="38.44874765563002" lon="-0.8465747176593519">
<ele>508</ele>
<time>2014-06-28T10:31:28Z</time>
</trkpt>
<trkpt lat="38.448743397793656" lon="-0.8465539085923803">
<ele>508</ele>
<time>2014-06-28T10:31:29Z</time>
</trkpt>
<trkpt lat="38.44874048740476" lon="-0.8465324930184733">
<ele>508</ele>
<time>2014-06-28T10:31:30Z</time>
</trkpt>
<trkpt lat="38.44873793360721" lon="-0.8465118604113506">
<ele>508</ele>
<time>2014-06-28T10:31:31Z</time>
</trkpt>
<trkpt lat="38.448735723803054" lon="-0.8464919268905203">
<ele>508</ele>
<time>2014-06-28T10:31:32Z</time>
</trkpt>
<trkpt lat="38.44873267634359" lon="-0.8464728499939512">
<ele>508</ele>
<time>2014-06-28T10:31:33Z</time>
</trkpt>
<trkpt lat="38.4487282597215" lon="-0.846455921214131">
<ele>508</ele>
<time>2014-06-28T10:31:34Z</time>
</trkpt>
<trkpt lat="38.4487210567083" lon="-0.8464372475162409">
<ele>508</ele>
<time>2014-06-28T10:31:35Z</time>
</trkpt>
<trkpt lat="38.448715871748334" lon="-0.8464205648811821">
<ele>508</ele>
<time>2014-06-28T10:31:36Z</time>
</trkpt>
<trkpt lat="38.44871297629996" lon="-0.846402914946813">
<ele>508</ele>
<time>2014-06-28T10:31:37Z</time>
</trkpt>
<trkpt lat="38.448710844061644" lon="-0.8463829220404835">
<ele>508</ele>
<time>2014-06-28T10:31:38Z</time>
</trkpt>
<trkpt lat="38.448708738224134" lon="-0.8463618830870673">
<ele>508</ele>
<time>2014-06-28T10:31:39Z</time>
</trkpt>
<trkpt lat="38.448707532778315" lon="-0.8463411950918113">
<ele>508</ele>
<time>2014-06-28T10:31:40Z</time>
</trkpt>
<trkpt lat="38.448705660021204" lon="-0.8463215675897175">
<ele>508</ele>
<time>2014-06-28T10:31:41Z</time>
</trkpt>
<trkpt lat="38.44870385165877" lon="-0.8463013222234076">
<ele>508</ele>
<time>2014-06-28T10:31:42Z</time>
</trkpt>
<trkpt lat="38.44870391129159" lon="-0.8462837348974382">
<ele>508</ele>
<time>2014-06-28T10:31:43Z</time>
</trkpt>
<trkpt lat="38.44870254395351" lon="-0.8462693836629293">
<ele>508</ele>
<time>2014-06-28T10:31:44Z</time>
</trkpt>
<trkpt lat="38.44869980799161" lon="-0.8462533772807519">
<ele>508</ele>
<time>2014-06-28T10:31:45Z</time>
</trkpt>
<trkpt lat="38.44869523273971" lon="-0.8462384684437374">
<ele>508</ele>
<time>2014-06-28T10:31:46Z</time>
</trkpt>
<trkpt lat="38.44869048453049" lon="-0.8462222844998524">
<ele>508</ele>
<time>2014-06-28T10:31:47Z</time>
</trkpt>
<trkpt lat="38.44868487729156" lon="-0.846206751568749">
<ele>508</ele>
<time>2014-06-28T10:31:48Z</time>
</trkpt>
<trkpt lat="38.4486803986066" lon="-0.8461908589866303">
<ele>508</ele>
<time>2014-06-28T10:31:49Z</time>
</trkpt>
<trkpt lat="38.44867614560291" lon="-0.8461706654484821">
<ele>508</ele>
<time>2014-06-28T10:31:50Z</time>
</trkpt>
<trkpt lat="38.44867259617308" lon="-0.8461522649016627">
<ele>508</ele>
<time>2014-06-28T10:31:51Z</time>
</trkpt>
<trkpt lat="38.44866633614607" lon="-0.8461268084664832">
<ele>508</ele>
<time>2014-06-28T10:31:52Z</time>
</trkpt>
<trkpt lat="38.44865960384393" lon="-0.8461000921867697">
<ele>508</ele>
<time>2014-06-28T10:31:53Z</time>
</trkpt>
<trkpt lat="38.448652878838864" lon="-0.846079853679767">
<ele>508</ele>
<time>2014-06-28T10:31:54Z</time>
</trkpt>
<trkpt lat="38.44864757700049" lon="-0.8460603753463911">
<ele>508</ele>
<time>2014-06-28T10:31:55Z</time>
</trkpt>
<trkpt lat="38.448642236648595" lon="-0.8460407936815874">
<ele>508</ele>
<time>2014-06-28T10:31:56Z</time>
</trkpt>
<trkpt lat="38.44863587344229" lon="-0.8460232234000922">
<ele>508</ele>
<time>2014-06-28T10:31:57Z</time>
</trkpt>
<trkpt lat="38.448629043986635" lon="-0.8460061584584545">
<ele>508</ele>
<time>2014-06-28T10:31:58Z</time>
</trkpt>
<trkpt lat="38.44862195355958" lon="-0.8459894971478962">
<ele>508</ele>
<time>2014-06-28T10:31:59Z</time>
</trkpt>
<trkpt lat="38.44861545992594" lon="-0.8459731021525789">
<ele>508</ele>
<time>2014-06-28T10:32:00Z</time>
</trkpt>
<trkpt lat="38.44861202013577" lon="-0.8459561056543281">
<ele>508</ele>
<time>2014-06-28T10:32:01Z</time>
</trkpt>
<trkpt lat="38.4486084679919" lon="-0.8459394906600539">
<ele>508</ele>
<time>2014-06-28T10:32:02Z</time>
</trkpt>
<trkpt lat="38.44860501585669" lon="-0.845924043104472">
<ele>508</ele>
<time>2014-06-28T10:32:03Z</time>
</trkpt>
<trkpt lat="38.44860140455594" lon="-0.8459090735023872">
<ele>508</ele>
<time>2014-06-28T10:32:04Z</time>
</trkpt>
<trkpt lat="38.44859340047516" lon="-0.8458884760186379">
<ele>508</ele>
<time>2014-06-28T10:32:05Z</time>
</trkpt>
<trkpt lat="38.448585133205704" lon="-0.8458604031551998">
<ele>508</ele>
<time>2014-06-28T10:32:06Z</time>
</trkpt>
<trkpt lat="38.44857832454895" lon="-0.8458334197160084">
<ele>508</ele>
<time>2014-06-28T10:32:07Z</time>
</trkpt>
<trkpt lat="38.44857151589218" lon="-0.845806436276817">
<ele>508</ele>
<time>2014-06-28T10:32:08Z</time>
</trkpt>
<trkpt lat="38.44856470723543" lon="-0.8457794528376256">
<ele>508</ele>
<time>2014-06-28T10:32:09Z</time>
</trkpt>
<trkpt lat="38.44855789857866" lon="-0.8457524693984341">
<ele>508</ele>
<time>2014-06-28T10:32:10Z</time>
</trkpt>
<trkpt lat="38.44855108992191" lon="-0.8457254859592427">
<ele>508</ele>
<time>2014-06-28T10:32:11Z</time>
</trkpt>
<trkpt lat="38.44854428126515" lon="-0.8456985025200513">
<ele>508</ele>
<time>2014-06-28T10:32:12Z</time>
</trkpt>
<trkpt lat="38.448537472608386" lon="-0.8456715190808598">
<ele>508</ele>
<time>2014-06-28T10:32:13Z</time>
</trkpt>
<trkpt lat="38.44853066395163" lon="-0.8456445356416684">
<ele>508</ele>
<time>2014-06-28T10:32:14Z</time>
</trkpt>
<trkpt lat="38.44848300335431" lon="-0.8454556515673284">
<ele>508</ele>
<time>2014-06-28T10:32:21Z</time>
</trkpt>
<trkpt lat="38.44847619469755" lon="-0.845428668128137">
<ele>508</ele>
<time>2014-06-28T10:32:22Z</time>
</trkpt>
<trkpt lat="38.44846938604079" lon="-0.8454016846889455">
<ele>508</ele>
<time>2014-06-28T10:32:23Z</time>
</trkpt>
<trkpt lat="38.44812838724285" lon="-0.8452429248309595">
<ele>508</ele>
<time>2014-06-28T10:32:52Z</time>
</trkpt>
<trkpt lat="38.44812838724285" lon="-0.8452429248309595">
<ele>508</ele>
<time>2014-06-28T10:32:53Z</time>
</trkpt>
<trkpt lat="38.44812838724285" lon="-0.8452429248309595">
<ele>508</ele>
<time>2014-06-28T10:32:54Z</time>
</trkpt>
<trkpt lat="38.44812838724285" lon="-0.8452429248309595">
<ele>508</ele>
<time>2014-06-28T10:32:55Z</time>
</trkpt>
<trkpt lat="38.44812838724285" lon="-0.8452429248309595">
<ele>508</ele>
<time>2014-06-28T10:32:56Z</time>
</trkpt>
<trkpt lat="38.44864034431262" lon="-0.8458268515084317">
<ele>508</ele>
<time>2014-06-28T10:33:03Z</time>
</trkpt>
<trkpt lat="38.44852135963345" lon="-0.8452278037603248">
<ele>508</ele>
<time>2014-06-28T10:33:04Z</time>
</trkpt>
<trkpt lat="38.44846870011777" lon="-0.8450454853328753">
<ele>508</ele>
<time>2014-06-28T10:33:05Z</time>
</trkpt>
<trkpt lat="38.44846870011777" lon="-0.8450454853328753">
<ele>508</ele>
<time>2014-06-28T10:33:06Z</time>
</trkpt>
<trkpt lat="38.44846870011777" lon="-0.8450454853328753">
<ele>508</ele>
<time>2014-06-28T10:33:07Z</time>
</trkpt>
<trkpt lat="38.44837106133454" lon="-0.8450114187171451">
<ele>508</ele>
<time>2014-06-28T10:33:08Z</time>
</trkpt>
<trkpt lat="38.44837106133454" lon="-0.8450114187171451">
<ele>508</ele>
<time>2014-06-28T10:33:09Z</time>
</trkpt>
<trkpt lat="38.44837106133454" lon="-0.8450114187171451">
<ele>508</ele>
<time>2014-06-28T10:33:10Z</time>
</trkpt>
<trkpt lat="38.44837106133454" lon="-0.8450114187171451">
<ele>508</ele>
<time>2014-06-28T10:33:11Z</time>
</trkpt>
<trkpt lat="38.44837106133454" lon="-0.8450114187171451">
<ele>508</ele>
<time>2014-06-28T10:33:12Z</time>
</trkpt>
<trkpt lat="38.44827264375941" lon="-0.8449446552820964">
<ele>508</ele>
<time>2014-06-28T10:33:13Z</time>
</trkpt>
<trkpt lat="38.44827264375941" lon="-0.8449446552820964">
<ele>508</ele>
<time>2014-06-28T10:33:14Z</time>
</trkpt>
<trkpt lat="38.44821928031826" lon="-0.8449105518167594">
<ele>508</ele>
<time>2014-06-28T10:33:15Z</time>
</trkpt>
<trkpt lat="38.44818944053057" lon="-0.8448959056901">
<ele>507</ele>
<time>2014-06-28T10:33:16Z</time>
</trkpt>
<trkpt lat="38.44818944053057" lon="-0.8448959056901">
<ele>507</ele>
<time>2014-06-28T10:33:17Z</time>
</trkpt>
<trkpt lat="38.44818944053057" lon="-0.8448959056901">
<ele>507</ele>
<time>2014-06-28T10:33:18Z</time>
</trkpt>
<trkpt lat="38.44818944053057" lon="-0.8448959056901">
<ele>507</ele>
<time>2014-06-28T10:33:19Z</time>
</trkpt>
<trkpt lat="38.44818944053057" lon="-0.8448959056901">
<ele>507</ele>
<time>2014-06-28T10:33:20Z</time>
</trkpt>
<trkpt lat="38.4481000841815" lon="-0.8448537820611425">
<ele>507</ele>
<time>2014-06-28T10:33:21Z</time>
</trkpt>
<trkpt lat="38.4481000841815" lon="-0.8448537820611425">
<ele>507</ele>
<time>2014-06-28T10:33:22Z</time>
</trkpt>
<trkpt lat="38.4481000841815" lon="-0.8448537820611425">
<ele>507</ele>
<time>2014-06-28T10:33:23Z</time>
</trkpt>
<trkpt lat="38.4481000841815" lon="-0.8448537820611425">
<ele>507</ele>
<time>2014-06-28T10:33:24Z</time>
</trkpt>
<trkpt lat="38.4481000841815" lon="-0.8448537820611425">
<ele>507</ele>
<time>2014-06-28T10:33:25Z</time>
</trkpt>
<trkpt lat="38.4481000841815" lon="-0.8448537820611425">
<ele>507</ele>
<time>2014-06-28T10:33:26Z</time>
</trkpt>
<trkpt lat="38.4481000841815" lon="-0.8448537820611425">
<ele>507</ele>
<time>2014-06-28T10:33:27Z</time>
</trkpt>
<trkpt lat="38.4481000841815" lon="-0.8448537820611425">
<ele>507</ele>
<time>2014-06-28T10:33:28Z</time>
</trkpt>
<trkpt lat="38.448007202295955" lon="-0.8448313869201939">
<ele>505</ele>
<time>2014-06-28T10:33:29Z</time>
</trkpt>
<trkpt lat="38.448007202295955" lon="-0.8448313869201939">
<ele>505</ele>
<time>2014-06-28T10:33:30Z</time>
</trkpt>
<trkpt lat="38.448007202295955" lon="-0.8448313869201939">
<ele>505</ele>
<time>2014-06-28T10:33:31Z</time>
</trkpt>
<trkpt lat="38.448007202295955" lon="-0.8448313869201939">
<ele>505</ele>
<time>2014-06-28T10:33:32Z</time>
</trkpt>
<trkpt lat="38.448007202295955" lon="-0.8448313869201939">
<ele>505</ele>
<time>2014-06-28T10:33:33Z</time>
</trkpt>
<trkpt lat="38.448007202295955" lon="-0.8448313869201939">
<ele>505</ele>
<time>2014-06-28T10:33:34Z</time>
</trkpt>
<trkpt lat="38.448007202295955" lon="-0.8448313869201939">
<ele>505</ele>
<time>2014-06-28T10:33:35Z</time>
</trkpt>
<trkpt lat="38.44791662944724" lon="-0.8448466198694001">
<ele>504</ele>
<time>2014-06-28T10:33:36Z</time>
</trkpt>
<trkpt lat="38.44791662944724" lon="-0.8448466198694001">
<ele>504</ele>
<time>2014-06-28T10:33:37Z</time>
</trkpt>
<trkpt lat="38.44791662944724" lon="-0.8448466198694001">
<ele>504</ele>
<time>2014-06-28T10:33:38Z</time>
</trkpt>
<trkpt lat="38.44791662944724" lon="-0.8448466198694001">
<ele>504</ele>
<time>2014-06-28T10:33:39Z</time>
</trkpt>
<trkpt lat="38.44791662944724" lon="-0.8448466198694001">
<ele>504</ele>
<time>2014-06-28T10:33:40Z</time>
</trkpt>
<trkpt lat="38.447822943625766" lon="-0.8448164975298138">
<ele>503</ele>
<time>2014-06-28T10:33:41Z</time>
</trkpt>
<trkpt lat="38.447822943625766" lon="-0.8448164975298138">
<ele>503</ele>
<time>2014-06-28T10:33:42Z</time>
</trkpt>
<trkpt lat="38.447822943625766" lon="-0.8448164975298138">
<ele>503</ele>
<time>2014-06-28T10:33:43Z</time>
</trkpt>
<trkpt lat="38.447822943625766" lon="-0.8448164975298138">
<ele>503</ele>
<time>2014-06-28T10:33:44Z</time>
</trkpt>
<trkpt lat="38.447822943625766" lon="-0.8448164975298138">
<ele>503</ele>
<time>2014-06-28T10:33:45Z</time>
</trkpt>
<trkpt lat="38.447822943625766" lon="-0.8448164975298138">
<ele>503</ele>
<time>2014-06-28T10:33:46Z</time>
</trkpt>
<trkpt lat="38.447822943625766" lon="-0.8448164975298138">
<ele>503</ele>
<time>2014-06-28T10:33:47Z</time>
</trkpt>
<trkpt lat="38.44775389311056" lon="-0.84493610943624">
<ele>502</ele>
<time>2014-06-28T10:33:48Z</time>
</trkpt>
<trkpt lat="38.44775389311056" lon="-0.84493610943624">
<ele>502</ele>
<time>2014-06-28T10:33:49Z</time>
</trkpt>
<trkpt lat="38.44775389311056" lon="-0.84493610943624">
<ele>502</ele>
<time>2014-06-28T10:33:50Z</time>
</trkpt>
<trkpt lat="38.44775389311056" lon="-0.84493610943624">
<ele>502</ele>
<time>2014-06-28T10:33:51Z</time>
</trkpt>
<trkpt lat="38.44775389311056" lon="-0.84493610943624">
<ele>502</ele>
<time>2014-06-28T10:33:52Z</time>
</trkpt>
<trkpt lat="38.44775389311056" lon="-0.84493610943624">
<ele>502</ele>
<time>2014-06-28T10:33:53Z</time>
</trkpt>
<trkpt lat="38.44770869157216" lon="-0.8450432057001974">
<ele>500</ele>
<time>2014-06-28T10:33:54Z</time>
</trkpt>
<trkpt lat="38.44770869157216" lon="-0.8450432057001974">
<ele>500</ele>
<time>2014-06-28T10:33:55Z</time>
</trkpt>
<trkpt lat="38.44770869157216" lon="-0.8450432057001974">
<ele>500</ele>
<time>2014-06-28T10:33:56Z</time>
</trkpt>
<trkpt lat="38.44770869157216" lon="-0.8450432057001974">
<ele>500</ele>
<time>2014-06-28T10:33:57Z</time>
</trkpt>
<trkpt lat="38.44770869157216" lon="-0.8450432057001974">
<ele>500</ele>
<time>2014-06-28T10:33:58Z</time>
</trkpt>
<trkpt lat="38.44770869157216" lon="-0.8450432057001974">
<ele>500</ele>
<time>2014-06-28T10:33:59Z</time>
</trkpt>
<trkpt lat="38.44761973002006" lon="-0.8450825585175431">
<ele>499</ele>
<time>2014-06-28T10:34:00Z</time>
</trkpt>
<trkpt lat="38.44761973002006" lon="-0.8450825585175431">
<ele>499</ele>
<time>2014-06-28T10:34:01Z</time>
</trkpt>
<trkpt lat="38.44761973002006" lon="-0.8450825585175431">
<ele>499</ele>
<time>2014-06-28T10:34:02Z</time>
</trkpt>
<trkpt lat="38.44761973002006" lon="-0.8450825585175431">
<ele>499</ele>
<time>2014-06-28T10:34:03Z</time>
</trkpt>
<trkpt lat="38.44761973002006" lon="-0.8450825585175431">
<ele>499</ele>
<time>2014-06-28T10:34:04Z</time>
</trkpt>
<trkpt lat="38.44761973002006" lon="-0.8450825585175431">
<ele>499</ele>
<time>2014-06-28T10:34:05Z</time>
</trkpt>
<trkpt lat="38.44752344460907" lon="-0.8451020724700916">
<ele>499</ele>
<time>2014-06-28T10:34:06Z</time>
</trkpt>
<trkpt lat="38.44752344460907" lon="-0.8451020724700916">
<ele>499</ele>
<time>2014-06-28T10:34:07Z</time>
</trkpt>
<trkpt lat="38.44752344460907" lon="-0.8451020724700916">
<ele>499</ele>
<time>2014-06-28T10:34:08Z</time>
</trkpt>
<trkpt lat="38.44752344460907" lon="-0.8451020724700916">
<ele>499</ele>
<time>2014-06-28T10:34:09Z</time>
</trkpt>
<trkpt lat="38.44752344460907" lon="-0.8451020724700916">
<ele>499</ele>
<time>2014-06-28T10:34:10Z</time>
</trkpt>
<trkpt lat="38.44743535629507" lon="-0.8450546698597758">
<ele>498</ele>
<time>2014-06-28T10:34:11Z</time>
</trkpt>
<trkpt lat="38.44743535629507" lon="-0.8450546698597758">
<ele>498</ele>
<time>2014-06-28T10:34:12Z</time>
</trkpt>
<trkpt lat="38.44743535629507" lon="-0.8450546698597758">
<ele>498</ele>
<time>2014-06-28T10:34:13Z</time>
</trkpt>
<trkpt lat="38.44743535629507" lon="-0.8450546698597758">
<ele>498</ele>
<time>2014-06-28T10:34:14Z</time>
</trkpt>
<trkpt lat="38.44743535629507" lon="-0.8450546698597758">
<ele>498</ele>
<time>2014-06-28T10:34:15Z</time>
</trkpt>
<trkpt lat="38.4473495037889" lon="-0.8449969011812996">
<ele>498</ele>
<time>2014-06-28T10:34:16Z</time>
</trkpt>
<trkpt lat="38.4473495037889" lon="-0.8449969011812996">
<ele>498</ele>
<time>2014-06-28T10:34:17Z</time>
</trkpt>
<trkpt lat="38.4473495037889" lon="-0.8449969011812996">
<ele>498</ele>
<time>2014-06-28T10:34:18Z</time>
</trkpt>
<trkpt lat="38.4473495037889" lon="-0.8449969011812996">
<ele>498</ele>
<time>2014-06-28T10:34:19Z</time>
</trkpt>
<trkpt lat="38.4473495037889" lon="-0.8449969011812996">
<ele>498</ele>
<time>2014-06-28T10:34:20Z</time>
</trkpt>
<trkpt lat="38.4473495037889" lon="-0.8449969011812996">
<ele>498</ele>
<time>2014-06-28T10:34:21Z</time>
</trkpt>
<trkpt lat="38.4473495037889" lon="-0.8449969011812996">
<ele>498</ele>
<time>2014-06-28T10:34:22Z</time>
</trkpt>
<trkpt lat="38.4473495037889" lon="-0.8449969011812996">
<ele>498</ele>
<time>2014-06-28T10:34:23Z</time>
</trkpt>
<trkpt lat="38.44725851077178" lon="-0.8449713296014486">
<ele>498</ele>
<time>2014-06-28T10:34:24Z</time>
</trkpt>
<trkpt lat="38.44725851077178" lon="-0.8449713296014486">
<ele>498</ele>
<time>2014-06-28T10:34:25Z</time>
</trkpt>
<trkpt lat="38.44725851077178" lon="-0.8449713296014486">
<ele>498</ele>
<time>2014-06-28T10:34:26Z</time>
</trkpt>
<trkpt lat="38.44725851077178" lon="-0.8449713296014486">
<ele>498</ele>
<time>2014-06-28T10:34:27Z</time>
</trkpt>
<trkpt lat="38.44725851077178" lon="-0.8449713296014486">
<ele>498</ele>
<time>2014-06-28T10:34:28Z</time>
</trkpt>
<trkpt lat="38.44716754075238" lon="-0.8448983174027683">
<ele>497</ele>
<time>2014-06-28T10:34:29Z</time>
</trkpt>
<trkpt lat="38.44716754075238" lon="-0.8448983174027683">
<ele>497</ele>
<time>2014-06-28T10:34:30Z</time>
</trkpt>
<trkpt lat="38.44716754075238" lon="-0.8448983174027683">
<ele>497</ele>
<time>2014-06-28T10:34:31Z</time>
</trkpt>
<trkpt lat="38.44716754075238" lon="-0.8448983174027683">
<ele>497</ele>
<time>2014-06-28T10:34:32Z</time>
</trkpt>
<trkpt lat="38.44716754075238" lon="-0.8448983174027683">
<ele>497</ele>
<time>2014-06-28T10:34:33Z</time>
</trkpt>
<trkpt lat="38.447088843038806" lon="-0.8448359691637433">
<ele>497</ele>
<time>2014-06-28T10:34:34Z</time>
</trkpt>
<trkpt lat="38.447088843038806" lon="-0.8448359691637433">
<ele>497</ele>
<time>2014-06-28T10:34:35Z</time>
</trkpt>
<trkpt lat="38.447088843038806" lon="-0.8448359691637433">
<ele>497</ele>
<time>2014-06-28T10:34:36Z</time>
</trkpt>
<trkpt lat="38.447088843038806" lon="-0.8448359691637433">
<ele>497</ele>
<time>2014-06-28T10:34:37Z</time>
</trkpt>
<trkpt lat="38.447088843038806" lon="-0.8448359691637433">
<ele>497</ele>
<time>2014-06-28T10:34:38Z</time>
</trkpt>
<trkpt lat="38.447088843038806" lon="-0.8448359691637433">
<ele>497</ele>
<time>2014-06-28T10:34:39Z</time>
</trkpt>
<trkpt lat="38.447007812234126" lon="-0.8447519085836461">
<ele>496</ele>
<time>2014-06-28T10:34:40Z</time>
</trkpt>
<trkpt lat="38.447007812234126" lon="-0.8447519085836461">
<ele>496</ele>
<time>2014-06-28T10:34:41Z</time>
</trkpt>
<trkpt lat="38.447007812234126" lon="-0.8447519085836461">
<ele>496</ele>
<time>2014-06-28T10:34:42Z</time>
</trkpt>
<trkpt lat="38.447007812234126" lon="-0.8447519085836461">
<ele>496</ele>
<time>2014-06-28T10:34:43Z</time>
</trkpt>
<trkpt lat="38.447007812234126" lon="-0.8447519085836461">
<ele>496</ele>
<time>2014-06-28T10:34:44Z</time>
</trkpt>
<trkpt lat="38.447007812234126" lon="-0.8447519085836461">
<ele>496</ele>
<time>2014-06-28T10:34:45Z</time>
</trkpt>
<trkpt lat="38.447007812234126" lon="-0.8447519085836461">
<ele>496</ele>
<time>2014-06-28T10:34:46Z</time>
</trkpt>
<trkpt lat="38.44695022781472" lon="-0.8446542070231164">
<ele>496</ele>
<time>2014-06-28T10:34:47Z</time>
</trkpt>
<trkpt lat="38.44695022781472" lon="-0.8446542070231164">
<ele>496</ele>
<time>2014-06-28T10:34:48Z</time>
</trkpt>
<trkpt lat="38.44695022781472" lon="-0.8446542070231164">
<ele>496</ele>
<time>2014-06-28T10:34:49Z</time>
</trkpt>
<trkpt lat="38.44695022781472" lon="-0.8446542070231164">
<ele>496</ele>
<time>2014-06-28T10:34:50Z</time>
</trkpt>
<trkpt lat="38.44695022781472" lon="-0.8446542070231164">
<ele>496</ele>
<time>2014-06-28T10:34:51Z</time>
</trkpt>
<trkpt lat="38.44695022781472" lon="-0.8446542070231164">
<ele>496</ele>
<time>2014-06-28T10:34:52Z</time>
</trkpt>
<trkpt lat="38.44695022781472" lon="-0.8446542070231164">
<ele>496</ele>
<time>2014-06-28T10:34:53Z</time>
</trkpt>
<trkpt lat="38.446876070473195" lon="-0.8445634051825942">
<ele>495</ele>
<time>2014-06-28T10:34:54Z</time>
</trkpt>
<trkpt lat="38.446876070473195" lon="-0.8445634051825942">
<ele>495</ele>
<time>2014-06-28T10:34:55Z</time>
</trkpt>
<trkpt lat="38.446876070473195" lon="-0.8445634051825942">
<ele>495</ele>
<time>2014-06-28T10:34:56Z</time>
</trkpt>
<trkpt lat="38.446876070473195" lon="-0.8445634051825942">
<ele>495</ele>
<time>2014-06-28T10:34:57Z</time>
</trkpt>
<trkpt lat="38.446876070473195" lon="-0.8445634051825942">
<ele>495</ele>
<time>2014-06-28T10:34:58Z</time>
</trkpt>
<trkpt lat="38.446876070473195" lon="-0.8445634051825942">
<ele>495</ele>
<time>2014-06-28T10:34:59Z</time>
</trkpt>
<trkpt lat="38.44678937018294" lon="-0.8445098499038369">
<ele>495</ele>
<time>2014-06-28T10:35:00Z</time>
</trkpt>
<trkpt lat="38.44678937018294" lon="-0.8445098499038369">
<ele>495</ele>
<time>2014-06-28T10:35:01Z</time>
</trkpt>
<trkpt lat="38.44678937018294" lon="-0.8445098499038369">
<ele>495</ele>
<time>2014-06-28T10:35:02Z</time>
</trkpt>
<trkpt lat="38.44678937018294" lon="-0.8445098499038369">
<ele>495</ele>
<time>2014-06-28T10:35:03Z</time>
</trkpt>
<trkpt lat="38.44678937018294" lon="-0.8445098499038369">
<ele>495</ele>
<time>2014-06-28T10:35:04Z</time>
</trkpt>
<trkpt lat="38.44678937018294" lon="-0.8445098499038369">
<ele>495</ele>
<time>2014-06-28T10:35:05Z</time>
</trkpt>
<trkpt lat="38.44678937018294" lon="-0.8445098499038369">
<ele>495</ele>
<time>2014-06-28T10:35:06Z</time>
</trkpt>
<trkpt lat="38.446710096950916" lon="-0.8444535212672876">
<ele>494</ele>
<time>2014-06-28T10:35:07Z</time>
</trkpt>
<trkpt lat="38.446710096950916" lon="-0.8444535212672876">
<ele>494</ele>
<time>2014-06-28T10:35:08Z</time>
</trkpt>
<trkpt lat="38.446710096950916" lon="-0.8444535212672876">
<ele>494</ele>
<time>2014-06-28T10:35:09Z</time>
</trkpt>
<trkpt lat="38.446710096950916" lon="-0.8444535212672876">
<ele>494</ele>
<time>2014-06-28T10:35:10Z</time>
</trkpt>
<trkpt lat="38.446710096950916" lon="-0.8444535212672876">
<ele>494</ele>
<time>2014-06-28T10:35:11Z</time>
</trkpt>
<trkpt lat="38.446710096950916" lon="-0.8444535212672876">
<ele>494</ele>
<time>2014-06-28T10:35:12Z</time>
</trkpt>
<trkpt lat="38.44663256479239" lon="-0.8443907105103324">
<ele>494</ele>
<time>2014-06-28T10:35:13Z</time>
</trkpt>
<trkpt lat="38.44663256479239" lon="-0.8443907105103324">
<ele>494</ele>
<time>2014-06-28T10:35:14Z</time>
</trkpt>
<trkpt lat="38.44663256479239" lon="-0.8443907105103324">
<ele>494</ele>
<time>2014-06-28T10:35:15Z</time>
</trkpt>
<trkpt lat="38.44663256479239" lon="-0.8443907105103324">
<ele>494</ele>
<time>2014-06-28T10:35:16Z</time>
</trkpt>
<trkpt lat="38.44663256479239" lon="-0.8443907105103324">
<ele>494</ele>
<time>2014-06-28T10:35:17Z</time>
</trkpt>
<trkpt lat="38.44663256479239" lon="-0.8443907105103324">
<ele>494</ele>
<time>2014-06-28T10:35:18Z</time>
</trkpt>
<trkpt lat="38.44663256479239" lon="-0.8443907105103324">
<ele>494</ele>
<time>2014-06-28T10:35:19Z</time>
</trkpt>
<trkpt lat="38.44654031227058" lon="-0.844367792826925">
<ele>493</ele>
<time>2014-06-28T10:35:20Z</time>
</trkpt>
<trkpt lat="38.44652749888022" lon="-0.8443645848579276">
<ele>492</ele>
<time>2014-06-28T10:35:21Z</time>
</trkpt>
<trkpt lat="38.44652749888022" lon="-0.8443645848579276">
<ele>492</ele>
<time>2014-06-28T10:35:22Z</time>
</trkpt>
<trkpt lat="38.44652749888022" lon="-0.8443645848579276">
<ele>492</ele>
<time>2014-06-28T10:35:23Z</time>
</trkpt>
<trkpt lat="38.44652749888022" lon="-0.8443645848579276">
<ele>492</ele>
<time>2014-06-28T10:35:24Z</time>
</trkpt>
<trkpt lat="38.44652749888022" lon="-0.8443645848579276">
<ele>492</ele>
<time>2014-06-28T10:35:25Z</time>
</trkpt>
<trkpt lat="38.44652749888022" lon="-0.8443645848579276">
<ele>492</ele>
<time>2014-06-28T10:35:26Z</time>
</trkpt>
<trkpt lat="38.44652749888022" lon="-0.8443645848579276">
<ele>492</ele>
<time>2014-06-28T10:35:27Z</time>
</trkpt>
<trkpt lat="38.44652749888022" lon="-0.8443645848579276">
<ele>492</ele>
<time>2014-06-28T10:35:28Z</time>
</trkpt>
<trkpt lat="38.446430642196944" lon="-0.844337654885275">
<ele>491</ele>
<time>2014-06-28T10:35:29Z</time>
</trkpt>
<trkpt lat="38.446430642196944" lon="-0.844337654885275">
<ele>491</ele>
<time>2014-06-28T10:35:30Z</time>
</trkpt>
<trkpt lat="38.446430642196944" lon="-0.844337654885275">
<ele>491</ele>
<time>2014-06-28T10:35:31Z</time>
</trkpt>
<trkpt lat="38.446430642196944" lon="-0.844337654885275">
<ele>491</ele>
<time>2014-06-28T10:35:32Z</time>
</trkpt>
<trkpt lat="38.446430642196944" lon="-0.844337654885275">
<ele>491</ele>
<time>2014-06-28T10:35:33Z</time>
</trkpt>
<trkpt lat="38.446430642196944" lon="-0.844337654885275">
<ele>491</ele>
<time>2014-06-28T10:35:34Z</time>
</trkpt>
<trkpt lat="38.446430642196944" lon="-0.844337654885275">
<ele>491</ele>
<time>2014-06-28T10:35:35Z</time>
</trkpt>
<trkpt lat="38.44632988100381" lon="-0.8443363029535416">
<ele>491</ele>
<time>2014-06-28T10:35:36Z</time>
</trkpt>
<trkpt lat="38.44632988100381" lon="-0.8443363029535416">
<ele>491</ele>
<time>2014-06-28T10:35:37Z</time>
</trkpt>
<trkpt lat="38.44632988100381" lon="-0.8443363029535416">
<ele>491</ele>
<time>2014-06-28T10:35:38Z</time>
</trkpt>
<trkpt lat="38.44632988100381" lon="-0.8443363029535416">
<ele>491</ele>
<time>2014-06-28T10:35:39Z</time>
</trkpt>
<trkpt lat="38.44632988100381" lon="-0.8443363029535416">
<ele>491</ele>
<time>2014-06-28T10:35:40Z</time>
</trkpt>
<trkpt lat="38.44632988100381" lon="-0.8443363029535416">
<ele>491</ele>
<time>2014-06-28T10:35:41Z</time>
</trkpt>
<trkpt lat="38.44623860086437" lon="-0.8443429951716476">
<ele>490</ele>
<time>2014-06-28T10:35:42Z</time>
</trkpt>
<trkpt lat="38.44623860086437" lon="-0.8443429951716476">
<ele>490</ele>
<time>2014-06-28T10:35:43Z</time>
</trkpt>
<trkpt lat="38.44623860086437" lon="-0.8443429951716476">
<ele>490</ele>
<time>2014-06-28T10:35:44Z</time>
</trkpt>
<trkpt lat="38.44623860086437" lon="-0.8443429951716476">
<ele>490</ele>
<time>2014-06-28T10:35:45Z</time>
</trkpt>
<trkpt lat="38.44623860086437" lon="-0.8443429951716476">
<ele>490</ele>
<time>2014-06-28T10:35:46Z</time>
</trkpt>
<trkpt lat="38.44623860086437" lon="-0.8443429951716476">
<ele>490</ele>
<time>2014-06-28T10:35:47Z</time>
</trkpt>
<trkpt lat="38.446131619973386" lon="-0.8443547207258874">
<ele>489</ele>
<time>2014-06-28T10:35:48Z</time>
</trkpt>
<trkpt lat="38.446131619973386" lon="-0.8443547207258874">
<ele>489</ele>
<time>2014-06-28T10:35:49Z</time>
</trkpt>
<trkpt lat="38.446131619973386" lon="-0.8443547207258874">
<ele>489</ele>
<time>2014-06-28T10:35:50Z</time>
</trkpt>
<trkpt lat="38.446131619973386" lon="-0.8443547207258874">
<ele>489</ele>
<time>2014-06-28T10:35:51Z</time>
</trkpt>
<trkpt lat="38.446131619973386" lon="-0.8443547207258874">
<ele>489</ele>
<time>2014-06-28T10:35:52Z</time>
</trkpt>
<trkpt lat="38.446131619973386" lon="-0.8443547207258874">
<ele>489</ele>
<time>2014-06-28T10:35:53Z</time>
</trkpt>
<trkpt lat="38.44603367861249" lon="-0.8443665023342803">
<ele>489</ele>
<time>2014-06-28T10:35:54Z</time>
</trkpt>
<trkpt lat="38.44603367861249" lon="-0.8443665023342803">
<ele>489</ele>
<time>2014-06-28T10:35:55Z</time>
</trkpt>
<trkpt lat="38.44603367861249" lon="-0.8443665023342803">
<ele>489</ele>
<time>2014-06-28T10:35:56Z</time>
</trkpt>
<trkpt lat="38.44603367861249" lon="-0.8443665023342803">
<ele>489</ele>
<time>2014-06-28T10:35:57Z</time>
</trkpt>
<trkpt lat="38.44603367861249" lon="-0.8443665023342803">
<ele>489</ele>
<time>2014-06-28T10:35:58Z</time>
</trkpt>
<trkpt lat="38.44603367861249" lon="-0.8443665023342803">
<ele>489</ele>
<time>2014-06-28T10:35:59Z</time>
</trkpt>
<trkpt lat="38.44603367861249" lon="-0.8443665023342803">
<ele>489</ele>
<time>2014-06-28T10:36:00Z</time>
</trkpt>
<trkpt lat="38.44593092768649" lon="-0.8443778461473885">
<ele>488</ele>
<time>2014-06-28T10:36:01Z</time>
</trkpt>
<trkpt lat="38.44593092768649" lon="-0.8443778461473885">
<ele>488</ele>
<time>2014-06-28T10:36:02Z</time>
</trkpt>
<trkpt lat="38.44593092768649" lon="-0.8443778461473885">
<ele>488</ele>
<time>2014-06-28T10:36:03Z</time>
</trkpt>
<trkpt lat="38.44593092768649" lon="-0.8443778461473885">
<ele>488</ele>
<time>2014-06-28T10:36:04Z</time>
</trkpt>
<trkpt lat="38.44593092768649" lon="-0.8443778461473885">
<ele>488</ele>
<time>2014-06-28T10:36:05Z</time>
</trkpt>
<trkpt lat="38.44593092768649" lon="-0.8443778461473885">
<ele>488</ele>
<time>2014-06-28T10:36:06Z</time>
</trkpt>
<trkpt lat="38.44583380475033" lon="-0.8443767539097031">
<ele>488</ele>
<time>2014-06-28T10:36:07Z</time>
</trkpt>
<trkpt lat="38.44583380475033" lon="-0.8443767539097031">
<ele>488</ele>
<time>2014-06-28T10:36:08Z</time>
</trkpt>
<trkpt lat="38.44583380475033" lon="-0.8443767539097031">
<ele>488</ele>
<time>2014-06-28T10:36:09Z</time>
</trkpt>
<trkpt lat="38.44583380475033" lon="-0.8443767539097031">
<ele>488</ele>
<time>2014-06-28T10:36:10Z</time>
</trkpt>
<trkpt lat="38.445731926684154" lon="-0.844357387101092">
<ele>488</ele>
<time>2014-06-28T10:36:11Z</time>
</trkpt>
<trkpt lat="38.445731926684154" lon="-0.844357387101092">
<ele>488</ele>
<time>2014-06-28T10:36:12Z</time>
</trkpt>
<trkpt lat="38.445731926684154" lon="-0.844357387101092">
<ele>488</ele>
<time>2014-06-28T10:36:13Z</time>
</trkpt>
<trkpt lat="38.445731926684154" lon="-0.844357387101092">
<ele>488</ele>
<time>2014-06-28T10:36:14Z</time>
</trkpt>
<trkpt lat="38.445731926684154" lon="-0.844357387101092">
<ele>488</ele>
<time>2014-06-28T10:36:15Z</time>
</trkpt>
<trkpt lat="38.4456296800923" lon="-0.8444047843387517">
<ele>487</ele>
<time>2014-06-28T10:36:16Z</time>
</trkpt>
<trkpt lat="38.4456296800923" lon="-0.8444047843387517">
<ele>487</ele>
<time>2014-06-28T10:36:17Z</time>
</trkpt>
<trkpt lat="38.4456296800923" lon="-0.8444047843387517">
<ele>487</ele>
<time>2014-06-28T10:36:18Z</time>
</trkpt>
<trkpt lat="38.4456296800923" lon="-0.8444047843387517">
<ele>487</ele>
<time>2014-06-28T10:36:19Z</time>
</trkpt>
<trkpt lat="38.4456296800923" lon="-0.8444047843387517">
<ele>487</ele>
<time>2014-06-28T10:36:20Z</time>
</trkpt>
<trkpt lat="38.4456296800923" lon="-0.8444047843387517">
<ele>487</ele>
<time>2014-06-28T10:36:21Z</time>
</trkpt>
<trkpt lat="38.4456296800923" lon="-0.8444047843387517">
<ele>487</ele>
<time>2014-06-28T10:36:22Z</time>
</trkpt>
<trkpt lat="38.4456296800923" lon="-0.8444047843387517">
<ele>487</ele>
<time>2014-06-28T10:36:23Z</time>
</trkpt>
<trkpt lat="38.44554169855784" lon="-0.8444453677576046">
<ele>486</ele>
<time>2014-06-28T10:36:24Z</time>
</trkpt>
<trkpt lat="38.44554169855784" lon="-0.8444453677576046">
<ele>486</ele>
<time>2014-06-28T10:36:25Z</time>
</trkpt>
<trkpt lat="38.44554169855784" lon="-0.8444453677576046">
<ele>486</ele>
<time>2014-06-28T10:36:26Z</time>
</trkpt>
<trkpt lat="38.44554169855784" lon="-0.8444453677576046">
<ele>486</ele>
<time>2014-06-28T10:36:27Z</time>
</trkpt>
<trkpt lat="38.44554169855784" lon="-0.8444453677576046">
<ele>486</ele>
<time>2014-06-28T10:36:28Z</time>
</trkpt>
<trkpt lat="38.44554169855784" lon="-0.8444453677576046">
<ele>486</ele>
<time>2014-06-28T10:36:29Z</time>
</trkpt>
<trkpt lat="38.44554169855784" lon="-0.8444453677576046">
<ele>486</ele>
<time>2014-06-28T10:36:30Z</time>
</trkpt>
<trkpt lat="38.44554169855784" lon="-0.8444453677576046">
<ele>486</ele>
<time>2014-06-28T10:36:31Z</time>
</trkpt>
<trkpt lat="38.44554169855784" lon="-0.8444453677576046">
<ele>486</ele>
<time>2014-06-28T10:36:32Z</time>
</trkpt>
<trkpt lat="38.44545326298368" lon="-0.8444697390536039">
<ele>485</ele>
<time>2014-06-28T10:36:33Z</time>
</trkpt>
<trkpt lat="38.44545326298368" lon="-0.8444697390536039">
<ele>485</ele>
<time>2014-06-28T10:36:34Z</time>
</trkpt>
<trkpt lat="38.44545326298368" lon="-0.8444697390536039">
<ele>485</ele>
<time>2014-06-28T10:36:35Z</time>
</trkpt>
<trkpt lat="38.44545326298368" lon="-0.8444697390536039">
<ele>485</ele>
<time>2014-06-28T10:36:36Z</time>
</trkpt>
<trkpt lat="38.44545326298368" lon="-0.8444697390536039">
<ele>485</ele>
<time>2014-06-28T10:36:37Z</time>
</trkpt>
<trkpt lat="38.44545326298368" lon="-0.8444697390536039">
<ele>485</ele>
<time>2014-06-28T10:36:38Z</time>
</trkpt>
<trkpt lat="38.44545326298368" lon="-0.8444697390536039">
<ele>485</ele>
<time>2014-06-28T10:36:39Z</time>
</trkpt>
<trkpt lat="38.44545326298368" lon="-0.8444697390536039">
<ele>485</ele>
<time>2014-06-28T10:36:40Z</time>
</trkpt>
<trkpt lat="38.4453678117197" lon="-0.8445081919308627">
<ele>485</ele>
<time>2014-06-28T10:36:41Z</time>
</trkpt>
<trkpt lat="38.4453678117197" lon="-0.8445081919308627">
<ele>485</ele>
<time>2014-06-28T10:36:42Z</time>
</trkpt>
<trkpt lat="38.4453678117197" lon="-0.8445081919308627">
<ele>485</ele>
<time>2014-06-28T10:36:43Z</time>
</trkpt>
<trkpt lat="38.4453678117197" lon="-0.8445081919308627">
<ele>485</ele>
<time>2014-06-28T10:36:44Z</time>
</trkpt>
<trkpt lat="38.4453678117197" lon="-0.8445081919308627">
<ele>485</ele>
<time>2014-06-28T10:36:45Z</time>
</trkpt>
<trkpt lat="38.4453678117197" lon="-0.8445081919308627">
<ele>485</ele>
<time>2014-06-28T10:36:46Z</time>
</trkpt>
<trkpt lat="38.4453678117197" lon="-0.8445081919308627">
<ele>485</ele>
<time>2014-06-28T10:36:47Z</time>
</trkpt>
<trkpt lat="38.4453678117197" lon="-0.8445081919308627">
<ele>485</ele>
<time>2014-06-28T10:36:48Z</time>
</trkpt>
<trkpt lat="38.4453678117197" lon="-0.8445081919308627">
<ele>485</ele>
<time>2014-06-28T10:36:49Z</time>
</trkpt>
<trkpt lat="38.4453678117197" lon="-0.8445081919308627">
<ele>485</ele>
<time>2014-06-28T10:36:50Z</time>
</trkpt>
<trkpt lat="38.445275634137424" lon="-0.8444795951032148">
<ele>484</ele>
<time>2014-06-28T10:36:51Z</time>
</trkpt>
<trkpt lat="38.445275634137424" lon="-0.8444795951032148">
<ele>484</ele>
<time>2014-06-28T10:36:52Z</time>
</trkpt>
<trkpt lat="38.445275634137424" lon="-0.8444795951032148">
<ele>484</ele>
<time>2014-06-28T10:36:53Z</time>
</trkpt>
<trkpt lat="38.445275634137424" lon="-0.8444795951032148">
<ele>484</ele>
<time>2014-06-28T10:36:54Z</time>
</trkpt>
<trkpt lat="38.445275634137424" lon="-0.8444795951032148">
<ele>484</ele>
<time>2014-06-28T10:36:55Z</time>
</trkpt>
<trkpt lat="38.445275634137424" lon="-0.8444795951032148">
<ele>484</ele>
<time>2014-06-28T10:36:56Z</time>
</trkpt>
<trkpt lat="38.445275634137424" lon="-0.8444795951032148">
<ele>484</ele>
<time>2014-06-28T10:36:57Z</time>
</trkpt>
<trkpt lat="38.445275634137424" lon="-0.8444795951032148">
<ele>484</ele>
<time>2014-06-28T10:36:58Z</time>
</trkpt>
<trkpt lat="38.44518207829933" lon="-0.8444266493695721">
<ele>484</ele>
<time>2014-06-28T10:36:59Z</time>
</trkpt>
<trkpt lat="38.44518207829933" lon="-0.8444266493695721">
<ele>484</ele>
<time>2014-06-28T10:37:00Z</time>
</trkpt>
<trkpt lat="38.44518207829933" lon="-0.8444266493695721">
<ele>484</ele>
<time>2014-06-28T10:37:01Z</time>
</trkpt>
<trkpt lat="38.44518207829933" lon="-0.8444266493695721">
<ele>484</ele>
<time>2014-06-28T10:37:02Z</time>
</trkpt>
<trkpt lat="38.44518207829933" lon="-0.8444266493695721">
<ele>484</ele>
<time>2014-06-28T10:37:03Z</time>
</trkpt>
<trkpt lat="38.44518207829933" lon="-0.8444266493695721">
<ele>484</ele>
<time>2014-06-28T10:37:04Z</time>
</trkpt>
<trkpt lat="38.44518207829933" lon="-0.8444266493695721">
<ele>484</ele>
<time>2014-06-28T10:37:05Z</time>
</trkpt>
<trkpt lat="38.445083248324735" lon="-0.8444612550936238">
<ele>484</ele>
<time>2014-06-28T10:37:06Z</time>
</trkpt>
<trkpt lat="38.445083248324735" lon="-0.8444612550936238">
<ele>484</ele>
<time>2014-06-28T10:37:07Z</time>
</trkpt>
<trkpt lat="38.445083248324735" lon="-0.8444612550936238">
<ele>484</ele>
<time>2014-06-28T10:37:08Z</time>
</trkpt>
<trkpt lat="38.445083248324735" lon="-0.8444612550936238">
<ele>484</ele>
<time>2014-06-28T10:37:09Z</time>
</trkpt>
<trkpt lat="38.445083248324735" lon="-0.8444612550936238">
<ele>484</ele>
<time>2014-06-28T10:37:10Z</time>
</trkpt>
<trkpt lat="38.445083248324735" lon="-0.8444612550936238">
<ele>484</ele>
<time>2014-06-28T10:37:11Z</time>
</trkpt>
<trkpt lat="38.445083248324735" lon="-0.8444612550936238">
<ele>484</ele>
<time>2014-06-28T10:37:12Z</time>
</trkpt>
<trkpt lat="38.44499943672668" lon="-0.8445125368285814">
<ele>484</ele>
<time>2014-06-28T10:37:13Z</time>
</trkpt>
<trkpt lat="38.44499943672668" lon="-0.8445125368285814">
<ele>484</ele>
<time>2014-06-28T10:37:14Z</time>
</trkpt>
<trkpt lat="38.44499943672668" lon="-0.8445125368285814">
<ele>484</ele>
<time>2014-06-28T10:37:15Z</time>
</trkpt>
<trkpt lat="38.44499943672668" lon="-0.8445125368285814">
<ele>484</ele>
<time>2014-06-28T10:37:16Z</time>
</trkpt>
<trkpt lat="38.44499943672668" lon="-0.8445125368285814">
<ele>484</ele>
<time>2014-06-28T10:37:17Z</time>
</trkpt>
<trkpt lat="38.44499943672668" lon="-0.8445125368285814">
<ele>484</ele>
<time>2014-06-28T10:37:18Z</time>
</trkpt>
<trkpt lat="38.44499943672668" lon="-0.8445125368285814">
<ele>484</ele>
<time>2014-06-28T10:37:19Z</time>
</trkpt>
<trkpt lat="38.44499943672668" lon="-0.8445125368285814">
<ele>484</ele>
<time>2014-06-28T10:37:20Z</time>
</trkpt>
<trkpt lat="38.4449019249662" lon="-0.8444924650081229">
<ele>484</ele>
<time>2014-06-28T10:37:21Z</time>
</trkpt>
<trkpt lat="38.4449019249662" lon="-0.8444924650081229">
<ele>484</ele>
<time>2014-06-28T10:37:22Z</time>
</trkpt>
<trkpt lat="38.4449019249662" lon="-0.8444924650081229">
<ele>484</ele>
<time>2014-06-28T10:37:23Z</time>
</trkpt>
<trkpt lat="38.4449019249662" lon="-0.8444924650081229">
<ele>484</ele>
<time>2014-06-28T10:37:24Z</time>
</trkpt>
<trkpt lat="38.4449019249662" lon="-0.8444924650081229">
<ele>484</ele>
<time>2014-06-28T10:37:25Z</time>
</trkpt>
<trkpt lat="38.4449019249662" lon="-0.8444924650081229">
<ele>484</ele>
<time>2014-06-28T10:37:26Z</time>
</trkpt>
<trkpt lat="38.44481251259817" lon="-0.8444734100476836">
<ele>484</ele>
<time>2014-06-28T10:37:27Z</time>
</trkpt>
<trkpt lat="38.44481251259817" lon="-0.8444734100476836">
<ele>484</ele>
<time>2014-06-28T10:37:28Z</time>
</trkpt>
<trkpt lat="38.44481251259817" lon="-0.8444734100476836">
<ele>484</ele>
<time>2014-06-28T10:37:29Z</time>
</trkpt>
<trkpt lat="38.44481251259817" lon="-0.8444734100476836">
<ele>484</ele>
<time>2014-06-28T10:37:30Z</time>
</trkpt>
<trkpt lat="38.44481251259817" lon="-0.8444734100476836">
<ele>484</ele>
<time>2014-06-28T10:37:31Z</time>
</trkpt>
<trkpt lat="38.44481251259817" lon="-0.8444734100476836">
<ele>484</ele>
<time>2014-06-28T10:37:32Z</time>
</trkpt>
<trkpt lat="38.44481251259817" lon="-0.8444734100476836">
<ele>484</ele>
<time>2014-06-28T10:37:33Z</time>
</trkpt>
<trkpt lat="38.44481251259817" lon="-0.8444734100476836">
<ele>484</ele>
<time>2014-06-28T10:37:34Z</time>
</trkpt>
<trkpt lat="38.44481251259817" lon="-0.8444734100476836">
<ele>484</ele>
<time>2014-06-28T10:37:35Z</time>
</trkpt>
<trkpt lat="38.444723577469006" lon="-0.8444159157752312">
<ele>484</ele>
<time>2014-06-28T10:37:36Z</time>
</trkpt>
<trkpt lat="38.444723577469006" lon="-0.8444159157752312">
<ele>484</ele>
<time>2014-06-28T10:37:37Z</time>
</trkpt>
<trkpt lat="38.444723577469006" lon="-0.8444159157752312">
<ele>484</ele>
<time>2014-06-28T10:37:38Z</time>
</trkpt>
<trkpt lat="38.444723577469006" lon="-0.8444159157752312">
<ele>484</ele>
<time>2014-06-28T10:37:39Z</time>
</trkpt>
<trkpt lat="38.444723577469006" lon="-0.8444159157752312">
<ele>484</ele>
<time>2014-06-28T10:37:40Z</time>
</trkpt>
<trkpt lat="38.444723577469006" lon="-0.8444159157752312">
<ele>484</ele>
<time>2014-06-28T10:37:41Z</time>
</trkpt>
<trkpt lat="38.444641844503714" lon="-0.8444690919415317">
<ele>484</ele>
<time>2014-06-28T10:37:42Z</time>
</trkpt>
<trkpt lat="38.444641844503714" lon="-0.8444690919415317">
<ele>484</ele>
<time>2014-06-28T10:37:43Z</time>
</trkpt>
<trkpt lat="38.444641844503714" lon="-0.8444690919415317">
<ele>484</ele>
<time>2014-06-28T10:37:44Z</time>
</trkpt>
<trkpt lat="38.444641844503714" lon="-0.8444690919415317">
<ele>484</ele>
<time>2014-06-28T10:37:45Z</time>
</trkpt>
<trkpt lat="38.444641844503714" lon="-0.8444690919415317">
<ele>484</ele>
<time>2014-06-28T10:37:46Z</time>
</trkpt>
<trkpt lat="38.444641844503714" lon="-0.8444690919415317">
<ele>484</ele>
<time>2014-06-28T10:37:47Z</time>
</trkpt>
<trkpt lat="38.44455514282398" lon="-0.8445344084737815">
<ele>484</ele>
<time>2014-06-28T10:37:48Z</time>
</trkpt>
<trkpt lat="38.44455514282398" lon="-0.8445344084737815">
<ele>484</ele>
<time>2014-06-28T10:37:49Z</time>
</trkpt>
<trkpt lat="38.44455514282398" lon="-0.8445344084737815">
<ele>484</ele>
<time>2014-06-28T10:37:50Z</time>
</trkpt>
<trkpt lat="38.44455514282398" lon="-0.8445344084737815">
<ele>484</ele>
<time>2014-06-28T10:37:51Z</time>
</trkpt>
<trkpt lat="38.44455514282398" lon="-0.8445344084737815">
<ele>484</ele>
<time>2014-06-28T10:37:52Z</time>
</trkpt>
<trkpt lat="38.44455514282398" lon="-0.8445344084737815">
<ele>484</ele>
<time>2014-06-28T10:37:53Z</time>
</trkpt>
<trkpt lat="38.44455514282398" lon="-0.8445344084737815">
<ele>484</ele>
<time>2014-06-28T10:37:54Z</time>
</trkpt>
<trkpt lat="38.44455514282398" lon="-0.8445344084737815">
<ele>484</ele>
<time>2014-06-28T10:37:55Z</time>
</trkpt>
<trkpt lat="38.444464839150484" lon="-0.8445726811299207">
<ele>484</ele>
<time>2014-06-28T10:37:56Z</time>
</trkpt>
<trkpt lat="38.444464839150484" lon="-0.8445726811299207">
<ele>484</ele>
<time>2014-06-28T10:37:57Z</time>
</trkpt>
<trkpt lat="38.444464839150484" lon="-0.8445726811299207">
<ele>484</ele>
<time>2014-06-28T10:37:58Z</time>
</trkpt>
<trkpt lat="38.444464839150484" lon="-0.8445726811299207">
<ele>484</ele>
<time>2014-06-28T10:37:59Z</time>
</trkpt>
<trkpt lat="38.444464839150484" lon="-0.8445726811299207">
<ele>484</ele>
<time>2014-06-28T10:38:00Z</time>
</trkpt>
<trkpt lat="38.444464839150484" lon="-0.8445726811299207">
<ele>484</ele>
<time>2014-06-28T10:38:01Z</time>
</trkpt>
<trkpt lat="38.444464839150484" lon="-0.8445726811299207">
<ele>484</ele>
<time>2014-06-28T10:38:02Z</time>
</trkpt>
<trkpt lat="38.44441169604397" lon="-0.84460579084758">
<ele>484</ele>
<time>2014-06-28T10:38:03Z</time>
</trkpt>
<trkpt lat="38.444413619047005" lon="-0.8445898437689556">
<ele>485</ele>
<time>2014-06-28T10:38:04Z</time>
</trkpt>
<trkpt lat="38.44440852852463" lon="-0.844573338266534">
<ele>485</ele>
<time>2014-06-28T10:38:05Z</time>
</trkpt>
<trkpt lat="38.444405923603675" lon="-0.8445493521217647">
<ele>485</ele>
<time>2014-06-28T10:38:06Z</time>
</trkpt>
<trkpt lat="38.444398733696154" lon="-0.8445312932365854">
<ele>485</ele>
<time>2014-06-28T10:38:07Z</time>
</trkpt>
<trkpt lat="38.444388797388974" lon="-0.8445170555271374">
<ele>485</ele>
<time>2014-06-28T10:38:08Z</time>
</trkpt>
<trkpt lat="38.4443777825451" lon="-0.8445057390814196">
<ele>485</ele>
<time>2014-06-28T10:38:09Z</time>
</trkpt>
<trkpt lat="38.444365801137806" lon="-0.8444964710151709">
<ele>485</ele>
<time>2014-06-28T10:38:10Z</time>
</trkpt>
<trkpt lat="38.44435411946129" lon="-0.844488464324192">
<ele>485</ele>
<time>2014-06-28T10:38:11Z</time>
</trkpt>
<trkpt lat="38.444342119173356" lon="-0.8444817035203801">
<ele>485</ele>
<time>2014-06-28T10:38:12Z</time>
</trkpt>
<trkpt lat="38.44433022703477" lon="-0.8444759654859142">
<ele>485</ele>
<time>2014-06-28T10:38:13Z</time>
</trkpt>
<trkpt lat="38.44431780489356" lon="-0.8444717043240625">
<ele>485</ele>
<time>2014-06-28T10:38:14Z</time>
</trkpt>
<trkpt lat="38.444304099222556" lon="-0.8444696652986533">
<ele>485</ele>
<time>2014-06-28T10:38:15Z</time>
</trkpt>
<trkpt lat="38.44428838510028" lon="-0.8444685301263009">
<ele>485</ele>
<time>2014-06-28T10:38:16Z</time>
</trkpt>
<trkpt lat="38.444273161609956" lon="-0.844467818865324">
<ele>485</ele>
<time>2014-06-28T10:38:17Z</time>
</trkpt>
<trkpt lat="38.44425616181531" lon="-0.8444632666973955">
<ele>485</ele>
<time>2014-06-28T10:38:18Z</time>
</trkpt>
<trkpt lat="38.44424031514269" lon="-0.8444593696945711">
<ele>485</ele>
<time>2014-06-28T10:38:19Z</time>
</trkpt>
<trkpt lat="38.44422507002561" lon="-0.8444576975264105">
<ele>485</ele>
<time>2014-06-28T10:38:20Z</time>
</trkpt>
<trkpt lat="38.444208347304006" lon="-0.8444570391368953">
<ele>485</ele>
<time>2014-06-28T10:38:21Z</time>
</trkpt>
<trkpt lat="38.44419210092473" lon="-0.8444567278281246">
<ele>485</ele>
<time>2014-06-28T10:38:22Z</time>
</trkpt>
<trkpt lat="38.44417640503688" lon="-0.8444557088290633">
<ele>485</ele>
<time>2014-06-28T10:38:23Z</time>
</trkpt>
<trkpt lat="38.444159554536036" lon="-0.8444583136381182">
<ele>485</ele>
<time>2014-06-28T10:38:24Z</time>
</trkpt>
<trkpt lat="38.44414241153116" lon="-0.84446113394916">
<ele>485</ele>
<time>2014-06-28T10:38:25Z</time>
</trkpt>
<trkpt lat="38.44412673287075" lon="-0.8444608088859732">
<ele>485</ele>
<time>2014-06-28T10:38:26Z</time>
</trkpt>
<trkpt lat="38.44411092638826" lon="-0.8444565548275931">
<ele>485</ele>
<time>2014-06-28T10:38:27Z</time>
</trkpt>
<trkpt lat="38.44409366126088" lon="-0.8444535512551716">
<ele>485</ele>
<time>2014-06-28T10:38:28Z</time>
</trkpt>
<trkpt lat="38.44407534794712" lon="-0.8444508130995272">
<ele>485</ele>
<time>2014-06-28T10:38:29Z</time>
</trkpt>
<trkpt lat="38.44405939966469" lon="-0.8444474024373432">
<ele>485</ele>
<time>2014-06-28T10:38:30Z</time>
</trkpt>
<trkpt lat="38.44404532755096" lon="-0.8444507886713076">
<ele>485</ele>
<time>2014-06-28T10:38:31Z</time>
</trkpt>
<trkpt lat="38.444031597881455" lon="-0.8444523732370214">
<ele>485</ele>
<time>2014-06-28T10:38:32Z</time>
</trkpt>
<trkpt lat="38.444016053926596" lon="-0.8444524936436201">
<ele>485</ele>
<time>2014-06-28T10:38:33Z</time>
</trkpt>
<trkpt lat="38.44399864020246" lon="-0.8444497691489372">
<ele>485</ele>
<time>2014-06-28T10:38:34Z</time>
</trkpt>
<trkpt lat="38.44397560039495" lon="-0.844442214467572">
<ele>485</ele>
<time>2014-06-28T10:38:35Z</time>
</trkpt>
<trkpt lat="38.44395225793397" lon="-0.8444347588500356">
<ele>485</ele>
<time>2014-06-28T10:38:36Z</time>
</trkpt>
<trkpt lat="38.44393001209429" lon="-0.8444281961112171">
<ele>485</ele>
<time>2014-06-28T10:38:37Z</time>
</trkpt>
<trkpt lat="38.443904623717614" lon="-0.8444227801418533">
<ele>485</ele>
<time>2014-06-28T10:38:38Z</time>
</trkpt>
<trkpt lat="38.44388108188459" lon="-0.8444185662930573">
<ele>485</ele>
<time>2014-06-28T10:38:39Z</time>
</trkpt>
<trkpt lat="38.44386103056707" lon="-0.8444155859341146">
<ele>485</ele>
<time>2014-06-28T10:38:40Z</time>
</trkpt>
<trkpt lat="38.443842079067515" lon="-0.844413309091834">
<ele>485</ele>
<time>2014-06-28T10:38:41Z</time>
</trkpt>
<trkpt lat="38.443821130150255" lon="-0.8444067183137175">
<ele>485</ele>
<time>2014-06-28T10:38:42Z</time>
</trkpt>
<trkpt lat="38.44380006275202" lon="-0.8444017825329679">
<ele>485</ele>
<time>2014-06-28T10:38:43Z</time>
</trkpt>
<trkpt lat="38.443777806304084" lon="-0.8443954917839204">
<ele>485</ele>
<time>2014-06-28T10:38:44Z</time>
</trkpt>
<trkpt lat="38.44375331813252" lon="-0.8443886590788859">
<ele>485</ele>
<time>2014-06-28T10:38:45Z</time>
</trkpt>
<trkpt lat="38.4437305672702" lon="-0.8443811423932946">
<ele>485</ele>
<time>2014-06-28T10:38:46Z</time>
</trkpt>
<trkpt lat="38.443708422339576" lon="-0.8443724473176616">
<ele>485</ele>
<time>2014-06-28T10:38:47Z</time>
</trkpt>
<trkpt lat="38.443686441034714" lon="-0.8443627892781077">
<ele>485</ele>
<time>2014-06-28T10:38:48Z</time>
</trkpt>
<trkpt lat="38.443668450525855" lon="-0.8443533039137434">
<ele>485</ele>
<time>2014-06-28T10:38:49Z</time>
</trkpt>
<trkpt lat="38.44365115975047" lon="-0.844342154899576">
<ele>485</ele>
<time>2014-06-28T10:38:50Z</time>
</trkpt>
<trkpt lat="38.443633756312195" lon="-0.8443313911768159">
<ele>485</ele>
<time>2014-06-28T10:38:51Z</time>
</trkpt>
<trkpt lat="38.44363374644838" lon="-0.8443313255461848">
<ele>485</ele>
<time>2014-06-28T10:38:52Z</time>
</trkpt>
<trkpt lat="38.443627533999155" lon="-0.8443295298730744">
<ele>485</ele>
<time>2014-06-28T10:38:53Z</time>
</trkpt>
<trkpt lat="38.443621151386644" lon="-0.8443265951351929">
<ele>485</ele>
<time>2014-06-28T10:38:54Z</time>
</trkpt>
<trkpt lat="38.44361393971244" lon="-0.844323528535019">
<ele>485</ele>
<time>2014-06-28T10:38:55Z</time>
</trkpt>
<trkpt lat="38.443605996270975" lon="-0.8443217842298525">
<ele>485</ele>
<time>2014-06-28T10:38:56Z</time>
</trkpt>
<trkpt lat="38.44359725902222" lon="-0.8443204414140282">
<ele>485</ele>
<time>2014-06-28T10:38:57Z</time>
</trkpt>
<trkpt lat="38.44358961481693" lon="-0.8443274300236637">
<ele>485</ele>
<time>2014-06-28T10:38:58Z</time>
</trkpt>
<trkpt lat="38.44358061254015" lon="-0.8443310814957699">
<ele>485</ele>
<time>2014-06-28T10:38:59Z</time>
</trkpt>
<trkpt lat="38.44357255963442" lon="-0.8443351063903398">
<ele>484</ele>
<time>2014-06-28T10:39:00Z</time>
</trkpt>
<trkpt lat="38.44356501027707" lon="-0.8443371548941141">
<ele>484</ele>
<time>2014-06-28T10:39:01Z</time>
</trkpt>
<trkpt lat="38.44356401338944" lon="-0.8443566746201052">
<ele>484</ele>
<time>2014-06-28T10:39:02Z</time>
</trkpt>
<trkpt lat="38.44356621904527" lon="-0.8443790831084246">
<ele>484</ele>
<time>2014-06-28T10:39:03Z</time>
</trkpt>
<trkpt lat="38.44357058442129" lon="-0.8444009748308315">
<ele>484</ele>
<time>2014-06-28T10:39:04Z</time>
</trkpt>
<trkpt lat="38.44357097184383" lon="-0.844414996343249">
<ele>484</ele>
<time>2014-06-28T10:39:05Z</time>
</trkpt>
<trkpt lat="38.443570592651724" lon="-0.8444256203253231">
<ele>484</ele>
<time>2014-06-28T10:39:06Z</time>
</trkpt>
<trkpt lat="38.443570075604654" lon="-0.8444296911979688">
<ele>484</ele>
<time>2014-06-28T10:39:07Z</time>
</trkpt>
<trkpt lat="38.44356965984483" lon="-0.844427905908447">
<ele>484</ele>
<time>2014-06-28T10:39:08Z</time>
</trkpt>
<trkpt lat="38.443570005125196" lon="-0.8444207592196772">
<ele>484</ele>
<time>2014-06-28T10:39:09Z</time>
</trkpt>
<trkpt lat="38.44356781219933" lon="-0.8444153039274984">
<ele>484</ele>
<time>2014-06-28T10:39:10Z</time>
</trkpt>
<trkpt lat="38.443564279391325" lon="-0.8444122099270602">
<ele>484</ele>
<time>2014-06-28T10:39:11Z</time>
</trkpt>
<trkpt lat="38.44355883761602" lon="-0.8444089271668622">
<ele>484</ele>
<time>2014-06-28T10:39:12Z</time>
</trkpt>
<trkpt lat="38.44355023509976" lon="-0.844403576765295">
<ele>484</ele>
<time>2014-06-28T10:39:13Z</time>
</trkpt>
<trkpt lat="38.443539547771685" lon="-0.844395865544817">
<ele>484</ele>
<time>2014-06-28T10:39:14Z</time>
</trkpt>
<trkpt lat="38.44352877619909" lon="-0.8443863817546398">
<ele>483</ele>
<time>2014-06-28T10:39:15Z</time>
</trkpt>
<trkpt lat="38.443519669350636" lon="-0.844374392667715">
<ele>483</ele>
<time>2014-06-28T10:39:16Z</time>
</trkpt>
<trkpt lat="38.443508960902044" lon="-0.8443608959256956">
<ele>483</ele>
<time>2014-06-28T10:39:17Z</time>
</trkpt>
<trkpt lat="38.44349707278251" lon="-0.8443464522883453">
<ele>483</ele>
<time>2014-06-28T10:39:18Z</time>
</trkpt>
<trkpt lat="38.443483037114966" lon="-0.8443278551776308">
<ele>483</ele>
<time>2014-06-28T10:39:19Z</time>
</trkpt>
<trkpt lat="38.443468086630034" lon="-0.844310171998873">
<ele>483</ele>
<time>2014-06-28T10:39:20Z</time>
</trkpt>
<trkpt lat="38.44345286350678" lon="-0.8442890493359558">
<ele>483</ele>
<time>2014-06-28T10:39:21Z</time>
</trkpt>
<trkpt lat="38.443437298434" lon="-0.8442659978175501">
<ele>483</ele>
<time>2014-06-28T10:39:22Z</time>
</trkpt>
<trkpt lat="38.44341742419953" lon="-0.8442383708615651">
<ele>483</ele>
<time>2014-06-28T10:39:23Z</time>
</trkpt>
<trkpt lat="38.44339697703932" lon="-0.8442114048292143">
<ele>483</ele>
<time>2014-06-28T10:39:24Z</time>
</trkpt>
<trkpt lat="38.44337758567189" lon="-0.8441842167536369">
<ele>483</ele>
<time>2014-06-28T10:39:25Z</time>
</trkpt>
<trkpt lat="38.44335935982849" lon="-0.8441545188560128">
<ele>483</ele>
<time>2014-06-28T10:39:26Z</time>
</trkpt>
<trkpt lat="38.44334536273188" lon="-0.8441264154583459">
<ele>483</ele>
<time>2014-06-28T10:39:27Z</time>
</trkpt>
<trkpt lat="38.44333220503042" lon="-0.8440988521102832">
<ele>483</ele>
<time>2014-06-28T10:39:28Z</time>
</trkpt>
<trkpt lat="38.44331766224141" lon="-0.8440717397532057">
<ele>483</ele>
<time>2014-06-28T10:39:29Z</time>
</trkpt>
<trkpt lat="38.44330244064073" lon="-0.8440477678384164">
<ele>482</ele>
<time>2014-06-28T10:39:30Z</time>
</trkpt>
<trkpt lat="38.44328802103185" lon="-0.8440287556660327">
<ele>482</ele>
<time>2014-06-28T10:39:31Z</time>
</trkpt>
<trkpt lat="38.44327365995064" lon="-0.8440120566170042">
<ele>482</ele>
<time>2014-06-28T10:39:32Z</time>
</trkpt>
<trkpt lat="38.443259453336374" lon="-0.8439964418698931">
<ele>482</ele>
<time>2014-06-28T10:39:33Z</time>
</trkpt>
<trkpt lat="38.44324474822964" lon="-0.843981539307364">
<ele>482</ele>
<time>2014-06-28T10:39:34Z</time>
</trkpt>
<trkpt lat="38.44323050500215" lon="-0.843969659153607">
<ele>482</ele>
<time>2014-06-28T10:39:35Z</time>
</trkpt>
<trkpt lat="38.44321683758009" lon="-0.8439604153784253">
<ele>482</ele>
<time>2014-06-28T10:39:36Z</time>
</trkpt>
<trkpt lat="38.44320368124097" lon="-0.8439492719624276">
<ele>482</ele>
<time>2014-06-28T10:39:37Z</time>
</trkpt>
<trkpt lat="38.443190354701706" lon="-0.8439344228511407">
<ele>482</ele>
<time>2014-06-28T10:39:38Z</time>
</trkpt>
<trkpt lat="38.44317787579959" lon="-0.8439193430464155">
<ele>482</ele>
<time>2014-06-28T10:39:39Z</time>
</trkpt>
<trkpt lat="38.443162551350106" lon="-0.8439018536810233">
<ele>482</ele>
<time>2014-06-28T10:39:40Z</time>
</trkpt>
<trkpt lat="38.443145685791634" lon="-0.8438833768922526">
<ele>482</ele>
<time>2014-06-28T10:39:41Z</time>
</trkpt>
<trkpt lat="38.443127024046" lon="-0.8438618900539681">
<ele>482</ele>
<time>2014-06-28T10:39:42Z</time>
</trkpt>
<trkpt lat="38.44310935583841" lon="-0.8438427022764472">
<ele>482</ele>
<time>2014-06-28T10:39:43Z</time>
</trkpt>
<trkpt lat="38.44309156988856" lon="-0.8438244550973582">
<ele>482</ele>
<time>2014-06-28T10:39:44Z</time>
</trkpt>
<trkpt lat="38.443073980658696" lon="-0.8438063620211732">
<ele>482</ele>
<time>2014-06-28T10:39:45Z</time>
</trkpt>
<trkpt lat="38.443058509452904" lon="-0.843789224629213">
<ele>481</ele>
<time>2014-06-28T10:39:46Z</time>
</trkpt>
<trkpt lat="38.443044672762475" lon="-0.8437727387504343">
<ele>481</ele>
<time>2014-06-28T10:39:47Z</time>
</trkpt>
<trkpt lat="38.443032230822354" lon="-0.8437562931152063">
<ele>481</ele>
<time>2014-06-28T10:39:48Z</time>
</trkpt>
<trkpt lat="38.44302095943257" lon="-0.843739834440795">
<ele>481</ele>
<time>2014-06-28T10:39:49Z</time>
</trkpt>
<trkpt lat="38.44300865707833" lon="-0.8437254339251877">
<ele>481</ele>
<time>2014-06-28T10:39:50Z</time>
</trkpt>
<trkpt lat="38.44299822443359" lon="-0.8437076043677093">
<ele>481</ele>
<time>2014-06-28T10:39:51Z</time>
</trkpt>
<trkpt lat="38.4429851607639" lon="-0.8437007807631625">
<ele>481</ele>
<time>2014-06-28T10:39:52Z</time>
</trkpt>
<trkpt lat="38.44297392065106" lon="-0.8436950768629572">
<ele>481</ele>
<time>2014-06-28T10:39:53Z</time>
</trkpt>
<trkpt lat="38.44296663639186" lon="-0.8436863229197952">
<ele>481</ele>
<time>2014-06-28T10:39:54Z</time>
</trkpt>
<trkpt lat="38.44296024816854" lon="-0.8436865251685743">
<ele>481</ele>
<time>2014-06-28T10:39:55Z</time>
</trkpt>
<trkpt lat="38.44295360304597" lon="-0.8436855322684199">
<ele>481</ele>
<time>2014-06-28T10:39:56Z</time>
</trkpt>
<trkpt lat="38.44294662066251" lon="-0.8436842803437731">
<ele>481</ele>
<time>2014-06-28T10:39:57Z</time>
</trkpt>
<trkpt lat="38.442937882601335" lon="-0.8436831965581775">
<ele>481</ele>
<time>2014-06-28T10:39:58Z</time>
</trkpt>
<trkpt lat="38.44292700058019" lon="-0.8436805807189363">
<ele>481</ele>
<time>2014-06-28T10:39:59Z</time>
</trkpt>
<trkpt lat="38.44291503152245" lon="-0.8436766872037754">
<ele>481</ele>
<time>2014-06-28T10:40:00Z</time>
</trkpt>
<trkpt lat="38.4429040463576" lon="-0.8436720296922559">
<ele>481</ele>
<time>2014-06-28T10:40:01Z</time>
</trkpt>
<trkpt lat="38.44290402742026" lon="-0.8436721263297426">
<ele>481</ele>
<time>2014-06-28T10:40:02Z</time>
</trkpt>
<trkpt lat="38.44290402710571" lon="-0.8436721274035296">
<ele>481</ele>
<time>2014-06-28T10:40:03Z</time>
</trkpt>
<trkpt lat="38.44290057566883" lon="-0.8436712036710906">
<ele>481</ele>
<time>2014-06-28T10:40:04Z</time>
</trkpt>
<trkpt lat="38.44289411956415" lon="-0.8436707118059767">
<ele>481</ele>
<time>2014-06-28T10:40:05Z</time>
</trkpt>
<trkpt lat="38.44288591407297" lon="-0.8436704187980738">
<ele>481</ele>
<time>2014-06-28T10:40:06Z</time>
</trkpt>
<trkpt lat="38.44287526957172" lon="-0.8436702129522419">
<ele>480</ele>
<time>2014-06-28T10:40:07Z</time>
</trkpt>
<trkpt lat="38.442862637722335" lon="-0.8436696847827267">
<ele>480</ele>
<time>2014-06-28T10:40:08Z</time>
</trkpt>
<trkpt lat="38.44284899237504" lon="-0.8436655405642286">
<ele>480</ele>
<time>2014-06-28T10:40:09Z</time>
</trkpt>
<trkpt lat="38.44283164569322" lon="-0.8436622976512869">
<ele>480</ele>
<time>2014-06-28T10:40:10Z</time>
</trkpt>
<trkpt lat="38.44281443226652" lon="-0.8436585823206603">
<ele>480</ele>
<time>2014-06-28T10:40:11Z</time>
</trkpt>
<trkpt lat="38.44279704633093" lon="-0.8436553123776831">
<ele>480</ele>
<time>2014-06-28T10:40:12Z</time>
</trkpt>
<trkpt lat="38.442781706744164" lon="-0.8436448931552906">
<ele>480</ele>
<time>2014-06-28T10:40:13Z</time>
</trkpt>
<trkpt lat="38.442764037401616" lon="-0.8436286627940183">
<ele>480</ele>
<time>2014-06-28T10:40:14Z</time>
</trkpt>
<trkpt lat="38.44274336972887" lon="-0.843609634924348">
<ele>480</ele>
<time>2014-06-28T10:40:15Z</time>
</trkpt>
<trkpt lat="38.442723667736104" lon="-0.8435896609879305">
<ele>480</ele>
<time>2014-06-28T10:40:16Z</time>
</trkpt>
<trkpt lat="38.442704704824834" lon="-0.8435689535124995">
<ele>480</ele>
<time>2014-06-28T10:40:17Z</time>
</trkpt>
<trkpt lat="38.44268548247677" lon="-0.8435494704973254">
<ele>480</ele>
<time>2014-06-28T10:40:18Z</time>
</trkpt>
<trkpt lat="38.44266654313701" lon="-0.8435345649047673">
<ele>480</ele>
<time>2014-06-28T10:40:19Z</time>
</trkpt>
<trkpt lat="38.44264793140488" lon="-0.8435214462765945">
<ele>480</ele>
<time>2014-06-28T10:40:20Z</time>
</trkpt>
<trkpt lat="38.44262649325013" lon="-0.8435233529506423">
<ele>479</ele>
<time>2014-06-28T10:40:21Z</time>
</trkpt>
<trkpt lat="38.4426066419313" lon="-0.8435243372616371">
<ele>479</ele>
<time>2014-06-28T10:40:22Z</time>
</trkpt>
<trkpt lat="38.44258811484463" lon="-0.8435244910040789">
<ele>479</ele>
<time>2014-06-28T10:40:23Z</time>
</trkpt>
<trkpt lat="38.44257082124766" lon="-0.8435236582604716">
<ele>479</ele>
<time>2014-06-28T10:40:24Z</time>
</trkpt>
<trkpt lat="38.442554280363375" lon="-0.8435213386077742">
<ele>479</ele>
<time>2014-06-28T10:40:25Z</time>
</trkpt>
<trkpt lat="38.442538298231945" lon="-0.8435188242306205">
<ele>479</ele>
<time>2014-06-28T10:40:26Z</time>
</trkpt>
<trkpt lat="38.44252621018747" lon="-0.8435121187295778">
<ele>479</ele>
<time>2014-06-28T10:40:27Z</time>
</trkpt>
<trkpt lat="38.44251955040599" lon="-0.8434952356040113">
<ele>479</ele>
<time>2014-06-28T10:40:28Z</time>
</trkpt>
<trkpt lat="38.44250911321043" lon="-0.8434821842907496">
<ele>478</ele>
<time>2014-06-28T10:40:29Z</time>
</trkpt>
<trkpt lat="38.44249599727706" lon="-0.8434709386879137">
<ele>478</ele>
<time>2014-06-28T10:40:30Z</time>
</trkpt>
<trkpt lat="38.442486891802744" lon="-0.8434572325646215">
<ele>478</ele>
<time>2014-06-28T10:40:31Z</time>
</trkpt>
<trkpt lat="38.4424756716159" lon="-0.8434440295838972">
<ele>478</ele>
<time>2014-06-28T10:40:32Z</time>
</trkpt>
<trkpt lat="38.442464236849275" lon="-0.8434295326477769">
<ele>478</ele>
<time>2014-06-28T10:40:33Z</time>
</trkpt>
<trkpt lat="38.442452344579586" lon="-0.8434145790915123">
<ele>478</ele>
<time>2014-06-28T10:40:34Z</time>
</trkpt>
<trkpt lat="38.44244026531733" lon="-0.8434004631347845">
<ele>478</ele>
<time>2014-06-28T10:40:35Z</time>
</trkpt>
<trkpt lat="38.44242805907743" lon="-0.8433864598163504">
<ele>478</ele>
<time>2014-06-28T10:40:36Z</time>
</trkpt>
<trkpt lat="38.442415254867" lon="-0.8433775738198896">
<ele>478</ele>
<time>2014-06-28T10:40:37Z</time>
</trkpt>
<trkpt lat="38.44240453146648" lon="-0.8433701784654557">
<ele>478</ele>
<time>2014-06-28T10:40:38Z</time>
</trkpt>
<trkpt lat="38.44239420731566" lon="-0.8433634949526498">
<ele>478</ele>
<time>2014-06-28T10:40:39Z</time>
</trkpt>
<trkpt lat="38.442389349960536" lon="-0.8433621676670114">
<ele>478</ele>
<time>2014-06-28T10:40:40Z</time>
</trkpt>
<trkpt lat="38.44238707530125" lon="-0.8433626912144487">
<ele>478</ele>
<time>2014-06-28T10:40:41Z</time>
</trkpt>
<trkpt lat="38.44238547363983" lon="-0.8433626911656148">
<ele>478</ele>
<time>2014-06-28T10:40:42Z</time>
</trkpt>
<trkpt lat="38.44238550657011" lon="-0.8433628272911692">
<ele>478</ele>
<time>2014-06-28T10:40:43Z</time>
</trkpt>
<trkpt lat="38.4423806597699" lon="-0.8433826545880082">
<ele>478</ele>
<time>2014-06-28T10:40:44Z</time>
</trkpt>
<trkpt lat="38.44237897340714" lon="-0.8434171282621874">
<ele>478</ele>
<time>2014-06-28T10:40:45Z</time>
</trkpt>
<trkpt lat="38.44238559796014" lon="-0.8434638601282254">
<ele>478</ele>
<time>2014-06-28T10:40:46Z</time>
</trkpt>
<trkpt lat="38.44238963663788" lon="-0.8435126852387362">
<ele>478</ele>
<time>2014-06-28T10:40:47Z</time>
</trkpt>
<trkpt lat="38.442391249905114" lon="-0.8435588772598963">
<ele>478</ele>
<time>2014-06-28T10:40:48Z</time>
</trkpt>
<trkpt lat="38.44239328765022" lon="-0.8436038681318292">
<ele>478</ele>
<time>2014-06-28T10:40:49Z</time>
</trkpt>
<trkpt lat="38.44239615338489" lon="-0.8436420772784855">
<ele>478</ele>
<time>2014-06-28T10:40:50Z</time>
</trkpt>
<trkpt lat="38.442400223782776" lon="-0.8436752303296283">
<ele>478</ele>
<time>2014-06-28T10:40:51Z</time>
</trkpt>
<trkpt lat="38.44240485429059" lon="-0.8437093388148866">
<ele>478</ele>
<time>2014-06-28T10:40:52Z</time>
</trkpt>
<trkpt lat="38.44241206560995" lon="-0.8437384421911911">
<ele>478</ele>
<time>2014-06-28T10:40:53Z</time>
</trkpt>
<trkpt lat="38.4424203748625" lon="-0.8437639047323026">
<ele>478</ele>
<time>2014-06-28T10:40:54Z</time>
</trkpt>
<trkpt lat="38.44242795542243" lon="-0.8437874811185256">
<ele>478</ele>
<time>2014-06-28T10:40:55Z</time>
</trkpt>
<trkpt lat="38.44243374404181" lon="-0.8438096962265185">
<ele>478</ele>
<time>2014-06-28T10:40:56Z</time>
</trkpt>
<trkpt lat="38.44243861400876" lon="-0.8438304715793594">
<ele>478</ele>
<time>2014-06-28T10:40:57Z</time>
</trkpt>
<trkpt lat="38.44244394955053" lon="-0.8438503655124935">
<ele>478</ele>
<time>2014-06-28T10:40:58Z</time>
</trkpt>
<trkpt lat="38.44245066686041" lon="-0.8438690768008537">
<ele>478</ele>
<time>2014-06-28T10:40:59Z</time>
</trkpt>
<trkpt lat="38.442457880608174" lon="-0.8438863278169675">
<ele>478</ele>
<time>2014-06-28T10:41:00Z</time>
</trkpt>
<trkpt lat="38.44246671241393" lon="-0.843903262112682">
<ele>478</ele>
<time>2014-06-28T10:41:01Z</time>
</trkpt>
<trkpt lat="38.44247598596713" lon="-0.8439175403437901">
<ele>478</ele>
<time>2014-06-28T10:41:02Z</time>
</trkpt>
<trkpt lat="38.44248471580094" lon="-0.8439319085371357">
<ele>478</ele>
<time>2014-06-28T10:41:03Z</time>
</trkpt>
<trkpt lat="38.442495360963655" lon="-0.8439421647888389">
<ele>478</ele>
<time>2014-06-28T10:41:04Z</time>
</trkpt>
<trkpt lat="38.44250597559595" lon="-0.8439511600753076">
<ele>478</ele>
<time>2014-06-28T10:41:05Z</time>
</trkpt>
<trkpt lat="38.44251592916198" lon="-0.843958554781712">
<ele>478</ele>
<time>2014-06-28T10:41:06Z</time>
</trkpt>
<trkpt lat="38.44252564629147" lon="-0.8439695962413616">
<ele>478</ele>
<time>2014-06-28T10:41:07Z</time>
</trkpt>
<trkpt lat="38.44253561175846" lon="-0.8439827581953979">
<ele>478</ele>
<time>2014-06-28T10:41:08Z</time>
</trkpt>
<trkpt lat="38.44254598525045" lon="-0.8439984698135399">
<ele>478</ele>
<time>2014-06-28T10:41:09Z</time>
</trkpt>
<trkpt lat="38.44255581024118" lon="-0.844016295419155">
<ele>478</ele>
<time>2014-06-28T10:41:10Z</time>
</trkpt>
<trkpt lat="38.44256560334321" lon="-0.844029764501423">
<ele>478</ele>
<time>2014-06-28T10:41:11Z</time>
</trkpt>
<trkpt lat="38.4425768713505" lon="-0.8440407425123324">
<ele>478</ele>
<time>2014-06-28T10:41:12Z</time>
</trkpt>
<trkpt lat="38.442582237038586" lon="-0.844058451454079">
<ele>478</ele>
<time>2014-06-28T10:41:13Z</time>
</trkpt>
<trkpt lat="38.44258954941742" lon="-0.8440770311298358">
<ele>478</ele>
<time>2014-06-28T10:41:14Z</time>
</trkpt>
<trkpt lat="38.44260514760403" lon="-0.8440825113075722">
<ele>478</ele>
<time>2014-06-28T10:41:15Z</time>
</trkpt>
<trkpt lat="38.44261919852214" lon="-0.8440916683844931">
<ele>478</ele>
<time>2014-06-28T10:41:16Z</time>
</trkpt>
<trkpt lat="38.44262835027492" lon="-0.8441106163565031">
<ele>477</ele>
<time>2014-06-28T10:41:17Z</time>
</trkpt>
<trkpt lat="38.44264236650366" lon="-0.8441242481519178">
<ele>477</ele>
<time>2014-06-28T10:41:18Z</time>
</trkpt>
<trkpt lat="38.44265430530733" lon="-0.8441403319827739">
<ele>477</ele>
<time>2014-06-28T10:41:19Z</time>
</trkpt>
<trkpt lat="38.44266593084194" lon="-0.8441640508929081">
<ele>477</ele>
<time>2014-06-28T10:41:20Z</time>
</trkpt>
<trkpt lat="38.44267522652474" lon="-0.8441873578635356">
<ele>477</ele>
<time>2014-06-28T10:41:21Z</time>
</trkpt>
<trkpt lat="38.4426835486909" lon="-0.8442098529288181">
<ele>477</ele>
<time>2014-06-28T10:41:22Z</time>
</trkpt>
<trkpt lat="38.442692159932854" lon="-0.8442308541571178">
<ele>477</ele>
<time>2014-06-28T10:41:23Z</time>
</trkpt>
<trkpt lat="38.442700019963425" lon="-0.8442523121471353">
<ele>477</ele>
<time>2014-06-28T10:41:24Z</time>
</trkpt>
<trkpt lat="38.44270765638391" lon="-0.8442708782219511">
<ele>477</ele>
<time>2014-06-28T10:41:25Z</time>
</trkpt>
<trkpt lat="38.44272462008872" lon="-0.8442726270605088">
<ele>477</ele>
<time>2014-06-28T10:41:26Z</time>
</trkpt>
<trkpt lat="38.44274121569267" lon="-0.8442754847947859">
<ele>477</ele>
<time>2014-06-28T10:41:27Z</time>
</trkpt>
<trkpt lat="38.442758958708026" lon="-0.844274482997249">
<ele>477</ele>
<time>2014-06-28T10:41:28Z</time>
</trkpt>
<trkpt lat="38.44278818981077" lon="-0.84427402877694">
<ele>477</ele>
<time>2014-06-28T10:41:29Z</time>
</trkpt>
<trkpt lat="38.44281890165347" lon="-0.8442733259421968">
<ele>477</ele>
<time>2014-06-28T10:41:30Z</time>
</trkpt>
<trkpt lat="38.442848010826594" lon="-0.8442711173898116">
<ele>477</ele>
<time>2014-06-28T10:41:31Z</time>
</trkpt>
<trkpt lat="38.44287646149199" lon="-0.8442688806384628">
<ele>477</ele>
<time>2014-06-28T10:41:32Z</time>
</trkpt>
<trkpt lat="38.44290308579664" lon="-0.8442723623621586">
<ele>477</ele>
<time>2014-06-28T10:41:33Z</time>
</trkpt>
<trkpt lat="38.44292565647617" lon="-0.8442789179556424">
<ele>477</ele>
<time>2014-06-28T10:41:34Z</time>
</trkpt>
<trkpt lat="38.44294476013436" lon="-0.8442890582907282">
<ele>477</ele>
<time>2014-06-28T10:41:35Z</time>
</trkpt>
<trkpt lat="38.44296302139203" lon="-0.8443005000372809">
<ele>477</ele>
<time>2014-06-28T10:41:36Z</time>
</trkpt>
<trkpt lat="38.442965889634046" lon="-0.8443283558376395">
<ele>477</ele>
<time>2014-06-28T10:41:37Z</time>
</trkpt>
<trkpt lat="38.44296452245621" lon="-0.8443473981370558">
<ele>477</ele>
<time>2014-06-28T10:41:38Z</time>
</trkpt>
<trkpt lat="38.44296142152065" lon="-0.8443773116458883">
<ele>476</ele>
<time>2014-06-28T10:41:39Z</time>
</trkpt>
<trkpt lat="38.442945710359" lon="-0.8444119646296058">
<ele>476</ele>
<time>2014-06-28T10:41:40Z</time>
</trkpt>
<trkpt lat="38.44292219826157" lon="-0.8444512156622724">
<ele>476</ele>
<time>2014-06-28T10:41:41Z</time>
</trkpt>
<trkpt lat="38.44290097127545" lon="-0.8444919415410715">
<ele>476</ele>
<time>2014-06-28T10:41:42Z</time>
</trkpt>
<trkpt lat="38.4428881285177" lon="-0.8445308155414526">
<ele>476</ele>
<time>2014-06-28T10:41:43Z</time>
</trkpt>
<trkpt lat="38.44288118018704" lon="-0.8445624772836738">
<ele>476</ele>
<time>2014-06-28T10:41:44Z</time>
</trkpt>
<trkpt lat="38.44287951338119" lon="-0.8445854667216471">
<ele>476</ele>
<time>2014-06-28T10:41:45Z</time>
</trkpt>
<trkpt lat="38.44288237237059" lon="-0.844603699709397">
<ele>476</ele>
<time>2014-06-28T10:41:46Z</time>
</trkpt>
<trkpt lat="38.44288609137443" lon="-0.8446175194208835">
<ele>476</ele>
<time>2014-06-28T10:41:47Z</time>
</trkpt>
<trkpt lat="38.44289217867046" lon="-0.8446295910263227">
<ele>476</ele>
<time>2014-06-28T10:41:48Z</time>
</trkpt>
<trkpt lat="38.44289954100658" lon="-0.844641288110032">
<ele>476</ele>
<time>2014-06-28T10:41:49Z</time>
</trkpt>
<trkpt lat="38.442906954734994" lon="-0.8446524077054198">
<ele>476</ele>
<time>2014-06-28T10:41:50Z</time>
</trkpt>
<trkpt lat="38.442915327667514" lon="-0.8446618402700781">
<ele>476</ele>
<time>2014-06-28T10:41:51Z</time>
</trkpt>
<trkpt lat="38.44292432278667" lon="-0.8446707116143845">
<ele>476</ele>
<time>2014-06-28T10:41:52Z</time>
</trkpt>
<trkpt lat="38.44293260263974" lon="-0.8446766707989932">
<ele>476</ele>
<time>2014-06-28T10:41:53Z</time>
</trkpt>
<trkpt lat="38.442937144620586" lon="-0.844689380663886">
<ele>476</ele>
<time>2014-06-28T10:41:54Z</time>
</trkpt>
<trkpt lat="38.442944078211795" lon="-0.8446994759225457">
<ele>476</ele>
<time>2014-06-28T10:41:55Z</time>
</trkpt>
<trkpt lat="38.44294410967208" lon="-0.8446994532545383">
<ele>476</ele>
<time>2014-06-28T10:41:56Z</time>
</trkpt>
<trkpt lat="38.44294411012732" lon="-0.8446994530443641">
<ele>476</ele>
<time>2014-06-28T10:41:57Z</time>
</trkpt>
<trkpt lat="38.44294411013285" lon="-0.8446994530419412">
<ele>476</ele>
<time>2014-06-28T10:41:58Z</time>
</trkpt>
<trkpt lat="38.44294411013293" lon="-0.844699453041931">
<ele>476</ele>
<time>2014-06-28T10:41:59Z</time>
</trkpt>
<trkpt lat="38.44294411013293" lon="-0.844699453041931">
<ele>476</ele>
<time>2014-06-28T10:42:00Z</time>
</trkpt>
<trkpt lat="38.44294411013293" lon="-0.844699453041931">
<ele>476</ele>
<time>2014-06-28T10:42:01Z</time>
</trkpt>
<trkpt lat="38.44294909986648" lon="-0.8446975304993155">
<ele>476</ele>
<time>2014-06-28T10:42:02Z</time>
</trkpt>
<trkpt lat="38.442956830451564" lon="-0.8446960072751012">
<ele>476</ele>
<time>2014-06-28T10:42:03Z</time>
</trkpt>
<trkpt lat="38.44296775422935" lon="-0.8446973557808756">
<ele>476</ele>
<time>2014-06-28T10:42:04Z</time>
</trkpt>
<trkpt lat="38.44297936026088" lon="-0.8446994662794702">
<ele>476</ele>
<time>2014-06-28T10:42:05Z</time>
</trkpt>
<trkpt lat="38.44299223543953" lon="-0.8447039187109819">
<ele>476</ele>
<time>2014-06-28T10:42:06Z</time>
</trkpt>
<trkpt lat="38.44300733205036" lon="-0.8447151533184498">
<ele>476</ele>
<time>2014-06-28T10:42:07Z</time>
</trkpt>
<trkpt lat="38.44302459855959" lon="-0.8447333241567836">
<ele>476</ele>
<time>2014-06-28T10:42:08Z</time>
</trkpt>
<trkpt lat="38.44304026048499" lon="-0.8447508785040818">
<ele>476</ele>
<time>2014-06-28T10:42:09Z</time>
</trkpt>
<trkpt lat="38.44305748050141" lon="-0.844772992397618">
<ele>476</ele>
<time>2014-06-28T10:42:10Z</time>
</trkpt>
<trkpt lat="38.44307336755289" lon="-0.844795095331988">
<ele>476</ele>
<time>2014-06-28T10:42:11Z</time>
</trkpt>
<trkpt lat="38.44308753154905" lon="-0.8448169951479216">
<ele>476</ele>
<time>2014-06-28T10:42:12Z</time>
</trkpt>
<trkpt lat="38.443101797331366" lon="-0.844843697932243">
<ele>476</ele>
<time>2014-06-28T10:42:13Z</time>
</trkpt>
<trkpt lat="38.44311495389732" lon="-0.8448729939735434">
<ele>476</ele>
<time>2014-06-28T10:42:14Z</time>
</trkpt>
<trkpt lat="38.4431268860416" lon="-0.8449032713766155">
<ele>476</ele>
<time>2014-06-28T10:42:15Z</time>
</trkpt>
<trkpt lat="38.44313808053677" lon="-0.844932073672837">
<ele>476</ele>
<time>2014-06-28T10:42:16Z</time>
</trkpt>
<trkpt lat="38.443147999195055" lon="-0.844959595662237">
<ele>476</ele>
<time>2014-06-28T10:42:17Z</time>
</trkpt>
<trkpt lat="38.44315752778513" lon="-0.8449869052463521">
<ele>476</ele>
<time>2014-06-28T10:42:18Z</time>
</trkpt>
<trkpt lat="38.443166507563475" lon="-0.8450137811510232">
<ele>476</ele>
<time>2014-06-28T10:42:19Z</time>
</trkpt>
<trkpt lat="38.44317429846023" lon="-0.8450398528488497">
<ele>476</ele>
<time>2014-06-28T10:42:20Z</time>
</trkpt>
<trkpt lat="38.44318107803035" lon="-0.8450660713509536">
<ele>476</ele>
<time>2014-06-28T10:42:21Z</time>
</trkpt>
<trkpt lat="38.44318662513747" lon="-0.8450913381437287">
<ele>477</ele>
<time>2014-06-28T10:42:22Z</time>
</trkpt>
<trkpt lat="38.44319309786267" lon="-0.845121576654966">
<ele>477</ele>
<time>2014-06-28T10:42:23Z</time>
</trkpt>
<trkpt lat="38.44319869912698" lon="-0.8451500561755816">
<ele>477</ele>
<time>2014-06-28T10:42:24Z</time>
</trkpt>
<trkpt lat="38.443205193332055" lon="-0.8451833493650247">
<ele>477</ele>
<time>2014-06-28T10:42:25Z</time>
</trkpt>
<trkpt lat="38.44320719681145" lon="-0.8452230678981618">
<ele>477</ele>
<time>2014-06-28T10:42:26Z</time>
</trkpt>
<trkpt lat="38.443217294521794" lon="-0.845269407019978">
<ele>477</ele>
<time>2014-06-28T10:42:27Z</time>
</trkpt>
<trkpt lat="38.443219984457116" lon="-0.845323869440221">
<ele>477</ele>
<time>2014-06-28T10:42:28Z</time>
</trkpt>
<trkpt lat="38.44322037140851" lon="-0.8453737116535295">
<ele>477</ele>
<time>2014-06-28T10:42:29Z</time>
</trkpt>
<trkpt lat="38.44322063581364" lon="-0.8453970877149974">
<ele>477</ele>
<time>2014-06-28T10:42:30Z</time>
</trkpt>
<trkpt lat="38.44322105633232" lon="-0.8454152705852653">
<ele>477</ele>
<time>2014-06-28T10:42:31Z</time>
</trkpt>
<trkpt lat="38.44322140668166" lon="-0.845435480848414">
<ele>477</ele>
<time>2014-06-28T10:42:32Z</time>
</trkpt>
<trkpt lat="38.44322267531121" lon="-0.8454554048309886">
<ele>477</ele>
<time>2014-06-28T10:42:33Z</time>
</trkpt>
<trkpt lat="38.44322499891524" lon="-0.8454718976014385">
<ele>477</ele>
<time>2014-06-28T10:42:34Z</time>
</trkpt>
<trkpt lat="38.443229914736214" lon="-0.8454859623351055">
<ele>477</ele>
<time>2014-06-28T10:42:35Z</time>
</trkpt>
<trkpt lat="38.44323198170009" lon="-0.8454970602367012">
<ele>477</ele>
<time>2014-06-28T10:42:36Z</time>
</trkpt>
<trkpt lat="38.44323405218482" lon="-0.845507597575327">
<ele>477</ele>
<time>2014-06-28T10:42:37Z</time>
</trkpt>
<trkpt lat="38.44323591910921" lon="-0.8455175522497279">
<ele>477</ele>
<time>2014-06-28T10:42:38Z</time>
</trkpt>
<trkpt lat="38.44323802938144" lon="-0.8455286865860612">
<ele>477</ele>
<time>2014-06-28T10:42:39Z</time>
</trkpt>
<trkpt lat="38.443242083745275" lon="-0.8455399183955005">
<ele>477</ele>
<time>2014-06-28T10:42:40Z</time>
</trkpt>
<trkpt lat="38.44324714268417" lon="-0.8455519051369385">
<ele>477</ele>
<time>2014-06-28T10:42:41Z</time>
</trkpt>
<trkpt lat="38.44325195837446" lon="-0.8455631374400902">
<ele>477</ele>
<time>2014-06-28T10:42:42Z</time>
</trkpt>
<trkpt lat="38.44325786653949" lon="-0.8455739043830777">
<ele>477</ele>
<time>2014-06-28T10:42:43Z</time>
</trkpt>
<trkpt lat="38.443268568514355" lon="-0.8455838790507093">
<ele>477</ele>
<time>2014-06-28T10:42:44Z</time>
</trkpt>
<trkpt lat="38.4432796466238" lon="-0.8455928187955721">
<ele>477</ele>
<time>2014-06-28T10:42:45Z</time>
</trkpt>
<trkpt lat="38.44329070419389" lon="-0.8456021927313049">
<ele>477</ele>
<time>2014-06-28T10:42:46Z</time>
</trkpt>
<trkpt lat="38.44328527122406" lon="-0.8456094558587651">
<ele>477</ele>
<time>2014-06-28T10:42:47Z</time>
</trkpt>
<trkpt lat="38.44328393912071" lon="-0.845617792761451">
<ele>477</ele>
<time>2014-06-28T10:42:48Z</time>
</trkpt>
<trkpt lat="38.44328301706949" lon="-0.8456268068681251">
<ele>477</ele>
<time>2014-06-28T10:42:49Z</time>
</trkpt>
<trkpt lat="38.443282514189406" lon="-0.8456387251866224">
<ele>477</ele>
<time>2014-06-28T10:42:50Z</time>
</trkpt>
<trkpt lat="38.44329232615715" lon="-0.8456646316538581">
<ele>477</ele>
<time>2014-06-28T10:42:51Z</time>
</trkpt>
<trkpt lat="38.44329973396304" lon="-0.8456880357926184">
<ele>477</ele>
<time>2014-06-28T10:42:52Z</time>
</trkpt>
<trkpt lat="38.44331009725791" lon="-0.8457039751325583">
<ele>477</ele>
<time>2014-06-28T10:42:53Z</time>
</trkpt>
<trkpt lat="38.44332122404672" lon="-0.8457140373894395">
<ele>477</ele>
<time>2014-06-28T10:42:54Z</time>
</trkpt>
<trkpt lat="38.443329725655666" lon="-0.8457180322941233">
<ele>477</ele>
<time>2014-06-28T10:42:55Z</time>
</trkpt>
<trkpt lat="38.44333743984051" lon="-0.8457180247285541">
<ele>477</ele>
<time>2014-06-28T10:42:56Z</time>
</trkpt>
<trkpt lat="38.44334510346356" lon="-0.8457220393936041">
<ele>477</ele>
<time>2014-06-28T10:42:57Z</time>
</trkpt>
<trkpt lat="38.4433598506037" lon="-0.8457197200222626">
<ele>477</ele>
<time>2014-06-28T10:42:58Z</time>
</trkpt>
<trkpt lat="38.44337406874405" lon="-0.8457173009955026">
<ele>477</ele>
<time>2014-06-28T10:42:59Z</time>
</trkpt>
<trkpt lat="38.44338367591501" lon="-0.8457209548551176">
<ele>477</ele>
<time>2014-06-28T10:43:00Z</time>
</trkpt>
<trkpt lat="38.443392310701576" lon="-0.8457269677999153">
<ele>477</ele>
<time>2014-06-28T10:43:01Z</time>
</trkpt>
<trkpt lat="38.44340087851799" lon="-0.8457338922904518">
<ele>477</ele>
<time>2014-06-28T10:43:02Z</time>
</trkpt>
<trkpt lat="38.443409110345385" lon="-0.8457413286644851">
<ele>477</ele>
<time>2014-06-28T10:43:03Z</time>
</trkpt>
<trkpt lat="38.4434166767957" lon="-0.8457461595166978">
<ele>477</ele>
<time>2014-06-28T10:43:04Z</time>
</trkpt>
<trkpt lat="38.443424167454396" lon="-0.8457510555657682">
<ele>477</ele>
<time>2014-06-28T10:43:05Z</time>
</trkpt>
<trkpt lat="38.443431819757215" lon="-0.8457544438088468">
<ele>477</ele>
<time>2014-06-28T10:43:06Z</time>
</trkpt>
<trkpt lat="38.44343974098064" lon="-0.8457569447582456">
<ele>477</ele>
<time>2014-06-28T10:43:07Z</time>
</trkpt>
<trkpt lat="38.443450067035265" lon="-0.8457619035081441">
<ele>477</ele>
<time>2014-06-28T10:43:08Z</time>
</trkpt>
<trkpt lat="38.44346031007536" lon="-0.8457686385252053">
<ele>477</ele>
<time>2014-06-28T10:43:09Z</time>
</trkpt>
<trkpt lat="38.44346655675978" lon="-0.8457863269378995">
<ele>477</ele>
<time>2014-06-28T10:43:10Z</time>
</trkpt>
<trkpt lat="38.443463210508305" lon="-0.8458130011011132">
<ele>477</ele>
<time>2014-06-28T10:43:11Z</time>
</trkpt>
<trkpt lat="38.44346706219211" lon="-0.8458324542524425">
<ele>477</ele>
<time>2014-06-28T10:43:12Z</time>
</trkpt>
<trkpt lat="38.443470553080054" lon="-0.8458524193534516">
<ele>477</ele>
<time>2014-06-28T10:43:13Z</time>
</trkpt>
<trkpt lat="38.44347937012517" lon="-0.8458633025529573">
<ele>477</ele>
<time>2014-06-28T10:43:14Z</time>
</trkpt>
<trkpt lat="38.443487750006305" lon="-0.845874670835465">
<ele>477</ele>
<time>2014-06-28T10:43:15Z</time>
</trkpt>
<trkpt lat="38.44349519883604" lon="-0.8458848201434066">
<ele>477</ele>
<time>2014-06-28T10:43:16Z</time>
</trkpt>
<trkpt lat="38.443501164081134" lon="-0.8458991742261233">
<ele>477</ele>
<time>2014-06-28T10:43:17Z</time>
</trkpt>
<trkpt lat="38.44350724860622" lon="-0.8459112066462234">
<ele>477</ele>
<time>2014-06-28T10:43:18Z</time>
</trkpt>
<trkpt lat="38.44351459595704" lon="-0.845924059452397">
<ele>477</ele>
<time>2014-06-28T10:43:19Z</time>
</trkpt>
<trkpt lat="38.443521916295666" lon="-0.8459339274680798">
<ele>477</ele>
<time>2014-06-28T10:43:20Z</time>
</trkpt>
<trkpt lat="38.443526296835046" lon="-0.8459457781905394">
<ele>477</ele>
<time>2014-06-28T10:43:21Z</time>
</trkpt>
<trkpt lat="38.44352867878072" lon="-0.8459588342259605">
<ele>477</ele>
<time>2014-06-28T10:43:22Z</time>
</trkpt>
<trkpt lat="38.44353021353381" lon="-0.8459701863246979">
<ele>477</ele>
<time>2014-06-28T10:43:23Z</time>
</trkpt>
<trkpt lat="38.44353437642987" lon="-0.8459822113549252">
<ele>477</ele>
<time>2014-06-28T10:43:24Z</time>
</trkpt>
<trkpt lat="38.44353771499728" lon="-0.8459968353365097">
<ele>477</ele>
<time>2014-06-28T10:43:25Z</time>
</trkpt>
<trkpt lat="38.443545648052925" lon="-0.8460119689317358">
<ele>477</ele>
<time>2014-06-28T10:43:26Z</time>
</trkpt>
<trkpt lat="38.44355497079111" lon="-0.8460248557750343">
<ele>477</ele>
<time>2014-06-28T10:43:27Z</time>
</trkpt>
<trkpt lat="38.443562968991785" lon="-0.846037229083168">
<ele>477</ele>
<time>2014-06-28T10:43:28Z</time>
</trkpt>
<trkpt lat="38.44357044190993" lon="-0.8460497299520991">
<ele>477</ele>
<time>2014-06-28T10:43:29Z</time>
</trkpt>
<trkpt lat="38.44357667023289" lon="-0.8460662139670765">
<ele>477</ele>
<time>2014-06-28T10:43:30Z</time>
</trkpt>
<trkpt lat="38.44358251824725" lon="-0.8460847709201545">
<ele>477</ele>
<time>2014-06-28T10:43:31Z</time>
</trkpt>
<trkpt lat="38.44358884713094" lon="-0.8461077523812416">
<ele>477</ele>
<time>2014-06-28T10:43:32Z</time>
</trkpt>
<trkpt lat="38.44359533173931" lon="-0.846126662084667">
<ele>477</ele>
<time>2014-06-28T10:43:33Z</time>
</trkpt>
<trkpt lat="38.44360254075766" lon="-0.846143518090054">
<ele>477</ele>
<time>2014-06-28T10:43:34Z</time>
</trkpt>
<trkpt lat="38.44360875286074" lon="-0.8461597610928886">
<ele>477</ele>
<time>2014-06-28T10:43:35Z</time>
</trkpt>
<trkpt lat="38.44361455784672" lon="-0.8461770133924882">
<ele>477</ele>
<time>2014-06-28T10:43:36Z</time>
</trkpt>
<trkpt lat="38.44362184832384" lon="-0.8461921888397514">
<ele>477</ele>
<time>2014-06-28T10:43:37Z</time>
</trkpt>
<trkpt lat="38.443629282194436" lon="-0.8462106655049331">
<ele>477</ele>
<time>2014-06-28T10:43:38Z</time>
</trkpt>
<trkpt lat="38.44363629605339" lon="-0.8462292105062088">
<ele>477</ele>
<time>2014-06-28T10:43:39Z</time>
</trkpt>
<trkpt lat="38.44364528168354" lon="-0.8462473626230945">
<ele>477</ele>
<time>2014-06-28T10:43:40Z</time>
</trkpt>
<trkpt lat="38.44365421616376" lon="-0.8462643029607563">
<ele>477</ele>
<time>2014-06-28T10:43:41Z</time>
</trkpt>
<trkpt lat="38.44366501108043" lon="-0.8462806945712313">
<ele>477</ele>
<time>2014-06-28T10:43:42Z</time>
</trkpt>
<trkpt lat="38.44367296625742" lon="-0.8462986138496144">
<ele>477</ele>
<time>2014-06-28T10:43:43Z</time>
</trkpt>
<trkpt lat="38.44368188459733" lon="-0.846315975228906">
<ele>477</ele>
<time>2014-06-28T10:43:44Z</time>
</trkpt>
<trkpt lat="38.44369154712448" lon="-0.8463316924952271">
<ele>477</ele>
<time>2014-06-28T10:43:45Z</time>
</trkpt>
<trkpt lat="38.44370156542941" lon="-0.8463433008217468">
<ele>477</ele>
<time>2014-06-28T10:43:46Z</time>
</trkpt>
<trkpt lat="38.443710825724125" lon="-0.8463551447558326">
<ele>477</ele>
<time>2014-06-28T10:43:47Z</time>
</trkpt>
<trkpt lat="38.443719587894044" lon="-0.846367409125563">
<ele>477</ele>
<time>2014-06-28T10:43:48Z</time>
</trkpt>
<trkpt lat="38.443727664853725" lon="-0.8463805303514941">
<ele>477</ele>
<time>2014-06-28T10:43:49Z</time>
</trkpt>
<trkpt lat="38.44373548065685" lon="-0.8463945019253545">
<ele>477</ele>
<time>2014-06-28T10:43:50Z</time>
</trkpt>
<trkpt lat="38.44374253552686" lon="-0.8464107022495099">
<ele>477</ele>
<time>2014-06-28T10:43:51Z</time>
</trkpt>
<trkpt lat="38.44374825598645" lon="-0.8464283062960215">
<ele>477</ele>
<time>2014-06-28T10:43:52Z</time>
</trkpt>
<trkpt lat="38.44375388011453" lon="-0.8464470682727181">
<ele>477</ele>
<time>2014-06-28T10:43:53Z</time>
</trkpt>
<trkpt lat="38.443763611519316" lon="-0.8464666117058635">
<ele>477</ele>
<time>2014-06-28T10:43:54Z</time>
</trkpt>
<trkpt lat="38.44377567440499" lon="-0.8464864948414846">
<ele>477</ele>
<time>2014-06-28T10:43:55Z</time>
</trkpt>
<trkpt lat="38.44378777927403" lon="-0.846506376866193">
<ele>477</ele>
<time>2014-06-28T10:43:56Z</time>
</trkpt>
<trkpt lat="38.44380256168581" lon="-0.8465233914984038">
<ele>477</ele>
<time>2014-06-28T10:43:57Z</time>
</trkpt>
<trkpt lat="38.44381693904031" lon="-0.8465378987052391">
<ele>477</ele>
<time>2014-06-28T10:43:58Z</time>
</trkpt>
<trkpt lat="38.44382812067512" lon="-0.8465498476077588">
<ele>477</ele>
<time>2014-06-28T10:43:59Z</time>
</trkpt>
<trkpt lat="38.44383685307346" lon="-0.8465591278052506">
<ele>478</ele>
<time>2014-06-28T10:44:00Z</time>
</trkpt>
<trkpt lat="38.4438437557056" lon="-0.8465657538721973">
<ele>478</ele>
<time>2014-06-28T10:44:01Z</time>
</trkpt>
<trkpt lat="38.44384570254936" lon="-0.846576578380321">
<ele>478</ele>
<time>2014-06-28T10:44:02Z</time>
</trkpt>
<trkpt lat="38.44385618481345" lon="-0.8465735421990888">
<ele>478</ele>
<time>2014-06-28T10:44:03Z</time>
</trkpt>
<trkpt lat="38.44386830800437" lon="-0.8465767022347055">
<ele>478</ele>
<time>2014-06-28T10:44:04Z</time>
</trkpt>
<trkpt lat="38.443880541651055" lon="-0.8465815787048622">
<ele>478</ele>
<time>2014-06-28T10:44:05Z</time>
</trkpt>
<trkpt lat="38.44389354497276" lon="-0.8465893150231206">
<ele>478</ele>
<time>2014-06-28T10:44:06Z</time>
</trkpt>
<trkpt lat="38.44390744324049" lon="-0.846600733009326">
<ele>478</ele>
<time>2014-06-28T10:44:07Z</time>
</trkpt>
<trkpt lat="38.44390313121497" lon="-0.8466271616695914">
<ele>478</ele>
<time>2014-06-28T10:44:08Z</time>
</trkpt>
<trkpt lat="38.44390377257506" lon="-0.8466524979163841">
<ele>478</ele>
<time>2014-06-28T10:44:09Z</time>
</trkpt>
<trkpt lat="38.44390609680055" lon="-0.8466786288506314">
<ele>478</ele>
<time>2014-06-28T10:44:10Z</time>
</trkpt>
<trkpt lat="38.443908950990654" lon="-0.8467037331948366">
<ele>478</ele>
<time>2014-06-28T10:44:11Z</time>
</trkpt>
<trkpt lat="38.443922151097915" lon="-0.8467181758296335">
<ele>477</ele>
<time>2014-06-28T10:44:12Z</time>
</trkpt>
<trkpt lat="38.443934894902824" lon="-0.8467318865227749">
<ele>477</ele>
<time>2014-06-28T10:44:13Z</time>
</trkpt>
<trkpt lat="38.44395751327424" lon="-0.846742135240784">
<ele>477</ele>
<time>2014-06-28T10:44:14Z</time>
</trkpt>
<trkpt lat="38.44398782959191" lon="-0.8467297336329556">
<ele>477</ele>
<time>2014-06-28T10:44:15Z</time>
</trkpt>
<trkpt lat="38.44401737311781" lon="-0.8467253751952702">
<ele>477</ele>
<time>2014-06-28T10:44:16Z</time>
</trkpt>
<trkpt lat="38.44404748860891" lon="-0.8467202742648698">
<ele>477</ele>
<time>2014-06-28T10:44:17Z</time>
</trkpt>
<trkpt lat="38.444075192507086" lon="-0.8467216236657583">
<ele>477</ele>
<time>2014-06-28T10:44:18Z</time>
</trkpt>
<trkpt lat="38.44409297262798" lon="-0.8467354375269921">
<ele>477</ele>
<time>2014-06-28T10:44:19Z</time>
</trkpt>
<trkpt lat="38.44410455785383" lon="-0.8467511988712976">
<ele>477</ele>
<time>2014-06-28T10:44:20Z</time>
</trkpt>
<trkpt lat="38.44412268586422" lon="-0.8467607229698928">
<ele>477</ele>
<time>2014-06-28T10:44:21Z</time>
</trkpt>
<trkpt lat="38.44413835881679" lon="-0.8467692594395345">
<ele>477</ele>
<time>2014-06-28T10:44:22Z</time>
</trkpt>
<trkpt lat="38.44415247750513" lon="-0.8467773603581608">
<ele>477</ele>
<time>2014-06-28T10:44:23Z</time>
</trkpt>
<trkpt lat="38.444165361188716" lon="-0.8467851788105343">
<ele>478</ele>
<time>2014-06-28T10:44:24Z</time>
</trkpt>
<trkpt lat="38.44417098340343" lon="-0.8467975586314425">
<ele>478</ele>
<time>2014-06-28T10:44:25Z</time>
</trkpt>
<trkpt lat="38.44417185672665" lon="-0.8468084147007058">
<ele>478</ele>
<time>2014-06-28T10:44:26Z</time>
</trkpt>
<trkpt lat="38.444173365049544" lon="-0.8468211067080355">
<ele>478</ele>
<time>2014-06-28T10:44:27Z</time>
</trkpt>
<trkpt lat="38.444174708676606" lon="-0.8468332311711297">
<ele>478</ele>
<time>2014-06-28T10:44:28Z</time>
</trkpt>
<trkpt lat="38.444176373028796" lon="-0.8468449012518263">
<ele>478</ele>
<time>2014-06-28T10:44:29Z</time>
</trkpt>
<trkpt lat="38.444185247985274" lon="-0.8468530066343408">
<ele>478</ele>
<time>2014-06-28T10:44:30Z</time>
</trkpt>
<trkpt lat="38.444194416559924" lon="-0.8468579465709938">
<ele>478</ele>
<time>2014-06-28T10:44:31Z</time>
</trkpt>
<trkpt lat="38.44419018151898" lon="-0.8468653545002661">
<ele>478</ele>
<time>2014-06-28T10:44:32Z</time>
</trkpt>
<trkpt lat="38.444193350029764" lon="-0.8468737100008408">
<ele>478</ele>
<time>2014-06-28T10:44:33Z</time>
</trkpt>
<trkpt lat="38.44419596013759" lon="-0.8468806998850991">
<ele>478</ele>
<time>2014-06-28T10:44:34Z</time>
</trkpt>
<trkpt lat="38.44420928916963" lon="-0.846869614375744">
<ele>478</ele>
<time>2014-06-28T10:44:35Z</time>
</trkpt>
<trkpt lat="38.44422266610048" lon="-0.846862732965146">
<ele>478</ele>
<time>2014-06-28T10:44:36Z</time>
</trkpt>
<trkpt lat="38.44422630706416" lon="-0.8468721467710781">
<ele>478</ele>
<time>2014-06-28T10:44:37Z</time>
</trkpt>
<trkpt lat="38.444238776258935" lon="-0.8468679364365873">
<ele>478</ele>
<time>2014-06-28T10:44:38Z</time>
</trkpt>
<trkpt lat="38.44424880392735" lon="-0.8468634326216209">
<ele>478</ele>
<time>2014-06-28T10:44:39Z</time>
</trkpt>
<trkpt lat="38.44425730230223" lon="-0.8468525368809516">
<ele>478</ele>
<time>2014-06-28T10:44:40Z</time>
</trkpt>
<trkpt lat="38.44426538450444" lon="-0.846842611920793">
<ele>478</ele>
<time>2014-06-28T10:44:41Z</time>
</trkpt>
<trkpt lat="38.44427262101931" lon="-0.8468324200756951">
<ele>478</ele>
<time>2014-06-28T10:44:42Z</time>
</trkpt>
<trkpt lat="38.44428243168773" lon="-0.8468294757853774">
<ele>478</ele>
<time>2014-06-28T10:44:43Z</time>
</trkpt>
<trkpt lat="38.44429581511058" lon="-0.8468371681059141">
<ele>478</ele>
<time>2014-06-28T10:44:44Z</time>
</trkpt>
<trkpt lat="38.444309313712395" lon="-0.8468479979320417">
<ele>478</ele>
<time>2014-06-28T10:44:45Z</time>
</trkpt>
<trkpt lat="38.444310103823064" lon="-0.8468834156536781">
<ele>478</ele>
<time>2014-06-28T10:44:46Z</time>
</trkpt>
<trkpt lat="38.444311625972404" lon="-0.8469245718094969">
<ele>478</ele>
<time>2014-06-28T10:44:47Z</time>
</trkpt>
<trkpt lat="38.4443125584318" lon="-0.8469621816958629">
<ele>478</ele>
<time>2014-06-28T10:44:48Z</time>
</trkpt>
<trkpt lat="38.44431357951344" lon="-0.8469967745199267">
<ele>478</ele>
<time>2014-06-28T10:44:49Z</time>
</trkpt>
<trkpt lat="38.44431812163681" lon="-0.8470279543863677">
<ele>478</ele>
<time>2014-06-28T10:44:50Z</time>
</trkpt>
<trkpt lat="38.444320850899445" lon="-0.847054521258315">
<ele>478</ele>
<time>2014-06-28T10:44:51Z</time>
</trkpt>
<trkpt lat="38.444315654534094" lon="-0.8470724178322949">
<ele>478</ele>
<time>2014-06-28T10:44:52Z</time>
</trkpt>
<trkpt lat="38.444327846441226" lon="-0.8470945991479282">
<ele>478</ele>
<time>2014-06-28T10:44:53Z</time>
</trkpt>
<trkpt lat="38.44434227217645" lon="-0.8471115822128893">
<ele>478</ele>
<time>2014-06-28T10:44:54Z</time>
</trkpt>
<trkpt lat="38.444367554434926" lon="-0.8471303891820618">
<ele>478</ele>
<time>2014-06-28T10:44:55Z</time>
</trkpt>
<trkpt lat="38.44439437647138" lon="-0.8471482378055418">
<ele>478</ele>
<time>2014-06-28T10:44:56Z</time>
</trkpt>
<trkpt lat="38.44442612804536" lon="-0.8471576310207302">
<ele>478</ele>
<time>2014-06-28T10:44:57Z</time>
</trkpt>
<trkpt lat="38.44445825596284" lon="-0.8471679129700833">
<ele>478</ele>
<time>2014-06-28T10:44:58Z</time>
</trkpt>
<trkpt lat="38.4444921605823" lon="-0.8471822238044848">
<ele>478</ele>
<time>2014-06-28T10:44:59Z</time>
</trkpt>
<trkpt lat="38.44450864211759" lon="-0.8472094554612967">
<ele>478</ele>
<time>2014-06-28T10:45:00Z</time>
</trkpt>
<trkpt lat="38.44451747899538" lon="-0.847236546887646">
<ele>478</ele>
<time>2014-06-28T10:45:01Z</time>
</trkpt>
<trkpt lat="38.444525473796546" lon="-0.8472562410974779">
<ele>478</ele>
<time>2014-06-28T10:45:02Z</time>
</trkpt>
<trkpt lat="38.444532468119135" lon="-0.8472754715841628">
<ele>478</ele>
<time>2014-06-28T10:45:03Z</time>
</trkpt>
<trkpt lat="38.444540400434384" lon="-0.8472980402245365">
<ele>478</ele>
<time>2014-06-28T10:45:04Z</time>
</trkpt>
<trkpt lat="38.444548566773065" lon="-0.8473213301279372">
<ele>478</ele>
<time>2014-06-28T10:45:05Z</time>
</trkpt>
<trkpt lat="38.44455896837045" lon="-0.8473491096209049">
<ele>478</ele>
<time>2014-06-28T10:45:06Z</time>
</trkpt>
<trkpt lat="38.444578554291205" lon="-0.8473661141253522">
<ele>478</ele>
<time>2014-06-28T10:45:07Z</time>
</trkpt>
<trkpt lat="38.44459692095663" lon="-0.8473824599656841">
<ele>478</ele>
<time>2014-06-28T10:45:08Z</time>
</trkpt>
<trkpt lat="38.444613711887904" lon="-0.8473999136425916">
<ele>478</ele>
<time>2014-06-28T10:45:09Z</time>
</trkpt>
<trkpt lat="38.444623620328" lon="-0.8474251951156233">
<ele>478</ele>
<time>2014-06-28T10:45:10Z</time>
</trkpt>
<trkpt lat="38.44463094352321" lon="-0.8474512019304704">
<ele>478</ele>
<time>2014-06-28T10:45:11Z</time>
</trkpt>
<trkpt lat="38.44463681827069" lon="-0.8474763359251902">
<ele>478</ele>
<time>2014-06-28T10:45:12Z</time>
</trkpt>
<trkpt lat="38.44464212221671" lon="-0.8474940015966758">
<ele>478</ele>
<time>2014-06-28T10:45:13Z</time>
</trkpt>
<trkpt lat="38.44464406849714" lon="-0.8475075586748221">
<ele>478</ele>
<time>2014-06-28T10:45:14Z</time>
</trkpt>
<trkpt lat="38.44464497331933" lon="-0.8475193689606966">
<ele>478</ele>
<time>2014-06-28T10:45:15Z</time>
</trkpt>
<trkpt lat="38.44464617227728" lon="-0.847531894334539">
<ele>478</ele>
<time>2014-06-28T10:45:16Z</time>
</trkpt>
<trkpt lat="38.44464771104341" lon="-0.847544161036589">
<ele>478</ele>
<time>2014-06-28T10:45:17Z</time>
</trkpt>
<trkpt lat="38.44464961988056" lon="-0.847556699364607">
<ele>478</ele>
<time>2014-06-28T10:45:18Z</time>
</trkpt>
<trkpt lat="38.44463916376044" lon="-0.8475752278203005">
<ele>478</ele>
<time>2014-06-28T10:45:19Z</time>
</trkpt>
<trkpt lat="38.44464650443342" lon="-0.8475716723102996">
<ele>478</ele>
<time>2014-06-28T10:45:20Z</time>
</trkpt>
<trkpt lat="38.4446531607764" lon="-0.847569260371749">
<ele>478</ele>
<time>2014-06-28T10:45:21Z</time>
</trkpt>
<trkpt lat="38.44466022419157" lon="-0.8475626416274815">
<ele>478</ele>
<time>2014-06-28T10:45:22Z</time>
</trkpt>
<trkpt lat="38.44466940765333" lon="-0.8475604078867566">
<ele>478</ele>
<time>2014-06-28T10:45:23Z</time>
</trkpt>
<trkpt lat="38.444678533862" lon="-0.8475658649643291">
<ele>478</ele>
<time>2014-06-28T10:45:24Z</time>
</trkpt>
<trkpt lat="38.44468859058239" lon="-0.8475747526457369">
<ele>478</ele>
<time>2014-06-28T10:45:25Z</time>
</trkpt>
<trkpt lat="38.444700421895774" lon="-0.8475850162577946">
<ele>478</ele>
<time>2014-06-28T10:45:26Z</time>
</trkpt>
<trkpt lat="38.444713114005005" lon="-0.8475931125302024">
<ele>478</ele>
<time>2014-06-28T10:45:27Z</time>
</trkpt>
<trkpt lat="38.444725457512426" lon="-0.8475992828913008">
<ele>478</ele>
<time>2014-06-28T10:45:28Z</time>
</trkpt>
<trkpt lat="38.4447388733761" lon="-0.847604663382423">
<ele>478</ele>
<time>2014-06-28T10:45:29Z</time>
</trkpt>
<trkpt lat="38.44475178387711" lon="-0.8476099319437524">
<ele>478</ele>
<time>2014-06-28T10:45:30Z</time>
</trkpt>
<trkpt lat="38.444761601007826" lon="-0.8476135374155169">
<ele>478</ele>
<time>2014-06-28T10:45:31Z</time>
</trkpt>
<trkpt lat="38.44476714062284" lon="-0.8476175012628222">
<ele>478</ele>
<time>2014-06-28T10:45:32Z</time>
</trkpt>
<trkpt lat="38.44476785113391" lon="-0.847621124793022">
<ele>478</ele>
<time>2014-06-28T10:45:33Z</time>
</trkpt>
<trkpt lat="38.44476722909108" lon="-0.8476270387131389">
<ele>478</ele>
<time>2014-06-28T10:45:34Z</time>
</trkpt>
<trkpt lat="38.44476697610256" lon="-0.8476359538389826">
<ele>478</ele>
<time>2014-06-28T10:45:35Z</time>
</trkpt>
<trkpt lat="38.44476780609996" lon="-0.8476488371109767">
<ele>478</ele>
<time>2014-06-28T10:45:36Z</time>
</trkpt>
<trkpt lat="38.444769906464586" lon="-0.8476635616646464">
<ele>478</ele>
<time>2014-06-28T10:45:37Z</time>
</trkpt>
<trkpt lat="38.444771687091674" lon="-0.8476768689804232">
<ele>478</ele>
<time>2014-06-28T10:45:38Z</time>
</trkpt>
<trkpt lat="38.444774404655796" lon="-0.8476917553895635">
<ele>478</ele>
<time>2014-06-28T10:45:39Z</time>
</trkpt>
<trkpt lat="38.444777321121755" lon="-0.8477069028755375">
<ele>478</ele>
<time>2014-06-28T10:45:40Z</time>
</trkpt>
<trkpt lat="38.44478225585328" lon="-0.8477219166708395">
<ele>478</ele>
<time>2014-06-28T10:45:41Z</time>
</trkpt>
<trkpt lat="38.44478889030001" lon="-0.8477342787694602">
<ele>478</ele>
<time>2014-06-28T10:45:42Z</time>
</trkpt>
<trkpt lat="38.44479433120272" lon="-0.8477468390501688">
<ele>478</ele>
<time>2014-06-28T10:45:43Z</time>
</trkpt>
<trkpt lat="38.444796367687516" lon="-0.8477613196684783">
<ele>478</ele>
<time>2014-06-28T10:45:44Z</time>
</trkpt>
<trkpt lat="38.4447986693212" lon="-0.8477807096583797">
<ele>478</ele>
<time>2014-06-28T10:45:45Z</time>
</trkpt>
<trkpt lat="38.444802707979385" lon="-0.8477977832843574">
<ele>478</ele>
<time>2014-06-28T10:45:46Z</time>
</trkpt>
<trkpt lat="38.444807259239774" lon="-0.8478151744969857">
<ele>478</ele>
<time>2014-06-28T10:45:47Z</time>
</trkpt>
<trkpt lat="38.44481038091709" lon="-0.8478327292764795">
<ele>478</ele>
<time>2014-06-28T10:45:48Z</time>
</trkpt>
<trkpt lat="38.44481353649757" lon="-0.847849943547466">
<ele>478</ele>
<time>2014-06-28T10:45:49Z</time>
</trkpt>
<trkpt lat="38.444818935735" lon="-0.8478595415940655">
<ele>478</ele>
<time>2014-06-28T10:45:50Z</time>
</trkpt>
<trkpt lat="38.444822981310374" lon="-0.8478689059766987">
<ele>478</ele>
<time>2014-06-28T10:45:51Z</time>
</trkpt>
<trkpt lat="38.444826840563536" lon="-0.8478850714645042">
<ele>478</ele>
<time>2014-06-28T10:45:52Z</time>
</trkpt>
<trkpt lat="38.444832915881435" lon="-0.8479037619035967">
<ele>478</ele>
<time>2014-06-28T10:45:53Z</time>
</trkpt>
<trkpt lat="38.4448403669411" lon="-0.8479211100442205">
<ele>478</ele>
<time>2014-06-28T10:45:54Z</time>
</trkpt>
<trkpt lat="38.444845821748885" lon="-0.8479330200091576">
<ele>478</ele>
<time>2014-06-28T10:45:55Z</time>
</trkpt>
<trkpt lat="38.44485059303033" lon="-0.8479457730733392">
<ele>478</ele>
<time>2014-06-28T10:45:56Z</time>
</trkpt>
<trkpt lat="38.44485365768944" lon="-0.8479597405646637">
<ele>478</ele>
<time>2014-06-28T10:45:57Z</time>
</trkpt>
<trkpt lat="38.444858317035475" lon="-0.8479755962635813">
<ele>478</ele>
<time>2014-06-28T10:45:58Z</time>
</trkpt>
<trkpt lat="38.44486204969346" lon="-0.8479924186364949">
<ele>478</ele>
<time>2014-06-28T10:45:59Z</time>
</trkpt>
<trkpt lat="38.44486595456104" lon="-0.8480082751104393">
<ele>478</ele>
<time>2014-06-28T10:46:00Z</time>
</trkpt>
<trkpt lat="38.444874014147935" lon="-0.8480257127890606">
<ele>478</ele>
<time>2014-06-28T10:46:01Z</time>
</trkpt>
<trkpt lat="38.444880857204915" lon="-0.8480526418510904">
<ele>478</ele>
<time>2014-06-28T10:46:02Z</time>
</trkpt>
<trkpt lat="38.44488652693923" lon="-0.848078047640986">
<ele>478</ele>
<time>2014-06-28T10:46:03Z</time>
</trkpt>
<trkpt lat="38.44489106710537" lon="-0.8481037570048572">
<ele>478</ele>
<time>2014-06-28T10:46:04Z</time>
</trkpt>
<trkpt lat="38.444894814006275" lon="-0.8481304502968985">
<ele>478</ele>
<time>2014-06-28T10:46:05Z</time>
</trkpt>
<trkpt lat="38.44489754420753" lon="-0.8481494434134818">
<ele>478</ele>
<time>2014-06-28T10:46:06Z</time>
</trkpt>
<trkpt lat="38.44490252365511" lon="-0.8481648835242813">
<ele>478</ele>
<time>2014-06-28T10:46:07Z</time>
</trkpt>
<trkpt lat="38.444907679866105" lon="-0.8481799155683842">
<ele>478</ele>
<time>2014-06-28T10:46:08Z</time>
</trkpt>
<trkpt lat="38.444911707582406" lon="-0.8481917472181176">
<ele>478</ele>
<time>2014-06-28T10:46:09Z</time>
</trkpt>
<trkpt lat="38.44491433760713" lon="-0.8482009252800905">
<ele>479</ele>
<time>2014-06-28T10:46:10Z</time>
</trkpt>
<trkpt lat="38.44491878075355" lon="-0.8482110897823236">
<ele>479</ele>
<time>2014-06-28T10:46:11Z</time>
</trkpt>
<trkpt lat="38.444925951646546" lon="-0.8482256320398118">
<ele>479</ele>
<time>2014-06-28T10:46:12Z</time>
</trkpt>
<trkpt lat="38.44493438586258" lon="-0.8482411400410037">
<ele>479</ele>
<time>2014-06-28T10:46:13Z</time>
</trkpt>
<trkpt lat="38.44494267953575" lon="-0.8482562468404089">
<ele>479</ele>
<time>2014-06-28T10:46:14Z</time>
</trkpt>
<trkpt lat="38.44495148574768" lon="-0.8482713936715559">
<ele>479</ele>
<time>2014-06-28T10:46:15Z</time>
</trkpt>
<trkpt lat="38.44495574935096" lon="-0.848285894007936">
<ele>479</ele>
<time>2014-06-28T10:46:16Z</time>
</trkpt>
<trkpt lat="38.44495192375793" lon="-0.8483040756281154">
<ele>479</ele>
<time>2014-06-28T10:46:17Z</time>
</trkpt>
<trkpt lat="38.44494771301376" lon="-0.8483222847241704">
<ele>479</ele>
<time>2014-06-28T10:46:18Z</time>
</trkpt>
<trkpt lat="38.44494331464575" lon="-0.8483396679951789">
<ele>479</ele>
<time>2014-06-28T10:46:19Z</time>
</trkpt>
<trkpt lat="38.44493887201908" lon="-0.848362038266892">
<ele>479</ele>
<time>2014-06-28T10:46:20Z</time>
</trkpt>
<trkpt lat="38.44493390287825" lon="-0.8483796876669971">
<ele>479</ele>
<time>2014-06-28T10:46:21Z</time>
</trkpt>
<trkpt lat="38.44492920389097" lon="-0.8483956804691799">
<ele>479</ele>
<time>2014-06-28T10:46:22Z</time>
</trkpt>
<trkpt lat="38.44491579394736" lon="-0.848411564720552">
<ele>479</ele>
<time>2014-06-28T10:46:23Z</time>
</trkpt>
<trkpt lat="38.44490100054667" lon="-0.8484211997510129">
<ele>479</ele>
<time>2014-06-28T10:46:24Z</time>
</trkpt>
<trkpt lat="38.44488791618492" lon="-0.8484304254146535">
<ele>479</ele>
<time>2014-06-28T10:46:25Z</time>
</trkpt>
<trkpt lat="38.44487650384979" lon="-0.8484391559156358">
<ele>479</ele>
<time>2014-06-28T10:46:26Z</time>
</trkpt>
<trkpt lat="38.44486570549706" lon="-0.8484475757826561">
<ele>479</ele>
<time>2014-06-28T10:46:27Z</time>
</trkpt>
<trkpt lat="38.44485628486484" lon="-0.8484558781782403">
<ele>479</ele>
<time>2014-06-28T10:46:28Z</time>
</trkpt>
<trkpt lat="38.44484787994657" lon="-0.8484641768958682">
<ele>479</ele>
<time>2014-06-28T10:46:29Z</time>
</trkpt>
<trkpt lat="38.44483939633885" lon="-0.8484728958131287">
<ele>479</ele>
<time>2014-06-28T10:46:30Z</time>
</trkpt>
<trkpt lat="38.44482469266998" lon="-0.8484716465243175">
<ele>479</ele>
<time>2014-06-28T10:46:31Z</time>
</trkpt>
<trkpt lat="38.44481201444031" lon="-0.8484687982097303">
<ele>479</ele>
<time>2014-06-28T10:46:32Z</time>
</trkpt>
<trkpt lat="38.444801685777215" lon="-0.848468943535919">
<ele>479</ele>
<time>2014-06-28T10:46:33Z</time>
</trkpt>
<trkpt lat="38.44479150092551" lon="-0.8484695799180489">
<ele>479</ele>
<time>2014-06-28T10:46:34Z</time>
</trkpt>
<trkpt lat="38.44477931771912" lon="-0.8484707915081354">
<ele>479</ele>
<time>2014-06-28T10:46:35Z</time>
</trkpt>
<trkpt lat="38.444768215333745" lon="-0.8484743746407124">
<ele>479</ele>
<time>2014-06-28T10:46:36Z</time>
</trkpt>
<trkpt lat="38.444758511494356" lon="-0.8484802763498815">
<ele>479</ele>
<time>2014-06-28T10:46:37Z</time>
</trkpt>
<trkpt lat="38.444748780309254" lon="-0.8484861569645631">
<ele>479</ele>
<time>2014-06-28T10:46:38Z</time>
</trkpt>
<trkpt lat="38.444739511879284" lon="-0.8484923196393576">
<ele>479</ele>
<time>2014-06-28T10:46:39Z</time>
</trkpt>
<trkpt lat="38.44473000396157" lon="-0.8484989632776321">
<ele>479</ele>
<time>2014-06-28T10:46:40Z</time>
</trkpt>
<trkpt lat="38.44472000844082" lon="-0.8485051604889462">
<ele>479</ele>
<time>2014-06-28T10:46:41Z</time>
</trkpt>
<trkpt lat="38.444709942068656" lon="-0.8485133488862286">
<ele>479</ele>
<time>2014-06-28T10:46:42Z</time>
</trkpt>
<trkpt lat="38.4447002381956" lon="-0.8485211193672684">
<ele>479</ele>
<time>2014-06-28T10:46:43Z</time>
</trkpt>
<trkpt lat="38.44469025317438" lon="-0.8485285682405723">
<ele>479</ele>
<time>2014-06-28T10:46:44Z</time>
</trkpt>
<trkpt lat="38.44467938637332" lon="-0.8485357441612842">
<ele>479</ele>
<time>2014-06-28T10:46:45Z</time>
</trkpt>
<trkpt lat="38.44466861433202" lon="-0.8485426731919178">
<ele>479</ele>
<time>2014-06-28T10:46:46Z</time>
</trkpt>
<trkpt lat="38.444657934667916" lon="-0.8485504840526779">
<ele>479</ele>
<time>2014-06-28T10:46:47Z</time>
</trkpt>
<trkpt lat="38.44464741484302" lon="-0.848558141207555">
<ele>479</ele>
<time>2014-06-28T10:46:48Z</time>
</trkpt>
<trkpt lat="38.44463781317089" lon="-0.8485648638420359">
<ele>479</ele>
<time>2014-06-28T10:46:49Z</time>
</trkpt>
<trkpt lat="38.44462793845681" lon="-0.8485714031995097">
<ele>479</ele>
<time>2014-06-28T10:46:50Z</time>
</trkpt>
<trkpt lat="38.44461832510198" lon="-0.848578486485663">
<ele>479</ele>
<time>2014-06-28T10:46:51Z</time>
</trkpt>
<trkpt lat="38.44460851937541" lon="-0.8485857030150623">
<ele>479</ele>
<time>2014-06-28T10:46:52Z</time>
</trkpt>
<trkpt lat="38.44459853674032" lon="-0.8485928565154243">
<ele>479</ele>
<time>2014-06-28T10:46:53Z</time>
</trkpt>
<trkpt lat="38.44458972377455" lon="-0.8486011240326554">
<ele>479</ele>
<time>2014-06-28T10:46:54Z</time>
</trkpt>
<trkpt lat="38.44458095115294" lon="-0.848609622926568">
<ele>479</ele>
<time>2014-06-28T10:46:55Z</time>
</trkpt>
<trkpt lat="38.4445708476767" lon="-0.8486163467525522">
<ele>479</ele>
<time>2014-06-28T10:46:56Z</time>
</trkpt>
<trkpt lat="38.444561362065095" lon="-0.8486251090002769">
<ele>479</ele>
<time>2014-06-28T10:46:57Z</time>
</trkpt>
<trkpt lat="38.44455173272458" lon="-0.848634242670929">
<ele>479</ele>
<time>2014-06-28T10:46:58Z</time>
</trkpt>
<trkpt lat="38.444542152356455" lon="-0.8486435772653824">
<ele>479</ele>
<time>2014-06-28T10:46:59Z</time>
</trkpt>
<trkpt lat="38.44453296215985" lon="-0.8486540616489537">
<ele>479</ele>
<time>2014-06-28T10:47:00Z</time>
</trkpt>
<trkpt lat="38.444523632641264" lon="-0.8486684746571015">
<ele>479</ele>
<time>2014-06-28T10:47:01Z</time>
</trkpt>
<trkpt lat="38.44451401569769" lon="-0.8486826098571709">
<ele>479</ele>
<time>2014-06-28T10:47:02Z</time>
</trkpt>
<trkpt lat="38.444504474187006" lon="-0.8486953341563318">
<ele>479</ele>
<time>2014-06-28T10:47:03Z</time>
</trkpt>
<trkpt lat="38.44449513049492" lon="-0.8487080667687104">
<ele>479</ele>
<time>2014-06-28T10:47:04Z</time>
</trkpt>
<trkpt lat="38.444485532813495" lon="-0.8487193915149407">
<ele>479</ele>
<time>2014-06-28T10:47:05Z</time>
</trkpt>
<trkpt lat="38.444476284811934" lon="-0.8487312667340955">
<ele>479</ele>
<time>2014-06-28T10:47:06Z</time>
</trkpt>
<trkpt lat="38.44446762042677" lon="-0.8487441236119326">
<ele>479</ele>
<time>2014-06-28T10:47:07Z</time>
</trkpt>
<trkpt lat="38.44445776736775" lon="-0.8487551663470946">
<ele>479</ele>
<time>2014-06-28T10:47:08Z</time>
</trkpt>
<trkpt lat="38.444452422383854" lon="-0.8487728939583802">
<ele>479</ele>
<time>2014-06-28T10:47:09Z</time>
</trkpt>
<trkpt lat="38.44444872710792" lon="-0.8487894944070531">
<ele>479</ele>
<time>2014-06-28T10:47:10Z</time>
</trkpt>
<trkpt lat="38.44444416553303" lon="-0.8488080290244113">
<ele>479</ele>
<time>2014-06-28T10:47:11Z</time>
</trkpt>
<trkpt lat="38.44444048076836" lon="-0.8488253807950676">
<ele>479</ele>
<time>2014-06-28T10:47:12Z</time>
</trkpt>
<trkpt lat="38.44443272540713" lon="-0.8488382783403563">
<ele>479</ele>
<time>2014-06-28T10:47:13Z</time>
</trkpt>
<trkpt lat="38.4444287983778" lon="-0.8488526163481998">
<ele>479</ele>
<time>2014-06-28T10:47:14Z</time>
</trkpt>
<trkpt lat="38.4444295496191" lon="-0.8488692586852242">
<ele>479</ele>
<time>2014-06-28T10:47:15Z</time>
</trkpt>
<trkpt lat="38.44443026382166" lon="-0.8488862463740591">
<ele>479</ele>
<time>2014-06-28T10:47:16Z</time>
</trkpt>
<trkpt lat="38.44443943996903" lon="-0.8489005559848044">
<ele>479</ele>
<time>2014-06-28T10:47:17Z</time>
</trkpt>
<trkpt lat="38.44444702729269" lon="-0.8489145854238394">
<ele>479</ele>
<time>2014-06-28T10:47:18Z</time>
</trkpt>
<trkpt lat="38.44444702352234" lon="-0.8489146618871949">
<ele>479</ele>
<time>2014-06-28T10:47:19Z</time>
</trkpt>
<trkpt lat="38.44444702368132" lon="-0.8489146628365666">
<ele>479</ele>
<time>2014-06-28T10:47:20Z</time>
</trkpt>
<trkpt lat="38.444447023683075" lon="-0.8489146628498561">
<ele>479</ele>
<time>2014-06-28T10:47:21Z</time>
</trkpt>
<trkpt lat="38.4444470236831" lon="-0.848914662850009">
<ele>479</ele>
<time>2014-06-28T10:47:22Z</time>
</trkpt>
<trkpt lat="38.4444470236831" lon="-0.8489146628500108">
<ele>479</ele>
<time>2014-06-28T10:47:23Z</time>
</trkpt>
<trkpt lat="38.4444470236831" lon="-0.8489146628500109">
<ele>479</ele>
<time>2014-06-28T10:47:24Z</time>
</trkpt>
<trkpt lat="38.4444470236831" lon="-0.848914662850011">
<ele>478</ele>
<time>2014-06-28T10:47:25Z</time>
</trkpt>
<trkpt lat="38.44445327213144" lon="-0.8489303174245844">
<ele>478</ele>
<time>2014-06-28T10:47:26Z</time>
</trkpt>
<trkpt lat="38.444461928246575" lon="-0.8489526842182192">
<ele>478</ele>
<time>2014-06-28T10:47:27Z</time>
</trkpt>
<trkpt lat="38.44447129379861" lon="-0.8489800970877697">
<ele>478</ele>
<time>2014-06-28T10:47:28Z</time>
</trkpt>
<trkpt lat="38.444480441906414" lon="-0.849009335719994">
<ele>478</ele>
<time>2014-06-28T10:47:29Z</time>
</trkpt>
<trkpt lat="38.44448757892278" lon="-0.8490433761055064">
<ele>478</ele>
<time>2014-06-28T10:47:30Z</time>
</trkpt>
<trkpt lat="38.44449569051033" lon="-0.8490751673840823">
<ele>478</ele>
<time>2014-06-28T10:47:31Z</time>
</trkpt>
<trkpt lat="38.44450548619047" lon="-0.849111358485636">
<ele>478</ele>
<time>2014-06-28T10:47:32Z</time>
</trkpt>
<trkpt lat="38.44451436608717" lon="-0.8491426806151802">
<ele>478</ele>
<time>2014-06-28T10:47:33Z</time>
</trkpt>
<trkpt lat="38.44452389772008" lon="-0.8491693374565296">
<ele>478</ele>
<time>2014-06-28T10:47:34Z</time>
</trkpt>
<trkpt lat="38.444532825220875" lon="-0.8491930258201265">
<ele>478</ele>
<time>2014-06-28T10:47:35Z</time>
</trkpt>
<trkpt lat="38.44454250848242" lon="-0.8492146473461413">
<ele>478</ele>
<time>2014-06-28T10:47:36Z</time>
</trkpt>
<trkpt lat="38.44455197055684" lon="-0.8492354680565019">
<ele>478</ele>
<time>2014-06-28T10:47:37Z</time>
</trkpt>
<trkpt lat="38.444560761487566" lon="-0.8492552818649087">
<ele>478</ele>
<time>2014-06-28T10:47:38Z</time>
</trkpt>
<trkpt lat="38.44457378106951" lon="-0.8492691280829336">
<ele>478</ele>
<time>2014-06-28T10:47:39Z</time>
</trkpt>
<trkpt lat="38.44458718508217" lon="-0.8492816262406513">
<ele>478</ele>
<time>2014-06-28T10:47:40Z</time>
</trkpt>
<trkpt lat="38.4446001353763" lon="-0.8492944057327582">
<ele>478</ele>
<time>2014-06-28T10:47:41Z</time>
</trkpt>
<trkpt lat="38.444609587258064" lon="-0.8493041681466879">
<ele>478</ele>
<time>2014-06-28T10:47:42Z</time>
</trkpt>
<trkpt lat="38.44461621964075" lon="-0.8493130961522174">
<ele>478</ele>
<time>2014-06-28T10:47:43Z</time>
</trkpt>
<trkpt lat="38.44462338283059" lon="-0.8493217352422152">
<ele>478</ele>
<time>2014-06-28T10:47:44Z</time>
</trkpt>
<trkpt lat="38.44463124548214" lon="-0.8493312670152761">
<ele>478</ele>
<time>2014-06-28T10:47:45Z</time>
</trkpt>
<trkpt lat="38.444638501220716" lon="-0.8493397887589008">
<ele>478</ele>
<time>2014-06-28T10:47:46Z</time>
</trkpt>
<trkpt lat="38.44464507931947" lon="-0.8493504980597651">
<ele>478</ele>
<time>2014-06-28T10:47:47Z</time>
</trkpt>
<trkpt lat="38.444653709955574" lon="-0.8493622069824065">
<ele>478</ele>
<time>2014-06-28T10:47:48Z</time>
</trkpt>
<trkpt lat="38.44466751668298" lon="-0.8493718195791963">
<ele>478</ele>
<time>2014-06-28T10:47:49Z</time>
</trkpt>
<trkpt lat="38.44468376330034" lon="-0.8493801640819695">
<ele>478</ele>
<time>2014-06-28T10:47:50Z</time>
</trkpt>
<trkpt lat="38.44469945165063" lon="-0.8493905714337108">
<ele>478</ele>
<time>2014-06-28T10:47:51Z</time>
</trkpt>
<trkpt lat="38.4447151370935" lon="-0.849401428291397">
<ele>478</ele>
<time>2014-06-28T10:47:52Z</time>
</trkpt>
<trkpt lat="38.44471149517771" lon="-0.8494191981589608">
<ele>478</ele>
<time>2014-06-28T10:47:53Z</time>
</trkpt>
<trkpt lat="38.44473258910909" lon="-0.8494191571137883">
<ele>478</ele>
<time>2014-06-28T10:47:54Z</time>
</trkpt>
<trkpt lat="38.4447561983684" lon="-0.8494142560324724">
<ele>478</ele>
<time>2014-06-28T10:47:55Z</time>
</trkpt>
<trkpt lat="38.4447740632962" lon="-0.8494117069441618">
<ele>478</ele>
<time>2014-06-28T10:47:56Z</time>
</trkpt>
<trkpt lat="38.44478938647249" lon="-0.8494119179088825">
<ele>478</ele>
<time>2014-06-28T10:47:57Z</time>
</trkpt>
<trkpt lat="38.44480355942656" lon="-0.8494152210790076">
<ele>478</ele>
<time>2014-06-28T10:47:58Z</time>
</trkpt>
<trkpt lat="38.4448182005221" lon="-0.8494190931429856">
<ele>478</ele>
<time>2014-06-28T10:47:59Z</time>
</trkpt>
<trkpt lat="38.444832525789856" lon="-0.8494214368769091">
<ele>478</ele>
<time>2014-06-28T10:48:00Z</time>
</trkpt>
<trkpt lat="38.44484737311197" lon="-0.8494315273219182">
<ele>478</ele>
<time>2014-06-28T10:48:01Z</time>
</trkpt>
<trkpt lat="38.44486165950227" lon="-0.8494538396787364">
<ele>478</ele>
<time>2014-06-28T10:48:02Z</time>
</trkpt>
<trkpt lat="38.44487570702993" lon="-0.8494719858686751">
<ele>478</ele>
<time>2014-06-28T10:48:03Z</time>
</trkpt>
<trkpt lat="38.44488199387041" lon="-0.8494868155541625">
<ele>478</ele>
<time>2014-06-28T10:48:04Z</time>
</trkpt>
<trkpt lat="38.444885993605276" lon="-0.8495096459731227">
<ele>478</ele>
<time>2014-06-28T10:48:05Z</time>
</trkpt>
<trkpt lat="38.44489296400506" lon="-0.8495300853264999">
<ele>478</ele>
<time>2014-06-28T10:48:06Z</time>
</trkpt>
<trkpt lat="38.444900768825875" lon="-0.8495521145679334">
<ele>478</ele>
<time>2014-06-28T10:48:07Z</time>
</trkpt>
<trkpt lat="38.444909124003956" lon="-0.8495723423006717">
<ele>478</ele>
<time>2014-06-28T10:48:08Z</time>
</trkpt>
<trkpt lat="38.44491708011614" lon="-0.8495915041744183">
<ele>478</ele>
<time>2014-06-28T10:48:09Z</time>
</trkpt>
<trkpt lat="38.44492552175926" lon="-0.8496049344060292">
<ele>478</ele>
<time>2014-06-28T10:48:10Z</time>
</trkpt>
<trkpt lat="38.44493390320864" lon="-0.8496151596282386">
<ele>478</ele>
<time>2014-06-28T10:48:11Z</time>
</trkpt>
<trkpt lat="38.44494066076886" lon="-0.8496335878352278">
<ele>478</ele>
<time>2014-06-28T10:48:12Z</time>
</trkpt>
<trkpt lat="38.44495042387398" lon="-0.8496474118131275">
<ele>478</ele>
<time>2014-06-28T10:48:13Z</time>
</trkpt>
<trkpt lat="38.44496144540212" lon="-0.8496552873735769">
<ele>478</ele>
<time>2014-06-28T10:48:14Z</time>
</trkpt>
<trkpt lat="38.44497478732228" lon="-0.8496598781712685">
<ele>478</ele>
<time>2014-06-28T10:48:15Z</time>
</trkpt>
<trkpt lat="38.44498858920467" lon="-0.8496657206679532">
<ele>478</ele>
<time>2014-06-28T10:48:16Z</time>
</trkpt>
<trkpt lat="38.445002517404845" lon="-0.8496683565928033">
<ele>478</ele>
<time>2014-06-28T10:48:17Z</time>
</trkpt>
<trkpt lat="38.44501449056353" lon="-0.8496773568948276">
<ele>478</ele>
<time>2014-06-28T10:48:18Z</time>
</trkpt>
<trkpt lat="38.44502467976039" lon="-0.849685566493041">
<ele>478</ele>
<time>2014-06-28T10:48:19Z</time>
</trkpt>
<trkpt lat="38.445036377751975" lon="-0.849692165074882">
<ele>478</ele>
<time>2014-06-28T10:48:20Z</time>
</trkpt>
<trkpt lat="38.44505054412034" lon="-0.8496943585492431">
<ele>478</ele>
<time>2014-06-28T10:48:21Z</time>
</trkpt>
<trkpt lat="38.44507026412438" lon="-0.8496955919690714">
<ele>478</ele>
<time>2014-06-28T10:48:22Z</time>
</trkpt>
<trkpt lat="38.44508816332889" lon="-0.8496956198027187">
<ele>478</ele>
<time>2014-06-28T10:48:23Z</time>
</trkpt>
<trkpt lat="38.44510308557784" lon="-0.8496979507984277">
<ele>478</ele>
<time>2014-06-28T10:48:24Z</time>
</trkpt>
<trkpt lat="38.44511774390541" lon="-0.849701194694229">
<ele>478</ele>
<time>2014-06-28T10:48:25Z</time>
</trkpt>
<trkpt lat="38.44513331384048" lon="-0.8497009953785309">
<ele>478</ele>
<time>2014-06-28T10:48:26Z</time>
</trkpt>
<trkpt lat="38.44515080835284" lon="-0.849702654275497">
<ele>478</ele>
<time>2014-06-28T10:48:27Z</time>
</trkpt>
<trkpt lat="38.445165505848884" lon="-0.8497054929012682">
<ele>478</ele>
<time>2014-06-28T10:48:28Z</time>
</trkpt>
<trkpt lat="38.44518360741328" lon="-0.8497063164336517">
<ele>478</ele>
<time>2014-06-28T10:48:29Z</time>
</trkpt>
<trkpt lat="38.445199348754684" lon="-0.8497059752814714">
<ele>478</ele>
<time>2014-06-28T10:48:30Z</time>
</trkpt>
<trkpt lat="38.44521720655573" lon="-0.8497077843202495">
<ele>477</ele>
<time>2014-06-28T10:48:31Z</time>
</trkpt>
<trkpt lat="38.44523485845798" lon="-0.849714639245519">
<ele>477</ele>
<time>2014-06-28T10:48:32Z</time>
</trkpt>
<trkpt lat="38.44525013986554" lon="-0.8497210428874572">
<ele>477</ele>
<time>2014-06-28T10:48:33Z</time>
</trkpt>
<trkpt lat="38.44526301694968" lon="-0.8497316325648322">
<ele>477</ele>
<time>2014-06-28T10:48:34Z</time>
</trkpt>
<trkpt lat="38.44527480864319" lon="-0.8497465133862431">
<ele>477</ele>
<time>2014-06-28T10:48:35Z</time>
</trkpt>
<trkpt lat="38.44528503614084" lon="-0.8497602729620964">
<ele>477</ele>
<time>2014-06-28T10:48:36Z</time>
</trkpt>
<trkpt lat="38.44529355661713" lon="-0.8497731896578726">
<ele>477</ele>
<time>2014-06-28T10:48:37Z</time>
</trkpt>
<trkpt lat="38.44530186400449" lon="-0.8497847479319753">
<ele>477</ele>
<time>2014-06-28T10:48:38Z</time>
</trkpt>
<trkpt lat="38.445305933983654" lon="-0.8497989373389251">
<ele>477</ele>
<time>2014-06-28T10:48:39Z</time>
</trkpt>
<trkpt lat="38.44530934071615" lon="-0.8498086719757357">
<ele>477</ele>
<time>2014-06-28T10:48:40Z</time>
</trkpt>
<trkpt lat="38.445313072938546" lon="-0.8498199569889497">
<ele>477</ele>
<time>2014-06-28T10:48:41Z</time>
</trkpt>
<trkpt lat="38.44531669404078" lon="-0.8498312269300455">
<ele>477</ele>
<time>2014-06-28T10:48:42Z</time>
</trkpt>
<trkpt lat="38.44532002811221" lon="-0.8498418632994864">
<ele>477</ele>
<time>2014-06-28T10:48:43Z</time>
</trkpt>
<trkpt lat="38.44532474541774" lon="-0.8498548463055423">
<ele>477</ele>
<time>2014-06-28T10:48:44Z</time>
</trkpt>
<trkpt lat="38.44532912510768" lon="-0.8498674898372872">
<ele>477</ele>
<time>2014-06-28T10:48:45Z</time>
</trkpt>
<trkpt lat="38.44533371963837" lon="-0.8498858022246489">
<ele>477</ele>
<time>2014-06-28T10:48:46Z</time>
</trkpt>
<trkpt lat="38.44533713256377" lon="-0.8499040486225359">
<ele>477</ele>
<time>2014-06-28T10:48:47Z</time>
</trkpt>
<trkpt lat="38.44533882582449" lon="-0.8499231312806904">
<ele>477</ele>
<time>2014-06-28T10:48:48Z</time>
</trkpt>
<trkpt lat="38.44534153030873" lon="-0.8499398035379144">
<ele>477</ele>
<time>2014-06-28T10:48:49Z</time>
</trkpt>
<trkpt lat="38.44534493329691" lon="-0.84995665891549">
<ele>477</ele>
<time>2014-06-28T10:48:50Z</time>
</trkpt>
<trkpt lat="38.445348885713386" lon="-0.8499740193470219">
<ele>477</ele>
<time>2014-06-28T10:48:51Z</time>
</trkpt>
<trkpt lat="38.44535324808279" lon="-0.8499903714627297">
<ele>477</ele>
<time>2014-06-28T10:48:52Z</time>
</trkpt>
<trkpt lat="38.44535864893207" lon="-0.850003838200846">
<ele>477</ele>
<time>2014-06-28T10:48:53Z</time>
</trkpt>
<trkpt lat="38.44536372449812" lon="-0.8500189666531353">
<ele>477</ele>
<time>2014-06-28T10:48:54Z</time>
</trkpt>
<trkpt lat="38.44537179457664" lon="-0.8500333799585432">
<ele>477</ele>
<time>2014-06-28T10:48:55Z</time>
</trkpt>
<trkpt lat="38.44538070120804" lon="-0.8500469041482994">
<ele>477</ele>
<time>2014-06-28T10:48:56Z</time>
</trkpt>
<trkpt lat="38.44538909089629" lon="-0.8500607392311024">
<ele>477</ele>
<time>2014-06-28T10:48:57Z</time>
</trkpt>
<trkpt lat="38.44539665415365" lon="-0.8500742320801906">
<ele>477</ele>
<time>2014-06-28T10:48:58Z</time>
</trkpt>
<trkpt lat="38.44540422026493" lon="-0.8500875106452578">
<ele>477</ele>
<time>2014-06-28T10:48:59Z</time>
</trkpt>
<trkpt lat="38.445410524033036" lon="-0.8501034362288282">
<ele>477</ele>
<time>2014-06-28T10:49:00Z</time>
</trkpt>
<trkpt lat="38.445415728945974" lon="-0.850119789267082">
<ele>477</ele>
<time>2014-06-28T10:49:01Z</time>
</trkpt>
<trkpt lat="38.445423309688294" lon="-0.8501366750332873">
<ele>477</ele>
<time>2014-06-28T10:49:02Z</time>
</trkpt>
<trkpt lat="38.44543075636302" lon="-0.8501535575351681">
<ele>477</ele>
<time>2014-06-28T10:49:03Z</time>
</trkpt>
<trkpt lat="38.44543901670156" lon="-0.8501695696556498">
<ele>477</ele>
<time>2014-06-28T10:49:04Z</time>
</trkpt>
<trkpt lat="38.4454472402319" lon="-0.8501862267229874">
<ele>477</ele>
<time>2014-06-28T10:49:05Z</time>
</trkpt>
<trkpt lat="38.44545500304555" lon="-0.8502046779062042">
<ele>477</ele>
<time>2014-06-28T10:49:06Z</time>
</trkpt>
<trkpt lat="38.44546506705571" lon="-0.8502202644455645">
<ele>477</ele>
<time>2014-06-28T10:49:07Z</time>
</trkpt>
<trkpt lat="38.445478493973695" lon="-0.850234654958608">
<ele>477</ele>
<time>2014-06-28T10:49:08Z</time>
</trkpt>
<trkpt lat="38.44549012158521" lon="-0.85025135146619">
<ele>477</ele>
<time>2014-06-28T10:49:09Z</time>
</trkpt>
<trkpt lat="38.445501484141325" lon="-0.850267820525385">
<ele>477</ele>
<time>2014-06-28T10:49:10Z</time>
</trkpt>
<trkpt lat="38.44551178406016" lon="-0.8502846803698095">
<ele>477</ele>
<time>2014-06-28T10:49:11Z</time>
</trkpt>
<trkpt lat="38.44552219642607" lon="-0.8503016009091318">
<ele>477</ele>
<time>2014-06-28T10:49:12Z</time>
</trkpt>
<trkpt lat="38.44553304086743" lon="-0.850320173914477">
<ele>477</ele>
<time>2014-06-28T10:49:13Z</time>
</trkpt>
<trkpt lat="38.44554360140795" lon="-0.8503384334475313">
<ele>477</ele>
<time>2014-06-28T10:49:14Z</time>
</trkpt>
<trkpt lat="38.445555645113046" lon="-0.8503525081344026">
<ele>477</ele>
<time>2014-06-28T10:49:15Z</time>
</trkpt>
<trkpt lat="38.44556668862982" lon="-0.850367055663324">
<ele>477</ele>
<time>2014-06-28T10:49:16Z</time>
</trkpt>
<trkpt lat="38.44557521884376" lon="-0.8503859124905364">
<ele>477</ele>
<time>2014-06-28T10:49:17Z</time>
</trkpt>
<trkpt lat="38.44558451361107" lon="-0.8504034684594168">
<ele>477</ele>
<time>2014-06-28T10:49:18Z</time>
</trkpt>
<trkpt lat="38.445594498725065" lon="-0.8504208003475022">
<ele>477</ele>
<time>2014-06-28T10:49:19Z</time>
</trkpt>
<trkpt lat="38.445600706682875" lon="-0.8504379155177363">
<ele>477</ele>
<time>2014-06-28T10:49:20Z</time>
</trkpt>
<trkpt lat="38.445610107712845" lon="-0.8504498721995292">
<ele>477</ele>
<time>2014-06-28T10:49:21Z</time>
</trkpt>
<trkpt lat="38.44562058305906" lon="-0.8504595546422333">
<ele>477</ele>
<time>2014-06-28T10:49:22Z</time>
</trkpt>
<trkpt lat="38.445630654073426" lon="-0.8504705675534091">
<ele>477</ele>
<time>2014-06-28T10:49:23Z</time>
</trkpt>
<trkpt lat="38.445640443870424" lon="-0.8504819437558477">
<ele>477</ele>
<time>2014-06-28T10:49:24Z</time>
</trkpt>
<trkpt lat="38.44565006901903" lon="-0.8504950349031172">
<ele>477</ele>
<time>2014-06-28T10:49:25Z</time>
</trkpt>
<trkpt lat="38.44566057024935" lon="-0.8505070995008711">
<ele>477</ele>
<time>2014-06-28T10:49:26Z</time>
</trkpt>
<trkpt lat="38.445671172761585" lon="-0.8505212728868733">
<ele>477</ele>
<time>2014-06-28T10:49:27Z</time>
</trkpt>
<trkpt lat="38.44568184836957" lon="-0.850535706293652">
<ele>477</ele>
<time>2014-06-28T10:49:28Z</time>
</trkpt>
<trkpt lat="38.44568978152655" lon="-0.8505518557957309">
<ele>477</ele>
<time>2014-06-28T10:49:29Z</time>
</trkpt>
<trkpt lat="38.4456933015788" lon="-0.8505691721906301">
<ele>477</ele>
<time>2014-06-28T10:49:30Z</time>
</trkpt>
<trkpt lat="38.44570087725093" lon="-0.8505803638219837">
<ele>477</ele>
<time>2014-06-28T10:49:31Z</time>
</trkpt>
<trkpt lat="38.44570788456914" lon="-0.8505927892184273">
<ele>477</ele>
<time>2014-06-28T10:49:32Z</time>
</trkpt>
<trkpt lat="38.44571489843474" lon="-0.850604140248668">
<ele>477</ele>
<time>2014-06-28T10:49:33Z</time>
</trkpt>
<trkpt lat="38.445718896874865" lon="-0.8506164009772801">
<ele>477</ele>
<time>2014-06-28T10:49:34Z</time>
</trkpt>
<trkpt lat="38.44572317843101" lon="-0.8506117531751713">
<ele>477</ele>
<time>2014-06-28T10:49:35Z</time>
</trkpt>
<trkpt lat="38.44573600309093" lon="-0.8506083515552895">
<ele>477</ele>
<time>2014-06-28T10:49:36Z</time>
</trkpt>
<trkpt lat="38.44574832095633" lon="-0.8506110886508366">
<ele>477</ele>
<time>2014-06-28T10:49:37Z</time>
</trkpt>
<trkpt lat="38.44575388808308" lon="-0.8506227635662059">
<ele>477</ele>
<time>2014-06-28T10:49:38Z</time>
</trkpt>
<trkpt lat="38.44575920719954" lon="-0.8506347265469351">
<ele>477</ele>
<time>2014-06-28T10:49:39Z</time>
</trkpt>
<trkpt lat="38.44576444296554" lon="-0.8506459205123734">
<ele>477</ele>
<time>2014-06-28T10:49:40Z</time>
</trkpt>
<trkpt lat="38.44577015257088" lon="-0.8506564013680568">
<ele>477</ele>
<time>2014-06-28T10:49:41Z</time>
</trkpt>
<trkpt lat="38.44577495887691" lon="-0.8506703856795004">
<ele>477</ele>
<time>2014-06-28T10:49:42Z</time>
</trkpt>
<trkpt lat="38.44578141447444" lon="-0.8506855105420102">
<ele>477</ele>
<time>2014-06-28T10:49:43Z</time>
</trkpt>
<trkpt lat="38.445787647392805" lon="-0.8507009601670393">
<ele>477</ele>
<time>2014-06-28T10:49:44Z</time>
</trkpt>
<trkpt lat="38.44579345697277" lon="-0.8507174033705031">
<ele>477</ele>
<time>2014-06-28T10:49:45Z</time>
</trkpt>
<trkpt lat="38.445796457521126" lon="-0.8507353659245989">
<ele>477</ele>
<time>2014-06-28T10:49:46Z</time>
</trkpt>
<trkpt lat="38.44579775056337" lon="-0.8507533453628108">
<ele>477</ele>
<time>2014-06-28T10:49:47Z</time>
</trkpt>
<trkpt lat="38.44579982728699" lon="-0.8507712581888591">
<ele>477</ele>
<time>2014-06-28T10:49:48Z</time>
</trkpt>
<trkpt lat="38.44579950102674" lon="-0.8507895614131293">
<ele>477</ele>
<time>2014-06-28T10:49:49Z</time>
</trkpt>
<trkpt lat="38.44580125565744" lon="-0.8508072646812992">
<ele>478</ele>
<time>2014-06-28T10:49:50Z</time>
</trkpt>
<trkpt lat="38.44580206568775" lon="-0.8508248298976491">
<ele>478</ele>
<time>2014-06-28T10:49:51Z</time>
</trkpt>
<trkpt lat="38.44580382527339" lon="-0.8508413338683992">
<ele>478</ele>
<time>2014-06-28T10:49:52Z</time>
</trkpt>
<trkpt lat="38.445804815311924" lon="-0.850856583104388">
<ele>478</ele>
<time>2014-06-28T10:49:53Z</time>
</trkpt>
<trkpt lat="38.44580436431427" lon="-0.8508715397803698">
<ele>478</ele>
<time>2014-06-28T10:49:54Z</time>
</trkpt>
<trkpt lat="38.44580527636964" lon="-0.8508865836515286">
<ele>478</ele>
<time>2014-06-28T10:49:55Z</time>
</trkpt>
<trkpt lat="38.44580323480739" lon="-0.8509007013753983">
<ele>478</ele>
<time>2014-06-28T10:49:56Z</time>
</trkpt>
<trkpt lat="38.44580085886088" lon="-0.850913939710931">
<ele>478</ele>
<time>2014-06-28T10:49:57Z</time>
</trkpt>
<trkpt lat="38.445796855308046" lon="-0.8509257635008933">
<ele>478</ele>
<time>2014-06-28T10:49:58Z</time>
</trkpt>
<trkpt lat="38.44579304733456" lon="-0.8509375556280379">
<ele>478</ele>
<time>2014-06-28T10:49:59Z</time>
</trkpt>
<trkpt lat="38.44579153829812" lon="-0.8509471034447416">
<ele>478</ele>
<time>2014-06-28T10:50:00Z</time>
</trkpt>
<trkpt lat="38.44578862576276" lon="-0.8509584930808285">
<ele>478</ele>
<time>2014-06-28T10:50:01Z</time>
</trkpt>
<trkpt lat="38.44578618938626" lon="-0.85097088310498">
<ele>478</ele>
<time>2014-06-28T10:50:02Z</time>
</trkpt>
<trkpt lat="38.445783917885855" lon="-0.8509875785133981">
<ele>478</ele>
<time>2014-06-28T10:50:03Z</time>
</trkpt>
<trkpt lat="38.44577885929993" lon="-0.8510042667630241">
<ele>478</ele>
<time>2014-06-28T10:50:04Z</time>
</trkpt>
<trkpt lat="38.4457744430207" lon="-0.8510209644739888">
<ele>478</ele>
<time>2014-06-28T10:50:05Z</time>
</trkpt>
<trkpt lat="38.4457710675005" lon="-0.8510385779685381">
<ele>478</ele>
<time>2014-06-28T10:50:06Z</time>
</trkpt>
<trkpt lat="38.44576944522125" lon="-0.8510563886092117">
<ele>478</ele>
<time>2014-06-28T10:50:07Z</time>
</trkpt>
<trkpt lat="38.44576936363417" lon="-0.8510726753058366">
<ele>478</ele>
<time>2014-06-28T10:50:08Z</time>
</trkpt>
<trkpt lat="38.44576789003909" lon="-0.8510886562926081">
<ele>478</ele>
<time>2014-06-28T10:50:09Z</time>
</trkpt>
<trkpt lat="38.44576451618229" lon="-0.8511015655521402">
<ele>478</ele>
<time>2014-06-28T10:50:10Z</time>
</trkpt>
<trkpt lat="38.445762076077735" lon="-0.8511124236032066">
<ele>478</ele>
<time>2014-06-28T10:50:11Z</time>
</trkpt>
<trkpt lat="38.44575912848948" lon="-0.8511220179534273">
<ele>478</ele>
<time>2014-06-28T10:50:12Z</time>
</trkpt>
<trkpt lat="38.44575770632628" lon="-0.8511355903421377">
<ele>478</ele>
<time>2014-06-28T10:50:13Z</time>
</trkpt>
<trkpt lat="38.4457551620023" lon="-0.8511477684064571">
<ele>478</ele>
<time>2014-06-28T10:50:14Z</time>
</trkpt>
<trkpt lat="38.445751899853384" lon="-0.8511583873563563">
<ele>478</ele>
<time>2014-06-28T10:50:15Z</time>
</trkpt>
<trkpt lat="38.44575009234293" lon="-0.8511693394349896">
<ele>478</ele>
<time>2014-06-28T10:50:16Z</time>
</trkpt>
<trkpt lat="38.4457491963348" lon="-0.8511801539733916">
<ele>478</ele>
<time>2014-06-28T10:50:17Z</time>
</trkpt>
<trkpt lat="38.4457487188605" lon="-0.8511859159194949">
<ele>478</ele>
<time>2014-06-28T10:50:18Z</time>
</trkpt>
<trkpt lat="38.44574871681529" lon="-0.8511859116965121">
<ele>478</ele>
<time>2014-06-28T10:50:19Z</time>
</trkpt>
<trkpt lat="38.44574871673865" lon="-0.8511859116951943">
<ele>478</ele>
<time>2014-06-28T10:50:20Z</time>
</trkpt>
<trkpt lat="38.44574871673672" lon="-0.8511859116949879">
<ele>478</ele>
<time>2014-06-28T10:50:21Z</time>
</trkpt>
<trkpt lat="38.445748716736716" lon="-0.8511859116949813">
<ele>478</ele>
<time>2014-06-28T10:50:22Z</time>
</trkpt>
<trkpt lat="" lon="">
<ele></ele>
<time>2014-06-28TZ</time>
</trkpt>
</trkseg>
</trk>
<wpt lat="38.452849" lon="-0.860924">
	<name>wpt10:15:42</name>
	<desc></desc>
	<cmt></cmt>
	<photoid>0</photoid>
	<type>0</type>
</wpt>
<wpt lat="
38.452849" lon="-0.860924">
	<name>wpt10:15:55</name>
	<desc>embalse</desc>
	<cmt>la pedrera</cmt>
	<photoid>0</photoid>
	<type>2</type>
</wpt>
<wpt lat="
" lon="">
	<name></name>
	<desc></desc>
	<cmt></cmt>
	<photoid></photoid>
	<type></type>
</wpt>
</gpx>
